<?xml version='1.0' encoding='UTF-8'?><gpx version="1.1" creator="JPX - https://github.com/jenetics/jpx" xmlns="http://www.topografix.com/GPX/1/1"><trk><trkseg><trkpt lat="45.6099936" lon="9.4271775"><ele>200.33333333333334</ele><time>2026-03-22T13:55:08.089Z</time></trkpt><trkpt lat="45.6100155" lon="9.4270723"><ele>200.66666666666669</ele><time>2026-03-22T13:55:51.089Z</time></trkpt><trkpt lat="45.6100153" lon="9.4269392"><ele>201.0</ele><time>2026-03-22T13:55:54.089Z</time></trkpt><trkpt lat="45.6100192" lon="9.4268315"><ele>201.33333333333331</ele><time>2026-03-22T13:55:56.089Z</time></trkpt><trkpt lat="45.6099961" lon="9.4267414"><ele>201.66666666666666</ele><time>2026-03-22T13:55:58.089Z</time></trkpt><trkpt lat="45.6099271" lon="9.4266943"><ele>202.0</ele><time>2026-03-22T13:56:00.089Z</time></trkpt><trkpt lat="45.6098453" lon="9.426667"><ele>201.99999999999997</ele><time>2026-03-22T13:56:02.089Z</time></trkpt><trkpt lat="45.6097695" lon="9.4266301"><ele>202.0</ele><time>2026-03-22T13:56:04.089Z</time></trkpt><trkpt lat="45.6097565" lon="9.4265039"><ele>202.0</ele><time>2026-03-22T13:56:07.089Z</time></trkpt><trkpt lat="45.6097623" lon="9.426406"><ele>202.0</ele><time>2026-03-22T13:56:09.089Z</time></trkpt><trkpt lat="45.6097584" lon="9.4262844"><ele>201.99999999999997</ele><time>2026-03-22T13:56:11.089Z</time></trkpt><trkpt lat="45.6097361" lon="9.4261763"><ele>202.0</ele><time>2026-03-22T13:56:13.089Z</time></trkpt><trkpt lat="45.6096909" lon="9.4260951"><ele>201.99999999999997</ele><time>2026-03-22T13:56:16.089Z</time></trkpt><trkpt lat="45.6096112" lon="9.4260709"><ele>202.0</ele><time>2026-03-22T13:56:26.089Z</time></trkpt><trkpt lat="45.6095226" lon="9.4260616"><ele>202.0</ele><time>2026-03-22T13:56:28.089Z</time></trkpt><trkpt lat="45.6094302" lon="9.4260534"><ele>202.0</ele><time>2026-03-22T13:56:30.089Z</time></trkpt><trkpt lat="45.6093416" lon="9.4260548"><ele>201.99999999999997</ele><time>2026-03-22T13:56:32.089Z</time></trkpt><trkpt lat="45.6092472" lon="9.4260657"><ele>202.0</ele><time>2026-03-22T13:56:34.089Z</time></trkpt><trkpt lat="45.6091485" lon="9.4260536"><ele>201.39999999999998</ele><time>2026-03-22T13:56:36.089Z</time></trkpt><trkpt lat="45.6090477" lon="9.4260494"><ele>200.79999999999998</ele><time>2026-03-22T13:56:38.089Z</time></trkpt><trkpt lat="45.6089535" lon="9.4260473"><ele>200.2</ele><time>2026-03-22T13:56:40.089Z</time></trkpt><trkpt lat="45.6088511" lon="9.4260449"><ele>199.6</ele><time>2026-03-22T13:56:42.089Z</time></trkpt><trkpt lat="45.6087548" lon="9.426042"><ele>199.0</ele><time>2026-03-22T13:56:44.089Z</time></trkpt><trkpt lat="45.6086513" lon="9.4260392"><ele>198.39999999999998</ele><time>2026-03-22T13:56:46.089Z</time></trkpt><trkpt lat="45.6085498" lon="9.4260322"><ele>197.8</ele><time>2026-03-22T13:56:48.089Z</time></trkpt><trkpt lat="45.6084505" lon="9.4260332"><ele>197.2</ele><time>2026-03-22T13:56:50.089Z</time></trkpt><trkpt lat="45.6083466" lon="9.4260305"><ele>196.60000000000002</ele><time>2026-03-22T13:56:52.089Z</time></trkpt><trkpt lat="45.6082412" lon="9.4260206"><ele>196.0</ele><time>2026-03-22T13:56:54.089Z</time></trkpt><trkpt lat="45.6081342" lon="9.4259984"><ele>196.0</ele><time>2026-03-22T13:56:56.089Z</time></trkpt><trkpt lat="45.6080321" lon="9.4259934"><ele>196.0</ele><time>2026-03-22T13:56:58.089Z</time></trkpt><trkpt lat="45.6079143" lon="9.4259913"><ele>196.0</ele><time>2026-03-22T13:57:00.088Z</time></trkpt><trkpt lat="45.6078044" lon="9.4259919"><ele>196.0</ele><time>2026-03-22T13:57:02.088Z</time></trkpt><trkpt lat="45.6077021" lon="9.4259971"><ele>196.0</ele><time>2026-03-22T13:57:04.089Z</time></trkpt><trkpt lat="45.6076022" lon="9.4259912"><ele>195.83333333333331</ele><time>2026-03-22T13:57:06.089Z</time></trkpt><trkpt lat="45.6075093" lon="9.4259908"><ele>195.66666666666666</ele><time>2026-03-22T13:57:08.089Z</time></trkpt><trkpt lat="45.6074492" lon="9.4260577"><ele>195.5</ele><time>2026-03-22T13:57:10.088Z</time></trkpt><trkpt lat="45.6074169" lon="9.4261707"><ele>195.33333333333331</ele><time>2026-03-22T13:57:12.089Z</time></trkpt><trkpt lat="45.6074154" lon="9.4262974"><ele>195.16666666666666</ele><time>2026-03-22T13:57:14.089Z</time></trkpt><trkpt lat="45.6074149" lon="9.4264363"><ele>195.0</ele><time>2026-03-22T13:57:16.088Z</time></trkpt><trkpt lat="45.6074106" lon="9.4265827"><ele>195.0</ele><time>2026-03-22T13:57:18.089Z</time></trkpt><trkpt lat="45.6074123" lon="9.4267292"><ele>195.0</ele><time>2026-03-22T13:57:20.089Z</time></trkpt><trkpt lat="45.607412" lon="9.4268789"><ele>195.0</ele><time>2026-03-22T13:57:22.089Z</time></trkpt><trkpt lat="45.6074134" lon="9.4270336"><ele>195.0</ele><time>2026-03-22T13:57:24.089Z</time></trkpt><trkpt lat="45.60741" lon="9.427185"><ele>195.0</ele><time>2026-03-22T13:57:26.089Z</time></trkpt><trkpt lat="45.6073985" lon="9.4273349"><ele>195.0</ele><time>2026-03-22T13:57:28.089Z</time></trkpt><trkpt lat="45.6073762" lon="9.4274757"><ele>195.0</ele><time>2026-03-22T13:57:30.089Z</time></trkpt><trkpt lat="45.6073537" lon="9.427627"><ele>195.0</ele><time>2026-03-22T13:57:32.089Z</time></trkpt><trkpt lat="45.6073512" lon="9.427781"><ele>195.0</ele><time>2026-03-22T13:57:34.089Z</time></trkpt><trkpt lat="45.6073453" lon="9.4279432"><ele>195.0</ele><time>2026-03-22T13:57:36.089Z</time></trkpt><trkpt lat="45.60734" lon="9.4281122"><ele>195.0</ele><time>2026-03-22T13:57:38.089Z</time></trkpt><trkpt lat="45.6073484" lon="9.4282547"><ele>195.0</ele><time>2026-03-22T13:57:40.089Z</time></trkpt><trkpt lat="45.6073365" lon="9.4284104"><ele>195.0</ele><time>2026-03-22T13:57:42.089Z</time></trkpt><trkpt lat="45.607324" lon="9.428567"><ele>195.0</ele><time>2026-03-22T13:57:44.089Z</time></trkpt><trkpt lat="45.6073191" lon="9.4287212"><ele>195.0</ele><time>2026-03-22T13:57:46.089Z</time></trkpt><trkpt lat="45.6073147" lon="9.4288788"><ele>195.0</ele><time>2026-03-22T13:57:48.088Z</time></trkpt><trkpt lat="45.6073093" lon="9.4290445"><ele>195.0</ele><time>2026-03-22T13:57:50.089Z</time></trkpt><trkpt lat="45.6073053" lon="9.4291963"><ele>195.0</ele><time>2026-03-22T13:57:52.089Z</time></trkpt><trkpt lat="45.6073123" lon="9.4293442"><ele>195.0</ele><time>2026-03-22T13:57:54.089Z</time></trkpt><trkpt lat="45.6073201" lon="9.4295023"><ele>195.0</ele><time>2026-03-22T13:57:56.089Z</time></trkpt><trkpt lat="45.6073221" lon="9.4296605"><ele>195.2</ele><time>2026-03-22T13:57:58.089Z</time></trkpt><trkpt lat="45.6073043" lon="9.4298087"><ele>195.4</ele><time>2026-03-22T13:58:00.089Z</time></trkpt><trkpt lat="45.6072777" lon="9.4299589"><ele>195.60000000000002</ele><time>2026-03-22T13:58:02.089Z</time></trkpt><trkpt lat="45.6072133" lon="9.4301076"><ele>195.8</ele><time>2026-03-22T13:58:04.089Z</time></trkpt><trkpt lat="45.607143" lon="9.4301999"><ele>196.0</ele><time>2026-03-22T13:58:06.089Z</time></trkpt><trkpt lat="45.6070693" lon="9.4303297"><ele>196.0</ele><time>2026-03-22T13:58:08.089Z</time></trkpt><trkpt lat="45.6070538" lon="9.4304181"><ele>196.0</ele><time>2026-03-22T13:58:09.089Z</time></trkpt><trkpt lat="45.6070466" lon="9.4305953"><ele>196.0</ele><time>2026-03-22T13:58:11.088Z</time></trkpt><trkpt lat="45.6070198" lon="9.430765"><ele>196.0</ele><time>2026-03-22T13:58:13.089Z</time></trkpt><trkpt lat="45.6069903" lon="9.4309306"><ele>196.0</ele><time>2026-03-22T13:58:15.089Z</time></trkpt><trkpt lat="45.6069616" lon="9.4310819"><ele>196.20000000000002</ele><time>2026-03-22T13:58:17.089Z</time></trkpt><trkpt lat="45.6070075" lon="9.4311793"><ele>196.4</ele><time>2026-03-22T13:58:19.089Z</time></trkpt><trkpt lat="45.6070849" lon="9.4312467"><ele>196.6</ele><time>2026-03-22T13:58:21.088Z</time></trkpt><trkpt lat="45.607172" lon="9.4313033"><ele>196.8</ele><time>2026-03-22T13:58:23.089Z</time></trkpt><trkpt lat="45.6072646" lon="9.4313383"><ele>197.0</ele><time>2026-03-22T13:58:25.089Z</time></trkpt><trkpt lat="45.6073367" lon="9.4314387"><ele>197.0</ele><time>2026-03-22T13:58:27.088Z</time></trkpt><trkpt lat="45.6073508" lon="9.4315812"><ele>197.0</ele><time>2026-03-22T13:58:29.089Z</time></trkpt><trkpt lat="45.6073563" lon="9.4317195"><ele>197.0</ele><time>2026-03-22T13:58:31.088Z</time></trkpt><trkpt lat="45.6074058" lon="9.4318485"><ele>197.0</ele><time>2026-03-22T13:58:33.089Z</time></trkpt><trkpt lat="45.6074979" lon="9.4318983"><ele>197.0</ele><time>2026-03-22T13:58:35.089Z</time></trkpt><trkpt lat="45.6076049" lon="9.4319401"><ele>197.0</ele><time>2026-03-22T13:58:37.089Z</time></trkpt><trkpt lat="45.6077152" lon="9.4319812"><ele>197.0</ele><time>2026-03-22T13:58:39.089Z</time></trkpt><trkpt lat="45.6078316" lon="9.4320257"><ele>197.0</ele><time>2026-03-22T13:58:41.089Z</time></trkpt><trkpt lat="45.6079336" lon="9.4320481"><ele>197.0</ele><time>2026-03-22T13:58:43.089Z</time></trkpt><trkpt lat="45.608042" lon="9.432042"><ele>197.0</ele><time>2026-03-22T13:58:45.088Z</time></trkpt><trkpt lat="45.6081522" lon="9.4320025"><ele>197.2</ele><time>2026-03-22T13:58:47.089Z</time></trkpt><trkpt lat="45.6082534" lon="9.431935"><ele>197.39999999999998</ele><time>2026-03-22T13:58:49.089Z</time></trkpt><trkpt lat="45.6083676" lon="9.4318893"><ele>197.60000000000002</ele><time>2026-03-22T13:58:51.089Z</time></trkpt><trkpt lat="45.6084333" lon="9.4318624"><ele>197.8</ele><time>2026-03-22T13:58:52.089Z</time></trkpt><trkpt lat="45.6084984" lon="9.4318687"><ele>198.0</ele><time>2026-03-22T13:58:53.089Z</time></trkpt><trkpt lat="45.6086089" lon="9.4318737"><ele>197.4</ele><time>2026-03-22T13:58:55.089Z</time></trkpt><trkpt lat="45.6087158" lon="9.4318942"><ele>196.8</ele><time>2026-03-22T13:58:57.088Z</time></trkpt><trkpt lat="45.6088074" lon="9.4319229"><ele>196.2</ele><time>2026-03-22T13:58:59.089Z</time></trkpt><trkpt lat="45.6088672" lon="9.431953"><ele>195.6</ele><time>2026-03-22T13:59:00.089Z</time></trkpt><trkpt lat="45.6089688" lon="9.4320093"><ele>195.0</ele><time>2026-03-22T13:59:02.089Z</time></trkpt><trkpt lat="45.6090707" lon="9.4320587"><ele>195.0</ele><time>2026-03-22T13:59:04.089Z</time></trkpt><trkpt lat="45.6091789" lon="9.4321095"><ele>195.0</ele><time>2026-03-22T13:59:06.089Z</time></trkpt><trkpt lat="45.6092906" lon="9.4321619"><ele>195.0</ele><time>2026-03-22T13:59:08.089Z</time></trkpt><trkpt lat="45.6093982" lon="9.4322129"><ele>195.0</ele><time>2026-03-22T13:59:10.089Z</time></trkpt><trkpt lat="45.6095141" lon="9.4322542"><ele>195.25</ele><time>2026-03-22T13:59:12.089Z</time></trkpt><trkpt lat="45.6096288" lon="9.4322907"><ele>195.5</ele><time>2026-03-22T13:59:14.089Z</time></trkpt><trkpt lat="45.6097456" lon="9.4323335"><ele>195.75</ele><time>2026-03-22T13:59:16.089Z</time></trkpt><trkpt lat="45.6098632" lon="9.43234"><ele>196.0</ele><time>2026-03-22T13:59:18.089Z</time></trkpt><trkpt lat="45.6099847" lon="9.4323072"><ele>196.0</ele><time>2026-03-22T13:59:20.089Z</time></trkpt><trkpt lat="45.6100989" lon="9.432288"><ele>196.0</ele><time>2026-03-22T13:59:22.088Z</time></trkpt><trkpt lat="45.6102186" lon="9.4323107"><ele>196.0</ele><time>2026-03-22T13:59:24.088Z</time></trkpt><trkpt lat="45.6103322" lon="9.432346"><ele>196.0</ele><time>2026-03-22T13:59:26.089Z</time></trkpt><trkpt lat="45.610424" lon="9.4322842"><ele>196.20000000000002</ele><time>2026-03-22T13:59:28.089Z</time></trkpt><trkpt lat="45.6104962" lon="9.4321876"><ele>196.4</ele><time>2026-03-22T13:59:30.089Z</time></trkpt><trkpt lat="45.6105822" lon="9.432093"><ele>196.6</ele><time>2026-03-22T13:59:32.089Z</time></trkpt><trkpt lat="45.610675" lon="9.4320255"><ele>196.8</ele><time>2026-03-22T13:59:34.089Z</time></trkpt><trkpt lat="45.6107866" lon="9.4319843"><ele>197.0</ele><time>2026-03-22T13:59:36.089Z</time></trkpt><trkpt lat="45.6108949" lon="9.431994"><ele>197.39999999999998</ele><time>2026-03-22T13:59:38.089Z</time></trkpt><trkpt lat="45.6110071" lon="9.4320179"><ele>197.79999999999998</ele><time>2026-03-22T13:59:40.089Z</time></trkpt><trkpt lat="45.611113" lon="9.4320312"><ele>198.2</ele><time>2026-03-22T13:59:42.089Z</time></trkpt><trkpt lat="45.6111763" lon="9.4320262"><ele>198.6</ele><time>2026-03-22T13:59:43.089Z</time></trkpt><trkpt lat="45.6112833" lon="9.4320145"><ele>199.0</ele><time>2026-03-22T13:59:45.089Z</time></trkpt><trkpt lat="45.6113924" lon="9.4320124"><ele>199.6</ele><time>2026-03-22T13:59:47.089Z</time></trkpt><trkpt lat="45.6114877" lon="9.4320136"><ele>200.2</ele><time>2026-03-22T13:59:49.089Z</time></trkpt><trkpt lat="45.6115851" lon="9.4320384"><ele>200.79999999999998</ele><time>2026-03-22T13:59:51.089Z</time></trkpt><trkpt lat="45.611694" lon="9.4321122"><ele>201.39999999999998</ele><time>2026-03-22T13:59:53.089Z</time></trkpt><trkpt lat="45.6117636" lon="9.4322189"><ele>202.0</ele><time>2026-03-22T13:59:55.089Z</time></trkpt><trkpt lat="45.6118603" lon="9.4323054"><ele>202.0</ele><time>2026-03-22T13:59:57.089Z</time></trkpt><trkpt lat="45.6119742" lon="9.4323377"><ele>202.0</ele><time>2026-03-22T13:59:59.089Z</time></trkpt><trkpt lat="45.6120967" lon="9.4323501"><ele>202.0</ele><time>2026-03-22T14:00:01.089Z</time></trkpt><trkpt lat="45.6121616" lon="9.4323579"><ele>202.0</ele><time>2026-03-22T14:00:02.089Z</time></trkpt><trkpt lat="45.6122247" lon="9.4323684"><ele>202.0</ele><time>2026-03-22T14:00:03.089Z</time></trkpt><trkpt lat="45.6123462" lon="9.432381"><ele>202.25</ele><time>2026-03-22T14:00:05.089Z</time></trkpt><trkpt lat="45.6124669" lon="9.4323971"><ele>202.5</ele><time>2026-03-22T14:00:07.088Z</time></trkpt><trkpt lat="45.612584" lon="9.4324158"><ele>202.75</ele><time>2026-03-22T14:00:09.089Z</time></trkpt><trkpt lat="45.6127014" lon="9.4324376"><ele>203.0</ele><time>2026-03-22T14:00:11.089Z</time></trkpt><trkpt lat="45.6128178" lon="9.4324748"><ele>203.0</ele><time>2026-03-22T14:00:13.089Z</time></trkpt><trkpt lat="45.6128793" lon="9.4324981"><ele>203.0</ele><time>2026-03-22T14:00:14.089Z</time></trkpt><trkpt lat="45.612994" lon="9.4325487"><ele>203.0</ele><time>2026-03-22T14:00:16.089Z</time></trkpt><trkpt lat="45.6131079" lon="9.4326119"><ele>203.0</ele><time>2026-03-22T14:00:18.089Z</time></trkpt><trkpt lat="45.6132212" lon="9.4326676"><ele>203.0</ele><time>2026-03-22T14:00:20.089Z</time></trkpt><trkpt lat="45.6133345" lon="9.4327353"><ele>203.0</ele><time>2026-03-22T14:00:22.089Z</time></trkpt><trkpt lat="45.6134498" lon="9.4327931"><ele>203.0</ele><time>2026-03-22T14:00:24.089Z</time></trkpt><trkpt lat="45.6135726" lon="9.4328422"><ele>203.0</ele><time>2026-03-22T14:00:26.089Z</time></trkpt><trkpt lat="45.6136911" lon="9.4328921"><ele>203.0</ele><time>2026-03-22T14:00:28.089Z</time></trkpt><trkpt lat="45.6138038" lon="9.432885"><ele>203.0</ele><time>2026-03-22T14:00:30.089Z</time></trkpt><trkpt lat="45.6139095" lon="9.4328334"><ele>203.0</ele><time>2026-03-22T14:00:32.089Z</time></trkpt><trkpt lat="45.6140156" lon="9.4328208"><ele>203.0</ele><time>2026-03-22T14:00:34.089Z</time></trkpt><trkpt lat="45.6141274" lon="9.4328616"><ele>203.0</ele><time>2026-03-22T14:00:36.088Z</time></trkpt><trkpt lat="45.6142415" lon="9.4329184"><ele>203.0</ele><time>2026-03-22T14:00:38.089Z</time></trkpt><trkpt lat="45.6143524" lon="9.432972"><ele>203.0</ele><time>2026-03-22T14:00:40.089Z</time></trkpt><trkpt lat="45.6144613" lon="9.4330245"><ele>203.0</ele><time>2026-03-22T14:00:42.089Z</time></trkpt><trkpt lat="45.6145657" lon="9.4330838"><ele>203.0</ele><time>2026-03-22T14:00:44.089Z</time></trkpt><trkpt lat="45.6146657" lon="9.4331239"><ele>203.0</ele><time>2026-03-22T14:00:46.089Z</time></trkpt><trkpt lat="45.6147852" lon="9.4331814"><ele>203.4</ele><time>2026-03-22T14:00:48.088Z</time></trkpt><trkpt lat="45.6148461" lon="9.4332094"><ele>203.8</ele><time>2026-03-22T14:00:49.089Z</time></trkpt><trkpt lat="45.6149503" lon="9.4332705"><ele>204.2</ele><time>2026-03-22T14:00:51.089Z</time></trkpt><trkpt lat="45.615061" lon="9.4333257"><ele>204.6</ele><time>2026-03-22T14:00:53.089Z</time></trkpt><trkpt lat="45.6151712" lon="9.4333756"><ele>205.0</ele><time>2026-03-22T14:00:55.089Z</time></trkpt><trkpt lat="45.615292" lon="9.4334336"><ele>204.8</ele><time>2026-03-22T14:00:57.089Z</time></trkpt><trkpt lat="45.6154068" lon="9.4334841"><ele>204.6</ele><time>2026-03-22T14:00:59.088Z</time></trkpt><trkpt lat="45.615519" lon="9.4335312"><ele>204.39999999999998</ele><time>2026-03-22T14:01:01.089Z</time></trkpt><trkpt lat="45.6156099" lon="9.4335449"><ele>204.2</ele><time>2026-03-22T14:01:03.089Z</time></trkpt><trkpt lat="45.6156527" lon="9.4334756"><ele>204.0</ele><time>2026-03-22T14:01:05.089Z</time></trkpt><trkpt lat="45.6156458" lon="9.4333511"><ele>204.0</ele><time>2026-03-22T14:01:07.089Z</time></trkpt><trkpt lat="45.6156413" lon="9.4332106"><ele>204.0</ele><time>2026-03-22T14:01:09.089Z</time></trkpt><trkpt lat="45.6156518" lon="9.4330829"><ele>204.0</ele><time>2026-03-22T14:01:11.089Z</time></trkpt><trkpt lat="45.6157042" lon="9.4330008"><ele>204.0</ele><time>2026-03-22T14:01:13.089Z</time></trkpt><trkpt lat="45.6157649" lon="9.4329444"><ele>204.0</ele><time>2026-03-22T14:01:15.089Z</time></trkpt><trkpt lat="45.6158518" lon="9.4327915"><ele>204.0</ele><time>2026-03-22T14:01:19.103Z</time></trkpt><trkpt lat="45.6158713" lon="9.432662"><ele>204.0</ele><time>2026-03-22T14:01:21.088Z</time></trkpt><trkpt lat="45.615906" lon="9.4325361"><ele>204.0</ele><time>2026-03-22T14:01:23.101Z</time></trkpt><trkpt lat="45.615939" lon="9.4324137"><ele>204.0</ele><time>2026-03-22T14:01:25.101Z</time></trkpt><trkpt lat="45.6159578" lon="9.4322934"><ele>204.0</ele><time>2026-03-22T14:01:27.101Z</time></trkpt><trkpt lat="45.6159737" lon="9.4321794"><ele>204.0</ele><time>2026-03-22T14:01:29.101Z</time></trkpt><trkpt lat="45.6160166" lon="9.4320869"><ele>204.16666666666666</ele><time>2026-03-22T14:01:31.101Z</time></trkpt><trkpt lat="45.6161027" lon="9.4320689"><ele>204.33333333333331</ele><time>2026-03-22T14:01:33.101Z</time></trkpt><trkpt lat="45.6161662" lon="9.4321202"><ele>204.5</ele><time>2026-03-22T14:01:35.1Z</time></trkpt><trkpt lat="45.6161811" lon="9.4322234"><ele>204.66666666666666</ele><time>2026-03-22T14:01:37.101Z</time></trkpt><trkpt lat="45.6161765" lon="9.4323179"><ele>204.83333333333331</ele><time>2026-03-22T14:01:39.101Z</time></trkpt><trkpt lat="45.6161725" lon="9.4324443"><ele>205.0</ele><time>2026-03-22T14:01:43.101Z</time></trkpt><trkpt lat="45.6161847" lon="9.4325586"><ele>205.0</ele><time>2026-03-22T14:01:45.101Z</time></trkpt><trkpt lat="45.6161962" lon="9.4326828"><ele>205.0</ele><time>2026-03-22T14:01:48.101Z</time></trkpt><trkpt lat="45.6162064" lon="9.4327768"><ele>205.0</ele><time>2026-03-22T14:01:50.101Z</time></trkpt><trkpt lat="45.6162107" lon="9.4329001"><ele>205.0</ele><time>2026-03-22T14:01:52.101Z</time></trkpt><trkpt lat="45.6162876" lon="9.433368"><ele>205.0</ele><time>2026-03-22T14:01:53.101Z</time></trkpt><trkpt lat="45.6163323" lon="9.4335371"><ele>205.0</ele><time>2026-03-22T14:01:55.101Z</time></trkpt><trkpt lat="45.6163653" lon="9.433656"><ele>205.0</ele><time>2026-03-22T14:01:56.101Z</time></trkpt><trkpt lat="45.6164244" lon="9.4337473"><ele>205.0</ele><time>2026-03-22T14:01:58.101Z</time></trkpt><trkpt lat="45.6164985" lon="9.4338639"><ele>205.0</ele><time>2026-03-22T14:02:00.101Z</time></trkpt><trkpt lat="45.6166029" lon="9.4339385"><ele>205.0</ele><time>2026-03-22T14:02:02.101Z</time></trkpt><trkpt lat="45.6167099" lon="9.4339218"><ele>205.0</ele><time>2026-03-22T14:02:04.101Z</time></trkpt><trkpt lat="45.6168092" lon="9.4338276"><ele>205.0</ele><time>2026-03-22T14:02:06.1Z</time></trkpt><trkpt lat="45.6168926" lon="9.4337113"><ele>205.0</ele><time>2026-03-22T14:02:08.101Z</time></trkpt><trkpt lat="45.6169752" lon="9.4335874"><ele>205.25</ele><time>2026-03-22T14:02:10.101Z</time></trkpt><trkpt lat="45.6170571" lon="9.4334542"><ele>205.5</ele><time>2026-03-22T14:02:12.101Z</time></trkpt><trkpt lat="45.6171395" lon="9.4333358"><ele>205.75</ele><time>2026-03-22T14:02:14.101Z</time></trkpt><trkpt lat="45.6172165" lon="9.4332005"><ele>206.0</ele><time>2026-03-22T14:02:16.101Z</time></trkpt><trkpt lat="45.6173006" lon="9.4330696"><ele>206.0</ele><time>2026-03-22T14:02:18.101Z</time></trkpt><trkpt lat="45.6173852" lon="9.4329333"><ele>206.0</ele><time>2026-03-22T14:02:20.101Z</time></trkpt><trkpt lat="45.6174667" lon="9.4328043"><ele>206.0</ele><time>2026-03-22T14:02:22.101Z</time></trkpt><trkpt lat="45.6175085" lon="9.4327363"><ele>206.0</ele><time>2026-03-22T14:02:23.101Z</time></trkpt><trkpt lat="45.6175846" lon="9.4325944"><ele>206.0</ele><time>2026-03-22T14:02:25.101Z</time></trkpt><trkpt lat="45.6176502" lon="9.4324402"><ele>206.00000000000003</ele><time>2026-03-22T14:02:27.1Z</time></trkpt><trkpt lat="45.6177097" lon="9.4322801"><ele>206.0</ele><time>2026-03-22T14:02:29.101Z</time></trkpt><trkpt lat="45.6177379" lon="9.4321986"><ele>206.0</ele><time>2026-03-22T14:02:30.101Z</time></trkpt><trkpt lat="45.617765" lon="9.4321161"><ele>206.0</ele><time>2026-03-22T14:02:31.101Z</time></trkpt><trkpt lat="45.6177942" lon="9.4320351"><ele>206.00000000000003</ele><time>2026-03-22T14:02:32.1Z</time></trkpt><trkpt lat="45.6178464" lon="9.4318771"><ele>206.0</ele><time>2026-03-22T14:02:34.1Z</time></trkpt><trkpt lat="45.6179038" lon="9.4317143"><ele>206.16666666666669</ele><time>2026-03-22T14:02:36.1Z</time></trkpt><trkpt lat="45.6179376" lon="9.431636"><ele>206.33333333333334</ele><time>2026-03-22T14:02:37.101Z</time></trkpt><trkpt lat="45.6179946" lon="9.4314714"><ele>206.5</ele><time>2026-03-22T14:02:39.101Z</time></trkpt><trkpt lat="45.6180211" lon="9.4313883"><ele>206.66666666666669</ele><time>2026-03-22T14:02:40.101Z</time></trkpt><trkpt lat="45.6180755" lon="9.4312295"><ele>206.83333333333334</ele><time>2026-03-22T14:02:42.101Z</time></trkpt><trkpt lat="45.6181081" lon="9.4311519"><ele>207.0</ele><time>2026-03-22T14:02:43.101Z</time></trkpt><trkpt lat="45.6181868" lon="9.4310015"><ele>207.16666666666666</ele><time>2026-03-22T14:02:45.101Z</time></trkpt><trkpt lat="45.6182689" lon="9.4308574"><ele>207.33333333333331</ele><time>2026-03-22T14:02:47.101Z</time></trkpt><trkpt lat="45.6183182" lon="9.4307939"><ele>207.5</ele><time>2026-03-22T14:02:48.1Z</time></trkpt><trkpt lat="45.618371" lon="9.4307417"><ele>207.66666666666666</ele><time>2026-03-22T14:02:49.101Z</time></trkpt><trkpt lat="45.6184322" lon="9.4307099"><ele>207.83333333333331</ele><time>2026-03-22T14:02:50.1Z</time></trkpt><trkpt lat="45.61849" lon="9.4306716"><ele>208.0</ele><time>2026-03-22T14:02:51.101Z</time></trkpt><trkpt lat="45.6186059" lon="9.4306236"><ele>208.0</ele><time>2026-03-22T14:02:53.101Z</time></trkpt><trkpt lat="45.6187325" lon="9.4305813"><ele>208.0</ele><time>2026-03-22T14:02:55.101Z</time></trkpt><trkpt lat="45.6188552" lon="9.4305352"><ele>208.0</ele><time>2026-03-22T14:02:57.101Z</time></trkpt><trkpt lat="45.6189666" lon="9.4304747"><ele>208.0</ele><time>2026-03-22T14:02:59.101Z</time></trkpt><trkpt lat="45.6190272" lon="9.4304464"><ele>208.0</ele><time>2026-03-22T14:03:00.101Z</time></trkpt><trkpt lat="45.6190907" lon="9.4304179"><ele>208.0</ele><time>2026-03-22T14:03:01.101Z</time></trkpt><trkpt lat="45.6192072" lon="9.430371"><ele>208.0</ele><time>2026-03-22T14:03:03.101Z</time></trkpt><trkpt lat="45.6193161" lon="9.4303021"><ele>208.0</ele><time>2026-03-22T14:03:05.101Z</time></trkpt><trkpt lat="45.6194173" lon="9.4302356"><ele>208.0</ele><time>2026-03-22T14:03:07.101Z</time></trkpt><trkpt lat="45.6194761" lon="9.4301944"><ele>208.0</ele><time>2026-03-22T14:03:08.101Z</time></trkpt><trkpt lat="45.6195799" lon="9.4301059"><ele>208.0</ele><time>2026-03-22T14:03:10.101Z</time></trkpt><trkpt lat="45.6196704" lon="9.4299973"><ele>208.0</ele><time>2026-03-22T14:03:12.101Z</time></trkpt><trkpt lat="45.6197364" lon="9.4298506"><ele>208.0</ele><time>2026-03-22T14:03:14.101Z</time></trkpt><trkpt lat="45.6197796" lon="9.4296898"><ele>208.0</ele><time>2026-03-22T14:03:16.101Z</time></trkpt><trkpt lat="45.6198161" lon="9.4295298"><ele>208.0</ele><time>2026-03-22T14:03:18.101Z</time></trkpt><trkpt lat="45.6198493" lon="9.4293529"><ele>208.0</ele><time>2026-03-22T14:03:20.101Z</time></trkpt><trkpt lat="45.619887" lon="9.4291906"><ele>208.0</ele><time>2026-03-22T14:03:22.101Z</time></trkpt><trkpt lat="45.6199267" lon="9.4290095"><ele>208.0</ele><time>2026-03-22T14:03:24.101Z</time></trkpt><trkpt lat="45.6199571" lon="9.4288538"><ele>208.0</ele><time>2026-03-22T14:03:26.1Z</time></trkpt><trkpt lat="45.6199855" lon="9.4286865"><ele>208.0</ele><time>2026-03-22T14:03:28.101Z</time></trkpt><trkpt lat="45.6199919" lon="9.4285927"><ele>208.0</ele><time>2026-03-22T14:03:29.101Z</time></trkpt><trkpt lat="45.6199717" lon="9.4284173"><ele>208.0</ele><time>2026-03-22T14:03:31.101Z</time></trkpt><trkpt lat="45.619906" lon="9.4282678"><ele>208.0</ele><time>2026-03-22T14:03:33.101Z</time></trkpt><trkpt lat="45.6198215" lon="9.4281364"><ele>208.0</ele><time>2026-03-22T14:03:35.101Z</time></trkpt><trkpt lat="45.6197394" lon="9.4280127"><ele>208.0</ele><time>2026-03-22T14:03:37.101Z</time></trkpt><trkpt lat="45.6196562" lon="9.4278682"><ele>208.0</ele><time>2026-03-22T14:03:39.1Z</time></trkpt><trkpt lat="45.6195757" lon="9.4277451"><ele>208.0</ele><time>2026-03-22T14:03:41.101Z</time></trkpt><trkpt lat="45.6194851" lon="9.4276268"><ele>208.2</ele><time>2026-03-22T14:03:43.101Z</time></trkpt><trkpt lat="45.6194427" lon="9.4274701"><ele>208.4</ele><time>2026-03-22T14:03:45.101Z</time></trkpt><trkpt lat="45.619433" lon="9.427298"><ele>208.6</ele><time>2026-03-22T14:03:47.101Z</time></trkpt><trkpt lat="45.619431" lon="9.4272069"><ele>208.79999999999998</ele><time>2026-03-22T14:03:48.101Z</time></trkpt><trkpt lat="45.6194332" lon="9.4270358"><ele>209.0</ele><time>2026-03-22T14:03:50.101Z</time></trkpt><trkpt lat="45.6194374" lon="9.4268613"><ele>209.0</ele><time>2026-03-22T14:03:52.101Z</time></trkpt><trkpt lat="45.6194383" lon="9.4266834"><ele>209.0</ele><time>2026-03-22T14:03:54.101Z</time></trkpt><trkpt lat="45.619438" lon="9.4265818"><ele>209.0</ele><time>2026-03-22T14:03:55.101Z</time></trkpt><trkpt lat="45.6194372" lon="9.4264141"><ele>209.0</ele><time>2026-03-22T14:03:57.101Z</time></trkpt><trkpt lat="45.6194386" lon="9.4263192"><ele>209.0</ele><time>2026-03-22T14:03:58.101Z</time></trkpt><trkpt lat="45.6194566" lon="9.4261631"><ele>209.0</ele><time>2026-03-22T14:04:00.1Z</time></trkpt><trkpt lat="45.6194544" lon="9.4260026"><ele>209.0</ele><time>2026-03-22T14:04:02.101Z</time></trkpt><trkpt lat="45.6194714" lon="9.4258527"><ele>209.0</ele><time>2026-03-22T14:04:04.101Z</time></trkpt><trkpt lat="45.6194894" lon="9.4256942"><ele>209.0</ele><time>2026-03-22T14:04:06.101Z</time></trkpt><trkpt lat="45.6195002" lon="9.4255394"><ele>209.0</ele><time>2026-03-22T14:04:08.101Z</time></trkpt><trkpt lat="45.6195093" lon="9.4253692"><ele>209.5</ele><time>2026-03-22T14:04:10.101Z</time></trkpt><trkpt lat="45.6195209" lon="9.4251955"><ele>210.0</ele><time>2026-03-22T14:04:12.101Z</time></trkpt><trkpt lat="45.6195263" lon="9.4250293"><ele>210.5</ele><time>2026-03-22T14:04:14.101Z</time></trkpt><trkpt lat="45.6195315" lon="9.4248605"><ele>211.0</ele><time>2026-03-22T14:04:16.101Z</time></trkpt><trkpt lat="45.6195403" lon="9.4246916"><ele>210.66666666666666</ele><time>2026-03-22T14:04:18.101Z</time></trkpt><trkpt lat="45.619547" lon="9.424509"><ele>210.33333333333331</ele><time>2026-03-22T14:04:20.101Z</time></trkpt><trkpt lat="45.6195464" lon="9.4244189"><ele>210.0</ele><time>2026-03-22T14:04:21.101Z</time></trkpt><trkpt lat="45.6195526" lon="9.4242442"><ele>209.66666666666669</ele><time>2026-03-22T14:04:23.1Z</time></trkpt><trkpt lat="45.6195541" lon="9.4241538"><ele>209.33333333333334</ele><time>2026-03-22T14:04:24.101Z</time></trkpt><trkpt lat="45.6195575" lon="9.4240636"><ele>209.0</ele><time>2026-03-22T14:04:25.1Z</time></trkpt><trkpt lat="45.6195585" lon="9.4238954"><ele>209.2</ele><time>2026-03-22T14:04:27.101Z</time></trkpt><trkpt lat="45.6195643" lon="9.4237326"><ele>209.39999999999998</ele><time>2026-03-22T14:04:29.101Z</time></trkpt><trkpt lat="45.6195927" lon="9.4236129"><ele>209.6</ele><time>2026-03-22T14:04:31.101Z</time></trkpt><trkpt lat="45.6196421" lon="9.4235091"><ele>209.8</ele><time>2026-03-22T14:04:33.1Z</time></trkpt><trkpt lat="45.6197186" lon="9.4234357"><ele>210.0</ele><time>2026-03-22T14:04:35.101Z</time></trkpt><trkpt lat="45.6198229" lon="9.4234077"><ele>210.0</ele><time>2026-03-22T14:04:37.101Z</time></trkpt><trkpt lat="45.6199347" lon="9.4233764"><ele>210.0</ele><time>2026-03-22T14:04:39.101Z</time></trkpt><trkpt lat="45.6200531" lon="9.423346"><ele>210.0</ele><time>2026-03-22T14:04:41.101Z</time></trkpt><trkpt lat="45.6201719" lon="9.4233103"><ele>210.0</ele><time>2026-03-22T14:04:43.1Z</time></trkpt><trkpt lat="45.6202353" lon="9.4232888"><ele>210.0</ele><time>2026-03-22T14:04:44.101Z</time></trkpt><trkpt lat="45.6203521" lon="9.4232538"><ele>210.16666666666666</ele><time>2026-03-22T14:04:46.1Z</time></trkpt><trkpt lat="45.6204696" lon="9.4232122"><ele>210.33333333333331</ele><time>2026-03-22T14:04:48.101Z</time></trkpt><trkpt lat="45.6205344" lon="9.4231912"><ele>210.5</ele><time>2026-03-22T14:04:49.101Z</time></trkpt><trkpt lat="45.620596" lon="9.4231716"><ele>210.66666666666666</ele><time>2026-03-22T14:04:50.101Z</time></trkpt><trkpt lat="45.6207105" lon="9.4231186"><ele>210.83333333333331</ele><time>2026-03-22T14:04:52.101Z</time></trkpt><trkpt lat="45.6207711" lon="9.4230836"><ele>211.0</ele><time>2026-03-22T14:04:53.101Z</time></trkpt><trkpt lat="45.6208315" lon="9.4230505"><ele>211.0</ele><time>2026-03-22T14:04:54.101Z</time></trkpt><trkpt lat="45.6209504" lon="9.4229943"><ele>211.0</ele><time>2026-03-22T14:04:56.101Z</time></trkpt><trkpt lat="45.6210661" lon="9.4229249"><ele>211.0</ele><time>2026-03-22T14:04:58.101Z</time></trkpt><trkpt lat="45.6211751" lon="9.4228406"><ele>211.0</ele><time>2026-03-22T14:05:00.101Z</time></trkpt><trkpt lat="45.6212826" lon="9.4227603"><ele>210.99999999999997</ele><time>2026-03-22T14:05:02.101Z</time></trkpt><trkpt lat="45.6213388" lon="9.4227193"><ele>211.0</ele><time>2026-03-22T14:05:03.101Z</time></trkpt><trkpt lat="45.6214473" lon="9.4226328"><ele>211.0</ele><time>2026-03-22T14:05:05.1Z</time></trkpt><trkpt lat="45.6215032" lon="9.4225716"><ele>211.0</ele><time>2026-03-22T14:05:06.101Z</time></trkpt><trkpt lat="45.6215605" lon="9.4225174"><ele>210.99999999999997</ele><time>2026-03-22T14:05:07.101Z</time></trkpt><trkpt lat="45.6216139" lon="9.4224637"><ele>211.0</ele><time>2026-03-22T14:05:08.1Z</time></trkpt><trkpt lat="45.6216691" lon="9.4224149"><ele>210.99999999999997</ele><time>2026-03-22T14:05:09.101Z</time></trkpt><trkpt lat="45.6217815" lon="9.4223141"><ele>211.0</ele><time>2026-03-22T14:05:11.1Z</time></trkpt><trkpt lat="45.6218422" lon="9.4222654"><ele>211.0</ele><time>2026-03-22T14:05:12.101Z</time></trkpt><trkpt lat="45.6218981" lon="9.4222208"><ele>211.0</ele><time>2026-03-22T14:05:13.101Z</time></trkpt><trkpt lat="45.6219629" lon="9.4221646"><ele>210.99999999999997</ele><time>2026-03-22T14:05:14.101Z</time></trkpt><trkpt lat="45.6220171" lon="9.4221053"><ele>211.0</ele><time>2026-03-22T14:05:15.101Z</time></trkpt><trkpt lat="45.6220774" lon="9.4220517"><ele>211.0</ele><time>2026-03-22T14:05:16.101Z</time></trkpt><trkpt lat="45.6221303" lon="9.421997"><ele>211.0</ele><time>2026-03-22T14:05:17.101Z</time></trkpt><trkpt lat="45.6221869" lon="9.4219402"><ele>211.0</ele><time>2026-03-22T14:05:18.101Z</time></trkpt><trkpt lat="45.6222374" lon="9.4218776"><ele>211.0</ele><time>2026-03-22T14:05:19.101Z</time></trkpt><trkpt lat="45.6222876" lon="9.4218129"><ele>211.0</ele><time>2026-03-22T14:05:20.101Z</time></trkpt><trkpt lat="45.6223368" lon="9.4217506"><ele>211.0</ele><time>2026-03-22T14:05:21.101Z</time></trkpt><trkpt lat="45.6223889" lon="9.4216833"><ele>211.0</ele><time>2026-03-22T14:05:22.101Z</time></trkpt><trkpt lat="45.6224345" lon="9.4216112"><ele>210.99999999999997</ele><time>2026-03-22T14:05:23.101Z</time></trkpt><trkpt lat="45.6224835" lon="9.421543"><ele>211.0</ele><time>2026-03-22T14:05:24.101Z</time></trkpt><trkpt lat="45.622538" lon="9.4214685"><ele>211.0</ele><time>2026-03-22T14:05:25.101Z</time></trkpt><trkpt lat="45.6226218" lon="9.421334"><ele>211.0</ele><time>2026-03-22T14:05:27.101Z</time></trkpt><trkpt lat="45.6226723" lon="9.4212597"><ele>210.99999999999997</ele><time>2026-03-22T14:05:28.1Z</time></trkpt><trkpt lat="45.6227246" lon="9.4211845"><ele>211.0</ele><time>2026-03-22T14:05:29.1Z</time></trkpt><trkpt lat="45.6227755" lon="9.4211153"><ele>210.83333333333331</ele><time>2026-03-22T14:05:30.101Z</time></trkpt><trkpt lat="45.6228259" lon="9.4210476"><ele>210.66666666666666</ele><time>2026-03-22T14:05:31.101Z</time></trkpt><trkpt lat="45.6228741" lon="9.4209816"><ele>210.5</ele><time>2026-03-22T14:05:32.101Z</time></trkpt><trkpt lat="45.6229247" lon="9.4209097"><ele>210.33333333333331</ele><time>2026-03-22T14:05:33.101Z</time></trkpt><trkpt lat="45.6229745" lon="9.4208311"><ele>210.16666666666666</ele><time>2026-03-22T14:05:34.101Z</time></trkpt><trkpt lat="45.6230201" lon="9.4207595"><ele>210.0</ele><time>2026-03-22T14:05:35.101Z</time></trkpt><trkpt lat="45.6231141" lon="9.4206222"><ele>210.0</ele><time>2026-03-22T14:05:37.101Z</time></trkpt><trkpt lat="45.6231586" lon="9.4205509"><ele>210.0</ele><time>2026-03-22T14:05:38.101Z</time></trkpt><trkpt lat="45.6232066" lon="9.4204757"><ele>210.0</ele><time>2026-03-22T14:05:39.101Z</time></trkpt><trkpt lat="45.6232555" lon="9.4204122"><ele>210.0</ele><time>2026-03-22T14:05:40.101Z</time></trkpt><trkpt lat="45.6233121" lon="9.4203351"><ele>210.0</ele><time>2026-03-22T14:05:41.101Z</time></trkpt><trkpt lat="45.6233631" lon="9.4202665"><ele>210.0</ele><time>2026-03-22T14:05:42.101Z</time></trkpt><trkpt lat="45.6234112" lon="9.4201843"><ele>210.0</ele><time>2026-03-22T14:05:43.101Z</time></trkpt><trkpt lat="45.6234685" lon="9.4200984"><ele>210.42857142857142</ele><time>2026-03-22T14:05:44.101Z</time></trkpt><trkpt lat="45.623515" lon="9.4200251"><ele>210.85714285714286</ele><time>2026-03-22T14:05:45.101Z</time></trkpt><trkpt lat="45.6235647" lon="9.4199509"><ele>211.28571428571428</ele><time>2026-03-22T14:05:46.101Z</time></trkpt><trkpt lat="45.6236104" lon="9.4198816"><ele>211.71428571428572</ele><time>2026-03-22T14:05:47.101Z</time></trkpt><trkpt lat="45.6236588" lon="9.4197982"><ele>212.14285714285714</ele><time>2026-03-22T14:05:48.101Z</time></trkpt><trkpt lat="45.6237002" lon="9.419724"><ele>212.57142857142856</ele><time>2026-03-22T14:05:49.101Z</time></trkpt><trkpt lat="45.6237544" lon="9.4196469"><ele>213.0</ele><time>2026-03-22T14:05:50.101Z</time></trkpt><trkpt lat="45.6238036" lon="9.4195763"><ele>213.85714285714283</ele><time>2026-03-22T14:05:51.1Z</time></trkpt><trkpt lat="45.6238553" lon="9.4195073"><ele>214.71428571428572</ele><time>2026-03-22T14:05:52.101Z</time></trkpt><trkpt lat="45.6239048" lon="9.4194345"><ele>215.57142857142856</ele><time>2026-03-22T14:05:53.101Z</time></trkpt><trkpt lat="45.6239547" lon="9.4193598"><ele>216.42857142857142</ele><time>2026-03-22T14:05:54.101Z</time></trkpt><trkpt lat="45.6240008" lon="9.4192819"><ele>217.28571428571428</ele><time>2026-03-22T14:05:55.101Z</time></trkpt><trkpt lat="45.6240521" lon="9.4192132"><ele>218.14285714285714</ele><time>2026-03-22T14:05:56.101Z</time></trkpt><trkpt lat="45.6241068" lon="9.4191416"><ele>219.0</ele><time>2026-03-22T14:05:57.101Z</time></trkpt><trkpt lat="45.6241564" lon="9.4190724"><ele>219.0</ele><time>2026-03-22T14:05:58.101Z</time></trkpt><trkpt lat="45.6242033" lon="9.4189989"><ele>218.99999999999997</ele><time>2026-03-22T14:05:59.101Z</time></trkpt><trkpt lat="45.6242543" lon="9.4189262"><ele>218.99999999999997</ele><time>2026-03-22T14:06:00.101Z</time></trkpt><trkpt lat="45.6243072" lon="9.4188579"><ele>219.0</ele><time>2026-03-22T14:06:01.101Z</time></trkpt><trkpt lat="45.6243973" lon="9.4187179"><ele>219.0</ele><time>2026-03-22T14:06:03.101Z</time></trkpt><trkpt lat="45.6244915" lon="9.418596"><ele>218.5</ele><time>2026-03-22T14:06:05.101Z</time></trkpt><trkpt lat="45.6245364" lon="9.4185125"><ele>218.0</ele><time>2026-03-22T14:06:06.101Z</time></trkpt><trkpt lat="45.6245778" lon="9.4184416"><ele>217.5</ele><time>2026-03-22T14:06:07.101Z</time></trkpt><trkpt lat="45.6246243" lon="9.4183743"><ele>217.0</ele><time>2026-03-22T14:06:08.1Z</time></trkpt><trkpt lat="45.6247158" lon="9.4182399"><ele>216.5</ele><time>2026-03-22T14:06:10.101Z</time></trkpt><trkpt lat="45.6247629" lon="9.4181591"><ele>216.0</ele><time>2026-03-22T14:06:11.101Z</time></trkpt><trkpt lat="45.6248146" lon="9.4180904"><ele>216.0</ele><time>2026-03-22T14:06:12.1Z</time></trkpt><trkpt lat="45.6248698" lon="9.4180457"><ele>216.00000000000003</ele><time>2026-03-22T14:06:13.101Z</time></trkpt><trkpt lat="45.6249991" lon="9.4180038"><ele>216.00000000000003</ele><time>2026-03-22T14:06:15.101Z</time></trkpt><trkpt lat="45.6250696" lon="9.4180069"><ele>216.0</ele><time>2026-03-22T14:06:16.101Z</time></trkpt><trkpt lat="45.6251946" lon="9.4180495"><ele>216.0</ele><time>2026-03-22T14:06:18.101Z</time></trkpt><trkpt lat="45.6252597" lon="9.4180838"><ele>215.66666666666666</ele><time>2026-03-22T14:06:19.101Z</time></trkpt><trkpt lat="45.625381" lon="9.4181379"><ele>215.33333333333331</ele><time>2026-03-22T14:06:21.1Z</time></trkpt><trkpt lat="45.6254458" lon="9.4181587"><ele>215.0</ele><time>2026-03-22T14:06:22.101Z</time></trkpt><trkpt lat="45.625509" lon="9.4181756"><ele>214.66666666666666</ele><time>2026-03-22T14:06:23.101Z</time></trkpt><trkpt lat="45.6255754" lon="9.4181874"><ele>214.33333333333331</ele><time>2026-03-22T14:06:24.101Z</time></trkpt><trkpt lat="45.6256537" lon="9.4182021"><ele>214.0</ele><time>2026-03-22T14:06:25.101Z</time></trkpt><trkpt lat="45.6257226" lon="9.4182166"><ele>214.00000000000003</ele><time>2026-03-22T14:06:26.1Z</time></trkpt><trkpt lat="45.6257873" lon="9.4182155"><ele>214.0</ele><time>2026-03-22T14:06:27.101Z</time></trkpt><trkpt lat="45.6258543" lon="9.4182202"><ele>214.0</ele><time>2026-03-22T14:06:28.101Z</time></trkpt><trkpt lat="45.6259195" lon="9.4182375"><ele>214.0</ele><time>2026-03-22T14:06:29.101Z</time></trkpt><trkpt lat="45.625992" lon="9.4182601"><ele>214.0</ele><time>2026-03-22T14:06:30.101Z</time></trkpt><trkpt lat="45.626064" lon="9.4182694"><ele>214.00000000000003</ele><time>2026-03-22T14:06:31.101Z</time></trkpt><trkpt lat="45.6261391" lon="9.4182874"><ele>214.0</ele><time>2026-03-22T14:06:32.101Z</time></trkpt><trkpt lat="45.62621" lon="9.4183001"><ele>214.2857142857143</ele><time>2026-03-22T14:06:33.1Z</time></trkpt><trkpt lat="45.6262814" lon="9.4183089"><ele>214.57142857142858</ele><time>2026-03-22T14:06:34.101Z</time></trkpt><trkpt lat="45.6263544" lon="9.4183202"><ele>214.85714285714286</ele><time>2026-03-22T14:06:35.101Z</time></trkpt><trkpt lat="45.6264285" lon="9.4183254"><ele>215.14285714285717</ele><time>2026-03-22T14:06:36.101Z</time></trkpt><trkpt lat="45.6264994" lon="9.4183354"><ele>215.42857142857142</ele><time>2026-03-22T14:06:37.101Z</time></trkpt><trkpt lat="45.6265698" lon="9.4183427"><ele>215.71428571428572</ele><time>2026-03-22T14:06:38.101Z</time></trkpt><trkpt lat="45.6266387" lon="9.4183521"><ele>216.0</ele><time>2026-03-22T14:06:39.1Z</time></trkpt><trkpt lat="45.6267108" lon="9.4183631"><ele>216.0</ele><time>2026-03-22T14:06:40.101Z</time></trkpt><trkpt lat="45.626793" lon="9.4183747"><ele>216.0</ele><time>2026-03-22T14:06:41.101Z</time></trkpt><trkpt lat="45.6268567" lon="9.4183805"><ele>216.0</ele><time>2026-03-22T14:06:42.101Z</time></trkpt><trkpt lat="45.6269222" lon="9.4183847"><ele>216.0</ele><time>2026-03-22T14:06:43.101Z</time></trkpt><trkpt lat="45.6269884" lon="9.4183814"><ele>216.0</ele><time>2026-03-22T14:06:44.101Z</time></trkpt><trkpt lat="45.6270617" lon="9.4183884"><ele>216.0</ele><time>2026-03-22T14:06:45.101Z</time></trkpt><trkpt lat="45.6271379" lon="9.4183894"><ele>216.0</ele><time>2026-03-22T14:06:46.101Z</time></trkpt><trkpt lat="45.627215" lon="9.4183909"><ele>215.85714285714286</ele><time>2026-03-22T14:06:47.1Z</time></trkpt><trkpt lat="45.6272851" lon="9.4183995"><ele>215.71428571428572</ele><time>2026-03-22T14:06:48.101Z</time></trkpt><trkpt lat="45.6273554" lon="9.4184032"><ele>215.57142857142856</ele><time>2026-03-22T14:06:49.1Z</time></trkpt><trkpt lat="45.6274298" lon="9.4184047"><ele>215.42857142857144</ele><time>2026-03-22T14:06:50.101Z</time></trkpt><trkpt lat="45.6275018" lon="9.4184027"><ele>215.2857142857143</ele><time>2026-03-22T14:06:51.101Z</time></trkpt><trkpt lat="45.6275714" lon="9.4184106"><ele>215.14285714285714</ele><time>2026-03-22T14:06:52.101Z</time></trkpt><trkpt lat="45.6276401" lon="9.4184128"><ele>215.0</ele><time>2026-03-22T14:06:53.101Z</time></trkpt><trkpt lat="45.6277119" lon="9.4184112"><ele>215.0</ele><time>2026-03-22T14:06:54.1Z</time></trkpt><trkpt lat="45.6277825" lon="9.4184094"><ele>215.0</ele><time>2026-03-22T14:06:55.101Z</time></trkpt><trkpt lat="45.6278594" lon="9.4184156"><ele>215.0</ele><time>2026-03-22T14:06:56.101Z</time></trkpt><trkpt lat="45.6279373" lon="9.4184302"><ele>215.0</ele><time>2026-03-22T14:06:57.101Z</time></trkpt><trkpt lat="45.6280119" lon="9.4184518"><ele>215.0</ele><time>2026-03-22T14:06:58.101Z</time></trkpt><trkpt lat="45.6280822" lon="9.4184377"><ele>215.0</ele><time>2026-03-22T14:06:59.101Z</time></trkpt><trkpt lat="45.6281578" lon="9.4184388"><ele>215.0</ele><time>2026-03-22T14:07:00.101Z</time></trkpt><trkpt lat="45.6282287" lon="9.4184423"><ele>215.0</ele><time>2026-03-22T14:07:01.101Z</time></trkpt><trkpt lat="45.6282926" lon="9.418452"><ele>215.0</ele><time>2026-03-22T14:07:02.101Z</time></trkpt><trkpt lat="45.6283639" lon="9.4184606"><ele>215.0</ele><time>2026-03-22T14:07:03.101Z</time></trkpt><trkpt lat="45.6284391" lon="9.4184653"><ele>215.0</ele><time>2026-03-22T14:07:04.101Z</time></trkpt><trkpt lat="45.628507" lon="9.4184678"><ele>215.0</ele><time>2026-03-22T14:07:05.101Z</time></trkpt><trkpt lat="45.6285793" lon="9.4184622"><ele>215.0</ele><time>2026-03-22T14:07:06.101Z</time></trkpt><trkpt lat="45.6286533" lon="9.4184632"><ele>215.0</ele><time>2026-03-22T14:07:07.101Z</time></trkpt><trkpt lat="45.6287253" lon="9.4184536"><ele>215.57142857142856</ele><time>2026-03-22T14:07:08.101Z</time></trkpt><trkpt lat="45.6287952" lon="9.418446"><ele>216.14285714285717</ele><time>2026-03-22T14:07:09.101Z</time></trkpt><trkpt lat="45.6288621" lon="9.4184392"><ele>216.71428571428572</ele><time>2026-03-22T14:07:10.101Z</time></trkpt><trkpt lat="45.6289375" lon="9.4184383"><ele>217.28571428571428</ele><time>2026-03-22T14:07:11.101Z</time></trkpt><trkpt lat="45.6290119" lon="9.4184285"><ele>217.85714285714283</ele><time>2026-03-22T14:07:12.101Z</time></trkpt><trkpt lat="45.6290833" lon="9.4184183"><ele>218.42857142857144</ele><time>2026-03-22T14:07:13.1Z</time></trkpt><trkpt lat="45.6291556" lon="9.4183999"><ele>219.0</ele><time>2026-03-22T14:07:14.101Z</time></trkpt><trkpt lat="45.6292254" lon="9.4183834"><ele>219.0</ele><time>2026-03-22T14:07:15.101Z</time></trkpt><trkpt lat="45.629299" lon="9.4183743"><ele>219.0</ele><time>2026-03-22T14:07:16.101Z</time></trkpt><trkpt lat="45.62937" lon="9.4183702"><ele>219.0</ele><time>2026-03-22T14:07:17.101Z</time></trkpt><trkpt lat="45.6294436" lon="9.418359"><ele>219.0</ele><time>2026-03-22T14:07:18.1Z</time></trkpt><trkpt lat="45.629515" lon="9.4183513"><ele>219.0</ele><time>2026-03-22T14:07:19.101Z</time></trkpt><trkpt lat="45.6295854" lon="9.4183491"><ele>219.0</ele><time>2026-03-22T14:07:20.1Z</time></trkpt><trkpt lat="45.6296551" lon="9.4183547"><ele>219.0</ele><time>2026-03-22T14:07:21.101Z</time></trkpt><trkpt lat="45.6297217" lon="9.4183724"><ele>219.2857142857143</ele><time>2026-03-22T14:07:22.101Z</time></trkpt><trkpt lat="45.6297852" lon="9.4183844"><ele>219.57142857142856</ele><time>2026-03-22T14:07:23.101Z</time></trkpt><trkpt lat="45.6298541" lon="9.4183694"><ele>219.85714285714286</ele><time>2026-03-22T14:07:24.101Z</time></trkpt><trkpt lat="45.6299186" lon="9.4183329"><ele>220.14285714285717</ele><time>2026-03-22T14:07:25.101Z</time></trkpt><trkpt lat="45.6299793" lon="9.4183002"><ele>220.42857142857144</ele><time>2026-03-22T14:07:26.101Z</time></trkpt><trkpt lat="45.630046" lon="9.4182607"><ele>220.71428571428572</ele><time>2026-03-22T14:07:27.101Z</time></trkpt><trkpt lat="45.6301138" lon="9.418232"><ele>221.0</ele><time>2026-03-22T14:07:28.1Z</time></trkpt><trkpt lat="45.6301815" lon="9.4182138"><ele>221.00000000000003</ele><time>2026-03-22T14:07:29.1Z</time></trkpt><trkpt lat="45.6302556" lon="9.4182053"><ele>221.0</ele><time>2026-03-22T14:07:30.101Z</time></trkpt><trkpt lat="45.6303263" lon="9.4181933"><ele>221.0</ele><time>2026-03-22T14:07:31.101Z</time></trkpt><trkpt lat="45.6303948" lon="9.4181802"><ele>221.0</ele><time>2026-03-22T14:07:32.101Z</time></trkpt><trkpt lat="45.6304667" lon="9.4181621"><ele>221.0</ele><time>2026-03-22T14:07:33.101Z</time></trkpt><trkpt lat="45.630537" lon="9.418139"><ele>221.00000000000003</ele><time>2026-03-22T14:07:34.101Z</time></trkpt><trkpt lat="45.6306083" lon="9.4181252"><ele>221.0</ele><time>2026-03-22T14:07:35.101Z</time></trkpt><trkpt lat="45.6306788" lon="9.4181029"><ele>221.2857142857143</ele><time>2026-03-22T14:07:36.101Z</time></trkpt><trkpt lat="45.6307503" lon="9.41809"><ele>221.57142857142858</ele><time>2026-03-22T14:07:37.101Z</time></trkpt><trkpt lat="45.6308177" lon="9.4180857"><ele>221.85714285714286</ele><time>2026-03-22T14:07:38.101Z</time></trkpt><trkpt lat="45.6308904" lon="9.4180873"><ele>222.14285714285717</ele><time>2026-03-22T14:07:39.101Z</time></trkpt><trkpt lat="45.6309616" lon="9.4180923"><ele>222.42857142857142</ele><time>2026-03-22T14:07:40.101Z</time></trkpt><trkpt lat="45.6310367" lon="9.4180961"><ele>222.71428571428572</ele><time>2026-03-22T14:07:41.101Z</time></trkpt><trkpt lat="45.6311124" lon="9.4181345"><ele>223.0</ele><time>2026-03-22T14:07:42.101Z</time></trkpt><trkpt lat="45.6311846" lon="9.4181648"><ele>222.99999999999997</ele><time>2026-03-22T14:07:43.1Z</time></trkpt><trkpt lat="45.6313038" lon="9.4181508"><ele>223.0</ele><time>2026-03-22T14:07:45.101Z</time></trkpt><trkpt lat="45.6313803" lon="9.4181665"><ele>223.0</ele><time>2026-03-22T14:07:46.101Z</time></trkpt><trkpt lat="45.6314538" lon="9.4181745"><ele>223.0</ele><time>2026-03-22T14:07:47.101Z</time></trkpt><trkpt lat="45.6315251" lon="9.4181892"><ele>222.99999999999997</ele><time>2026-03-22T14:07:48.101Z</time></trkpt><trkpt lat="45.631593" lon="9.4182012"><ele>223.0</ele><time>2026-03-22T14:07:49.101Z</time></trkpt><trkpt lat="45.6316677" lon="9.4182083"><ele>223.0</ele><time>2026-03-22T14:07:50.101Z</time></trkpt><trkpt lat="45.6317362" lon="9.4182173"><ele>223.0</ele><time>2026-03-22T14:07:51.101Z</time></trkpt><trkpt lat="45.6318097" lon="9.4182282"><ele>223.0</ele><time>2026-03-22T14:07:52.1Z</time></trkpt><trkpt lat="45.6318787" lon="9.4182421"><ele>223.0</ele><time>2026-03-22T14:07:53.101Z</time></trkpt><trkpt lat="45.631951" lon="9.4182587"><ele>223.0</ele><time>2026-03-22T14:07:54.101Z</time></trkpt><trkpt lat="45.6320216" lon="9.4182647"><ele>223.0</ele><time>2026-03-22T14:07:55.101Z</time></trkpt><trkpt lat="45.6320927" lon="9.4182737"><ele>223.0</ele><time>2026-03-22T14:07:56.1Z</time></trkpt><trkpt lat="45.6321639" lon="9.4182823"><ele>223.14285714285714</ele><time>2026-03-22T14:07:57.101Z</time></trkpt><trkpt lat="45.6322377" lon="9.4182946"><ele>223.28571428571428</ele><time>2026-03-22T14:07:58.101Z</time></trkpt><trkpt lat="45.632305" lon="9.4183079"><ele>223.42857142857144</ele><time>2026-03-22T14:07:59.1Z</time></trkpt><trkpt lat="45.6323751" lon="9.4183291"><ele>223.57142857142856</ele><time>2026-03-22T14:08:00.101Z</time></trkpt><trkpt lat="45.6324431" lon="9.4183459"><ele>223.71428571428572</ele><time>2026-03-22T14:08:01.101Z</time></trkpt><trkpt lat="45.632508" lon="9.4183571"><ele>223.85714285714286</ele><time>2026-03-22T14:08:02.101Z</time></trkpt><trkpt lat="45.6325806" lon="9.4183692"><ele>224.0</ele><time>2026-03-22T14:08:03.101Z</time></trkpt><trkpt lat="45.6326551" lon="9.4183779"><ele>224.00000000000003</ele><time>2026-03-22T14:08:04.101Z</time></trkpt><trkpt lat="45.6327186" lon="9.4183961"><ele>224.0</ele><time>2026-03-22T14:08:05.101Z</time></trkpt><trkpt lat="45.6327851" lon="9.4184079"><ele>224.0</ele><time>2026-03-22T14:08:06.101Z</time></trkpt><trkpt lat="45.6328535" lon="9.4184222"><ele>224.0</ele><time>2026-03-22T14:08:07.101Z</time></trkpt><trkpt lat="45.6329174" lon="9.4184468"><ele>224.00000000000003</ele><time>2026-03-22T14:08:08.101Z</time></trkpt><trkpt lat="45.632982" lon="9.4184607"><ele>224.0</ele><time>2026-03-22T14:08:09.101Z</time></trkpt><trkpt lat="45.6331149" lon="9.4184855"><ele>223.79999999999998</ele><time>2026-03-22T14:08:11.101Z</time></trkpt><trkpt lat="45.6331788" lon="9.4184974"><ele>223.59999999999997</ele><time>2026-03-22T14:08:12.101Z</time></trkpt><trkpt lat="45.6333017" lon="9.4184787"><ele>223.4</ele><time>2026-03-22T14:08:14.101Z</time></trkpt><trkpt lat="45.6333776" lon="9.418495"><ele>223.2</ele><time>2026-03-22T14:08:15.101Z</time></trkpt><trkpt lat="45.6334946" lon="9.4185043"><ele>223.0</ele><time>2026-03-22T14:08:17.1Z</time></trkpt><trkpt lat="45.6336122" lon="9.4185349"><ele>223.2</ele><time>2026-03-22T14:08:19.101Z</time></trkpt><trkpt lat="45.6337379" lon="9.4185713"><ele>223.4</ele><time>2026-03-22T14:08:21.101Z</time></trkpt><trkpt lat="45.6338034" lon="9.4185901"><ele>223.59999999999997</ele><time>2026-03-22T14:08:22.101Z</time></trkpt><trkpt lat="45.633864" lon="9.4186151"><ele>223.79999999999998</ele><time>2026-03-22T14:08:23.101Z</time></trkpt><trkpt lat="45.6339902" lon="9.4186472"><ele>224.0</ele><time>2026-03-22T14:08:25.101Z</time></trkpt><trkpt lat="45.6341184" lon="9.4186843"><ele>224.0</ele><time>2026-03-22T14:08:27.101Z</time></trkpt><trkpt lat="45.6342417" lon="9.4187258"><ele>223.99999999999997</ele><time>2026-03-22T14:08:29.101Z</time></trkpt><trkpt lat="45.6343026" lon="9.4187545"><ele>223.99999999999997</ele><time>2026-03-22T14:08:30.101Z</time></trkpt><trkpt lat="45.6344203" lon="9.4188117"><ele>224.0</ele><time>2026-03-22T14:08:32.1Z</time></trkpt><trkpt lat="45.6345353" lon="9.4188613"><ele>224.0</ele><time>2026-03-22T14:08:34.101Z</time></trkpt><trkpt lat="45.634601" lon="9.4188909"><ele>224.83333333333334</ele><time>2026-03-22T14:08:35.101Z</time></trkpt><trkpt lat="45.6347146" lon="9.4189699"><ele>225.66666666666669</ele><time>2026-03-22T14:08:37.101Z</time></trkpt><trkpt lat="45.6347747" lon="9.4190073"><ele>226.5</ele><time>2026-03-22T14:08:38.1Z</time></trkpt><trkpt lat="45.6348374" lon="9.4190446"><ele>227.33333333333331</ele><time>2026-03-22T14:08:39.101Z</time></trkpt><trkpt lat="45.6348978" lon="9.4190858"><ele>228.16666666666666</ele><time>2026-03-22T14:08:40.1Z</time></trkpt><trkpt lat="45.6349583" lon="9.4191238"><ele>229.0</ele><time>2026-03-22T14:08:41.101Z</time></trkpt><trkpt lat="45.6350184" lon="9.4191702"><ele>229.0</ele><time>2026-03-22T14:08:42.101Z</time></trkpt><trkpt lat="45.6350811" lon="9.4192142"><ele>228.99999999999997</ele><time>2026-03-22T14:08:43.101Z</time></trkpt><trkpt lat="45.6351932" lon="9.4192806"><ele>228.99999999999997</ele><time>2026-03-22T14:08:45.101Z</time></trkpt><trkpt lat="45.6352529" lon="9.4193204"><ele>229.0</ele><time>2026-03-22T14:08:46.101Z</time></trkpt><trkpt lat="45.635356" lon="9.4193907"><ele>229.0</ele><time>2026-03-22T14:08:48.101Z</time></trkpt><trkpt lat="45.6354443" lon="9.4194653"><ele>228.66666666666666</ele><time>2026-03-22T14:08:50.101Z</time></trkpt><trkpt lat="45.6355126" lon="9.4195099"><ele>228.33333333333331</ele><time>2026-03-22T14:08:52.101Z</time></trkpt><trkpt lat="45.6355604" lon="9.4194407"><ele>228.0</ele><time>2026-03-22T14:08:55.101Z</time></trkpt><trkpt lat="45.6355956" lon="9.4193362"><ele>227.66666666666669</ele><time>2026-03-22T14:08:57.101Z</time></trkpt><trkpt lat="45.6356513" lon="9.4192092"><ele>227.33333333333334</ele><time>2026-03-22T14:08:59.1Z</time></trkpt><trkpt lat="45.635699" lon="9.4190773"><ele>227.0</ele><time>2026-03-22T14:09:01.101Z</time></trkpt><trkpt lat="45.6357506" lon="9.4189384"><ele>226.6</ele><time>2026-03-22T14:09:03.101Z</time></trkpt><trkpt lat="45.635798" lon="9.4188163"><ele>226.2</ele><time>2026-03-22T14:09:05.101Z</time></trkpt><trkpt lat="45.6358573" lon="9.418703"><ele>225.8</ele><time>2026-03-22T14:09:07.101Z</time></trkpt><trkpt lat="45.6359313" lon="9.4185727"><ele>225.4</ele><time>2026-03-22T14:09:09.1Z</time></trkpt><trkpt lat="45.6359905" lon="9.4184251"><ele>225.0</ele><time>2026-03-22T14:09:11.101Z</time></trkpt><trkpt lat="45.6360194" lon="9.4183451"><ele>225.0</ele><time>2026-03-22T14:09:12.101Z</time></trkpt><trkpt lat="45.636058" lon="9.4182611"><ele>225.0</ele><time>2026-03-22T14:09:13.101Z</time></trkpt><trkpt lat="45.6360883" lon="9.4181814"><ele>225.0</ele><time>2026-03-22T14:09:14.101Z</time></trkpt><trkpt lat="45.6361244" lon="9.4180957"><ele>225.0</ele><time>2026-03-22T14:09:15.101Z</time></trkpt><trkpt lat="45.6361867" lon="9.4179423"><ele>225.0</ele><time>2026-03-22T14:09:17.1Z</time></trkpt><trkpt lat="45.6362499" lon="9.4177871"><ele>224.6</ele><time>2026-03-22T14:09:19.101Z</time></trkpt><trkpt lat="45.6363204" lon="9.4176431"><ele>224.2</ele><time>2026-03-22T14:09:21.101Z</time></trkpt><trkpt lat="45.6363997" lon="9.4175727"><ele>223.8</ele><time>2026-03-22T14:09:23.101Z</time></trkpt><trkpt lat="45.6364991" lon="9.4175857"><ele>223.4</ele><time>2026-03-22T14:09:25.101Z</time></trkpt><trkpt lat="45.6366001" lon="9.4176285"><ele>223.0</ele><time>2026-03-22T14:09:27.101Z</time></trkpt><trkpt lat="45.6367019" lon="9.4177047"><ele>223.0</ele><time>2026-03-22T14:09:29.101Z</time></trkpt><trkpt lat="45.6368062" lon="9.4177712"><ele>223.0</ele><time>2026-03-22T14:09:31.101Z</time></trkpt><trkpt lat="45.6369097" lon="9.4178409"><ele>223.0</ele><time>2026-03-22T14:09:33.101Z</time></trkpt><trkpt lat="45.6370246" lon="9.4179021"><ele>223.0</ele><time>2026-03-22T14:09:35.101Z</time></trkpt><trkpt lat="45.6371437" lon="9.417948"><ele>223.16666666666666</ele><time>2026-03-22T14:09:37.1Z</time></trkpt><trkpt lat="45.6372619" lon="9.4179697"><ele>223.33333333333331</ele><time>2026-03-22T14:09:39.101Z</time></trkpt><trkpt lat="45.6373253" lon="9.417979"><ele>223.5</ele><time>2026-03-22T14:09:40.101Z</time></trkpt><trkpt lat="45.6374461" lon="9.4179988"><ele>223.66666666666669</ele><time>2026-03-22T14:09:42.101Z</time></trkpt><trkpt lat="45.6375133" lon="9.4180171"><ele>223.83333333333334</ele><time>2026-03-22T14:09:43.101Z</time></trkpt><trkpt lat="45.6375748" lon="9.4180415"><ele>224.0</ele><time>2026-03-22T14:09:44.101Z</time></trkpt><trkpt lat="45.6376986" lon="9.4180837"><ele>224.00000000000003</ele><time>2026-03-22T14:09:46.101Z</time></trkpt><trkpt lat="45.6377617" lon="9.418106"><ele>224.0</ele><time>2026-03-22T14:09:47.101Z</time></trkpt><trkpt lat="45.6378823" lon="9.4181471"><ele>224.0</ele><time>2026-03-22T14:09:49.101Z</time></trkpt><trkpt lat="45.6379458" lon="9.4181703"><ele>224.0</ele><time>2026-03-22T14:09:50.101Z</time></trkpt><trkpt lat="45.6380125" lon="9.4181869"><ele>224.00000000000003</ele><time>2026-03-22T14:09:51.101Z</time></trkpt><trkpt lat="45.6381367" lon="9.4182121"><ele>224.0</ele><time>2026-03-22T14:09:53.101Z</time></trkpt><trkpt lat="45.6382005" lon="9.4182179"><ele>223.79999999999998</ele><time>2026-03-22T14:09:54.101Z</time></trkpt><trkpt lat="45.6382983" lon="9.4182274"><ele>223.59999999999997</ele><time>2026-03-22T14:09:56.1Z</time></trkpt><trkpt lat="45.6383999" lon="9.4182514"><ele>223.4</ele><time>2026-03-22T14:09:58.101Z</time></trkpt><trkpt lat="45.638491" lon="9.4182211"><ele>223.2</ele><time>2026-03-22T14:10:00.101Z</time></trkpt><trkpt lat="45.6385608" lon="9.4181028"><ele>223.0</ele><time>2026-03-22T14:10:02.101Z</time></trkpt><trkpt lat="45.6386558" lon="9.4180252"><ele>223.8</ele><time>2026-03-22T14:10:04.101Z</time></trkpt><trkpt lat="45.6387705" lon="9.4180303"><ele>224.60000000000002</ele><time>2026-03-22T14:10:06.101Z</time></trkpt><trkpt lat="45.6388892" lon="9.4180566"><ele>225.39999999999998</ele><time>2026-03-22T14:10:08.101Z</time></trkpt><trkpt lat="45.6389538" lon="9.4180725"><ele>226.2</ele><time>2026-03-22T14:10:09.101Z</time></trkpt><trkpt lat="45.6390739" lon="9.4181013"><ele>227.0</ele><time>2026-03-22T14:10:11.101Z</time></trkpt><trkpt lat="45.6391409" lon="9.4181118"><ele>227.0</ele><time>2026-03-22T14:10:12.101Z</time></trkpt><trkpt lat="45.6392614" lon="9.4181357"><ele>227.0</ele><time>2026-03-22T14:10:14.101Z</time></trkpt><trkpt lat="45.6393263" lon="9.4181622"><ele>227.0</ele><time>2026-03-22T14:10:15.101Z</time></trkpt><trkpt lat="45.639448" lon="9.4181971"><ele>227.0</ele><time>2026-03-22T14:10:17.101Z</time></trkpt><trkpt lat="45.6395679" lon="9.4182366"><ele>227.0</ele><time>2026-03-22T14:10:19.101Z</time></trkpt><trkpt lat="45.6396903" lon="9.4182619"><ele>227.33333333333334</ele><time>2026-03-22T14:10:21.101Z</time></trkpt><trkpt lat="45.639759" lon="9.4182765"><ele>227.66666666666669</ele><time>2026-03-22T14:10:22.101Z</time></trkpt><trkpt lat="45.6398234" lon="9.4182881"><ele>228.0</ele><time>2026-03-22T14:10:23.101Z</time></trkpt><trkpt lat="45.6399385" lon="9.4183071"><ele>228.33333333333331</ele><time>2026-03-22T14:10:25.101Z</time></trkpt><trkpt lat="45.640005" lon="9.4183155"><ele>228.66666666666666</ele><time>2026-03-22T14:10:26.101Z</time></trkpt><trkpt lat="45.6401233" lon="9.4183233"><ele>229.0</ele><time>2026-03-22T14:10:28.101Z</time></trkpt><trkpt lat="45.6402386" lon="9.4183135"><ele>229.0</ele><time>2026-03-22T14:10:30.101Z</time></trkpt><trkpt lat="45.6403004" lon="9.4182963"><ele>228.99999999999997</ele><time>2026-03-22T14:10:31.1Z</time></trkpt><trkpt lat="45.6404203" lon="9.4182312"><ele>228.99999999999997</ele><time>2026-03-22T14:10:33.101Z</time></trkpt><trkpt lat="45.6405278" lon="9.4181475"><ele>229.0</ele><time>2026-03-22T14:10:35.1Z</time></trkpt><trkpt lat="45.640585" lon="9.4180976"><ele>229.0</ele><time>2026-03-22T14:10:36.1Z</time></trkpt><trkpt lat="45.6406933" lon="9.4179992"><ele>228.99999999999997</ele><time>2026-03-22T14:10:38.101Z</time></trkpt><trkpt lat="45.6407784" lon="9.4178659"><ele>229.0</ele><time>2026-03-22T14:10:40.101Z</time></trkpt><trkpt lat="45.6408103" lon="9.4177803"><ele>229.0</ele><time>2026-03-22T14:10:41.101Z</time></trkpt><trkpt lat="45.6408415" lon="9.4176918"><ele>229.0</ele><time>2026-03-22T14:10:42.101Z</time></trkpt><trkpt lat="45.6408752" lon="9.4176078"><ele>228.99999999999997</ele><time>2026-03-22T14:10:43.101Z</time></trkpt><trkpt lat="45.6409056" lon="9.4175167"><ele>229.0</ele><time>2026-03-22T14:10:44.101Z</time></trkpt><trkpt lat="45.6409317" lon="9.4174281"><ele>229.0</ele><time>2026-03-22T14:10:45.101Z</time></trkpt><trkpt lat="45.640967" lon="9.4173426"><ele>229.0</ele><time>2026-03-22T14:10:46.1Z</time></trkpt><trkpt lat="45.6409992" lon="9.4172568"><ele>229.0</ele><time>2026-03-22T14:10:47.101Z</time></trkpt><trkpt lat="45.6410288" lon="9.4171658"><ele>229.0</ele><time>2026-03-22T14:10:48.101Z</time></trkpt><trkpt lat="45.6410623" lon="9.4170755"><ele>229.0</ele><time>2026-03-22T14:10:49.1Z</time></trkpt><trkpt lat="45.6410914" lon="9.4169852"><ele>229.0</ele><time>2026-03-22T14:10:50.1Z</time></trkpt><trkpt lat="45.6411296" lon="9.4169003"><ele>229.0</ele><time>2026-03-22T14:10:51.101Z</time></trkpt><trkpt lat="45.6411583" lon="9.4168174"><ele>229.0</ele><time>2026-03-22T14:10:52.101Z</time></trkpt><trkpt lat="45.6412206" lon="9.4166514"><ele>229.0</ele><time>2026-03-22T14:10:54.101Z</time></trkpt><trkpt lat="45.6412755" lon="9.4164869"><ele>229.0</ele><time>2026-03-22T14:10:56.101Z</time></trkpt><trkpt lat="45.6413512" lon="9.416363"><ele>229.0</ele><time>2026-03-22T14:10:58.101Z</time></trkpt><trkpt lat="45.6414543" lon="9.4163523"><ele>229.0</ele><time>2026-03-22T14:11:00.101Z</time></trkpt><trkpt lat="45.641562" lon="9.416431"><ele>229.0</ele><time>2026-03-22T14:11:02.1Z</time></trkpt><trkpt lat="45.6416717" lon="9.4165007"><ele>229.0</ele><time>2026-03-22T14:11:04.101Z</time></trkpt><trkpt lat="45.6417847" lon="9.4165756"><ele>229.0</ele><time>2026-03-22T14:11:06.101Z</time></trkpt><trkpt lat="45.6418966" lon="9.4166567"><ele>229.0</ele><time>2026-03-22T14:11:08.101Z</time></trkpt><trkpt lat="45.6419584" lon="9.4166968"><ele>229.0</ele><time>2026-03-22T14:11:09.101Z</time></trkpt><trkpt lat="45.6420237" lon="9.4167331"><ele>229.0</ele><time>2026-03-22T14:11:10.101Z</time></trkpt><trkpt lat="45.6420866" lon="9.4167681"><ele>229.0</ele><time>2026-03-22T14:11:11.101Z</time></trkpt><trkpt lat="45.6421528" lon="9.4168035"><ele>229.0</ele><time>2026-03-22T14:11:12.101Z</time></trkpt><trkpt lat="45.6422141" lon="9.4168424"><ele>229.0</ele><time>2026-03-22T14:11:13.101Z</time></trkpt><trkpt lat="45.6422768" lon="9.4168855"><ele>229.0</ele><time>2026-03-22T14:11:14.101Z</time></trkpt><trkpt lat="45.6423376" lon="9.416924"><ele>229.0</ele><time>2026-03-22T14:11:15.101Z</time></trkpt><trkpt lat="45.6423997" lon="9.4169678"><ele>229.0</ele><time>2026-03-22T14:11:16.101Z</time></trkpt><trkpt lat="45.642459" lon="9.4170142"><ele>229.0</ele><time>2026-03-22T14:11:17.101Z</time></trkpt><trkpt lat="45.6425201" lon="9.4170578"><ele>229.0</ele><time>2026-03-22T14:11:18.101Z</time></trkpt><trkpt lat="45.6425823" lon="9.4170981"><ele>229.0</ele><time>2026-03-22T14:11:19.101Z</time></trkpt><trkpt lat="45.6426431" lon="9.4171373"><ele>229.0</ele><time>2026-03-22T14:11:20.101Z</time></trkpt><trkpt lat="45.6427067" lon="9.4171699"><ele>229.0</ele><time>2026-03-22T14:11:21.101Z</time></trkpt><trkpt lat="45.6428226" lon="9.4172501"><ele>228.99999999999997</ele><time>2026-03-22T14:11:23.101Z</time></trkpt><trkpt lat="45.6428811" lon="9.4172955"><ele>229.0</ele><time>2026-03-22T14:11:24.101Z</time></trkpt><trkpt lat="45.6429407" lon="9.4173353"><ele>229.0</ele><time>2026-03-22T14:11:25.1Z</time></trkpt><trkpt lat="45.6430559" lon="9.4174192"><ele>229.0</ele><time>2026-03-22T14:11:27.101Z</time></trkpt><trkpt lat="45.6431143" lon="9.4174637"><ele>228.99999999999997</ele><time>2026-03-22T14:11:28.101Z</time></trkpt><trkpt lat="45.6431715" lon="9.4175063"><ele>229.0</ele><time>2026-03-22T14:11:29.101Z</time></trkpt><trkpt lat="45.6432313" lon="9.4175496"><ele>229.0</ele><time>2026-03-22T14:11:30.101Z</time></trkpt><trkpt lat="45.6432884" lon="9.4175979"><ele>229.0</ele><time>2026-03-22T14:11:31.101Z</time></trkpt><trkpt lat="45.6433459" lon="9.4176384"><ele>229.0</ele><time>2026-03-22T14:11:32.101Z</time></trkpt><trkpt lat="45.643407" lon="9.4176775"><ele>229.0</ele><time>2026-03-22T14:11:33.1Z</time></trkpt><trkpt lat="45.6434693" lon="9.4177242"><ele>229.0</ele><time>2026-03-22T14:11:34.101Z</time></trkpt><trkpt lat="45.6435324" lon="9.4177669"><ele>229.0</ele><time>2026-03-22T14:11:35.101Z</time></trkpt><trkpt lat="45.6435909" lon="9.4178085"><ele>229.0</ele><time>2026-03-22T14:11:36.101Z</time></trkpt><trkpt lat="45.6437168" lon="9.4178897"><ele>228.85714285714283</ele><time>2026-03-22T14:11:38.101Z</time></trkpt><trkpt lat="45.6437799" lon="9.4179206"><ele>228.71428571428572</ele><time>2026-03-22T14:11:39.101Z</time></trkpt><trkpt lat="45.643843" lon="9.41795"><ele>228.57142857142856</ele><time>2026-03-22T14:11:40.101Z</time></trkpt><trkpt lat="45.6439042" lon="9.4179901"><ele>228.42857142857142</ele><time>2026-03-22T14:11:41.101Z</time></trkpt><trkpt lat="45.643967" lon="9.4180281"><ele>228.28571428571428</ele><time>2026-03-22T14:11:42.101Z</time></trkpt><trkpt lat="45.6440225" lon="9.4180765"><ele>228.14285714285714</ele><time>2026-03-22T14:11:43.101Z</time></trkpt><trkpt lat="45.6440728" lon="9.4181461"><ele>228.0</ele><time>2026-03-22T14:11:44.101Z</time></trkpt><trkpt lat="45.6441166" lon="9.4182171"><ele>228.0</ele><time>2026-03-22T14:11:45.101Z</time></trkpt><trkpt lat="45.644158" lon="9.4182909"><ele>227.99999999999997</ele><time>2026-03-22T14:11:46.101Z</time></trkpt><trkpt lat="45.6441857" lon="9.4183756"><ele>228.0</ele><time>2026-03-22T14:11:47.101Z</time></trkpt><trkpt lat="45.6442182" lon="9.4184592"><ele>228.0</ele><time>2026-03-22T14:11:48.101Z</time></trkpt><trkpt lat="45.6442452" lon="9.4185444"><ele>227.99999999999997</ele><time>2026-03-22T14:11:49.101Z</time></trkpt><trkpt lat="45.6442719" lon="9.4186282"><ele>228.0</ele><time>2026-03-22T14:11:50.101Z</time></trkpt><trkpt lat="45.6443027" lon="9.4187166"><ele>228.0</ele><time>2026-03-22T14:11:51.101Z</time></trkpt><trkpt lat="45.64433" lon="9.4188019"><ele>227.85714285714283</ele><time>2026-03-22T14:11:52.101Z</time></trkpt><trkpt lat="45.6443609" lon="9.4188887"><ele>227.7142857142857</ele><time>2026-03-22T14:11:53.101Z</time></trkpt><trkpt lat="45.6443917" lon="9.418972"><ele>227.57142857142856</ele><time>2026-03-22T14:11:54.101Z</time></trkpt><trkpt lat="45.6444179" lon="9.4190578"><ele>227.42857142857144</ele><time>2026-03-22T14:11:55.101Z</time></trkpt><trkpt lat="45.6444481" lon="9.4191438"><ele>227.2857142857143</ele><time>2026-03-22T14:11:56.101Z</time></trkpt><trkpt lat="45.6444766" lon="9.4192282"><ele>227.14285714285717</ele><time>2026-03-22T14:11:57.101Z</time></trkpt><trkpt lat="45.6445047" lon="9.4193092"><ele>227.0</ele><time>2026-03-22T14:11:58.1Z</time></trkpt><trkpt lat="45.6445328" lon="9.4193927"><ele>227.0</ele><time>2026-03-22T14:11:59.101Z</time></trkpt><trkpt lat="45.6445632" lon="9.41948"><ele>227.0</ele><time>2026-03-22T14:12:00.101Z</time></trkpt><trkpt lat="45.6446187" lon="9.419632"><ele>227.0</ele><time>2026-03-22T14:12:02.101Z</time></trkpt><trkpt lat="45.6446732" lon="9.4197734"><ele>227.0</ele><time>2026-03-22T14:12:04.101Z</time></trkpt><trkpt lat="45.644738" lon="9.419908"><ele>227.0</ele><time>2026-03-22T14:12:06.101Z</time></trkpt><trkpt lat="45.6447884" lon="9.4200483"><ele>228.2</ele><time>2026-03-22T14:12:08.101Z</time></trkpt><trkpt lat="45.6448387" lon="9.4201854"><ele>229.39999999999998</ele><time>2026-03-22T14:12:10.101Z</time></trkpt><trkpt lat="45.6448925" lon="9.4203048"><ele>230.60000000000002</ele><time>2026-03-22T14:12:12.101Z</time></trkpt><trkpt lat="45.6449309" lon="9.4204211"><ele>231.8</ele><time>2026-03-22T14:12:14.1Z</time></trkpt><trkpt lat="45.6449666" lon="9.4205271"><ele>233.0</ele><time>2026-03-22T14:12:16.1Z</time></trkpt><trkpt lat="45.6450091" lon="9.4206489"><ele>233.8</ele><time>2026-03-22T14:12:18.101Z</time></trkpt><trkpt lat="45.6450593" lon="9.4207687"><ele>234.60000000000002</ele><time>2026-03-22T14:12:20.101Z</time></trkpt><trkpt lat="45.6451084" lon="9.4208827"><ele>235.39999999999998</ele><time>2026-03-22T14:12:22.101Z</time></trkpt><trkpt lat="45.6451486" lon="9.4209929"><ele>236.2</ele><time>2026-03-22T14:12:24.101Z</time></trkpt><trkpt lat="45.6451923" lon="9.421116"><ele>237.0</ele><time>2026-03-22T14:12:26.101Z</time></trkpt><trkpt lat="45.6452378" lon="9.4212262"><ele>237.0</ele><time>2026-03-22T14:12:28.1Z</time></trkpt><trkpt lat="45.64527" lon="9.421314"><ele>237.0</ele><time>2026-03-22T14:12:30.101Z</time></trkpt><trkpt lat="45.645312" lon="9.4214312"><ele>237.0</ele><time>2026-03-22T14:12:32.101Z</time></trkpt><trkpt lat="45.645359" lon="9.4215764"><ele>237.0</ele><time>2026-03-22T14:12:34.1Z</time></trkpt><trkpt lat="45.6454081" lon="9.4217034"><ele>237.0</ele><time>2026-03-22T14:12:36.101Z</time></trkpt><trkpt lat="45.6454563" lon="9.4218281"><ele>236.6</ele><time>2026-03-22T14:12:38.1Z</time></trkpt><trkpt lat="45.6455062" lon="9.4219504"><ele>236.2</ele><time>2026-03-22T14:12:40.101Z</time></trkpt><trkpt lat="45.6455651" lon="9.4220711"><ele>235.8</ele><time>2026-03-22T14:12:42.101Z</time></trkpt><trkpt lat="45.6456367" lon="9.4221803"><ele>235.4</ele><time>2026-03-22T14:12:44.101Z</time></trkpt><trkpt lat="45.6457196" lon="9.4222779"><ele>235.0</ele><time>2026-03-22T14:12:46.101Z</time></trkpt><trkpt lat="45.6458092" lon="9.4223661"><ele>235.0</ele><time>2026-03-22T14:12:48.101Z</time></trkpt><trkpt lat="45.6459047" lon="9.4224495"><ele>235.0</ele><time>2026-03-22T14:12:50.101Z</time></trkpt><trkpt lat="45.6460029" lon="9.4225324"><ele>235.0</ele><time>2026-03-22T14:12:52.101Z</time></trkpt><trkpt lat="45.646105" lon="9.4226212"><ele>235.0</ele><time>2026-03-22T14:12:54.101Z</time></trkpt><trkpt lat="45.6462066" lon="9.4227116"><ele>235.0</ele><time>2026-03-22T14:12:56.101Z</time></trkpt><trkpt lat="45.6463041" lon="9.4227957"><ele>235.0</ele><time>2026-03-22T14:12:58.101Z</time></trkpt><trkpt lat="45.6464074" lon="9.4228818"><ele>235.0</ele><time>2026-03-22T14:13:00.101Z</time></trkpt><trkpt lat="45.6465118" lon="9.4229638"><ele>235.0</ele><time>2026-03-22T14:13:02.101Z</time></trkpt><trkpt lat="45.6466181" lon="9.4230481"><ele>235.6</ele><time>2026-03-22T14:13:04.101Z</time></trkpt><trkpt lat="45.6467241" lon="9.4231253"><ele>236.2</ele><time>2026-03-22T14:13:06.101Z</time></trkpt><trkpt lat="45.646833" lon="9.4232134"><ele>236.8</ele><time>2026-03-22T14:13:08.101Z</time></trkpt><trkpt lat="45.6469445" lon="9.4233044"><ele>237.4</ele><time>2026-03-22T14:13:10.101Z</time></trkpt><trkpt lat="45.6470027" lon="9.4233477"><ele>238.0</ele><time>2026-03-22T14:13:11.101Z</time></trkpt><trkpt lat="45.6470606" lon="9.4233917"><ele>238.0</ele><time>2026-03-22T14:13:12.101Z</time></trkpt><trkpt lat="45.6471741" lon="9.4234703"><ele>238.0</ele><time>2026-03-22T14:13:14.101Z</time></trkpt><trkpt lat="45.6472931" lon="9.4235167"><ele>238.0</ele><time>2026-03-22T14:13:16.101Z</time></trkpt><trkpt lat="45.647417" lon="9.423527"><ele>238.0</ele><time>2026-03-22T14:13:18.1Z</time></trkpt><trkpt lat="45.6475399" lon="9.4235218"><ele>238.0</ele><time>2026-03-22T14:13:20.101Z</time></trkpt><trkpt lat="45.6476616" lon="9.4235057"><ele>238.0</ele><time>2026-03-22T14:13:22.1Z</time></trkpt><trkpt lat="45.6477806" lon="9.4234937"><ele>238.0</ele><time>2026-03-22T14:13:24.101Z</time></trkpt><trkpt lat="45.6479036" lon="9.4235011"><ele>238.0</ele><time>2026-03-22T14:13:26.101Z</time></trkpt><trkpt lat="45.648029" lon="9.4234944"><ele>237.85714285714286</ele><time>2026-03-22T14:13:28.101Z</time></trkpt><trkpt lat="45.6480995" lon="9.423493"><ele>237.71428571428572</ele><time>2026-03-22T14:13:29.101Z</time></trkpt><trkpt lat="45.6481708" lon="9.4234921"><ele>237.57142857142856</ele><time>2026-03-22T14:13:30.101Z</time></trkpt><trkpt lat="45.648235" lon="9.4234794"><ele>237.42857142857142</ele><time>2026-03-22T14:13:31.101Z</time></trkpt><trkpt lat="45.6483066" lon="9.4234655"><ele>237.28571428571428</ele><time>2026-03-22T14:13:32.101Z</time></trkpt><trkpt lat="45.6483736" lon="9.4234628"><ele>237.1428571428571</ele><time>2026-03-22T14:13:33.101Z</time></trkpt><trkpt lat="45.6484408" lon="9.4234589"><ele>236.99999999999997</ele><time>2026-03-22T14:13:34.101Z</time></trkpt><trkpt lat="45.6485039" lon="9.4234519"><ele>237.0</ele><time>2026-03-22T14:13:35.101Z</time></trkpt><trkpt lat="45.6485726" lon="9.4234511"><ele>237.0</ele><time>2026-03-22T14:13:36.101Z</time></trkpt><trkpt lat="45.6486409" lon="9.4234524"><ele>237.0</ele><time>2026-03-22T14:13:37.101Z</time></trkpt><trkpt lat="45.6487073" lon="9.4234495"><ele>237.0</ele><time>2026-03-22T14:13:38.101Z</time></trkpt><trkpt lat="45.6487728" lon="9.4234444"><ele>237.0</ele><time>2026-03-22T14:13:39.101Z</time></trkpt><trkpt lat="45.6488913" lon="9.4234324"><ele>237.0</ele><time>2026-03-22T14:13:41.101Z</time></trkpt><trkpt lat="45.6489813" lon="9.4233533"><ele>237.0</ele><time>2026-03-22T14:13:43.101Z</time></trkpt><trkpt lat="45.6489947" lon="9.4232015"><ele>237.0</ele><time>2026-03-22T14:13:45.1Z</time></trkpt><trkpt lat="45.6489853" lon="9.4230287"><ele>237.0</ele><time>2026-03-22T14:13:47.101Z</time></trkpt><trkpt lat="45.6489844" lon="9.4229348"><ele>237.0</ele><time>2026-03-22T14:13:48.1Z</time></trkpt><trkpt lat="45.6489823" lon="9.4228362"><ele>237.0</ele><time>2026-03-22T14:13:49.101Z</time></trkpt><trkpt lat="45.6489794" lon="9.4227354"><ele>237.0</ele><time>2026-03-22T14:13:50.101Z</time></trkpt><trkpt lat="45.6489775" lon="9.4226351"><ele>236.16666666666666</ele><time>2026-03-22T14:13:51.101Z</time></trkpt><trkpt lat="45.648975" lon="9.4225386"><ele>235.33333333333331</ele><time>2026-03-22T14:13:52.101Z</time></trkpt><trkpt lat="45.6489845" lon="9.4223887"><ele>234.5</ele><time>2026-03-22T14:13:54.1Z</time></trkpt><trkpt lat="45.6490188" lon="9.4222986"><ele>233.66666666666666</ele><time>2026-03-22T14:13:56.101Z</time></trkpt><trkpt lat="45.6491058" lon="9.422297"><ele>232.83333333333331</ele><time>2026-03-22T14:13:58.1Z</time></trkpt><trkpt lat="45.6492089" lon="9.422306"><ele>232.0</ele><time>2026-03-22T14:14:00.101Z</time></trkpt><trkpt lat="45.6493177" lon="9.4223154"><ele>232.0</ele><time>2026-03-22T14:14:02.101Z</time></trkpt><trkpt lat="45.6494311" lon="9.4223199"><ele>232.0</ele><time>2026-03-22T14:14:04.101Z</time></trkpt><trkpt lat="45.6495486" lon="9.4223239"><ele>232.0</ele><time>2026-03-22T14:14:06.101Z</time></trkpt><trkpt lat="45.6496692" lon="9.422329"><ele>232.0</ele><time>2026-03-22T14:14:08.101Z</time></trkpt><trkpt lat="45.6497828" lon="9.422354"><ele>232.2</ele><time>2026-03-22T14:14:10.101Z</time></trkpt><trkpt lat="45.6498881" lon="9.4223786"><ele>232.39999999999998</ele><time>2026-03-22T14:14:12.101Z</time></trkpt><trkpt lat="45.6499953" lon="9.4224011"><ele>232.60000000000002</ele><time>2026-03-22T14:14:14.101Z</time></trkpt><trkpt lat="45.6501073" lon="9.4224287"><ele>232.8</ele><time>2026-03-22T14:14:16.101Z</time></trkpt><trkpt lat="45.6502209" lon="9.4224584"><ele>233.0</ele><time>2026-03-22T14:14:18.101Z</time></trkpt><trkpt lat="45.6503151" lon="9.4224449"><ele>233.0</ele><time>2026-03-22T14:14:20.101Z</time></trkpt><trkpt lat="45.6503736" lon="9.4224061"><ele>233.0</ele><time>2026-03-22T14:14:21.101Z</time></trkpt><trkpt lat="45.6504402" lon="9.4223792"><ele>233.0</ele><time>2026-03-22T14:14:22.101Z</time></trkpt><trkpt lat="45.6505174" lon="9.4223816"><ele>233.0</ele><time>2026-03-22T14:14:23.101Z</time></trkpt><trkpt lat="45.6505865" lon="9.4224011"><ele>233.0</ele><time>2026-03-22T14:14:24.101Z</time></trkpt><trkpt lat="45.6506516" lon="9.4224268"><ele>233.0</ele><time>2026-03-22T14:14:25.101Z</time></trkpt><trkpt lat="45.6507156" lon="9.4224428"><ele>233.0</ele><time>2026-03-22T14:14:26.101Z</time></trkpt><trkpt lat="45.6507821" lon="9.4224618"><ele>233.00000000000003</ele><time>2026-03-22T14:14:27.1Z</time></trkpt><trkpt lat="45.6508489" lon="9.4224811"><ele>233.0</ele><time>2026-03-22T14:14:28.101Z</time></trkpt><trkpt lat="45.6509194" lon="9.4224926"><ele>233.0</ele><time>2026-03-22T14:14:29.101Z</time></trkpt><trkpt lat="45.6509863" lon="9.4225131"><ele>233.0</ele><time>2026-03-22T14:14:30.101Z</time></trkpt><trkpt lat="45.6510531" lon="9.4225272"><ele>233.00000000000003</ele><time>2026-03-22T14:14:31.101Z</time></trkpt><trkpt lat="45.6511793" lon="9.4225276"><ele>233.0</ele><time>2026-03-22T14:14:33.101Z</time></trkpt><trkpt lat="45.6512462" lon="9.4225433"><ele>232.83333333333334</ele><time>2026-03-22T14:14:34.1Z</time></trkpt><trkpt lat="45.6513127" lon="9.4225706"><ele>232.66666666666669</ele><time>2026-03-22T14:14:35.101Z</time></trkpt><trkpt lat="45.6514389" lon="9.422607"><ele>232.5</ele><time>2026-03-22T14:14:37.101Z</time></trkpt><trkpt lat="45.6514798" lon="9.4225141"><ele>232.33333333333331</ele><time>2026-03-22T14:14:39.1Z</time></trkpt><trkpt lat="45.6515015" lon="9.4224197"><ele>232.16666666666666</ele><time>2026-03-22T14:14:40.1Z</time></trkpt><trkpt lat="45.6515363" lon="9.4222811"><ele>232.0</ele><time>2026-03-22T14:14:42.101Z</time></trkpt><trkpt lat="45.6515659" lon="9.4221206"><ele>232.8</ele><time>2026-03-22T14:14:44.1Z</time></trkpt><trkpt lat="45.6515883" lon="9.4219616"><ele>233.6</ele><time>2026-03-22T14:14:46.101Z</time></trkpt><trkpt lat="45.6516107" lon="9.4218209"><ele>234.40000000000003</ele><time>2026-03-22T14:14:48.101Z</time></trkpt><trkpt lat="45.6516367" lon="9.4216646"><ele>235.20000000000002</ele><time>2026-03-22T14:14:50.101Z</time></trkpt><trkpt lat="45.6516935" lon="9.4216105"><ele>236.0</ele><time>2026-03-22T14:14:52.101Z</time></trkpt><trkpt lat="45.6519458" lon="9.4216525"><ele>236.33333333333334</ele><time>2026-03-22T14:14:58.101Z</time></trkpt><trkpt lat="45.6520414" lon="9.4216748"><ele>236.66666666666669</ele><time>2026-03-22T14:15:00.101Z</time></trkpt><trkpt lat="45.6521176" lon="9.4217208"><ele>237.0</ele><time>2026-03-22T14:15:02.101Z</time></trkpt><trkpt lat="45.6521841" lon="9.4217674"><ele>237.33333333333331</ele><time>2026-03-22T14:15:04.101Z</time></trkpt><trkpt lat="45.6522636" lon="9.4218013"><ele>237.66666666666666</ele><time>2026-03-22T14:15:06.101Z</time></trkpt><trkpt lat="45.6523555" lon="9.4218379"><ele>238.0</ele><time>2026-03-22T14:15:08.101Z</time></trkpt><trkpt lat="45.6524541" lon="9.421857"><ele>238.0</ele><time>2026-03-22T14:15:10.101Z</time></trkpt><trkpt lat="45.6525432" lon="9.4218866"><ele>238.0</ele><time>2026-03-22T14:15:12.101Z</time></trkpt><trkpt lat="45.6526265" lon="9.4219137"><ele>238.0</ele><time>2026-03-22T14:15:14.1Z</time></trkpt><trkpt lat="45.6527163" lon="9.4219232"><ele>238.0</ele><time>2026-03-22T14:15:16.101Z</time></trkpt><trkpt lat="45.6528341" lon="9.4219237"><ele>238.0</ele><time>2026-03-22T14:15:18.1Z</time></trkpt><trkpt lat="45.6529449" lon="9.421929"><ele>237.75</ele><time>2026-03-22T14:15:20.101Z</time></trkpt><trkpt lat="45.6530566" lon="9.4219383"><ele>237.5</ele><time>2026-03-22T14:15:22.101Z</time></trkpt><trkpt lat="45.6531603" lon="9.4219395"><ele>237.25</ele><time>2026-03-22T14:15:24.101Z</time></trkpt><trkpt lat="45.6532614" lon="9.4219353"><ele>237.0</ele><time>2026-03-22T14:15:26.101Z</time></trkpt><trkpt lat="45.6534547" lon="9.421907"><ele>237.0</ele><time>2026-03-22T14:15:28.101Z</time></trkpt><trkpt lat="45.6535832" lon="9.4219041"><ele>237.0</ele><time>2026-03-22T14:15:30.101Z</time></trkpt><trkpt lat="45.6537098" lon="9.421885"><ele>237.0</ele><time>2026-03-22T14:15:32.101Z</time></trkpt><trkpt lat="45.6538287" lon="9.4218749"><ele>237.0</ele><time>2026-03-22T14:15:34.101Z</time></trkpt><trkpt lat="45.653938" lon="9.4218187"><ele>236.6</ele><time>2026-03-22T14:15:36.101Z</time></trkpt><trkpt lat="45.6540178" lon="9.4218189"><ele>236.2</ele><time>2026-03-22T14:15:37.101Z</time></trkpt><trkpt lat="45.6541337" lon="9.4217912"><ele>235.8</ele><time>2026-03-22T14:15:39.101Z</time></trkpt><trkpt lat="45.6542336" lon="9.421752"><ele>235.4</ele><time>2026-03-22T14:15:41.101Z</time></trkpt><trkpt lat="45.6543102" lon="9.42174"><ele>235.0</ele><time>2026-03-22T14:15:43.101Z</time></trkpt><trkpt lat="45.6544012" lon="9.4217153"><ele>235.25</ele><time>2026-03-22T14:15:45.101Z</time></trkpt><trkpt lat="45.6544726" lon="9.4217108"><ele>235.5</ele><time>2026-03-22T14:15:46.101Z</time></trkpt><trkpt lat="45.6546891" lon="9.4217335"><ele>235.75</ele><time>2026-03-22T14:15:50.101Z</time></trkpt><trkpt lat="45.6548267" lon="9.4217651"><ele>236.0</ele><time>2026-03-22T14:15:52.101Z</time></trkpt><trkpt lat="45.6549127" lon="9.4217691"><ele>236.00000000000003</ele><time>2026-03-22T14:15:53.101Z</time></trkpt><trkpt lat="45.655031" lon="9.4217958"><ele>236.0</ele><time>2026-03-22T14:15:55.101Z</time></trkpt><trkpt lat="45.6551024" lon="9.4218115"><ele>236.0</ele><time>2026-03-22T14:15:56.101Z</time></trkpt><trkpt lat="45.6551658" lon="9.4218378"><ele>236.0</ele><time>2026-03-22T14:15:57.101Z</time></trkpt><trkpt lat="45.6552313" lon="9.4218692"><ele>236.00000000000003</ele><time>2026-03-22T14:15:58.101Z</time></trkpt><trkpt lat="45.655297" lon="9.4219008"><ele>236.0</ele><time>2026-03-22T14:15:59.101Z</time></trkpt><trkpt lat="45.6554201" lon="9.4219712"><ele>235.83333333333334</ele><time>2026-03-22T14:16:01.1Z</time></trkpt><trkpt lat="45.6554817" lon="9.422006"><ele>235.66666666666669</ele><time>2026-03-22T14:16:02.101Z</time></trkpt><trkpt lat="45.6555925" lon="9.4220803"><ele>235.5</ele><time>2026-03-22T14:16:04.101Z</time></trkpt><trkpt lat="45.655658" lon="9.4221156"><ele>235.33333333333331</ele><time>2026-03-22T14:16:05.101Z</time></trkpt><trkpt lat="45.6557157" lon="9.4221581"><ele>235.16666666666666</ele><time>2026-03-22T14:16:06.101Z</time></trkpt><trkpt lat="45.6557753" lon="9.4221958"><ele>235.0</ele><time>2026-03-22T14:16:07.101Z</time></trkpt><trkpt lat="45.6558873" lon="9.4222719"><ele>235.0</ele><time>2026-03-22T14:16:09.101Z</time></trkpt><trkpt lat="45.6559494" lon="9.4222957"><ele>234.99999999999997</ele><time>2026-03-22T14:16:10.101Z</time></trkpt><trkpt lat="45.6560164" lon="9.4223361"><ele>235.0</ele><time>2026-03-22T14:16:11.101Z</time></trkpt><trkpt lat="45.6560822" lon="9.4223728"><ele>235.0</ele><time>2026-03-22T14:16:12.101Z</time></trkpt><trkpt lat="45.6561481" lon="9.4223967"><ele>234.99999999999997</ele><time>2026-03-22T14:16:13.101Z</time></trkpt><trkpt lat="45.6562136" lon="9.4224236"><ele>235.0</ele><time>2026-03-22T14:16:14.101Z</time></trkpt><trkpt lat="45.6562743" lon="9.4224588"><ele>235.0</ele><time>2026-03-22T14:16:15.101Z</time></trkpt><trkpt lat="45.6563824" lon="9.4225229"><ele>235.14285714285714</ele><time>2026-03-22T14:16:17.101Z</time></trkpt><trkpt lat="45.6564423" lon="9.422551"><ele>235.28571428571428</ele><time>2026-03-22T14:16:18.101Z</time></trkpt><trkpt lat="45.6565593" lon="9.4225995"><ele>235.42857142857142</ele><time>2026-03-22T14:16:20.101Z</time></trkpt><trkpt lat="45.6566228" lon="9.4226372"><ele>235.57142857142856</ele><time>2026-03-22T14:16:21.101Z</time></trkpt><trkpt lat="45.656683" lon="9.4226682"><ele>235.71428571428572</ele><time>2026-03-22T14:16:22.101Z</time></trkpt><trkpt lat="45.6567459" lon="9.4226938"><ele>235.85714285714283</ele><time>2026-03-22T14:16:23.101Z</time></trkpt><trkpt lat="45.6568065" lon="9.4227269"><ele>236.0</ele><time>2026-03-22T14:16:24.101Z</time></trkpt><trkpt lat="45.656871" lon="9.4227532"><ele>236.0</ele><time>2026-03-22T14:16:25.101Z</time></trkpt><trkpt lat="45.6569318" lon="9.422779"><ele>236.0</ele><time>2026-03-22T14:16:26.101Z</time></trkpt><trkpt lat="45.6570006" lon="9.4227964"><ele>236.0</ele><time>2026-03-22T14:16:27.101Z</time></trkpt><trkpt lat="45.6570744" lon="9.4228168"><ele>236.0</ele><time>2026-03-22T14:16:28.101Z</time></trkpt><trkpt lat="45.6571379" lon="9.4228486"><ele>236.0</ele><time>2026-03-22T14:16:29.101Z</time></trkpt><trkpt lat="45.6572029" lon="9.4228651"><ele>236.0</ele><time>2026-03-22T14:16:30.101Z</time></trkpt><trkpt lat="45.6572635" lon="9.4228946"><ele>236.0</ele><time>2026-03-22T14:16:31.101Z</time></trkpt><trkpt lat="45.6573841" lon="9.4229502"><ele>236.00000000000003</ele><time>2026-03-22T14:16:33.101Z</time></trkpt><trkpt lat="45.6574458" lon="9.4229714"><ele>236.0</ele><time>2026-03-22T14:16:34.101Z</time></trkpt><trkpt lat="45.6575709" lon="9.4229843"><ele>236.0</ele><time>2026-03-22T14:16:36.101Z</time></trkpt><trkpt lat="45.6576395" lon="9.4229782"><ele>236.0</ele><time>2026-03-22T14:16:37.101Z</time></trkpt><trkpt lat="45.6577068" lon="9.4229771"><ele>236.00000000000003</ele><time>2026-03-22T14:16:38.101Z</time></trkpt><trkpt lat="45.6577731" lon="9.4229859"><ele>236.0</ele><time>2026-03-22T14:16:39.101Z</time></trkpt><trkpt lat="45.6578364" lon="9.4229989"><ele>235.8</ele><time>2026-03-22T14:16:40.101Z</time></trkpt><trkpt lat="45.6579034" lon="9.4230112"><ele>235.60000000000002</ele><time>2026-03-22T14:16:41.101Z</time></trkpt><trkpt lat="45.6580278" lon="9.4230581"><ele>235.4</ele><time>2026-03-22T14:16:43.101Z</time></trkpt><trkpt lat="45.6580912" lon="9.4230858"><ele>235.2</ele><time>2026-03-22T14:16:44.101Z</time></trkpt><trkpt lat="45.658201" lon="9.4231608"><ele>235.0</ele><time>2026-03-22T14:16:46.101Z</time></trkpt><trkpt lat="45.6582625" lon="9.4232051"><ele>234.99999999999997</ele><time>2026-03-22T14:16:47.101Z</time></trkpt><trkpt lat="45.658366" lon="9.4233051"><ele>235.0</ele><time>2026-03-22T14:16:49.1Z</time></trkpt><trkpt lat="45.6584222" lon="9.4233515"><ele>235.0</ele><time>2026-03-22T14:16:50.1Z</time></trkpt><trkpt lat="45.6584792" lon="9.4234034"><ele>235.0</ele><time>2026-03-22T14:16:51.1Z</time></trkpt><trkpt lat="45.6585346" lon="9.4234544"><ele>234.99999999999997</ele><time>2026-03-22T14:16:52.101Z</time></trkpt><trkpt lat="45.6585896" lon="9.4235057"><ele>235.0</ele><time>2026-03-22T14:16:53.101Z</time></trkpt><trkpt lat="45.6586462" lon="9.4235624"><ele>234.99999999999997</ele><time>2026-03-22T14:16:54.101Z</time></trkpt><trkpt lat="45.6587008" lon="9.4236075"><ele>235.0</ele><time>2026-03-22T14:16:55.101Z</time></trkpt><trkpt lat="45.6588091" lon="9.4237"><ele>235.0</ele><time>2026-03-22T14:16:57.101Z</time></trkpt><trkpt lat="45.6588617" lon="9.4237542"><ele>235.0</ele><time>2026-03-22T14:16:58.101Z</time></trkpt><trkpt lat="45.658918" lon="9.423808"><ele>234.99999999999997</ele><time>2026-03-22T14:16:59.101Z</time></trkpt><trkpt lat="45.6589725" lon="9.423862"><ele>235.0</ele><time>2026-03-22T14:17:00.101Z</time></trkpt><trkpt lat="45.6590736" lon="9.4239685"><ele>235.0</ele><time>2026-03-22T14:17:02.101Z</time></trkpt><trkpt lat="45.6591433" lon="9.4240939"><ele>235.0</ele><time>2026-03-22T14:17:04.101Z</time></trkpt><trkpt lat="45.6591431" lon="9.4242154"><ele>235.0</ele><time>2026-03-22T14:17:06.101Z</time></trkpt><trkpt lat="45.6590974" lon="9.4243368"><ele>235.0</ele><time>2026-03-22T14:17:08.101Z</time></trkpt><trkpt lat="45.6590912" lon="9.42447"><ele>235.0</ele><time>2026-03-22T14:17:10.101Z</time></trkpt><trkpt lat="45.6591348" lon="9.4245769"><ele>234.75</ele><time>2026-03-22T14:17:12.101Z</time></trkpt><trkpt lat="45.6592179" lon="9.4246943"><ele>234.5</ele><time>2026-03-22T14:17:14.101Z</time></trkpt><trkpt lat="45.6593078" lon="9.4248055"><ele>234.25</ele><time>2026-03-22T14:17:16.101Z</time></trkpt><trkpt lat="45.6594011" lon="9.4249187"><ele>234.0</ele><time>2026-03-22T14:17:18.101Z</time></trkpt><trkpt lat="45.6594976" lon="9.425008"><ele>234.39999999999998</ele><time>2026-03-22T14:17:20.101Z</time></trkpt><trkpt lat="45.6595986" lon="9.4250938"><ele>234.79999999999998</ele><time>2026-03-22T14:17:22.101Z</time></trkpt><trkpt lat="45.6596993" lon="9.425182"><ele>235.20000000000002</ele><time>2026-03-22T14:17:24.101Z</time></trkpt><trkpt lat="45.6597522" lon="9.4252363"><ele>235.60000000000002</ele><time>2026-03-22T14:17:25.101Z</time></trkpt><trkpt lat="45.6598489" lon="9.4253243"><ele>236.0</ele><time>2026-03-22T14:17:27.101Z</time></trkpt><trkpt lat="45.6599497" lon="9.4254058"><ele>236.0</ele><time>2026-03-22T14:17:29.101Z</time></trkpt><trkpt lat="45.6600544" lon="9.4254876"><ele>236.00000000000003</ele><time>2026-03-22T14:17:31.101Z</time></trkpt><trkpt lat="45.6601183" lon="9.4255235"><ele>236.00000000000003</ele><time>2026-03-22T14:17:32.101Z</time></trkpt><trkpt lat="45.6602221" lon="9.4255991"><ele>236.0</ele><time>2026-03-22T14:17:34.101Z</time></trkpt><trkpt lat="45.660305" lon="9.4256961"><ele>236.0</ele><time>2026-03-22T14:17:36.101Z</time></trkpt><trkpt lat="45.6603578" lon="9.4257639"><ele>236.0</ele><time>2026-03-22T14:17:37.101Z</time></trkpt><trkpt lat="45.660422" lon="9.4258141"><ele>236.00000000000003</ele><time>2026-03-22T14:17:38.101Z</time></trkpt><trkpt lat="45.6604721" lon="9.4258712"><ele>236.00000000000003</ele><time>2026-03-22T14:17:39.101Z</time></trkpt><trkpt lat="45.6605766" lon="9.4259736"><ele>236.0</ele><time>2026-03-22T14:17:41.101Z</time></trkpt><trkpt lat="45.6606809" lon="9.4260704"><ele>236.0</ele><time>2026-03-22T14:17:43.101Z</time></trkpt><trkpt lat="45.6607781" lon="9.4261861"><ele>236.0</ele><time>2026-03-22T14:17:45.1Z</time></trkpt><trkpt lat="45.6608313" lon="9.4262443"><ele>236.00000000000003</ele><time>2026-03-22T14:17:46.101Z</time></trkpt><trkpt lat="45.6609247" lon="9.4263373"><ele>236.00000000000003</ele><time>2026-03-22T14:17:48.1Z</time></trkpt><trkpt lat="45.6610169" lon="9.4264353"><ele>236.0</ele><time>2026-03-22T14:17:50.1Z</time></trkpt><trkpt lat="45.661111" lon="9.4265323"><ele>236.0</ele><time>2026-03-22T14:17:52.101Z</time></trkpt><trkpt lat="45.661209" lon="9.4266327"><ele>236.4</ele><time>2026-03-22T14:17:54.101Z</time></trkpt><trkpt lat="45.6613092" lon="9.4267406"><ele>236.8</ele><time>2026-03-22T14:17:56.101Z</time></trkpt><trkpt lat="45.6614109" lon="9.4268326"><ele>237.20000000000002</ele><time>2026-03-22T14:17:58.1Z</time></trkpt><trkpt lat="45.6615154" lon="9.4269071"><ele>237.60000000000002</ele><time>2026-03-22T14:18:00.101Z</time></trkpt><trkpt lat="45.6615801" lon="9.4269498"><ele>238.0</ele><time>2026-03-22T14:18:01.101Z</time></trkpt><trkpt lat="45.6616864" lon="9.4270421"><ele>237.99999999999997</ele><time>2026-03-22T14:18:03.101Z</time></trkpt><trkpt lat="45.6617975" lon="9.4271284"><ele>238.0</ele><time>2026-03-22T14:18:05.1Z</time></trkpt><trkpt lat="45.6618571" lon="9.4271987"><ele>238.0</ele><time>2026-03-22T14:18:06.101Z</time></trkpt><trkpt lat="45.6619137" lon="9.4272483"><ele>238.0</ele><time>2026-03-22T14:18:07.101Z</time></trkpt><trkpt lat="45.6619663" lon="9.4273098"><ele>237.99999999999997</ele><time>2026-03-22T14:18:08.101Z</time></trkpt><trkpt lat="45.6620198" lon="9.4273587"><ele>238.0</ele><time>2026-03-22T14:18:09.1Z</time></trkpt><trkpt lat="45.6620715" lon="9.4274131"><ele>237.8</ele><time>2026-03-22T14:18:10.101Z</time></trkpt><trkpt lat="45.662157" lon="9.4275337"><ele>237.60000000000002</ele><time>2026-03-22T14:18:12.101Z</time></trkpt><trkpt lat="45.6622376" lon="9.4276526"><ele>237.39999999999998</ele><time>2026-03-22T14:18:14.101Z</time></trkpt><trkpt lat="45.6623275" lon="9.427758"><ele>237.2</ele><time>2026-03-22T14:18:16.101Z</time></trkpt><trkpt lat="45.6623826" lon="9.4278137"><ele>237.0</ele><time>2026-03-22T14:18:17.101Z</time></trkpt><trkpt lat="45.6624371" lon="9.4278592"><ele>237.0</ele><time>2026-03-22T14:18:18.101Z</time></trkpt><trkpt lat="45.6624913" lon="9.4279079"><ele>237.0</ele><time>2026-03-22T14:18:19.101Z</time></trkpt><trkpt lat="45.6625913" lon="9.4280064"><ele>237.0</ele><time>2026-03-22T14:18:21.101Z</time></trkpt><trkpt lat="45.6626965" lon="9.428097"><ele>237.0</ele><time>2026-03-22T14:18:23.101Z</time></trkpt><trkpt lat="45.6627969" lon="9.4281856"><ele>237.0</ele><time>2026-03-22T14:18:25.101Z</time></trkpt><trkpt lat="45.6628994" lon="9.428272"><ele>237.39999999999998</ele><time>2026-03-22T14:18:27.101Z</time></trkpt><trkpt lat="45.6629568" lon="9.4283173"><ele>237.79999999999998</ele><time>2026-03-22T14:18:28.101Z</time></trkpt><trkpt lat="45.6630391" lon="9.4284364"><ele>238.2</ele><time>2026-03-22T14:18:30.101Z</time></trkpt><trkpt lat="45.6630704" lon="9.4285831"><ele>238.6</ele><time>2026-03-22T14:18:32.101Z</time></trkpt><trkpt lat="45.6631466" lon="9.42869"><ele>239.0</ele><time>2026-03-22T14:18:34.1Z</time></trkpt><trkpt lat="45.663254" lon="9.4287396"><ele>239.0</ele><time>2026-03-22T14:18:36.101Z</time></trkpt><trkpt lat="45.66337" lon="9.4287814"><ele>238.99999999999997</ele><time>2026-03-22T14:18:38.1Z</time></trkpt><trkpt lat="45.6634833" lon="9.4288476"><ele>238.99999999999997</ele><time>2026-03-22T14:18:40.101Z</time></trkpt><trkpt lat="45.6635438" lon="9.4288895"><ele>239.0</ele><time>2026-03-22T14:18:41.101Z</time></trkpt><trkpt lat="45.6635976" lon="9.4289381"><ele>239.0</ele><time>2026-03-22T14:18:42.1Z</time></trkpt><trkpt lat="45.6637032" lon="9.4290336"><ele>238.83333333333334</ele><time>2026-03-22T14:18:44.101Z</time></trkpt><trkpt lat="45.6637542" lon="9.4290877"><ele>238.66666666666669</ele><time>2026-03-22T14:18:45.101Z</time></trkpt><trkpt lat="45.6638143" lon="9.4291399"><ele>238.5</ele><time>2026-03-22T14:18:46.101Z</time></trkpt><trkpt lat="45.6638657" lon="9.4291926"><ele>238.33333333333331</ele><time>2026-03-22T14:18:47.101Z</time></trkpt><trkpt lat="45.6639257" lon="9.4292391"><ele>238.16666666666666</ele><time>2026-03-22T14:18:48.101Z</time></trkpt><trkpt lat="45.6640301" lon="9.4293361"><ele>238.0</ele><time>2026-03-22T14:18:50.101Z</time></trkpt><trkpt lat="45.6641339" lon="9.4294445"><ele>238.0</ele><time>2026-03-22T14:18:52.101Z</time></trkpt><trkpt lat="45.6642349" lon="9.4295496"><ele>238.0</ele><time>2026-03-22T14:18:54.1Z</time></trkpt><trkpt lat="45.664294" lon="9.4296034"><ele>238.0</ele><time>2026-03-22T14:18:55.101Z</time></trkpt><trkpt lat="45.6644032" lon="9.4297032"><ele>238.0</ele><time>2026-03-22T14:18:57.1Z</time></trkpt><trkpt lat="45.664505" lon="9.4298073"><ele>238.49999999999997</ele><time>2026-03-22T14:18:59.101Z</time></trkpt><trkpt lat="45.6645619" lon="9.4298544"><ele>239.0</ele><time>2026-03-22T14:19:00.101Z</time></trkpt><trkpt lat="45.6646202" lon="9.4299067"><ele>239.5</ele><time>2026-03-22T14:19:01.101Z</time></trkpt><trkpt lat="45.6646812" lon="9.4299624"><ele>240.0</ele><time>2026-03-22T14:19:02.101Z</time></trkpt><trkpt lat="45.6647367" lon="9.4300085"><ele>240.49999999999997</ele><time>2026-03-22T14:19:03.101Z</time></trkpt><trkpt lat="45.6647951" lon="9.4300574"><ele>241.0</ele><time>2026-03-22T14:19:04.101Z</time></trkpt><trkpt lat="45.6648964" lon="9.4301622"><ele>240.99999999999997</ele><time>2026-03-22T14:19:06.101Z</time></trkpt><trkpt lat="45.6649998" lon="9.43028"><ele>241.0</ele><time>2026-03-22T14:19:08.101Z</time></trkpt><trkpt lat="45.6650526" lon="9.4303396"><ele>241.0</ele><time>2026-03-22T14:19:09.101Z</time></trkpt><trkpt lat="45.6651095" lon="9.4303918"><ele>241.0</ele><time>2026-03-22T14:19:10.101Z</time></trkpt><trkpt lat="45.6651665" lon="9.4304477"><ele>240.99999999999997</ele><time>2026-03-22T14:19:11.101Z</time></trkpt><trkpt lat="45.6652215" lon="9.4305052"><ele>241.0</ele><time>2026-03-22T14:19:12.101Z</time></trkpt><trkpt lat="45.6652824" lon="9.4305678"><ele>241.14285714285717</ele><time>2026-03-22T14:19:13.101Z</time></trkpt><trkpt lat="45.6653356" lon="9.430626"><ele>241.2857142857143</ele><time>2026-03-22T14:19:14.101Z</time></trkpt><trkpt lat="45.6653863" lon="9.4306807"><ele>241.42857142857144</ele><time>2026-03-22T14:19:15.101Z</time></trkpt><trkpt lat="45.665445" lon="9.4307399"><ele>241.57142857142856</ele><time>2026-03-22T14:19:16.101Z</time></trkpt><trkpt lat="45.6655007" lon="9.4307912"><ele>241.7142857142857</ele><time>2026-03-22T14:19:17.101Z</time></trkpt><trkpt lat="45.6655575" lon="9.4308498"><ele>241.85714285714283</ele><time>2026-03-22T14:19:18.101Z</time></trkpt><trkpt lat="45.6656146" lon="9.4309006"><ele>242.0</ele><time>2026-03-22T14:19:19.1Z</time></trkpt><trkpt lat="45.665669" lon="9.4309518"><ele>242.0</ele><time>2026-03-22T14:19:20.101Z</time></trkpt><trkpt lat="45.6657294" lon="9.4310002"><ele>241.99999999999997</ele><time>2026-03-22T14:19:21.101Z</time></trkpt><trkpt lat="45.6657834" lon="9.4310497"><ele>242.0</ele><time>2026-03-22T14:19:22.101Z</time></trkpt><trkpt lat="45.6658366" lon="9.4311041"><ele>242.0</ele><time>2026-03-22T14:19:23.101Z</time></trkpt><trkpt lat="45.6658962" lon="9.4311602"><ele>241.99999999999997</ele><time>2026-03-22T14:19:24.101Z</time></trkpt><trkpt lat="45.6659533" lon="9.4312238"><ele>242.0</ele><time>2026-03-22T14:19:25.101Z</time></trkpt><trkpt lat="45.6660037" lon="9.4312931"><ele>242.0</ele><time>2026-03-22T14:19:26.101Z</time></trkpt><trkpt lat="45.6660505" lon="9.43136"><ele>241.85714285714283</ele><time>2026-03-22T14:19:27.101Z</time></trkpt><trkpt lat="45.6661028" lon="9.4314141"><ele>241.7142857142857</ele><time>2026-03-22T14:19:28.101Z</time></trkpt><trkpt lat="45.666158" lon="9.4314583"><ele>241.57142857142856</ele><time>2026-03-22T14:19:29.101Z</time></trkpt><trkpt lat="45.6662169" lon="9.4315021"><ele>241.42857142857144</ele><time>2026-03-22T14:19:30.101Z</time></trkpt><trkpt lat="45.6662675" lon="9.4315562"><ele>241.2857142857143</ele><time>2026-03-22T14:19:31.101Z</time></trkpt><trkpt lat="45.666325" lon="9.4316156"><ele>241.14285714285717</ele><time>2026-03-22T14:19:32.101Z</time></trkpt><trkpt lat="45.6663796" lon="9.4316672"><ele>241.0</ele><time>2026-03-22T14:19:33.1Z</time></trkpt><trkpt lat="45.6664788" lon="9.4317664"><ele>240.99999999999997</ele><time>2026-03-22T14:19:35.101Z</time></trkpt><trkpt lat="45.6665327" lon="9.4318167"><ele>241.0</ele><time>2026-03-22T14:19:36.101Z</time></trkpt><trkpt lat="45.6665869" lon="9.4318667"><ele>241.0</ele><time>2026-03-22T14:19:37.1Z</time></trkpt><trkpt lat="45.6666811" lon="9.4319611"><ele>241.0</ele><time>2026-03-22T14:19:39.101Z</time></trkpt><trkpt lat="45.6667678" lon="9.4320412"><ele>240.99999999999997</ele><time>2026-03-22T14:19:41.101Z</time></trkpt><trkpt lat="45.6668512" lon="9.4320935"><ele>241.0</ele><time>2026-03-22T14:19:43.101Z</time></trkpt><trkpt lat="45.6669167" lon="9.4321643"><ele>241.4</ele><time>2026-03-22T14:19:45.101Z</time></trkpt><trkpt lat="45.6669708" lon="9.4322436"><ele>241.8</ele><time>2026-03-22T14:19:47.101Z</time></trkpt><trkpt lat="45.6670502" lon="9.4323137"><ele>242.20000000000002</ele><time>2026-03-22T14:19:49.101Z</time></trkpt><trkpt lat="45.667136" lon="9.4323976"><ele>242.60000000000002</ele><time>2026-03-22T14:19:51.101Z</time></trkpt><trkpt lat="45.6672262" lon="9.4324791"><ele>243.0</ele><time>2026-03-22T14:19:53.101Z</time></trkpt><trkpt lat="45.6673242" lon="9.4325704"><ele>243.0</ele><time>2026-03-22T14:19:55.101Z</time></trkpt><trkpt lat="45.6674187" lon="9.4326688"><ele>243.0</ele><time>2026-03-22T14:19:57.101Z</time></trkpt><trkpt lat="45.6675009" lon="9.4327572"><ele>243.0</ele><time>2026-03-22T14:19:59.101Z</time></trkpt><trkpt lat="45.6675536" lon="9.432817"><ele>243.0</ele><time>2026-03-22T14:20:00.101Z</time></trkpt><trkpt lat="45.667656" lon="9.4329135"><ele>243.0</ele><time>2026-03-22T14:20:02.101Z</time></trkpt><trkpt lat="45.6677237" lon="9.4330025"><ele>243.60000000000002</ele><time>2026-03-22T14:20:04.101Z</time></trkpt><trkpt lat="45.6677805" lon="9.4330597"><ele>244.20000000000002</ele><time>2026-03-22T14:20:05.101Z</time></trkpt><trkpt lat="45.667884" lon="9.4331614"><ele>244.8</ele><time>2026-03-22T14:20:07.101Z</time></trkpt><trkpt lat="45.6679396" lon="9.4332124"><ele>245.4</ele><time>2026-03-22T14:20:08.101Z</time></trkpt><trkpt lat="45.6680396" lon="9.4333145"><ele>246.0</ele><time>2026-03-22T14:20:10.101Z</time></trkpt><trkpt lat="45.6680978" lon="9.4333628"><ele>246.0</ele><time>2026-03-22T14:20:11.1Z</time></trkpt><trkpt lat="45.668198" lon="9.4334714"><ele>246.00000000000003</ele><time>2026-03-22T14:20:13.101Z</time></trkpt><trkpt lat="45.6682999" lon="9.4335804"><ele>246.00000000000003</ele><time>2026-03-22T14:20:15.101Z</time></trkpt><trkpt lat="45.6683526" lon="9.4336487"><ele>246.0</ele><time>2026-03-22T14:20:16.101Z</time></trkpt><trkpt lat="45.6684553" lon="9.4337509"><ele>246.0</ele><time>2026-03-22T14:20:18.1Z</time></trkpt><trkpt lat="45.668515" lon="9.4337917"><ele>245.60000000000002</ele><time>2026-03-22T14:20:19.1Z</time></trkpt><trkpt lat="45.6685701" lon="9.4338434"><ele>245.20000000000002</ele><time>2026-03-22T14:20:20.101Z</time></trkpt><trkpt lat="45.6686701" lon="9.4339418"><ele>244.79999999999998</ele><time>2026-03-22T14:20:22.101Z</time></trkpt><trkpt lat="45.6687233" lon="9.4339963"><ele>244.39999999999998</ele><time>2026-03-22T14:20:23.101Z</time></trkpt><trkpt lat="45.6688299" lon="9.4340959"><ele>244.0</ele><time>2026-03-22T14:20:25.101Z</time></trkpt><trkpt lat="45.6689345" lon="9.4341927"><ele>243.99999999999997</ele><time>2026-03-22T14:20:27.101Z</time></trkpt><trkpt lat="45.6689917" lon="9.4342429"><ele>244.0</ele><time>2026-03-22T14:20:28.101Z</time></trkpt><trkpt lat="45.6690454" lon="9.4342932"><ele>243.99999999999997</ele><time>2026-03-22T14:20:29.101Z</time></trkpt><trkpt lat="45.6691004" lon="9.4343439"><ele>243.99999999999997</ele><time>2026-03-22T14:20:30.101Z</time></trkpt><trkpt lat="45.6691577" lon="9.4344051"><ele>244.0</ele><time>2026-03-22T14:20:31.101Z</time></trkpt><trkpt lat="45.6692117" lon="9.4344564"><ele>243.99999999999997</ele><time>2026-03-22T14:20:32.101Z</time></trkpt><trkpt lat="45.6692672" lon="9.4345186"><ele>243.99999999999997</ele><time>2026-03-22T14:20:33.101Z</time></trkpt><trkpt lat="45.6693217" lon="9.4345681"><ele>243.99999999999997</ele><time>2026-03-22T14:20:34.101Z</time></trkpt><trkpt lat="45.6693773" lon="9.434625"><ele>244.0</ele><time>2026-03-22T14:20:35.101Z</time></trkpt><trkpt lat="45.6694284" lon="9.4346832"><ele>243.99999999999997</ele><time>2026-03-22T14:20:36.101Z</time></trkpt><trkpt lat="45.6694819" lon="9.4347453"><ele>243.99999999999997</ele><time>2026-03-22T14:20:37.101Z</time></trkpt><trkpt lat="45.6695331" lon="9.4348017"><ele>244.0</ele><time>2026-03-22T14:20:38.101Z</time></trkpt><trkpt lat="45.6695876" lon="9.4348606"><ele>243.99999999999997</ele><time>2026-03-22T14:20:39.101Z</time></trkpt><trkpt lat="45.6696352" lon="9.4349197"><ele>243.99999999999997</ele><time>2026-03-22T14:20:40.101Z</time></trkpt><trkpt lat="45.6696913" lon="9.4349739"><ele>244.33333333333331</ele><time>2026-03-22T14:20:41.101Z</time></trkpt><trkpt lat="45.6697459" lon="9.4350273"><ele>244.66666666666666</ele><time>2026-03-22T14:20:42.101Z</time></trkpt><trkpt lat="45.669797" lon="9.4350848"><ele>245.0</ele><time>2026-03-22T14:20:43.1Z</time></trkpt><trkpt lat="45.6698527" lon="9.4351547"><ele>245.33333333333331</ele><time>2026-03-22T14:20:44.101Z</time></trkpt><trkpt lat="45.6699566" lon="9.4352697"><ele>245.66666666666666</ele><time>2026-03-22T14:20:46.1Z</time></trkpt><trkpt lat="45.6700095" lon="9.4353297"><ele>246.0</ele><time>2026-03-22T14:20:47.101Z</time></trkpt><trkpt lat="45.6700664" lon="9.4353838"><ele>246.0</ele><time>2026-03-22T14:20:48.101Z</time></trkpt><trkpt lat="45.67012" lon="9.4354492"><ele>246.00000000000003</ele><time>2026-03-22T14:20:49.101Z</time></trkpt><trkpt lat="45.6702182" lon="9.4355557"><ele>246.00000000000003</ele><time>2026-03-22T14:20:51.101Z</time></trkpt><trkpt lat="45.6702714" lon="9.4356112"><ele>246.0</ele><time>2026-03-22T14:20:52.101Z</time></trkpt><trkpt lat="45.6703677" lon="9.4357195"><ele>246.0</ele><time>2026-03-22T14:20:54.101Z</time></trkpt><trkpt lat="45.6704415" lon="9.4358249"><ele>246.5</ele><time>2026-03-22T14:20:56.1Z</time></trkpt><trkpt lat="45.6705055" lon="9.4359222"><ele>247.0</ele><time>2026-03-22T14:20:58.101Z</time></trkpt><trkpt lat="45.6705395" lon="9.4360047"><ele>247.5</ele><time>2026-03-22T14:21:00.1Z</time></trkpt><trkpt lat="45.6705186" lon="9.4361021"><ele>248.0</ele><time>2026-03-22T14:21:02.101Z</time></trkpt><trkpt lat="45.6704725" lon="9.4361924"><ele>248.5</ele><time>2026-03-22T14:21:04.101Z</time></trkpt><trkpt lat="45.6704037" lon="9.4362935"><ele>249.0</ele><time>2026-03-22T14:21:06.101Z</time></trkpt><trkpt lat="45.6703218" lon="9.4364117"><ele>248.79999999999998</ele><time>2026-03-22T14:21:08.1Z</time></trkpt><trkpt lat="45.6702502" lon="9.4365257"><ele>248.59999999999997</ele><time>2026-03-22T14:21:10.101Z</time></trkpt><trkpt lat="45.6701984" lon="9.4366388"><ele>248.4</ele><time>2026-03-22T14:21:12.101Z</time></trkpt><trkpt lat="45.6701644" lon="9.4367206"><ele>248.2</ele><time>2026-03-22T14:21:13.101Z</time></trkpt><trkpt lat="45.6701128" lon="9.4368417"><ele>248.0</ele><time>2026-03-22T14:21:15.101Z</time></trkpt><trkpt lat="45.6700721" lon="9.4369687"><ele>248.0</ele><time>2026-03-22T14:21:17.101Z</time></trkpt><trkpt lat="45.6700167" lon="9.4370944"><ele>248.0</ele><time>2026-03-22T14:21:19.101Z</time></trkpt><trkpt lat="45.6699516" lon="9.4371933"><ele>248.0</ele><time>2026-03-22T14:21:21.101Z</time></trkpt><trkpt lat="45.669894" lon="9.4373052"><ele>248.0</ele><time>2026-03-22T14:21:23.101Z</time></trkpt><trkpt lat="45.6698401" lon="9.4374155"><ele>248.0</ele><time>2026-03-22T14:21:25.101Z</time></trkpt><trkpt lat="45.6697654" lon="9.4375358"><ele>248.00000000000003</ele><time>2026-03-22T14:21:27.101Z</time></trkpt><trkpt lat="45.6697048" lon="9.437613"><ele>248.0</ele><time>2026-03-22T14:21:28.101Z</time></trkpt><trkpt lat="45.6697113" lon="9.437723"><ele>248.0</ele><time>2026-03-22T14:21:31.101Z</time></trkpt><trkpt lat="45.6697012" lon="9.4378289"><ele>248.0</ele><time>2026-03-22T14:21:34.101Z</time></trkpt><trkpt lat="45.6696579" lon="9.4379445"><ele>248.00000000000003</ele><time>2026-03-22T14:21:37.101Z</time></trkpt><trkpt lat="45.6696866" lon="9.4380457"><ele>248.0</ele><time>2026-03-22T14:21:40.101Z</time></trkpt><trkpt lat="45.6697111" lon="9.4381623"><ele>248.4</ele><time>2026-03-22T14:21:42.101Z</time></trkpt><trkpt lat="45.6697605" lon="9.4382317"><ele>248.8</ele><time>2026-03-22T14:21:43.101Z</time></trkpt><trkpt lat="45.669808" lon="9.4383149"><ele>249.2</ele><time>2026-03-22T14:21:44.101Z</time></trkpt><trkpt lat="45.6698629" lon="9.4383639"><ele>249.6</ele><time>2026-03-22T14:21:45.1Z</time></trkpt><trkpt lat="45.6699717" lon="9.4384563"><ele>250.0</ele><time>2026-03-22T14:21:47.101Z</time></trkpt><trkpt lat="45.6700928" lon="9.4385517"><ele>250.0</ele><time>2026-03-22T14:21:49.101Z</time></trkpt><trkpt lat="45.6701791" lon="9.4386632"><ele>250.0</ele><time>2026-03-22T14:21:51.493Z</time></trkpt><trkpt lat="45.6702952" lon="9.438791"><ele>250.0</ele><time>2026-03-22T14:21:53.093Z</time></trkpt><trkpt lat="45.6704034" lon="9.4388752"><ele>250.0</ele><time>2026-03-22T14:21:55.098Z</time></trkpt><trkpt lat="45.6704661" lon="9.4389081"><ele>250.6</ele><time>2026-03-22T14:21:56.096Z</time></trkpt><trkpt lat="45.6705799" lon="9.439007"><ele>251.2</ele><time>2026-03-22T14:21:58.096Z</time></trkpt><trkpt lat="45.6706365" lon="9.4390531"><ele>251.8</ele><time>2026-03-22T14:21:59.096Z</time></trkpt><trkpt lat="45.6707507" lon="9.4391501"><ele>252.4</ele><time>2026-03-22T14:22:01.096Z</time></trkpt><trkpt lat="45.6708491" lon="9.4392408"><ele>253.0</ele><time>2026-03-22T14:22:03.096Z</time></trkpt><trkpt lat="45.6709504" lon="9.4393529"><ele>252.99999999999997</ele><time>2026-03-22T14:22:05.095Z</time></trkpt><trkpt lat="45.6710045" lon="9.4394019"><ele>253.0</ele><time>2026-03-22T14:22:06.096Z</time></trkpt><trkpt lat="45.6710673" lon="9.4394609"><ele>253.0</ele><time>2026-03-22T14:22:07.096Z</time></trkpt><trkpt lat="45.671121" lon="9.4395097"><ele>253.0</ele><time>2026-03-22T14:22:08.096Z</time></trkpt><trkpt lat="45.6712262" lon="9.4396009"><ele>252.99999999999997</ele><time>2026-03-22T14:22:10.096Z</time></trkpt><trkpt lat="45.6712835" lon="9.4396526"><ele>253.0</ele><time>2026-03-22T14:22:11.096Z</time></trkpt><trkpt lat="45.6713362" lon="9.4397032"><ele>253.33333333333331</ele><time>2026-03-22T14:22:12.095Z</time></trkpt><trkpt lat="45.6713908" lon="9.4397579"><ele>253.66666666666666</ele><time>2026-03-22T14:22:13.096Z</time></trkpt><trkpt lat="45.6714434" lon="9.439808"><ele>254.0</ele><time>2026-03-22T14:22:14.096Z</time></trkpt><trkpt lat="45.6714991" lon="9.4398677"><ele>254.33333333333331</ele><time>2026-03-22T14:22:15.096Z</time></trkpt><trkpt lat="45.671606" lon="9.439959"><ele>254.66666666666666</ele><time>2026-03-22T14:22:17.096Z</time></trkpt><trkpt lat="45.6717105" lon="9.440056"><ele>255.0</ele><time>2026-03-22T14:22:19.096Z</time></trkpt><trkpt lat="45.6717659" lon="9.4401009"><ele>255.0</ele><time>2026-03-22T14:22:20.096Z</time></trkpt><trkpt lat="45.6718187" lon="9.4401597"><ele>255.0</ele><time>2026-03-22T14:22:21.095Z</time></trkpt><trkpt lat="45.6718765" lon="9.4402102"><ele>255.0</ele><time>2026-03-22T14:22:22.096Z</time></trkpt><trkpt lat="45.6719866" lon="9.4402967"><ele>255.0</ele><time>2026-03-22T14:22:24.096Z</time></trkpt><trkpt lat="45.6720747" lon="9.4404051"><ele>255.0</ele><time>2026-03-22T14:22:26.096Z</time></trkpt><trkpt lat="45.672185" lon="9.4405033"><ele>255.33333333333334</ele><time>2026-03-22T14:22:28.096Z</time></trkpt><trkpt lat="45.6722421" lon="9.4405565"><ele>255.66666666666669</ele><time>2026-03-22T14:22:29.096Z</time></trkpt><trkpt lat="45.6723028" lon="9.4406023"><ele>256.0</ele><time>2026-03-22T14:22:30.096Z</time></trkpt><trkpt lat="45.6723616" lon="9.4406555"><ele>256.33333333333337</ele><time>2026-03-22T14:22:31.096Z</time></trkpt><trkpt lat="45.6724143" lon="9.4407129"><ele>256.6666666666667</ele><time>2026-03-22T14:22:32.096Z</time></trkpt><trkpt lat="45.6725054" lon="9.4408102"><ele>257.0</ele><time>2026-03-22T14:22:34.096Z</time></trkpt><trkpt lat="45.6725535" lon="9.4408708"><ele>257.0</ele><time>2026-03-22T14:22:35.095Z</time></trkpt><trkpt lat="45.6726029" lon="9.4409429"><ele>257.0</ele><time>2026-03-22T14:22:36.096Z</time></trkpt><trkpt lat="45.672695" lon="9.4410621"><ele>257.0</ele><time>2026-03-22T14:22:38.096Z</time></trkpt><trkpt lat="45.6727834" lon="9.4411616"><ele>257.0</ele><time>2026-03-22T14:22:40.096Z</time></trkpt><trkpt lat="45.6728528" lon="9.4412881"><ele>257.0</ele><time>2026-03-22T14:22:42.096Z</time></trkpt><trkpt lat="45.6729265" lon="9.4413916"><ele>257.6</ele><time>2026-03-22T14:22:44.096Z</time></trkpt><trkpt lat="45.6730104" lon="9.4414914"><ele>258.2</ele><time>2026-03-22T14:22:46.095Z</time></trkpt><trkpt lat="45.673098" lon="9.4416128"><ele>258.8</ele><time>2026-03-22T14:22:48.096Z</time></trkpt><trkpt lat="45.6731585" lon="9.4417085"><ele>259.4</ele><time>2026-03-22T14:22:50.096Z</time></trkpt><trkpt lat="45.6732182" lon="9.4418117"><ele>260.0</ele><time>2026-03-22T14:22:52.096Z</time></trkpt><trkpt lat="45.6732804" lon="9.4418969"><ele>260.0</ele><time>2026-03-22T14:22:54.096Z</time></trkpt><trkpt lat="45.6733579" lon="9.4419871"><ele>260.0</ele><time>2026-03-22T14:22:56.096Z</time></trkpt><trkpt lat="45.6734185" lon="9.4420816"><ele>260.0</ele><time>2026-03-22T14:22:58.096Z</time></trkpt><trkpt lat="45.6734813" lon="9.4421767"><ele>260.0</ele><time>2026-03-22T14:23:00.096Z</time></trkpt><trkpt lat="45.6735406" lon="9.4422708"><ele>260.0</ele><time>2026-03-22T14:23:02.096Z</time></trkpt><trkpt lat="45.673608" lon="9.4422617"><ele>260.0</ele><time>2026-03-22T14:23:05.122Z</time></trkpt><trkpt lat="45.6736674" lon="9.4423173"><ele>260.1666666666667</ele><time>2026-03-22T14:23:08.022Z</time></trkpt><trkpt lat="45.6737234" lon="9.4423961"><ele>260.33333333333337</ele><time>2026-03-22T14:23:10.039Z</time></trkpt><trkpt lat="45.6737837" lon="9.4425327"><ele>260.5</ele><time>2026-03-22T14:23:11.096Z</time></trkpt><trkpt lat="45.6738388" lon="9.4426431"><ele>260.6666666666667</ele><time>2026-03-22T14:23:12.096Z</time></trkpt><trkpt lat="45.6738837" lon="9.4427386"><ele>260.8333333333333</ele><time>2026-03-22T14:23:13.096Z</time></trkpt><trkpt lat="45.6739174" lon="9.4428259"><ele>261.0</ele><time>2026-03-22T14:23:14.096Z</time></trkpt><trkpt lat="45.6739742" lon="9.4429752"><ele>261.0</ele><time>2026-03-22T14:23:16.096Z</time></trkpt><trkpt lat="45.6740473" lon="9.4431053"><ele>261.0</ele><time>2026-03-22T14:23:18.096Z</time></trkpt><trkpt lat="45.6741268" lon="9.4432393"><ele>261.0</ele><time>2026-03-22T14:23:20.096Z</time></trkpt><trkpt lat="45.6741956" lon="9.4433833"><ele>261.0</ele><time>2026-03-22T14:23:22.096Z</time></trkpt><trkpt lat="45.674258" lon="9.443536"><ele>261.0</ele><time>2026-03-22T14:23:24.096Z</time></trkpt><trkpt lat="45.6743294" lon="9.4436777"><ele>261.0</ele><time>2026-03-22T14:23:26.096Z</time></trkpt><trkpt lat="45.674398" lon="9.4438004"><ele>261.0</ele><time>2026-03-22T14:23:28.096Z</time></trkpt><trkpt lat="45.674476" lon="9.4439403"><ele>261.0</ele><time>2026-03-22T14:23:30.096Z</time></trkpt><trkpt lat="45.6745119" lon="9.4440192"><ele>261.0</ele><time>2026-03-22T14:23:31.096Z</time></trkpt><trkpt lat="45.6745445" lon="9.4440968"><ele>261.2</ele><time>2026-03-22T14:23:32.096Z</time></trkpt><trkpt lat="45.6746138" lon="9.4442349"><ele>261.40000000000003</ele><time>2026-03-22T14:23:34.096Z</time></trkpt><trkpt lat="45.6746518" lon="9.4443113"><ele>261.6</ele><time>2026-03-22T14:23:35.096Z</time></trkpt><trkpt lat="45.6746891" lon="9.4443877"><ele>261.8</ele><time>2026-03-22T14:23:36.096Z</time></trkpt><trkpt lat="45.6747643" lon="9.4445252"><ele>262.0</ele><time>2026-03-22T14:23:38.096Z</time></trkpt><trkpt lat="45.6748315" lon="9.4446726"><ele>262.0</ele><time>2026-03-22T14:23:40.096Z</time></trkpt><trkpt lat="45.6749001" lon="9.4448209"><ele>262.0</ele><time>2026-03-22T14:23:42.096Z</time></trkpt><trkpt lat="45.674969" lon="9.4449659"><ele>262.0</ele><time>2026-03-22T14:23:44.096Z</time></trkpt><trkpt lat="45.6750056" lon="9.4450398"><ele>262.0</ele><time>2026-03-22T14:23:45.096Z</time></trkpt><trkpt lat="45.6750422" lon="9.4451199"><ele>262.0</ele><time>2026-03-22T14:23:46.096Z</time></trkpt><trkpt lat="45.6750782" lon="9.4451967"><ele>262.0</ele><time>2026-03-22T14:23:47.095Z</time></trkpt><trkpt lat="45.6751535" lon="9.4453386"><ele>262.0</ele><time>2026-03-22T14:23:49.096Z</time></trkpt><trkpt lat="45.6752286" lon="9.4454852"><ele>262.0</ele><time>2026-03-22T14:23:51.096Z</time></trkpt><trkpt lat="45.6752667" lon="9.4455608"><ele>262.0</ele><time>2026-03-22T14:23:52.095Z</time></trkpt><trkpt lat="45.6753066" lon="9.4456368"><ele>262.0</ele><time>2026-03-22T14:23:53.096Z</time></trkpt><trkpt lat="45.6753789" lon="9.4457832"><ele>262.0</ele><time>2026-03-22T14:23:55.096Z</time></trkpt><trkpt lat="45.6754151" lon="9.4458624"><ele>262.0</ele><time>2026-03-22T14:23:56.096Z</time></trkpt><trkpt lat="45.6754532" lon="9.4459368"><ele>262.0</ele><time>2026-03-22T14:23:57.096Z</time></trkpt><trkpt lat="45.6755288" lon="9.4460859"><ele>262.0</ele><time>2026-03-22T14:23:59.096Z</time></trkpt><trkpt lat="45.6756084" lon="9.4462267"><ele>262.0</ele><time>2026-03-22T14:24:01.096Z</time></trkpt><trkpt lat="45.6756462" lon="9.4463072"><ele>262.0</ele><time>2026-03-22T14:24:02.096Z</time></trkpt><trkpt lat="45.6756837" lon="9.4463856"><ele>262.3333333333333</ele><time>2026-03-22T14:24:03.096Z</time></trkpt><trkpt lat="45.6757253" lon="9.4464626"><ele>262.66666666666663</ele><time>2026-03-22T14:24:04.096Z</time></trkpt><trkpt lat="45.6757968" lon="9.4466064"><ele>263.0</ele><time>2026-03-22T14:24:06.096Z</time></trkpt><trkpt lat="45.6758339" lon="9.4466803"><ele>263.3333333333333</ele><time>2026-03-22T14:24:07.096Z</time></trkpt><trkpt lat="45.6758732" lon="9.4467543"><ele>263.6666666666667</ele><time>2026-03-22T14:24:08.096Z</time></trkpt><trkpt lat="45.6759441" lon="9.4468984"><ele>264.0</ele><time>2026-03-22T14:24:10.096Z</time></trkpt><trkpt lat="45.6759858" lon="9.4469709"><ele>264.0</ele><time>2026-03-22T14:24:11.096Z</time></trkpt><trkpt lat="45.6760237" lon="9.447054"><ele>264.0</ele><time>2026-03-22T14:24:12.096Z</time></trkpt><trkpt lat="45.6761009" lon="9.4472028"><ele>264.0</ele><time>2026-03-22T14:24:14.095Z</time></trkpt><trkpt lat="45.6761392" lon="9.4472843"><ele>264.0</ele><time>2026-03-22T14:24:15.096Z</time></trkpt><trkpt lat="45.6761744" lon="9.4473627"><ele>264.0</ele><time>2026-03-22T14:24:16.096Z</time></trkpt><trkpt lat="45.6762121" lon="9.4474408"><ele>264.0</ele><time>2026-03-22T14:24:17.096Z</time></trkpt><trkpt lat="45.6762538" lon="9.4475142"><ele>264.0</ele><time>2026-03-22T14:24:18.096Z</time></trkpt><trkpt lat="45.67629" lon="9.4476002"><ele>264.0</ele><time>2026-03-22T14:24:19.096Z</time></trkpt><trkpt lat="45.6763326" lon="9.4476808"><ele>264.0</ele><time>2026-03-22T14:24:20.095Z</time></trkpt><trkpt lat="45.6763748" lon="9.4477654"><ele>264.0</ele><time>2026-03-22T14:24:21.096Z</time></trkpt><trkpt lat="45.6764115" lon="9.4478446"><ele>264.0</ele><time>2026-03-22T14:24:22.096Z</time></trkpt><trkpt lat="45.6764458" lon="9.4479325"><ele>264.0</ele><time>2026-03-22T14:24:23.096Z</time></trkpt><trkpt lat="45.6764829" lon="9.4480066"><ele>264.0</ele><time>2026-03-22T14:24:24.096Z</time></trkpt><trkpt lat="45.6765242" lon="9.4480876"><ele>264.1666666666667</ele><time>2026-03-22T14:24:25.095Z</time></trkpt><trkpt lat="45.6765691" lon="9.4481636"><ele>264.3333333333333</ele><time>2026-03-22T14:24:26.096Z</time></trkpt><trkpt lat="45.6766064" lon="9.4482427"><ele>264.5</ele><time>2026-03-22T14:24:27.096Z</time></trkpt><trkpt lat="45.6766472" lon="9.4483217"><ele>264.66666666666663</ele><time>2026-03-22T14:24:28.096Z</time></trkpt><trkpt lat="45.6766898" lon="9.4484043"><ele>264.8333333333333</ele><time>2026-03-22T14:24:29.096Z</time></trkpt><trkpt lat="45.6767313" lon="9.4484875"><ele>265.0</ele><time>2026-03-22T14:24:30.095Z</time></trkpt><trkpt lat="45.6767974" lon="9.4486433"><ele>264.99999999999994</ele><time>2026-03-22T14:24:32.096Z</time></trkpt><trkpt lat="45.6768309" lon="9.4487199"><ele>265.0</ele><time>2026-03-22T14:24:33.096Z</time></trkpt><trkpt lat="45.6768714" lon="9.448801"><ele>265.0</ele><time>2026-03-22T14:24:34.096Z</time></trkpt><trkpt lat="45.676909" lon="9.4488814"><ele>265.0</ele><time>2026-03-22T14:24:35.095Z</time></trkpt><trkpt lat="45.6769486" lon="9.448967"><ele>265.0</ele><time>2026-03-22T14:24:36.096Z</time></trkpt><trkpt lat="45.6769928" lon="9.4490597"><ele>264.99999999999994</ele><time>2026-03-22T14:24:37.096Z</time></trkpt><trkpt lat="45.677038" lon="9.4491494"><ele>265.0</ele><time>2026-03-22T14:24:38.096Z</time></trkpt><trkpt lat="45.6770862" lon="9.4492355"><ele>264.3333333333333</ele><time>2026-03-22T14:24:39.096Z</time></trkpt><trkpt lat="45.6771315" lon="9.4493192"><ele>263.66666666666663</ele><time>2026-03-22T14:24:40.095Z</time></trkpt><trkpt lat="45.6771722" lon="9.4494102"><ele>263.0</ele><time>2026-03-22T14:24:41.096Z</time></trkpt><trkpt lat="45.6772237" lon="9.4495047"><ele>262.3333333333333</ele><time>2026-03-22T14:24:42.096Z</time></trkpt><trkpt lat="45.6772673" lon="9.4495975"><ele>261.6666666666667</ele><time>2026-03-22T14:24:43.096Z</time></trkpt><trkpt lat="45.6773155" lon="9.4496927"><ele>261.0</ele><time>2026-03-22T14:24:44.096Z</time></trkpt><trkpt lat="45.6773614" lon="9.449791"><ele>260.8333333333333</ele><time>2026-03-22T14:24:45.096Z</time></trkpt><trkpt lat="45.6774099" lon="9.4498785"><ele>260.6666666666667</ele><time>2026-03-22T14:24:46.096Z</time></trkpt><trkpt lat="45.6774562" lon="9.449969"><ele>260.5</ele><time>2026-03-22T14:24:47.095Z</time></trkpt><trkpt lat="45.6775055" lon="9.4500578"><ele>260.33333333333337</ele><time>2026-03-22T14:24:48.096Z</time></trkpt><trkpt lat="45.6775516" lon="9.4501509"><ele>260.1666666666667</ele><time>2026-03-22T14:24:49.096Z</time></trkpt><trkpt lat="45.6775999" lon="9.4502444"><ele>260.0</ele><time>2026-03-22T14:24:50.096Z</time></trkpt><trkpt lat="45.6776512" lon="9.4503465"><ele>260.0</ele><time>2026-03-22T14:24:51.095Z</time></trkpt><trkpt lat="45.6776953" lon="9.4504366"><ele>260.0</ele><time>2026-03-22T14:24:52.096Z</time></trkpt><trkpt lat="45.677751" lon="9.4505245"><ele>260.0</ele><time>2026-03-22T14:24:53.096Z</time></trkpt><trkpt lat="45.6778108" lon="9.4505996"><ele>260.0</ele><time>2026-03-22T14:24:54.096Z</time></trkpt><trkpt lat="45.6778665" lon="9.4506826"><ele>260.0</ele><time>2026-03-22T14:24:55.096Z</time></trkpt><trkpt lat="45.6779272" lon="9.4507557"><ele>260.0</ele><time>2026-03-22T14:24:56.096Z</time></trkpt><trkpt lat="45.6779968" lon="9.4508288"><ele>260.0</ele><time>2026-03-22T14:24:57.096Z</time></trkpt><trkpt lat="45.6780572" lon="9.4509005"><ele>260.0</ele><time>2026-03-22T14:24:58.096Z</time></trkpt><trkpt lat="45.6781157" lon="9.4509681"><ele>260.0</ele><time>2026-03-22T14:24:59.096Z</time></trkpt><trkpt lat="45.6781773" lon="9.451018"><ele>260.0</ele><time>2026-03-22T14:25:00.096Z</time></trkpt><trkpt lat="45.6782411" lon="9.4510786"><ele>260.0</ele><time>2026-03-22T14:25:01.096Z</time></trkpt><trkpt lat="45.6782954" lon="9.4511362"><ele>260.0</ele><time>2026-03-22T14:25:02.096Z</time></trkpt><trkpt lat="45.6783705" lon="9.4511871"><ele>260.0</ele><time>2026-03-22T14:25:03.096Z</time></trkpt><trkpt lat="45.6784487" lon="9.4512428"><ele>260.0</ele><time>2026-03-22T14:25:04.095Z</time></trkpt><trkpt lat="45.6785157" lon="9.4512805"><ele>260.0</ele><time>2026-03-22T14:25:05.095Z</time></trkpt><trkpt lat="45.678581" lon="9.4513167"><ele>260.0</ele><time>2026-03-22T14:25:06.096Z</time></trkpt><trkpt lat="45.6786529" lon="9.4513493"><ele>260.0</ele><time>2026-03-22T14:25:07.096Z</time></trkpt><trkpt lat="45.6787273" lon="9.4513821"><ele>260.0</ele><time>2026-03-22T14:25:08.096Z</time></trkpt><trkpt lat="45.6787955" lon="9.4513999"><ele>259.7142857142857</ele><time>2026-03-22T14:25:09.096Z</time></trkpt><trkpt lat="45.6788693" lon="9.4514125"><ele>259.42857142857144</ele><time>2026-03-22T14:25:10.096Z</time></trkpt><trkpt lat="45.6789449" lon="9.451426"><ele>259.1428571428571</ele><time>2026-03-22T14:25:11.096Z</time></trkpt><trkpt lat="45.6790188" lon="9.4514405"><ele>258.8571428571429</ele><time>2026-03-22T14:25:12.096Z</time></trkpt><trkpt lat="45.6790914" lon="9.451457"><ele>258.57142857142856</ele><time>2026-03-22T14:25:13.096Z</time></trkpt><trkpt lat="45.679169" lon="9.4514733"><ele>258.2857142857143</ele><time>2026-03-22T14:25:14.096Z</time></trkpt><trkpt lat="45.6792384" lon="9.4514768"><ele>258.0</ele><time>2026-03-22T14:25:15.096Z</time></trkpt><trkpt lat="45.6793158" lon="9.4514858"><ele>257.99999999999994</ele><time>2026-03-22T14:25:16.095Z</time></trkpt><trkpt lat="45.6793909" lon="9.4514902"><ele>258.0</ele><time>2026-03-22T14:25:17.096Z</time></trkpt><trkpt lat="45.679458" lon="9.4514926"><ele>258.0</ele><time>2026-03-22T14:25:18.096Z</time></trkpt><trkpt lat="45.6795336" lon="9.4514909"><ele>258.0</ele><time>2026-03-22T14:25:19.096Z</time></trkpt><trkpt lat="45.6796098" lon="9.4514967"><ele>258.0</ele><time>2026-03-22T14:25:20.096Z</time></trkpt><trkpt lat="45.6796814" lon="9.4514986"><ele>257.99999999999994</ele><time>2026-03-22T14:25:21.095Z</time></trkpt><trkpt lat="45.679758" lon="9.4514998"><ele>258.0</ele><time>2026-03-22T14:25:22.096Z</time></trkpt><trkpt lat="45.6798268" lon="9.4514949"><ele>258.5</ele><time>2026-03-22T14:25:23.095Z</time></trkpt><trkpt lat="45.6799011" lon="9.4514849"><ele>259.0</ele><time>2026-03-22T14:25:24.096Z</time></trkpt><trkpt lat="45.6799691" lon="9.4514845"><ele>259.5</ele><time>2026-03-22T14:25:25.096Z</time></trkpt><trkpt lat="45.6800386" lon="9.4515042"><ele>260.0</ele><time>2026-03-22T14:25:26.096Z</time></trkpt><trkpt lat="45.6801031" lon="9.4514862"><ele>260.5</ele><time>2026-03-22T14:25:27.096Z</time></trkpt><trkpt lat="45.6802309" lon="9.4514772"><ele>261.0</ele><time>2026-03-22T14:25:29.096Z</time></trkpt><trkpt lat="45.6803518" lon="9.4514964"><ele>261.3333333333333</ele><time>2026-03-22T14:25:31.095Z</time></trkpt><trkpt lat="45.6804182" lon="9.4515002"><ele>261.6666666666667</ele><time>2026-03-22T14:25:32.096Z</time></trkpt><trkpt lat="45.6804859" lon="9.4515"><ele>262.0</ele><time>2026-03-22T14:25:33.095Z</time></trkpt><trkpt lat="45.6806009" lon="9.4514858"><ele>262.33333333333337</ele><time>2026-03-22T14:25:35.095Z</time></trkpt><trkpt lat="45.6806688" lon="9.4514925"><ele>262.6666666666667</ele><time>2026-03-22T14:25:36.096Z</time></trkpt><trkpt lat="45.680755" lon="9.4514974"><ele>263.0</ele><time>2026-03-22T14:25:38.096Z</time></trkpt><trkpt lat="45.6808209" lon="9.4514829"><ele>263.0</ele><time>2026-03-22T14:25:39.096Z</time></trkpt><trkpt lat="45.6809385" lon="9.4514964"><ele>263.0</ele><time>2026-03-22T14:25:41.095Z</time></trkpt><trkpt lat="45.6810635" lon="9.4514823"><ele>263.0</ele><time>2026-03-22T14:25:43.096Z</time></trkpt><trkpt lat="45.6811633" lon="9.4514798"><ele>263.0</ele><time>2026-03-22T14:25:45.096Z</time></trkpt><trkpt lat="45.681258" lon="9.4514892"><ele>263.0</ele><time>2026-03-22T14:25:47.096Z</time></trkpt><trkpt lat="45.6814468" lon="9.4515253"><ele>262.0</ele><time>2026-03-22T14:26:05.096Z</time></trkpt><trkpt lat="45.6814613" lon="9.4514123"><ele>261.0</ele><time>2026-03-22T14:26:41.096Z</time></trkpt><trkpt lat="45.6815312" lon="9.4513199"><ele>260.0</ele><time>2026-03-22T14:26:43.096Z</time></trkpt><trkpt lat="45.6815951" lon="9.4512666"><ele>259.0</ele><time>2026-03-22T14:26:44.096Z</time></trkpt><trkpt lat="45.6816715" lon="9.4511658"><ele>258.0</ele><time>2026-03-22T14:26:46.096Z</time></trkpt><trkpt lat="45.6817471" lon="9.4510306"><ele>257.99999999999994</ele><time>2026-03-22T14:26:48.096Z</time></trkpt><trkpt lat="45.6817951" lon="9.4509533"><ele>258.0</ele><time>2026-03-22T14:26:49.096Z</time></trkpt><trkpt lat="45.6818359" lon="9.450882"><ele>258.0</ele><time>2026-03-22T14:26:50.096Z</time></trkpt><trkpt lat="45.6818872" lon="9.4508114"><ele>258.0</ele><time>2026-03-22T14:26:51.096Z</time></trkpt><trkpt lat="45.6819264" lon="9.4507339"><ele>258.0</ele><time>2026-03-22T14:26:52.096Z</time></trkpt><trkpt lat="45.6819636" lon="9.4506531"><ele>257.99999999999994</ele><time>2026-03-22T14:26:53.096Z</time></trkpt><trkpt lat="45.6820005" lon="9.4505691"><ele>258.0</ele><time>2026-03-22T14:26:54.096Z</time></trkpt><trkpt lat="45.6820363" lon="9.4504786"><ele>256.8</ele><time>2026-03-22T14:26:55.096Z</time></trkpt><trkpt lat="45.6820964" lon="9.4503477"><ele>255.60000000000002</ele><time>2026-03-22T14:26:57.096Z</time></trkpt><trkpt lat="45.6821999" lon="9.4502703"><ele>254.39999999999998</ele><time>2026-03-22T14:26:59.096Z</time></trkpt><trkpt lat="45.6823112" lon="9.4501941"><ele>253.2</ele><time>2026-03-22T14:27:01.096Z</time></trkpt><trkpt lat="45.6823711" lon="9.4501508"><ele>252.0</ele><time>2026-03-22T14:27:02.096Z</time></trkpt><trkpt lat="45.6824306" lon="9.4501022"><ele>252.0</ele><time>2026-03-22T14:27:03.096Z</time></trkpt><trkpt lat="45.6824886" lon="9.450057"><ele>252.0</ele><time>2026-03-22T14:27:04.096Z</time></trkpt><trkpt lat="45.6825486" lon="9.4500198"><ele>252.0</ele><time>2026-03-22T14:27:05.096Z</time></trkpt><trkpt lat="45.6826625" lon="9.4499587"><ele>252.0</ele><time>2026-03-22T14:27:07.096Z</time></trkpt><trkpt lat="45.6827697" lon="9.4499282"><ele>252.0</ele><time>2026-03-22T14:27:09.096Z</time></trkpt><trkpt lat="45.6828312" lon="9.4498925"><ele>252.0</ele><time>2026-03-22T14:27:10.096Z</time></trkpt><trkpt lat="45.6829479" lon="9.4498433"><ele>244.5</ele><time>2026-03-22T14:27:12.096Z</time></trkpt><trkpt lat="45.6830703" lon="9.4497955"><ele>237.0</ele><time>2026-03-22T14:27:14.095Z</time></trkpt><trkpt lat="45.683172" lon="9.4497461"><ele>229.5</ele><time>2026-03-22T14:27:16.096Z</time></trkpt><trkpt lat="45.6833032" lon="9.4496828"><ele>222.0</ele><time>2026-03-22T14:27:18.096Z</time></trkpt><trkpt lat="45.6833792" lon="9.4496551"><ele>222.0</ele><time>2026-03-22T14:27:19.096Z</time></trkpt><trkpt lat="45.6834588" lon="9.4496374"><ele>222.0</ele><time>2026-03-22T14:27:20.096Z</time></trkpt><trkpt lat="45.6835159" lon="9.4495919"><ele>222.0</ele><time>2026-03-22T14:27:21.096Z</time></trkpt><trkpt lat="45.6836099" lon="9.4495834"><ele>222.0</ele><time>2026-03-22T14:27:22.096Z</time></trkpt><trkpt lat="45.6836983" lon="9.4495448"><ele>222.0</ele><time>2026-03-22T14:27:23.096Z</time></trkpt><trkpt lat="45.6837647" lon="9.449532"><ele>222.0</ele><time>2026-03-22T14:27:24.096Z</time></trkpt><trkpt lat="45.6838419" lon="9.4495343"><ele>220.42857142857142</ele><time>2026-03-22T14:27:25.096Z</time></trkpt><trkpt lat="45.683921" lon="9.4495557"><ele>218.85714285714286</ele><time>2026-03-22T14:27:26.096Z</time></trkpt><trkpt lat="45.6839908" lon="9.4495747"><ele>217.28571428571428</ele><time>2026-03-22T14:27:27.096Z</time></trkpt><trkpt lat="45.6840559" lon="9.4495956"><ele>215.71428571428572</ele><time>2026-03-22T14:27:28.096Z</time></trkpt><trkpt lat="45.6841217" lon="9.4496211"><ele>214.14285714285717</ele><time>2026-03-22T14:27:29.096Z</time></trkpt><trkpt lat="45.6841949" lon="9.4496479"><ele>212.57142857142858</ele><time>2026-03-22T14:27:30.096Z</time></trkpt><trkpt lat="45.6842706" lon="9.4496651"><ele>211.0</ele><time>2026-03-22T14:27:31.096Z</time></trkpt><trkpt lat="45.6843422" lon="9.4496945"><ele>210.99999999999997</ele><time>2026-03-22T14:27:32.096Z</time></trkpt><trkpt lat="45.6844293" lon="9.4496889"><ele>211.0</ele><time>2026-03-22T14:27:33.096Z</time></trkpt><trkpt lat="45.6845054" lon="9.4496755"><ele>211.0</ele><time>2026-03-22T14:27:34.096Z</time></trkpt><trkpt lat="45.6845833" lon="9.4496496"><ele>211.0</ele><time>2026-03-22T14:27:35.096Z</time></trkpt><trkpt lat="45.6846706" lon="9.4496172"><ele>210.99999999999997</ele><time>2026-03-22T14:27:36.096Z</time></trkpt><trkpt lat="45.6847642" lon="9.4496095"><ele>211.0</ele><time>2026-03-22T14:27:37.096Z</time></trkpt><trkpt lat="45.6848434" lon="9.4496184"><ele>210.99999999999997</ele><time>2026-03-22T14:27:38.096Z</time></trkpt><trkpt lat="45.6849192" lon="9.4496384"><ele>211.0</ele><time>2026-03-22T14:27:39.096Z</time></trkpt><trkpt lat="45.6849909" lon="9.4496772"><ele>211.0</ele><time>2026-03-22T14:27:40.096Z</time></trkpt><trkpt lat="45.6850581" lon="9.4497289"><ele>211.0</ele><time>2026-03-22T14:27:41.096Z</time></trkpt><trkpt lat="45.6851286" lon="9.449785"><ele>210.99999999999997</ele><time>2026-03-22T14:27:42.096Z</time></trkpt><trkpt lat="45.6851981" lon="9.4498397"><ele>211.0</ele><time>2026-03-22T14:27:43.095Z</time></trkpt><trkpt lat="45.6852735" lon="9.4498857"><ele>211.0</ele><time>2026-03-22T14:27:44.096Z</time></trkpt><trkpt lat="45.6853605" lon="9.4499307"><ele>211.0</ele><time>2026-03-22T14:27:45.096Z</time></trkpt><trkpt lat="45.6854432" lon="9.4499621"><ele>211.0</ele><time>2026-03-22T14:27:46.096Z</time></trkpt><trkpt lat="45.6855319" lon="9.4499941"><ele>211.0</ele><time>2026-03-22T14:27:47.096Z</time></trkpt><trkpt lat="45.6856285" lon="9.4500108"><ele>211.0</ele><time>2026-03-22T14:27:48.096Z</time></trkpt><trkpt lat="45.6857222" lon="9.4500374"><ele>210.99999999999997</ele><time>2026-03-22T14:27:49.096Z</time></trkpt><trkpt lat="45.6858051" lon="9.4500917"><ele>211.0</ele><time>2026-03-22T14:27:50.096Z</time></trkpt><trkpt lat="45.685892" lon="9.4501383"><ele>211.0</ele><time>2026-03-22T14:27:51.096Z</time></trkpt><trkpt lat="45.6859782" lon="9.4501816"><ele>211.0</ele><time>2026-03-22T14:27:52.096Z</time></trkpt><trkpt lat="45.6860455" lon="9.4502195"><ele>210.99999999999997</ele><time>2026-03-22T14:27:53.096Z</time></trkpt><trkpt lat="45.6861298" lon="9.4502641"><ele>211.0</ele><time>2026-03-22T14:27:54.096Z</time></trkpt><trkpt lat="45.6862052" lon="9.4503282"><ele>212.57142857142858</ele><time>2026-03-22T14:27:55.096Z</time></trkpt><trkpt lat="45.6862754" lon="9.4503935"><ele>214.14285714285717</ele><time>2026-03-22T14:27:56.096Z</time></trkpt><trkpt lat="45.6863339" lon="9.4504455"><ele>215.71428571428572</ele><time>2026-03-22T14:27:57.096Z</time></trkpt><trkpt lat="45.686397" lon="9.4504962"><ele>217.28571428571428</ele><time>2026-03-22T14:27:58.096Z</time></trkpt><trkpt lat="45.6864623" lon="9.4505498"><ele>218.85714285714286</ele><time>2026-03-22T14:27:59.096Z</time></trkpt><trkpt lat="45.6865236" lon="9.4506066"><ele>220.42857142857142</ele><time>2026-03-22T14:28:00.096Z</time></trkpt><trkpt lat="45.6865926" lon="9.4506519"><ele>222.0</ele><time>2026-03-22T14:28:01.096Z</time></trkpt><trkpt lat="45.6866622" lon="9.4507032"><ele>219.83333333333334</ele><time>2026-03-22T14:28:02.096Z</time></trkpt><trkpt lat="45.6867332" lon="9.4507543"><ele>217.66666666666669</ele><time>2026-03-22T14:28:03.096Z</time></trkpt><trkpt lat="45.6868014" lon="9.4508058"><ele>215.5</ele><time>2026-03-22T14:28:04.095Z</time></trkpt><trkpt lat="45.6868667" lon="9.4508533"><ele>213.33333333333334</ele><time>2026-03-22T14:28:05.096Z</time></trkpt><trkpt lat="45.6869927" lon="9.4509182"><ele>211.16666666666669</ele><time>2026-03-22T14:28:07.096Z</time></trkpt><trkpt lat="45.687059" lon="9.4509412"><ele>209.0</ele><time>2026-03-22T14:28:08.096Z</time></trkpt><trkpt lat="45.6871237" lon="9.4509756"><ele>209.0</ele><time>2026-03-22T14:28:09.096Z</time></trkpt><trkpt lat="45.6871923" lon="9.4510012"><ele>209.0</ele><time>2026-03-22T14:28:10.096Z</time></trkpt><trkpt lat="45.6872611" lon="9.4510215"><ele>209.0</ele><time>2026-03-22T14:28:11.095Z</time></trkpt><trkpt lat="45.6873867" lon="9.4510541"><ele>209.0</ele><time>2026-03-22T14:28:13.096Z</time></trkpt><trkpt lat="45.6875067" lon="9.4510547"><ele>209.0</ele><time>2026-03-22T14:28:15.096Z</time></trkpt><trkpt lat="45.6876327" lon="9.4510536"><ele>209.0</ele><time>2026-03-22T14:28:17.096Z</time></trkpt><trkpt lat="45.6877545" lon="9.4510598"><ele>209.0</ele><time>2026-03-22T14:28:19.096Z</time></trkpt><trkpt lat="45.6878207" lon="9.4510566"><ele>209.0</ele><time>2026-03-22T14:28:20.096Z</time></trkpt><trkpt lat="45.6879458" lon="9.4510411"><ele>209.0</ele><time>2026-03-22T14:28:22.096Z</time></trkpt><trkpt lat="45.6880644" lon="9.4510198"><ele>209.0</ele><time>2026-03-22T14:28:24.096Z</time></trkpt><trkpt lat="45.688182" lon="9.4509978"><ele>210.0</ele><time>2026-03-22T14:28:26.095Z</time></trkpt><trkpt lat="45.6882956" lon="9.4509769"><ele>211.0</ele><time>2026-03-22T14:28:28.096Z</time></trkpt><trkpt lat="45.6883987" lon="9.4509632"><ele>211.99999999999997</ele><time>2026-03-22T14:28:30.096Z</time></trkpt><trkpt lat="45.6884951" lon="9.450951"><ele>213.0</ele><time>2026-03-22T14:28:32.096Z</time></trkpt><trkpt lat="45.6885815" lon="9.450916"><ele>214.0</ele><time>2026-03-22T14:28:34.096Z</time></trkpt><trkpt lat="45.6886581" lon="9.4508999"><ele>214.0</ele><time>2026-03-22T14:28:36.096Z</time></trkpt><trkpt lat="45.6887427" lon="9.4508707"><ele>213.99999999999997</ele><time>2026-03-22T14:28:38.096Z</time></trkpt><trkpt lat="45.688842" lon="9.4508441"><ele>213.99999999999997</ele><time>2026-03-22T14:28:40.096Z</time></trkpt><trkpt lat="45.6889499" lon="9.4508313"><ele>214.0</ele><time>2026-03-22T14:28:42.096Z</time></trkpt><trkpt lat="45.6890435" lon="9.4508407"><ele>214.0</ele><time>2026-03-22T14:28:44.096Z</time></trkpt><trkpt lat="45.6891459" lon="9.4508703"><ele>213.99999999999997</ele><time>2026-03-22T14:28:46.095Z</time></trkpt><trkpt lat="45.6892537" lon="9.4509088"><ele>214.0</ele><time>2026-03-22T14:28:48.096Z</time></trkpt><trkpt lat="45.6893624" lon="9.4509823"><ele>214.0</ele><time>2026-03-22T14:28:50.096Z</time></trkpt><trkpt lat="45.6894182" lon="9.4510306"><ele>214.0</ele><time>2026-03-22T14:28:51.096Z</time></trkpt><trkpt lat="45.6894717" lon="9.4510809"><ele>213.99999999999997</ele><time>2026-03-22T14:28:52.096Z</time></trkpt><trkpt lat="45.6895357" lon="9.4511477"><ele>214.0</ele><time>2026-03-22T14:28:53.096Z</time></trkpt><trkpt lat="45.6895942" lon="9.4512145"><ele>213.16666666666666</ele><time>2026-03-22T14:28:54.095Z</time></trkpt><trkpt lat="45.6896481" lon="9.4512867"><ele>212.33333333333331</ele><time>2026-03-22T14:28:55.095Z</time></trkpt><trkpt lat="45.6896888" lon="9.451366"><ele>211.5</ele><time>2026-03-22T14:28:56.096Z</time></trkpt><trkpt lat="45.6897422" lon="9.45143"><ele>210.66666666666669</ele><time>2026-03-22T14:28:57.096Z</time></trkpt><trkpt lat="45.6897887" lon="9.4514963"><ele>209.83333333333334</ele><time>2026-03-22T14:28:58.096Z</time></trkpt><trkpt lat="45.6898386" lon="9.4515545"><ele>209.0</ele><time>2026-03-22T14:28:59.096Z</time></trkpt><trkpt lat="45.6899283" lon="9.4516693"><ele>209.0</ele><time>2026-03-22T14:29:01.096Z</time></trkpt><trkpt lat="45.6899878" lon="9.4517084"><ele>209.0</ele><time>2026-03-22T14:29:02.096Z</time></trkpt><trkpt lat="45.6900757" lon="9.4518074"><ele>209.0</ele><time>2026-03-22T14:29:04.096Z</time></trkpt><trkpt lat="45.690149" lon="9.4519022"><ele>209.0</ele><time>2026-03-22T14:29:06.096Z</time></trkpt><trkpt lat="45.6902547" lon="9.4519593"><ele>209.0</ele><time>2026-03-22T14:29:08.096Z</time></trkpt><trkpt lat="45.6903373" lon="9.4520434"><ele>208.6</ele><time>2026-03-22T14:29:10.096Z</time></trkpt><trkpt lat="45.6904261" lon="9.4520987"><ele>208.2</ele><time>2026-03-22T14:29:12.096Z</time></trkpt><trkpt lat="45.6905045" lon="9.4521184"><ele>207.79999999999998</ele><time>2026-03-22T14:29:14.095Z</time></trkpt><trkpt lat="45.6905801" lon="9.4522056"><ele>207.39999999999998</ele><time>2026-03-22T14:29:16.096Z</time></trkpt><trkpt lat="45.690694" lon="9.4522734"><ele>207.0</ele><time>2026-03-22T14:29:18.096Z</time></trkpt><trkpt lat="45.69079" lon="9.4523142"><ele>207.0</ele><time>2026-03-22T14:29:20.096Z</time></trkpt><trkpt lat="45.6909027" lon="9.452376"><ele>207.0</ele><time>2026-03-22T14:29:22.095Z</time></trkpt><trkpt lat="45.6910226" lon="9.4524204"><ele>207.0</ele><time>2026-03-22T14:29:24.096Z</time></trkpt><trkpt lat="45.691151" lon="9.4524614"><ele>207.0</ele><time>2026-03-22T14:29:26.096Z</time></trkpt><trkpt lat="45.691275" lon="9.4524901"><ele>209.25</ele><time>2026-03-22T14:29:28.096Z</time></trkpt><trkpt lat="45.6913894" lon="9.4525313"><ele>211.5</ele><time>2026-03-22T14:29:30.096Z</time></trkpt><trkpt lat="45.6915088" lon="9.452577"><ele>213.75</ele><time>2026-03-22T14:29:32.096Z</time></trkpt><trkpt lat="45.6916175" lon="9.4526578"><ele>216.0</ele><time>2026-03-22T14:29:34.096Z</time></trkpt><trkpt lat="45.6917267" lon="9.4526947"><ele>216.0</ele><time>2026-03-22T14:29:36.096Z</time></trkpt><trkpt lat="45.6918511" lon="9.4527438"><ele>216.00000000000003</ele><time>2026-03-22T14:29:38.095Z</time></trkpt><trkpt lat="45.6919574" lon="9.4528081"><ele>216.00000000000003</ele><time>2026-03-22T14:29:40.096Z</time></trkpt><trkpt lat="45.6920633" lon="9.452901"><ele>216.0</ele><time>2026-03-22T14:29:42.096Z</time></trkpt><trkpt lat="45.6921232" lon="9.4529482"><ele>216.0</ele><time>2026-03-22T14:29:43.096Z</time></trkpt><trkpt lat="45.6922403" lon="9.45304"><ele>214.0</ele><time>2026-03-22T14:29:45.096Z</time></trkpt><trkpt lat="45.6923214" lon="9.4530415"><ele>212.00000000000003</ele><time>2026-03-22T14:29:46.096Z</time></trkpt><trkpt lat="45.6923743" lon="9.4531321"><ele>210.0</ele><time>2026-03-22T14:29:47.096Z</time></trkpt><trkpt lat="45.6924888" lon="9.4532272"><ele>208.0</ele><time>2026-03-22T14:29:49.096Z</time></trkpt><trkpt lat="45.692573" lon="9.453314"><ele>206.0</ele><time>2026-03-22T14:29:51.095Z</time></trkpt><trkpt lat="45.6926769" lon="9.4533977"><ele>206.00000000000003</ele><time>2026-03-22T14:29:53.096Z</time></trkpt><trkpt lat="45.6927389" lon="9.4534275"><ele>206.0</ele><time>2026-03-22T14:29:54.096Z</time></trkpt><trkpt lat="45.6928457" lon="9.453498"><ele>206.0</ele><time>2026-03-22T14:29:56.095Z</time></trkpt><trkpt lat="45.6929186" lon="9.4535895"><ele>206.0</ele><time>2026-03-22T14:29:58.096Z</time></trkpt><trkpt lat="45.6929687" lon="9.4536478"><ele>206.00000000000003</ele><time>2026-03-22T14:29:59.096Z</time></trkpt><trkpt lat="45.6930249" lon="9.4537043"><ele>206.0</ele><time>2026-03-22T14:30:00.096Z</time></trkpt><trkpt lat="45.6931162" lon="9.4537659"><ele>206.8</ele><time>2026-03-22T14:30:02.096Z</time></trkpt><trkpt lat="45.6932357" lon="9.4538151"><ele>207.60000000000002</ele><time>2026-03-22T14:30:04.095Z</time></trkpt><trkpt lat="45.693321" lon="9.4538951"><ele>208.4</ele><time>2026-03-22T14:30:06.096Z</time></trkpt><trkpt lat="45.6934267" lon="9.4539344"><ele>209.2</ele><time>2026-03-22T14:30:08.095Z</time></trkpt><trkpt lat="45.693521" lon="9.4539886"><ele>210.0</ele><time>2026-03-22T14:30:10.096Z</time></trkpt><trkpt lat="45.6936177" lon="9.454048"><ele>212.0</ele><time>2026-03-22T14:30:12.096Z</time></trkpt><trkpt lat="45.693677" lon="9.4540888"><ele>214.0</ele><time>2026-03-22T14:30:13.096Z</time></trkpt><trkpt lat="45.6937364" lon="9.4541234"><ele>216.0</ele><time>2026-03-22T14:30:14.096Z</time></trkpt><trkpt lat="45.6937963" lon="9.4541544"><ele>218.0</ele><time>2026-03-22T14:30:15.096Z</time></trkpt><trkpt lat="45.6938591" lon="9.4541843"><ele>220.0</ele><time>2026-03-22T14:30:16.096Z</time></trkpt><trkpt lat="45.6939648" lon="9.4542382"><ele>222.0</ele><time>2026-03-22T14:30:18.096Z</time></trkpt><trkpt lat="45.6940637" lon="9.4543187"><ele>222.0</ele><time>2026-03-22T14:30:20.096Z</time></trkpt><trkpt lat="45.6941739" lon="9.4543946"><ele>222.0</ele><time>2026-03-22T14:30:22.096Z</time></trkpt><trkpt lat="45.6942735" lon="9.4544841"><ele>222.0</ele><time>2026-03-22T14:30:24.096Z</time></trkpt><trkpt lat="45.6943333" lon="9.4545399"><ele>222.0</ele><time>2026-03-22T14:30:25.096Z</time></trkpt><trkpt lat="45.6943934" lon="9.4545675"><ele>222.0</ele><time>2026-03-22T14:30:26.096Z</time></trkpt><trkpt lat="45.6944567" lon="9.4545924"><ele>222.0</ele><time>2026-03-22T14:30:27.096Z</time></trkpt><trkpt lat="45.694568" lon="9.4546509"><ele>218.5</ele><time>2026-03-22T14:30:29.096Z</time></trkpt><trkpt lat="45.6946671" lon="9.4547299"><ele>215.0</ele><time>2026-03-22T14:30:31.096Z</time></trkpt><trkpt lat="45.6947641" lon="9.4548173"><ele>211.5</ele><time>2026-03-22T14:30:33.096Z</time></trkpt><trkpt lat="45.6948689" lon="9.4548669"><ele>208.0</ele><time>2026-03-22T14:30:35.096Z</time></trkpt><trkpt lat="45.6949802" lon="9.4548929"><ele>208.0</ele><time>2026-03-22T14:30:37.096Z</time></trkpt><trkpt lat="45.6950917" lon="9.4549231"><ele>208.0</ele><time>2026-03-22T14:30:39.096Z</time></trkpt><trkpt lat="45.6952192" lon="9.4549567"><ele>208.0</ele><time>2026-03-22T14:30:41.096Z</time></trkpt><trkpt lat="45.6952817" lon="9.4549779"><ele>208.0</ele><time>2026-03-22T14:30:42.095Z</time></trkpt><trkpt lat="45.6953979" lon="9.4550133"><ele>208.0</ele><time>2026-03-22T14:30:44.096Z</time></trkpt><trkpt lat="45.695552" lon="9.4550377"><ele>208.66666666666666</ele><time>2026-03-22T14:30:46.096Z</time></trkpt><trkpt lat="45.695613" lon="9.4550648"><ele>209.33333333333331</ele><time>2026-03-22T14:30:47.095Z</time></trkpt><trkpt lat="45.6956779" lon="9.4550747"><ele>210.0</ele><time>2026-03-22T14:30:48.096Z</time></trkpt><trkpt lat="45.6957941" lon="9.4551491"><ele>210.66666666666669</ele><time>2026-03-22T14:30:50.096Z</time></trkpt><trkpt lat="45.6958935" lon="9.4552185"><ele>211.33333333333334</ele><time>2026-03-22T14:30:52.096Z</time></trkpt><trkpt lat="45.6959438" lon="9.455281"><ele>212.0</ele><time>2026-03-22T14:30:53.096Z</time></trkpt><trkpt lat="45.696057" lon="9.4553041"><ele>212.0</ele><time>2026-03-22T14:30:55.096Z</time></trkpt><trkpt lat="45.6961233" lon="9.455312"><ele>212.0</ele><time>2026-03-22T14:30:56.096Z</time></trkpt><trkpt lat="45.6962589" lon="9.455303"><ele>212.0</ele><time>2026-03-22T14:30:58.096Z</time></trkpt><trkpt lat="45.6963261" lon="9.4552963"><ele>212.0</ele><time>2026-03-22T14:30:59.095Z</time></trkpt><trkpt lat="45.6964415" lon="9.4553171"><ele>212.0</ele><time>2026-03-22T14:31:01.096Z</time></trkpt><trkpt lat="45.696565" lon="9.4553196"><ele>212.0</ele><time>2026-03-22T14:31:03.096Z</time></trkpt><trkpt lat="45.6966494" lon="9.4553073"><ele>212.0</ele><time>2026-03-22T14:31:04.096Z</time></trkpt><trkpt lat="45.6967193" lon="9.4552898"><ele>212.0</ele><time>2026-03-22T14:31:05.095Z</time></trkpt><trkpt lat="45.6967861" lon="9.4552919"><ele>212.0</ele><time>2026-03-22T14:31:06.096Z</time></trkpt><trkpt lat="45.6969005" lon="9.4552501"><ele>212.0</ele><time>2026-03-22T14:31:08.096Z</time></trkpt><trkpt lat="45.6970217" lon="9.455275"><ele>212.0</ele><time>2026-03-22T14:31:10.096Z</time></trkpt><trkpt lat="45.6971234" lon="9.455232"><ele>212.0</ele><time>2026-03-22T14:31:12.096Z</time></trkpt><trkpt lat="45.6972541" lon="9.4551679"><ele>212.0</ele><time>2026-03-22T14:31:14.096Z</time></trkpt><trkpt lat="45.6973817" lon="9.4551174"><ele>212.0</ele><time>2026-03-22T14:31:16.096Z</time></trkpt><trkpt lat="45.6974541" lon="9.455061"><ele>212.0</ele><time>2026-03-22T14:31:17.096Z</time></trkpt><trkpt lat="45.6975699" lon="9.4550819"><ele>212.0</ele><time>2026-03-22T14:31:19.095Z</time></trkpt><trkpt lat="45.697699" lon="9.4550599"><ele>212.0</ele><time>2026-03-22T14:31:21.096Z</time></trkpt><trkpt lat="45.6977695" lon="9.4550342"><ele>212.0</ele><time>2026-03-22T14:31:22.096Z</time></trkpt><trkpt lat="45.6978477" lon="9.4549896"><ele>212.0</ele><time>2026-03-22T14:31:23.096Z</time></trkpt><trkpt lat="45.6979239" lon="9.4550365"><ele>211.0</ele><time>2026-03-22T14:31:24.095Z</time></trkpt><trkpt lat="45.6979894" lon="9.4550343"><ele>210.0</ele><time>2026-03-22T14:31:25.096Z</time></trkpt><trkpt lat="45.6981154" lon="9.455047"><ele>209.0</ele><time>2026-03-22T14:31:27.096Z</time></trkpt><trkpt lat="45.6982452" lon="9.455022"><ele>208.0</ele><time>2026-03-22T14:31:29.096Z</time></trkpt><trkpt lat="45.6983558" lon="9.4550281"><ele>207.0</ele><time>2026-03-22T14:31:31.096Z</time></trkpt><trkpt lat="45.6984876" lon="9.455048"><ele>207.0</ele><time>2026-03-22T14:31:33.096Z</time></trkpt><trkpt lat="45.6985559" lon="9.4550519"><ele>207.0</ele><time>2026-03-22T14:31:34.096Z</time></trkpt><trkpt lat="45.6986738" lon="9.4551202"><ele>207.0</ele><time>2026-03-22T14:31:36.096Z</time></trkpt><trkpt lat="45.6987786" lon="9.455153"><ele>207.0</ele><time>2026-03-22T14:31:38.096Z</time></trkpt><trkpt lat="45.6988487" lon="9.4551643"><ele>207.0</ele><time>2026-03-22T14:31:39.096Z</time></trkpt><trkpt lat="45.6989593" lon="9.4552019"><ele>207.16666666666666</ele><time>2026-03-22T14:31:41.096Z</time></trkpt><trkpt lat="45.6990271" lon="9.4552037"><ele>207.33333333333331</ele><time>2026-03-22T14:31:42.096Z</time></trkpt><trkpt lat="45.6990953" lon="9.4552032"><ele>207.5</ele><time>2026-03-22T14:31:43.096Z</time></trkpt><trkpt lat="45.6992162" lon="9.4552521"><ele>207.66666666666666</ele><time>2026-03-22T14:31:45.096Z</time></trkpt><trkpt lat="45.699278" lon="9.4552842"><ele>207.83333333333331</ele><time>2026-03-22T14:31:46.096Z</time></trkpt><trkpt lat="45.6993444" lon="9.4553037"><ele>208.0</ele><time>2026-03-22T14:31:47.096Z</time></trkpt><trkpt lat="45.6994712" lon="9.4553308"><ele>208.0</ele><time>2026-03-22T14:31:49.096Z</time></trkpt><trkpt lat="45.6995828" lon="9.4553345"><ele>208.0</ele><time>2026-03-22T14:31:51.096Z</time></trkpt><trkpt lat="45.6997124" lon="9.4553655"><ele>208.0</ele><time>2026-03-22T14:31:53.096Z</time></trkpt><trkpt lat="45.6997736" lon="9.4554074"><ele>208.0</ele><time>2026-03-22T14:31:54.096Z</time></trkpt><trkpt lat="45.6998784" lon="9.4555042"><ele>208.0</ele><time>2026-03-22T14:31:56.095Z</time></trkpt><trkpt lat="45.6999884" lon="9.4556023"><ele>206.66666666666666</ele><time>2026-03-22T14:31:58.096Z</time></trkpt><trkpt lat="45.7000366" lon="9.4556855"><ele>205.33333333333331</ele><time>2026-03-22T14:31:59.096Z</time></trkpt><trkpt lat="45.7001265" lon="9.4557916"><ele>204.0</ele><time>2026-03-22T14:32:01.096Z</time></trkpt><trkpt lat="45.7001845" lon="9.4558607"><ele>202.66666666666669</ele><time>2026-03-22T14:32:02.096Z</time></trkpt><trkpt lat="45.7002402" lon="9.4559063"><ele>201.33333333333334</ele><time>2026-03-22T14:32:03.096Z</time></trkpt><trkpt lat="45.7002879" lon="9.4559669"><ele>200.0</ele><time>2026-03-22T14:32:04.096Z</time></trkpt><trkpt lat="45.7003437" lon="9.4560124"><ele>200.00000000000003</ele><time>2026-03-22T14:32:05.096Z</time></trkpt><trkpt lat="45.7004381" lon="9.4561317"><ele>200.0</ele><time>2026-03-22T14:32:07.096Z</time></trkpt><trkpt lat="45.700529" lon="9.4562287"><ele>200.0</ele><time>2026-03-22T14:32:09.096Z</time></trkpt><trkpt lat="45.70058" lon="9.4563109"><ele>200.0</ele><time>2026-03-22T14:32:10.096Z</time></trkpt><trkpt lat="45.7006303" lon="9.4563745"><ele>200.00000000000003</ele><time>2026-03-22T14:32:11.095Z</time></trkpt><trkpt lat="45.7006636" lon="9.4564511"><ele>200.0</ele><time>2026-03-22T14:32:12.096Z</time></trkpt><trkpt lat="45.7007205" lon="9.4565103"><ele>199.16666666666669</ele><time>2026-03-22T14:32:13.096Z</time></trkpt><trkpt lat="45.7008038" lon="9.456604"><ele>198.33333333333334</ele><time>2026-03-22T14:32:15.095Z</time></trkpt><trkpt lat="45.7008612" lon="9.4566605"><ele>197.5</ele><time>2026-03-22T14:32:16.096Z</time></trkpt><trkpt lat="45.7009198" lon="9.4567289"><ele>196.66666666666669</ele><time>2026-03-22T14:32:17.096Z</time></trkpt><trkpt lat="45.7009583" lon="9.4568019"><ele>195.83333333333334</ele><time>2026-03-22T14:32:18.096Z</time></trkpt><trkpt lat="45.7010385" lon="9.4569218"><ele>195.0</ele><time>2026-03-22T14:32:20.096Z</time></trkpt><trkpt lat="45.7011357" lon="9.4570665"><ele>195.8</ele><time>2026-03-22T14:32:22.096Z</time></trkpt><trkpt lat="45.7012159" lon="9.4571433"><ele>196.6</ele><time>2026-03-22T14:32:23.096Z</time></trkpt><trkpt lat="45.7013293" lon="9.4572423"><ele>197.39999999999998</ele><time>2026-03-22T14:32:25.096Z</time></trkpt><trkpt lat="45.7014132" lon="9.4573391"><ele>198.2</ele><time>2026-03-22T14:32:27.096Z</time></trkpt><trkpt lat="45.7014826" lon="9.4574327"><ele>199.0</ele><time>2026-03-22T14:32:29.096Z</time></trkpt><trkpt lat="45.7015389" lon="9.4575055"><ele>199.0</ele><time>2026-03-22T14:32:32.096Z</time></trkpt><trkpt lat="45.7016089" lon="9.4575936"><ele>199.0</ele><time>2026-03-22T14:32:35.096Z</time></trkpt><trkpt lat="45.7016868" lon="9.4576501"><ele>199.0</ele><time>2026-03-22T14:32:37.096Z</time></trkpt><trkpt lat="45.7017904" lon="9.4577288"><ele>199.0</ele><time>2026-03-22T14:32:39.096Z</time></trkpt><trkpt lat="45.7018891" lon="9.4577908"><ele>199.0</ele><time>2026-03-22T14:32:41.096Z</time></trkpt><trkpt lat="45.7019893" lon="9.4578449"><ele>199.33333333333331</ele><time>2026-03-22T14:32:43.096Z</time></trkpt><trkpt lat="45.7020513" lon="9.4578718"><ele>199.66666666666666</ele><time>2026-03-22T14:32:44.095Z</time></trkpt><trkpt lat="45.7021703" lon="9.4579206"><ele>200.0</ele><time>2026-03-22T14:32:46.096Z</time></trkpt><trkpt lat="45.7022367" lon="9.4579336"><ele>200.33333333333331</ele><time>2026-03-22T14:32:47.096Z</time></trkpt><trkpt lat="45.7023001" lon="9.4579653"><ele>200.66666666666666</ele><time>2026-03-22T14:32:48.096Z</time></trkpt><trkpt lat="45.7023627" lon="9.4579959"><ele>201.0</ele><time>2026-03-22T14:32:49.096Z</time></trkpt><trkpt lat="45.7024697" lon="9.4580447"><ele>201.0</ele><time>2026-03-22T14:32:51.096Z</time></trkpt><trkpt lat="45.7025386" lon="9.4580572"><ele>201.0</ele><time>2026-03-22T14:32:52.096Z</time></trkpt><trkpt lat="45.7026572" lon="9.4580624"><ele>201.0</ele><time>2026-03-22T14:32:54.096Z</time></trkpt><trkpt lat="45.7027788" lon="9.4580631"><ele>201.0</ele><time>2026-03-22T14:32:56.096Z</time></trkpt><trkpt lat="45.7029078" lon="9.4580351"><ele>201.0</ele><time>2026-03-22T14:32:58.096Z</time></trkpt><trkpt lat="45.7030259" lon="9.4580348"><ele>201.60000000000002</ele><time>2026-03-22T14:33:00.095Z</time></trkpt><trkpt lat="45.7031312" lon="9.4579923"><ele>202.2</ele><time>2026-03-22T14:33:02.096Z</time></trkpt><trkpt lat="45.7031946" lon="9.4579969"><ele>202.8</ele><time>2026-03-22T14:33:03.096Z</time></trkpt><trkpt lat="45.7032983" lon="9.4579965"><ele>203.39999999999998</ele><time>2026-03-22T14:33:05.096Z</time></trkpt><trkpt lat="45.7033699" lon="9.4579557"><ele>204.0</ele><time>2026-03-22T14:33:06.096Z</time></trkpt><trkpt lat="45.7034633" lon="9.4579171"><ele>204.5</ele><time>2026-03-22T14:33:08.096Z</time></trkpt><trkpt lat="45.703561" lon="9.4578553"><ele>205.0</ele><time>2026-03-22T14:33:10.095Z</time></trkpt><trkpt lat="45.7036638" lon="9.4577687"><ele>205.5</ele><time>2026-03-22T14:33:12.096Z</time></trkpt><trkpt lat="45.7037226" lon="9.4577165"><ele>206.0</ele><time>2026-03-22T14:33:13.096Z</time></trkpt><trkpt lat="45.7037689" lon="9.4576545"><ele>206.5</ele><time>2026-03-22T14:33:14.096Z</time></trkpt><trkpt lat="45.7038025" lon="9.457557"><ele>207.0</ele><time>2026-03-22T14:33:15.096Z</time></trkpt><trkpt lat="45.7038426" lon="9.4574798"><ele>207.0</ele><time>2026-03-22T14:33:16.096Z</time></trkpt><trkpt lat="45.7039022" lon="9.4574295"><ele>207.0</ele><time>2026-03-22T14:33:17.096Z</time></trkpt><trkpt lat="45.7039637" lon="9.457379"><ele>207.0</ele><time>2026-03-22T14:33:18.095Z</time></trkpt><trkpt lat="45.7040835" lon="9.4572813"><ele>207.0</ele><time>2026-03-22T14:33:20.096Z</time></trkpt><trkpt lat="45.7041317" lon="9.4572216"><ele>207.0</ele><time>2026-03-22T14:33:21.096Z</time></trkpt><trkpt lat="45.7042292" lon="9.4571106"><ele>206.83333333333334</ele><time>2026-03-22T14:33:23.095Z</time></trkpt><trkpt lat="45.7042796" lon="9.4570522"><ele>206.66666666666669</ele><time>2026-03-22T14:33:24.096Z</time></trkpt><trkpt lat="45.7043466" lon="9.4570354"><ele>206.5</ele><time>2026-03-22T14:33:25.096Z</time></trkpt><trkpt lat="45.7044795" lon="9.4569264"><ele>206.33333333333334</ele><time>2026-03-22T14:33:27.096Z</time></trkpt><trkpt lat="45.7045625" lon="9.4569146"><ele>206.16666666666669</ele><time>2026-03-22T14:33:28.096Z</time></trkpt><trkpt lat="45.7046135" lon="9.4568362"><ele>206.0</ele><time>2026-03-22T14:33:29.095Z</time></trkpt><trkpt lat="45.7047152" lon="9.4567826"><ele>206.0</ele><time>2026-03-22T14:33:31.096Z</time></trkpt><trkpt lat="45.7048186" lon="9.4567745"><ele>206.0</ele><time>2026-03-22T14:33:33.096Z</time></trkpt><trkpt lat="45.70494" lon="9.4567966"><ele>206.0</ele><time>2026-03-22T14:33:35.096Z</time></trkpt><trkpt lat="45.7050094" lon="9.45682"><ele>206.0</ele><time>2026-03-22T14:33:36.096Z</time></trkpt><trkpt lat="45.7051202" lon="9.4568836"><ele>206.0</ele><time>2026-03-22T14:33:38.096Z</time></trkpt><trkpt lat="45.7052372" lon="9.4569647"><ele>205.8</ele><time>2026-03-22T14:33:40.096Z</time></trkpt><trkpt lat="45.7053504" lon="9.4569742"><ele>205.60000000000002</ele><time>2026-03-22T14:33:42.096Z</time></trkpt><trkpt lat="45.7054199" lon="9.4569757"><ele>205.4</ele><time>2026-03-22T14:33:43.096Z</time></trkpt><trkpt lat="45.705485" lon="9.4569826"><ele>205.2</ele><time>2026-03-22T14:33:44.096Z</time></trkpt><trkpt lat="45.7056194" lon="9.4569391"><ele>205.0</ele><time>2026-03-22T14:33:46.096Z</time></trkpt><trkpt lat="45.7056909" lon="9.4568775"><ele>205.0</ele><time>2026-03-22T14:33:47.096Z</time></trkpt><trkpt lat="45.7057529" lon="9.4568372"><ele>205.0</ele><time>2026-03-22T14:33:48.095Z</time></trkpt><trkpt lat="45.7058177" lon="9.4568232"><ele>205.0</ele><time>2026-03-22T14:33:49.096Z</time></trkpt><trkpt lat="45.7059442" lon="9.4568091"><ele>205.0</ele><time>2026-03-22T14:33:51.096Z</time></trkpt><trkpt lat="45.7060593" lon="9.4568608"><ele>205.0</ele><time>2026-03-22T14:33:53.095Z</time></trkpt><trkpt lat="45.7062094" lon="9.4568954"><ele>204.2</ele><time>2026-03-22T14:33:58.095Z</time></trkpt><trkpt lat="45.7063147" lon="9.4569393"><ele>203.4</ele><time>2026-03-22T14:34:00.096Z</time></trkpt><trkpt lat="45.7063894" lon="9.4569464"><ele>202.60000000000002</ele><time>2026-03-22T14:34:02.096Z</time></trkpt><trkpt lat="45.7065394" lon="9.4569379"><ele>201.8</ele><time>2026-03-22T14:34:06.096Z</time></trkpt><trkpt lat="45.7066359" lon="9.4569314"><ele>201.0</ele><time>2026-03-22T14:34:08.096Z</time></trkpt><trkpt lat="45.7067251" lon="9.4569058"><ele>201.0</ele><time>2026-03-22T14:34:10.096Z</time></trkpt><trkpt lat="45.7068388" lon="9.4569181"><ele>201.0</ele><time>2026-03-22T14:34:12.096Z</time></trkpt><trkpt lat="45.7069358" lon="9.4568818"><ele>201.0</ele><time>2026-03-22T14:34:14.096Z</time></trkpt><trkpt lat="45.7070198" lon="9.4568464"><ele>201.0</ele><time>2026-03-22T14:34:16.096Z</time></trkpt><trkpt lat="45.70708" lon="9.4567904"><ele>201.0</ele><time>2026-03-22T14:34:18.095Z</time></trkpt><trkpt lat="45.7071407" lon="9.456689"><ele>200.28571428571428</ele><time>2026-03-22T14:34:20.096Z</time></trkpt><trkpt lat="45.707203" lon="9.4566648"><ele>199.57142857142858</ele><time>2026-03-22T14:34:22.096Z</time></trkpt><trkpt lat="45.7072723" lon="9.4566127"><ele>198.85714285714286</ele><time>2026-03-22T14:34:24.096Z</time></trkpt><trkpt lat="45.7073394" lon="9.4565813"><ele>198.14285714285714</ele><time>2026-03-22T14:34:26.096Z</time></trkpt><trkpt lat="45.7074063" lon="9.4565262"><ele>197.42857142857144</ele><time>2026-03-22T14:34:28.096Z</time></trkpt><trkpt lat="45.7074666" lon="9.4564804"><ele>196.71428571428572</ele><time>2026-03-22T14:34:30.095Z</time></trkpt><trkpt lat="45.7075053" lon="9.4564084"><ele>196.0</ele><time>2026-03-22T14:34:32.096Z</time></trkpt><trkpt lat="45.7075483" lon="9.4563367"><ele>196.99999999999997</ele><time>2026-03-22T14:34:34.096Z</time></trkpt><trkpt lat="45.7075574" lon="9.456247"><ele>198.0</ele><time>2026-03-22T14:34:36.096Z</time></trkpt><trkpt lat="45.707543" lon="9.4561129"><ele>199.0</ele><time>2026-03-22T14:34:39.096Z</time></trkpt><trkpt lat="45.7075086" lon="9.4559886"><ele>200.0</ele><time>2026-03-22T14:34:42.096Z</time></trkpt><trkpt lat="45.7074627" lon="9.4558912"><ele>200.99999999999997</ele><time>2026-03-22T14:34:45.096Z</time></trkpt><trkpt lat="45.7074218" lon="9.4558034"><ele>202.0</ele><time>2026-03-22T14:34:48.096Z</time></trkpt><trkpt lat="45.7073799" lon="9.455732"><ele>202.0</ele><time>2026-03-22T14:34:51.096Z</time></trkpt><trkpt lat="45.707329" lon="9.4556369"><ele>202.0</ele><time>2026-03-22T14:34:55.096Z</time></trkpt><trkpt lat="45.7072844" lon="9.455545"><ele>202.0</ele><time>2026-03-22T14:34:59.096Z</time></trkpt><trkpt lat="45.7072522" lon="9.4554488"><ele>202.0</ele><time>2026-03-22T14:35:02.096Z</time></trkpt><trkpt lat="45.7072352" lon="9.4553451"><ele>202.0</ele><time>2026-03-22T14:35:05.096Z</time></trkpt><trkpt lat="45.7071964" lon="9.4552682"><ele>202.0</ele><time>2026-03-22T14:35:08.096Z</time></trkpt><trkpt lat="45.7071689" lon="9.4551815"><ele>202.0</ele><time>2026-03-22T14:35:11.096Z</time></trkpt><trkpt lat="45.7071402" lon="9.4550681"><ele>203.14285714285714</ele><time>2026-03-22T14:35:15.096Z</time></trkpt><trkpt lat="45.707128" lon="9.4549654"><ele>204.28571428571428</ele><time>2026-03-22T14:35:18.095Z</time></trkpt><trkpt lat="45.7071162" lon="9.4548663"><ele>205.42857142857144</ele><time>2026-03-22T14:35:21.095Z</time></trkpt><trkpt lat="45.7070869" lon="9.4547643"><ele>206.57142857142856</ele><time>2026-03-22T14:35:24.096Z</time></trkpt><trkpt lat="45.7070393" lon="9.4546898"><ele>207.71428571428572</ele><time>2026-03-22T14:35:27.096Z</time></trkpt><trkpt lat="45.706992" lon="9.4546206"><ele>208.85714285714286</ele><time>2026-03-22T14:35:30.095Z</time></trkpt><trkpt lat="45.7069531" lon="9.4545332"><ele>210.0</ele><time>2026-03-22T14:35:33.096Z</time></trkpt><trkpt lat="45.7069168" lon="9.4544372"><ele>212.28571428571428</ele><time>2026-03-22T14:35:36.096Z</time></trkpt><trkpt lat="45.7068862" lon="9.4543455"><ele>214.57142857142856</ele><time>2026-03-22T14:35:39.095Z</time></trkpt><trkpt lat="45.7068608" lon="9.4542581"><ele>216.85714285714286</ele><time>2026-03-22T14:35:42.096Z</time></trkpt><trkpt lat="45.7068359" lon="9.4541647"><ele>219.14285714285714</ele><time>2026-03-22T14:35:45.096Z</time></trkpt><trkpt lat="45.7068122" lon="9.4540596"><ele>221.42857142857142</ele><time>2026-03-22T14:35:49.096Z</time></trkpt><trkpt lat="45.7067902" lon="9.4539603"><ele>223.71428571428572</ele><time>2026-03-22T14:35:52.096Z</time></trkpt><trkpt lat="45.7067603" lon="9.4538512"><ele>226.0</ele><time>2026-03-22T14:35:56.096Z</time></trkpt><trkpt lat="45.7067344" lon="9.4537402"><ele>227.0</ele><time>2026-03-22T14:36:00.096Z</time></trkpt><trkpt lat="45.7067235" lon="9.4536472"><ele>228.0</ele><time>2026-03-22T14:36:03.096Z</time></trkpt><trkpt lat="45.7067172" lon="9.4535401"><ele>229.0</ele><time>2026-03-22T14:36:07.096Z</time></trkpt><trkpt lat="45.7067146" lon="9.4534484"><ele>230.0</ele><time>2026-03-22T14:36:10.096Z</time></trkpt><trkpt lat="45.7067306" lon="9.4533351"><ele>231.0</ele><time>2026-03-22T14:36:14.096Z</time></trkpt><trkpt lat="45.7067382" lon="9.4532315"><ele>232.0</ele><time>2026-03-22T14:36:18.096Z</time></trkpt><trkpt lat="45.7067488" lon="9.4531176"><ele>233.0</ele><time>2026-03-22T14:36:22.096Z</time></trkpt><trkpt lat="45.7067628" lon="9.4530029"><ele>233.57142857142858</ele><time>2026-03-22T14:36:26.096Z</time></trkpt><trkpt lat="45.7067763" lon="9.4528841"><ele>234.1428571428571</ele><time>2026-03-22T14:36:30.096Z</time></trkpt><trkpt lat="45.7068067" lon="9.4528043"><ele>234.7142857142857</ele><time>2026-03-22T14:36:33.096Z</time></trkpt><trkpt lat="45.7068411" lon="9.4527195"><ele>235.28571428571428</ele><time>2026-03-22T14:36:36.096Z</time></trkpt><trkpt lat="45.7068542" lon="9.4526032"><ele>235.85714285714283</ele><time>2026-03-22T14:36:40.096Z</time></trkpt><trkpt lat="45.7068745" lon="9.4524993"><ele>236.4285714285714</ele><time>2026-03-22T14:36:46.096Z</time></trkpt><trkpt lat="45.7068835" lon="9.4524087"><ele>236.99999999999997</ele><time>2026-03-22T14:36:49.096Z</time></trkpt><trkpt lat="45.706902" lon="9.4522707"><ele>236.66666666666666</ele><time>2026-03-22T14:36:52.095Z</time></trkpt><trkpt lat="45.7069261" lon="9.452166"><ele>236.33333333333331</ele><time>2026-03-22T14:36:53.096Z</time></trkpt><trkpt lat="45.706957" lon="9.4520384"><ele>236.0</ele><time>2026-03-22T14:36:55.096Z</time></trkpt><trkpt lat="45.7069705" lon="9.4519297"><ele>235.66666666666666</ele><time>2026-03-22T14:36:58.096Z</time></trkpt><trkpt lat="45.7069316" lon="9.4518473"><ele>235.33333333333331</ele><time>2026-03-22T14:37:03.096Z</time></trkpt><trkpt lat="45.7069204" lon="9.4517284"><ele>235.0</ele><time>2026-03-22T14:37:06.095Z</time></trkpt><trkpt lat="45.7069082" lon="9.4516107"><ele>235.7142857142857</ele><time>2026-03-22T14:37:09.096Z</time></trkpt><trkpt lat="45.7068909" lon="9.4514879"><ele>236.4285714285714</ele><time>2026-03-22T14:37:12.096Z</time></trkpt><trkpt lat="45.7068687" lon="9.4513756"><ele>237.14285714285714</ele><time>2026-03-22T14:37:15.096Z</time></trkpt><trkpt lat="45.7068546" lon="9.451273"><ele>237.85714285714283</ele><time>2026-03-22T14:37:18.096Z</time></trkpt><trkpt lat="45.7068443" lon="9.4511797"><ele>238.57142857142856</ele><time>2026-03-22T14:37:20.096Z</time></trkpt><trkpt lat="45.7068331" lon="9.4510851"><ele>239.28571428571428</ele><time>2026-03-22T14:37:22.095Z</time></trkpt><trkpt lat="45.7068246" lon="9.4509876"><ele>240.0</ele><time>2026-03-22T14:37:24.096Z</time></trkpt><trkpt lat="45.7068131" lon="9.4508966"><ele>240.0</ele><time>2026-03-22T14:37:26.096Z</time></trkpt><trkpt lat="45.7068047" lon="9.4508058"><ele>240.0</ele><time>2026-03-22T14:37:28.096Z</time></trkpt><trkpt lat="45.7067991" lon="9.4507041"><ele>240.0</ele><time>2026-03-22T14:37:30.096Z</time></trkpt><trkpt lat="45.7067912" lon="9.4506054"><ele>240.0</ele><time>2026-03-22T14:37:32.095Z</time></trkpt><trkpt lat="45.7067765" lon="9.4505089"><ele>240.0</ele><time>2026-03-22T14:37:34.096Z</time></trkpt><trkpt lat="45.7067683" lon="9.4504077"><ele>240.0</ele><time>2026-03-22T14:37:36.096Z</time></trkpt><trkpt lat="45.7067608" lon="9.4503052"><ele>240.0</ele><time>2026-03-22T14:37:38.095Z</time></trkpt><trkpt lat="45.7067547" lon="9.4501977"><ele>240.42857142857144</ele><time>2026-03-22T14:37:40.095Z</time></trkpt><trkpt lat="45.7067529" lon="9.450098"><ele>240.85714285714283</ele><time>2026-03-22T14:37:42.096Z</time></trkpt><trkpt lat="45.7067493" lon="9.4499949"><ele>241.28571428571428</ele><time>2026-03-22T14:37:44.096Z</time></trkpt><trkpt lat="45.7067477" lon="9.4498899"><ele>241.71428571428572</ele><time>2026-03-22T14:37:46.096Z</time></trkpt><trkpt lat="45.7067514" lon="9.4497772"><ele>242.14285714285717</ele><time>2026-03-22T14:37:48.096Z</time></trkpt><trkpt lat="45.7067706" lon="9.449676"><ele>242.57142857142856</ele><time>2026-03-22T14:37:50.096Z</time></trkpt><trkpt lat="45.7068128" lon="9.4495883"><ele>243.0</ele><time>2026-03-22T14:37:52.096Z</time></trkpt><trkpt lat="45.7068861" lon="9.4495389"><ele>243.33333333333334</ele><time>2026-03-22T14:37:54.096Z</time></trkpt><trkpt lat="45.7069618" lon="9.4495084"><ele>243.66666666666669</ele><time>2026-03-22T14:37:56.096Z</time></trkpt><trkpt lat="45.7070379" lon="9.4494982"><ele>244.0</ele><time>2026-03-22T14:37:58.096Z</time></trkpt><trkpt lat="45.7071166" lon="9.4494755"><ele>244.33333333333334</ele><time>2026-03-22T14:38:00.096Z</time></trkpt><trkpt lat="45.707204" lon="9.4494446"><ele>244.66666666666669</ele><time>2026-03-22T14:38:02.096Z</time></trkpt><trkpt lat="45.7072959" lon="9.4494169"><ele>245.0</ele><time>2026-03-22T14:38:04.096Z</time></trkpt><trkpt lat="45.7073902" lon="9.4493842"><ele>245.0</ele><time>2026-03-22T14:38:06.096Z</time></trkpt><trkpt lat="45.7074919" lon="9.4493626"><ele>245.0</ele><time>2026-03-22T14:38:08.095Z</time></trkpt><trkpt lat="45.7076018" lon="9.4493357"><ele>245.0</ele><time>2026-03-22T14:38:10.096Z</time></trkpt><trkpt lat="45.7077115" lon="9.4493073"><ele>245.0</ele><time>2026-03-22T14:38:12.096Z</time></trkpt><trkpt lat="45.7078262" lon="9.4492749"><ele>245.0</ele><time>2026-03-22T14:38:14.096Z</time></trkpt><trkpt lat="45.7079483" lon="9.4492463"><ele>244.8</ele><time>2026-03-22T14:38:16.096Z</time></trkpt><trkpt lat="45.7080718" lon="9.4492217"><ele>244.6</ele><time>2026-03-22T14:38:18.096Z</time></trkpt><trkpt lat="45.7081343" lon="9.4492054"><ele>244.39999999999998</ele><time>2026-03-22T14:38:19.096Z</time></trkpt><trkpt lat="45.7082642" lon="9.4491896"><ele>244.2</ele><time>2026-03-22T14:38:20.096Z</time></trkpt><trkpt lat="45.7083778" lon="9.4491472"><ele>244.0</ele><time>2026-03-22T14:38:22.096Z</time></trkpt><trkpt lat="45.7084949" lon="9.4491278"><ele>243.79999999999998</ele><time>2026-03-22T14:38:24.096Z</time></trkpt><trkpt lat="45.7086093" lon="9.449104"><ele>243.59999999999997</ele><time>2026-03-22T14:38:26.096Z</time></trkpt><trkpt lat="45.7087138" lon="9.4490906"><ele>243.4</ele><time>2026-03-22T14:38:28.096Z</time></trkpt><trkpt lat="45.7087747" lon="9.4490626"><ele>243.2</ele><time>2026-03-22T14:38:29.096Z</time></trkpt><trkpt lat="45.7088773" lon="9.4490366"><ele>243.0</ele><time>2026-03-22T14:38:31.096Z</time></trkpt><trkpt lat="45.7089432" lon="9.4490275"><ele>243.0</ele><time>2026-03-22T14:38:32.096Z</time></trkpt><trkpt lat="45.7090085" lon="9.4490149"><ele>243.0</ele><time>2026-03-22T14:38:33.096Z</time></trkpt><trkpt lat="45.7091319" lon="9.4489858"><ele>243.0</ele><time>2026-03-22T14:38:35.096Z</time></trkpt><trkpt lat="45.7092" lon="9.4489721"><ele>243.0</ele><time>2026-03-22T14:38:36.096Z</time></trkpt><trkpt lat="45.7092657" lon="9.4489563"><ele>243.0</ele><time>2026-03-22T14:38:37.096Z</time></trkpt><trkpt lat="45.7093907" lon="9.4489357"><ele>243.5</ele><time>2026-03-22T14:38:39.096Z</time></trkpt><trkpt lat="45.7095124" lon="9.4489146"><ele>244.0</ele><time>2026-03-22T14:38:41.096Z</time></trkpt><trkpt lat="45.7096338" lon="9.4489078"><ele>244.5</ele><time>2026-03-22T14:38:43.096Z</time></trkpt><trkpt lat="45.7097541" lon="9.4488928"><ele>245.0</ele><time>2026-03-22T14:38:45.096Z</time></trkpt><trkpt lat="45.7098795" lon="9.448874"><ele>245.0</ele><time>2026-03-22T14:38:47.096Z</time></trkpt><trkpt lat="45.7099603" lon="9.4488748"><ele>245.0</ele><time>2026-03-22T14:38:48.096Z</time></trkpt><trkpt lat="45.7100729" lon="9.4488237"><ele>245.0</ele><time>2026-03-22T14:38:50.095Z</time></trkpt><trkpt lat="45.7101354" lon="9.448803"><ele>245.0</ele><time>2026-03-22T14:38:51.096Z</time></trkpt><trkpt lat="45.7102582" lon="9.448763"><ele>245.0</ele><time>2026-03-22T14:38:53.096Z</time></trkpt><trkpt lat="45.7103724" lon="9.4487131"><ele>245.4</ele><time>2026-03-22T14:38:55.096Z</time></trkpt><trkpt lat="45.71048" lon="9.4486296"><ele>245.8</ele><time>2026-03-22T14:38:57.096Z</time></trkpt><trkpt lat="45.7105624" lon="9.448528"><ele>246.2</ele><time>2026-03-22T14:38:59.096Z</time></trkpt><trkpt lat="45.7106596" lon="9.4484286"><ele>246.6</ele><time>2026-03-22T14:39:01.096Z</time></trkpt><trkpt lat="45.7107177" lon="9.4483882"><ele>247.0</ele><time>2026-03-22T14:39:02.096Z</time></trkpt><trkpt lat="45.7108078" lon="9.448312"><ele>246.99999999999997</ele><time>2026-03-22T14:39:04.096Z</time></trkpt><trkpt lat="45.7108462" lon="9.4482073"><ele>247.0</ele><time>2026-03-22T14:39:06.096Z</time></trkpt><trkpt lat="45.7108121" lon="9.4480923"><ele>247.0</ele><time>2026-03-22T14:39:08.096Z</time></trkpt><trkpt lat="45.7107931" lon="9.4479503"><ele>247.0</ele><time>2026-03-22T14:39:10.096Z</time></trkpt><trkpt lat="45.7108103" lon="9.4478253"><ele>246.99999999999997</ele><time>2026-03-22T14:39:12.096Z</time></trkpt><trkpt lat="45.7108478" lon="9.4477291"><ele>247.0</ele><time>2026-03-22T14:39:15.096Z</time></trkpt><trkpt lat="45.710893" lon="9.4476464"><ele>247.85714285714286</ele><time>2026-03-22T14:39:18.096Z</time></trkpt><trkpt lat="45.7109331" lon="9.4475615"><ele>248.71428571428572</ele><time>2026-03-22T14:39:21.096Z</time></trkpt><trkpt lat="45.7109778" lon="9.4474864"><ele>249.57142857142858</ele><time>2026-03-22T14:39:24.096Z</time></trkpt><trkpt lat="45.7110233" lon="9.4474151"><ele>250.42857142857144</ele><time>2026-03-22T14:39:27.096Z</time></trkpt><trkpt lat="45.7110861" lon="9.4473343"><ele>251.28571428571428</ele><time>2026-03-22T14:39:31.096Z</time></trkpt><trkpt lat="45.7111348" lon="9.4472604"><ele>252.14285714285717</ele><time>2026-03-22T14:39:34.096Z</time></trkpt><trkpt lat="45.7111939" lon="9.4471914"><ele>253.00000000000003</ele><time>2026-03-22T14:39:39.096Z</time></trkpt><trkpt lat="45.711248" lon="9.4471041"><ele>254.8571428571429</ele><time>2026-03-22T14:39:42.095Z</time></trkpt><trkpt lat="45.7113049" lon="9.4470202"><ele>256.7142857142857</ele><time>2026-03-22T14:39:45.095Z</time></trkpt><trkpt lat="45.7113606" lon="9.4469347"><ele>258.57142857142856</ele><time>2026-03-22T14:39:46.096Z</time></trkpt><trkpt lat="45.7114127" lon="9.4468736"><ele>260.42857142857144</ele><time>2026-03-22T14:39:49.095Z</time></trkpt><trkpt lat="45.7114598" lon="9.4468043"><ele>262.2857142857143</ele><time>2026-03-22T14:39:52.096Z</time></trkpt><trkpt lat="45.7115072" lon="9.4467272"><ele>264.14285714285717</ele><time>2026-03-22T14:39:55.096Z</time></trkpt><trkpt lat="45.7115595" lon="9.4466604"><ele>266.0</ele><time>2026-03-22T14:39:58.096Z</time></trkpt><trkpt lat="45.7116119" lon="9.4465889"><ele>266.0</ele><time>2026-03-22T14:40:01.095Z</time></trkpt><trkpt lat="45.7116683" lon="9.4465233"><ele>266.0</ele><time>2026-03-22T14:40:04.096Z</time></trkpt><trkpt lat="45.7117211" lon="9.4464527"><ele>266.0</ele><time>2026-03-22T14:40:07.096Z</time></trkpt><trkpt lat="45.7117742" lon="9.4463922"><ele>266.0</ele><time>2026-03-22T14:40:10.096Z</time></trkpt><trkpt lat="45.71183" lon="9.4463331"><ele>266.0</ele><time>2026-03-22T14:40:13.096Z</time></trkpt><trkpt lat="45.711882" lon="9.4462732"><ele>266.0</ele><time>2026-03-22T14:40:16.096Z</time></trkpt><trkpt lat="45.7119352" lon="9.4462039"><ele>266.0</ele><time>2026-03-22T14:40:19.096Z</time></trkpt><trkpt lat="45.7119958" lon="9.4461466"><ele>266.5</ele><time>2026-03-22T14:40:22.096Z</time></trkpt><trkpt lat="45.7120518" lon="9.4460947"><ele>267.0</ele><time>2026-03-22T14:40:25.096Z</time></trkpt><trkpt lat="45.7121166" lon="9.4460174"><ele>267.5</ele><time>2026-03-22T14:40:29.096Z</time></trkpt><trkpt lat="45.712173" lon="9.4459364"><ele>268.0</ele><time>2026-03-22T14:40:32.096Z</time></trkpt><trkpt lat="45.7122261" lon="9.4458582"><ele>268.5</ele><time>2026-03-22T14:40:35.096Z</time></trkpt><trkpt lat="45.7122794" lon="9.4457884"><ele>269.0</ele><time>2026-03-22T14:40:38.096Z</time></trkpt><trkpt lat="45.7123376" lon="9.4457274"><ele>269.0</ele><time>2026-03-22T14:40:41.096Z</time></trkpt><trkpt lat="45.7123893" lon="9.445655"><ele>269.0</ele><time>2026-03-22T14:40:44.095Z</time></trkpt><trkpt lat="45.7124411" lon="9.4455793"><ele>269.0</ele><time>2026-03-22T14:40:47.096Z</time></trkpt><trkpt lat="45.7125002" lon="9.445506"><ele>269.0</ele><time>2026-03-22T14:40:50.096Z</time></trkpt><trkpt lat="45.7125608" lon="9.4454274"><ele>269.0</ele><time>2026-03-22T14:40:53.096Z</time></trkpt><trkpt lat="45.7126128" lon="9.4453563"><ele>269.0</ele><time>2026-03-22T14:40:56.096Z</time></trkpt><trkpt lat="45.7126608" lon="9.4452773"><ele>268.7142857142857</ele><time>2026-03-22T14:40:59.096Z</time></trkpt><trkpt lat="45.7127183" lon="9.4452023"><ele>268.42857142857144</ele><time>2026-03-22T14:41:02.096Z</time></trkpt><trkpt lat="45.7127773" lon="9.4451405"><ele>268.14285714285717</ele><time>2026-03-22T14:41:05.096Z</time></trkpt><trkpt lat="45.7128388" lon="9.4450819"><ele>267.8571428571429</ele><time>2026-03-22T14:41:08.095Z</time></trkpt><trkpt lat="45.7128986" lon="9.4449995"><ele>267.57142857142856</ele><time>2026-03-22T14:41:11.096Z</time></trkpt><trkpt lat="45.7129508" lon="9.4449325"><ele>267.28571428571433</ele><time>2026-03-22T14:41:14.096Z</time></trkpt><trkpt lat="45.7129994" lon="9.4448578"><ele>267.0</ele><time>2026-03-22T14:41:17.096Z</time></trkpt><trkpt lat="45.7130515" lon="9.444793"><ele>267.00000000000006</ele><time>2026-03-22T14:41:20.096Z</time></trkpt><trkpt lat="45.7130944" lon="9.4447193"><ele>267.0</ele><time>2026-03-22T14:41:23.095Z</time></trkpt><trkpt lat="45.713134" lon="9.4446388"><ele>267.0</ele><time>2026-03-22T14:41:26.096Z</time></trkpt><trkpt lat="45.7131677" lon="9.444547"><ele>267.0</ele><time>2026-03-22T14:41:29.096Z</time></trkpt><trkpt lat="45.7132083" lon="9.4444727"><ele>267.0</ele><time>2026-03-22T14:41:34.096Z</time></trkpt><trkpt lat="45.7132458" lon="9.4443731"><ele>267.00000000000006</ele><time>2026-03-22T14:41:37.096Z</time></trkpt><trkpt lat="45.7132663" lon="9.4442771"><ele>267.0</ele><time>2026-03-22T14:41:40.096Z</time></trkpt><trkpt lat="45.7133021" lon="9.4441834"><ele>270.8333333333333</ele><time>2026-03-22T14:41:43.095Z</time></trkpt><trkpt lat="45.7133447" lon="9.4440847"><ele>274.6666666666667</ele><time>2026-03-22T14:41:46.096Z</time></trkpt><trkpt lat="45.7133924" lon="9.4439852"><ele>278.5</ele><time>2026-03-22T14:41:49.096Z</time></trkpt><trkpt lat="45.7134493" lon="9.4438971"><ele>282.33333333333337</ele><time>2026-03-22T14:41:52.096Z</time></trkpt><trkpt lat="45.7135036" lon="9.4438053"><ele>286.1666666666667</ele><time>2026-03-22T14:41:55.096Z</time></trkpt><trkpt lat="45.7135412" lon="9.4437243"><ele>290.0</ele><time>2026-03-22T14:41:57.096Z</time></trkpt><trkpt lat="45.7135988" lon="9.4436236"><ele>290.0</ele><time>2026-03-22T14:42:00.096Z</time></trkpt><trkpt lat="45.7136416" lon="9.4435555"><ele>290.0</ele><time>2026-03-22T14:42:02.096Z</time></trkpt><trkpt lat="45.7136951" lon="9.4434582"><ele>290.0</ele><time>2026-03-22T14:42:05.096Z</time></trkpt><trkpt lat="45.7137435" lon="9.4433532"><ele>290.0</ele><time>2026-03-22T14:42:08.095Z</time></trkpt><trkpt lat="45.7137776" lon="9.4432615"><ele>290.0</ele><time>2026-03-22T14:42:10.096Z</time></trkpt><trkpt lat="45.7138156" lon="9.4431713"><ele>290.0</ele><time>2026-03-22T14:42:12.095Z</time></trkpt><trkpt lat="45.7138389" lon="9.4430869"><ele>290.0</ele><time>2026-03-22T14:42:16.095Z</time></trkpt><trkpt lat="45.7138607" lon="9.4429941"><ele>293.0</ele><time>2026-03-22T14:42:20.096Z</time></trkpt><trkpt lat="45.7138727" lon="9.442879"><ele>296.0</ele><time>2026-03-22T14:42:25.096Z</time></trkpt><trkpt lat="45.7139134" lon="9.4427685"><ele>299.0</ele><time>2026-03-22T14:42:29.096Z</time></trkpt><trkpt lat="45.7139853" lon="9.4427356"><ele>302.0</ele><time>2026-03-22T14:42:31.096Z</time></trkpt><trkpt lat="45.7140531" lon="9.4427314"><ele>305.0</ele><time>2026-03-22T14:42:33.096Z</time></trkpt><trkpt lat="45.7141258" lon="9.4427061"><ele>308.0</ele><time>2026-03-22T14:42:36.096Z</time></trkpt><trkpt lat="45.7141843" lon="9.442656"><ele>308.0</ele><time>2026-03-22T14:42:39.096Z</time></trkpt><trkpt lat="45.7142462" lon="9.442595"><ele>308.0</ele><time>2026-03-22T14:42:42.096Z</time></trkpt><trkpt lat="45.714311" lon="9.4425164"><ele>308.0</ele><time>2026-03-22T14:42:45.096Z</time></trkpt><trkpt lat="45.7143766" lon="9.44246"><ele>308.0</ele><time>2026-03-22T14:42:48.096Z</time></trkpt><trkpt lat="45.7144627" lon="9.4424046"><ele>308.0</ele><time>2026-03-22T14:42:51.096Z</time></trkpt><trkpt lat="45.7145131" lon="9.4423409"><ele>308.0</ele><time>2026-03-22T14:42:53.096Z</time></trkpt><trkpt lat="45.7145717" lon="9.4422541"><ele>310.0</ele><time>2026-03-22T14:42:56.096Z</time></trkpt><trkpt lat="45.7149454" lon="9.4419775"><ele>312.0</ele><time>2026-03-22T14:42:58.096Z</time></trkpt><trkpt lat="45.7150546" lon="9.4419225"><ele>312.0</ele><time>2026-03-22T14:43:00.096Z</time></trkpt><trkpt lat="45.7151086" lon="9.441873"><ele>312.0</ele><time>2026-03-22T14:43:02.095Z</time></trkpt><trkpt lat="45.7151605" lon="9.4418131"><ele>312.0</ele><time>2026-03-22T14:43:04.096Z</time></trkpt><trkpt lat="45.7152218" lon="9.4417554"><ele>312.0</ele><time>2026-03-22T14:43:06.096Z</time></trkpt><trkpt lat="45.7152875" lon="9.4416897"><ele>312.0</ele><time>2026-03-22T14:43:08.096Z</time></trkpt><trkpt lat="45.7153467" lon="9.4416323"><ele>312.0</ele><time>2026-03-22T14:43:10.096Z</time></trkpt><trkpt lat="45.7154155" lon="9.4415873"><ele>312.0</ele><time>2026-03-22T14:43:12.096Z</time></trkpt><trkpt lat="45.7154808" lon="9.4415341"><ele>311.2857142857143</ele><time>2026-03-22T14:43:14.096Z</time></trkpt><trkpt lat="45.7155422" lon="9.4414834"><ele>310.57142857142856</ele><time>2026-03-22T14:43:16.096Z</time></trkpt><trkpt lat="45.7156017" lon="9.4414273"><ele>309.85714285714283</ele><time>2026-03-22T14:43:18.096Z</time></trkpt><trkpt lat="45.7156618" lon="9.4413706"><ele>309.1428571428571</ele><time>2026-03-22T14:43:20.096Z</time></trkpt><trkpt lat="45.7157204" lon="9.441321"><ele>308.42857142857144</ele><time>2026-03-22T14:43:22.096Z</time></trkpt><trkpt lat="45.7157831" lon="9.4412737"><ele>307.71428571428567</ele><time>2026-03-22T14:43:24.096Z</time></trkpt><trkpt lat="45.7158512" lon="9.4412354"><ele>307.0</ele><time>2026-03-22T14:43:26.096Z</time></trkpt><trkpt lat="45.7159137" lon="9.4411851"><ele>307.99999999999994</ele><time>2026-03-22T14:43:28.096Z</time></trkpt><trkpt lat="45.7159799" lon="9.4411211"><ele>309.0</ele><time>2026-03-22T14:43:30.096Z</time></trkpt><trkpt lat="45.7160388" lon="9.441059"><ele>310.0</ele><time>2026-03-22T14:43:32.096Z</time></trkpt><trkpt lat="45.7160985" lon="9.441004"><ele>311.0</ele><time>2026-03-22T14:43:34.096Z</time></trkpt><trkpt lat="45.7161609" lon="9.4409474"><ele>312.0</ele><time>2026-03-22T14:43:36.096Z</time></trkpt><trkpt lat="45.7162264" lon="9.4408927"><ele>312.99999999999994</ele><time>2026-03-22T14:43:38.096Z</time></trkpt><trkpt lat="45.7162848" lon="9.4408472"><ele>314.0</ele><time>2026-03-22T14:43:40.096Z</time></trkpt><trkpt lat="45.7163501" lon="9.4407943"><ele>313.99999999999994</ele><time>2026-03-22T14:43:42.096Z</time></trkpt><trkpt lat="45.7164015" lon="9.4407278"><ele>314.0</ele><time>2026-03-22T14:43:44.096Z</time></trkpt><trkpt lat="45.7164596" lon="9.4406684"><ele>314.0</ele><time>2026-03-22T14:43:46.096Z</time></trkpt><trkpt lat="45.7165188" lon="9.4406205"><ele>314.0</ele><time>2026-03-22T14:43:48.096Z</time></trkpt><trkpt lat="45.7165782" lon="9.4405661"><ele>314.0</ele><time>2026-03-22T14:43:50.096Z</time></trkpt><trkpt lat="45.7166362" lon="9.4405108"><ele>313.99999999999994</ele><time>2026-03-22T14:43:52.096Z</time></trkpt><trkpt lat="45.716696" lon="9.4404676"><ele>314.0</ele><time>2026-03-22T14:43:54.096Z</time></trkpt><trkpt lat="45.7167542" lon="9.4404223"><ele>314.83333333333337</ele><time>2026-03-22T14:43:56.096Z</time></trkpt><trkpt lat="45.7168062" lon="9.4403703"><ele>315.6666666666667</ele><time>2026-03-22T14:43:58.095Z</time></trkpt><trkpt lat="45.7168596" lon="9.4402891"><ele>316.5</ele><time>2026-03-22T14:44:01.096Z</time></trkpt><trkpt lat="45.7169183" lon="9.4402243"><ele>317.3333333333333</ele><time>2026-03-22T14:44:04.096Z</time></trkpt><trkpt lat="45.7169806" lon="9.4401361"><ele>318.16666666666663</ele><time>2026-03-22T14:44:08.096Z</time></trkpt><trkpt lat="45.717014" lon="9.4400546"><ele>319.0</ele><time>2026-03-22T14:44:12.908Z</time></trkpt><trkpt lat="45.7170708" lon="9.4399628"><ele>319.0</ele><time>2026-03-22T14:44:16.096Z</time></trkpt><trkpt lat="45.7171315" lon="9.4398993"><ele>319.0</ele><time>2026-03-22T14:44:19.096Z</time></trkpt><trkpt lat="45.7171911" lon="9.4398458"><ele>319.0</ele><time>2026-03-22T14:44:22.071Z</time></trkpt><trkpt lat="45.7172461" lon="9.4397795"><ele>319.0</ele><time>2026-03-22T14:44:24.827Z</time></trkpt><trkpt lat="45.7173106" lon="9.4397076"><ele>319.0</ele><time>2026-03-22T14:44:27.93Z</time></trkpt><trkpt lat="45.7173784" lon="9.4396298"><ele>319.0</ele><time>2026-03-22T14:44:31.096Z</time></trkpt><trkpt lat="45.7174293" lon="9.4395518"><ele>322.2</ele><time>2026-03-22T14:44:34.093Z</time></trkpt><trkpt lat="45.7174838" lon="9.4394592"><ele>325.4</ele><time>2026-03-22T14:44:37.096Z</time></trkpt><trkpt lat="45.7175337" lon="9.4393593"><ele>328.6</ele><time>2026-03-22T14:44:40.096Z</time></trkpt><trkpt lat="45.7176216" lon="9.4391722"><ele>331.8</ele><time>2026-03-22T14:44:41.096Z</time></trkpt><trkpt lat="45.7176662" lon="9.4390927"><ele>335.0</ele><time>2026-03-22T14:44:43.096Z</time></trkpt><trkpt lat="45.7177131" lon="9.439019"><ele>333.6666666666667</ele><time>2026-03-22T14:44:45.096Z</time></trkpt><trkpt lat="45.7177647" lon="9.4389509"><ele>332.33333333333337</ele><time>2026-03-22T14:44:47.096Z</time></trkpt><trkpt lat="45.7178113" lon="9.4388687"><ele>331.0</ele><time>2026-03-22T14:44:49.096Z</time></trkpt><trkpt lat="45.7178568" lon="9.4387823"><ele>329.6666666666667</ele><time>2026-03-22T14:44:51.096Z</time></trkpt><trkpt lat="45.7179029" lon="9.4386813"><ele>328.3333333333333</ele><time>2026-03-22T14:44:53.096Z</time></trkpt><trkpt lat="45.7179319" lon="9.4385665"><ele>327.0</ele><time>2026-03-22T14:44:55.096Z</time></trkpt><trkpt lat="45.7179535" lon="9.4384602"><ele>327.0</ele><time>2026-03-22T14:44:57.096Z</time></trkpt><trkpt lat="45.7179703" lon="9.4383577"><ele>327.0</ele><time>2026-03-22T14:44:59.096Z</time></trkpt><trkpt lat="45.7179762" lon="9.4382539"><ele>327.0</ele><time>2026-03-22T14:45:01.096Z</time></trkpt><trkpt lat="45.7179647" lon="9.4381539"><ele>327.0</ele><time>2026-03-22T14:45:03.096Z</time></trkpt><trkpt lat="45.7179685" lon="9.4380457"><ele>327.0</ele><time>2026-03-22T14:45:05.095Z</time></trkpt><trkpt lat="45.7179762" lon="9.4379217"><ele>327.0</ele><time>2026-03-22T14:45:07.096Z</time></trkpt><trkpt lat="45.717996" lon="9.4377751"><ele>327.1666666666667</ele><time>2026-03-22T14:45:09.095Z</time></trkpt><trkpt lat="45.7180159" lon="9.437634"><ele>327.3333333333333</ele><time>2026-03-22T14:45:11.096Z</time></trkpt><trkpt lat="45.7180352" lon="9.437509"><ele>327.5</ele><time>2026-03-22T14:45:13.096Z</time></trkpt><trkpt lat="45.7180454" lon="9.437398"><ele>327.66666666666663</ele><time>2026-03-22T14:45:15.096Z</time></trkpt><trkpt lat="45.718039" lon="9.4372934"><ele>327.8333333333333</ele><time>2026-03-22T14:45:17.096Z</time></trkpt><trkpt lat="45.7180103" lon="9.4371763"><ele>328.0</ele><time>2026-03-22T14:45:20.095Z</time></trkpt><trkpt lat="45.7179575" lon="9.4370313"><ele>327.0</ele><time>2026-03-22T14:45:22.096Z</time></trkpt><trkpt lat="45.7178473" lon="9.4365849"><ele>326.0</ele><time>2026-03-22T14:45:24.096Z</time></trkpt><trkpt lat="45.7177539" lon="9.4364731"><ele>327.20000000000005</ele><time>2026-03-22T14:45:26.096Z</time></trkpt><trkpt lat="45.7176612" lon="9.4363644"><ele>328.40000000000003</ele><time>2026-03-22T14:45:28.096Z</time></trkpt><trkpt lat="45.71761" lon="9.4363088"><ele>329.6</ele><time>2026-03-22T14:45:29.096Z</time></trkpt><trkpt lat="45.7175278" lon="9.4361935"><ele>330.8</ele><time>2026-03-22T14:45:31.096Z</time></trkpt><trkpt lat="45.7174624" lon="9.436091"><ele>332.0</ele><time>2026-03-22T14:45:33.096Z</time></trkpt><trkpt lat="45.7174234" lon="9.4360199"><ele>332.0</ele><time>2026-03-22T14:45:34.096Z</time></trkpt><trkpt lat="45.7173704" lon="9.4358727"><ele>332.0</ele><time>2026-03-22T14:45:36.096Z</time></trkpt><trkpt lat="45.7173464" lon="9.4357184"><ele>332.0</ele><time>2026-03-22T14:45:38.096Z</time></trkpt><trkpt lat="45.7173604" lon="9.4355551"><ele>332.0</ele><time>2026-03-22T14:45:40.096Z</time></trkpt><trkpt lat="45.7173888" lon="9.4353878"><ele>331.8</ele><time>2026-03-22T14:45:42.096Z</time></trkpt><trkpt lat="45.7174189" lon="9.4352151"><ele>331.6</ele><time>2026-03-22T14:45:44.096Z</time></trkpt><trkpt lat="45.717455" lon="9.4350707"><ele>331.40000000000003</ele><time>2026-03-22T14:45:46.096Z</time></trkpt><trkpt lat="45.717458" lon="9.4349204"><ele>331.20000000000005</ele><time>2026-03-22T14:45:48.096Z</time></trkpt><trkpt lat="45.717403" lon="9.4348201"><ele>331.0</ele><time>2026-03-22T14:45:50.096Z</time></trkpt><trkpt lat="45.7173484" lon="9.4347569"><ele>331.0</ele><time>2026-03-22T14:45:53.096Z</time></trkpt><trkpt lat="45.7172862" lon="9.4347308"><ele>331.0</ele><time>2026-03-22T14:45:56.095Z</time></trkpt><trkpt lat="45.7172246" lon="9.4347996"><ele>331.0</ele><time>2026-03-22T14:46:01.096Z</time></trkpt><trkpt lat="45.7171883" lon="9.4348853"><ele>331.0</ele><time>2026-03-22T14:46:06.095Z</time></trkpt><trkpt lat="45.7171194" lon="9.4349422"><ele>331.0</ele><time>2026-03-22T14:46:10.096Z</time></trkpt><trkpt lat="45.7170785" lon="9.4350198"><ele>331.0</ele><time>2026-03-22T14:46:13.096Z</time></trkpt><trkpt lat="45.7170352" lon="9.4351134"><ele>331.0</ele><time>2026-03-22T14:46:16.095Z</time></trkpt><trkpt lat="45.7170128" lon="9.43522"><ele>331.0</ele><time>2026-03-22T14:46:19.096Z</time></trkpt><trkpt lat="45.7169715" lon="9.4353033"><ele>331.0</ele><time>2026-03-22T14:46:22.096Z</time></trkpt><trkpt lat="45.7169477" lon="9.4353998"><ele>331.0</ele><time>2026-03-22T14:46:25.096Z</time></trkpt><trkpt lat="45.716931" lon="9.4355204"><ele>331.0</ele><time>2026-03-22T14:46:28.096Z</time></trkpt><trkpt lat="45.7169211" lon="9.4356187"><ele>331.0</ele><time>2026-03-22T14:46:31.095Z</time></trkpt><trkpt lat="45.7168978" lon="9.4357079"><ele>331.0</ele><time>2026-03-22T14:46:34.096Z</time></trkpt><trkpt lat="45.7168739" lon="9.4357929"><ele>331.0</ele><time>2026-03-22T14:46:37.096Z</time></trkpt><trkpt lat="45.7168763" lon="9.4359115"><ele>333.8333333333333</ele><time>2026-03-22T14:46:41.096Z</time></trkpt><trkpt lat="45.7168681" lon="9.4360103"><ele>336.66666666666663</ele><time>2026-03-22T14:46:45.096Z</time></trkpt><trkpt lat="45.7168631" lon="9.4361047"><ele>339.5</ele><time>2026-03-22T14:46:48.096Z</time></trkpt><trkpt lat="45.7168567" lon="9.4362165"><ele>342.3333333333333</ele><time>2026-03-22T14:46:52.096Z</time></trkpt><trkpt lat="45.7168468" lon="9.4363229"><ele>345.1666666666667</ele><time>2026-03-22T14:46:55.096Z</time></trkpt><trkpt lat="45.7168329" lon="9.4364263"><ele>348.0</ele><time>2026-03-22T14:46:58.096Z</time></trkpt><trkpt lat="45.7168082" lon="9.4365474"><ele>348.5</ele><time>2026-03-22T14:47:01.096Z</time></trkpt><trkpt lat="45.7167821" lon="9.4366519"><ele>349.0</ele><time>2026-03-22T14:47:04.096Z</time></trkpt><trkpt lat="45.7167534" lon="9.4367397"><ele>349.5</ele><time>2026-03-22T14:47:07.096Z</time></trkpt><trkpt lat="45.7167318" lon="9.4368352"><ele>350.0</ele><time>2026-03-22T14:47:10.096Z</time></trkpt><trkpt lat="45.7167062" lon="9.4369429"><ele>350.5</ele><time>2026-03-22T14:47:13.096Z</time></trkpt><trkpt lat="45.7166737" lon="9.4370671"><ele>351.0</ele><time>2026-03-22T14:47:16.095Z</time></trkpt><trkpt lat="45.7166359" lon="9.4371484"><ele>351.5</ele><time>2026-03-22T14:47:18.096Z</time></trkpt><trkpt lat="45.716598" lon="9.4372729"><ele>352.0</ele><time>2026-03-22T14:47:21.096Z</time></trkpt><trkpt lat="45.7165639" lon="9.4373903"><ele>352.5</ele><time>2026-03-22T14:47:24.095Z</time></trkpt><trkpt lat="45.7165608" lon="9.4374977"><ele>353.0</ele><time>2026-03-22T14:47:27.096Z</time></trkpt><trkpt lat="45.7165889" lon="9.437581"><ele>353.5</ele><time>2026-03-22T14:47:30.096Z</time></trkpt><trkpt lat="45.716623" lon="9.4376787"><ele>354.0</ele><time>2026-03-22T14:47:35.096Z</time></trkpt><trkpt lat="45.7166716" lon="9.4377673"><ele>354.0</ele><time>2026-03-22T14:47:39.096Z</time></trkpt><trkpt lat="45.7167227" lon="9.4378439"><ele>354.0</ele><time>2026-03-22T14:47:42.096Z</time></trkpt><trkpt lat="45.7167735" lon="9.4379168"><ele>354.0</ele><time>2026-03-22T14:47:45.096Z</time></trkpt><trkpt lat="45.7168215" lon="9.4379755"><ele>354.0</ele><time>2026-03-22T14:47:48.095Z</time></trkpt><trkpt lat="45.716846" lon="9.4380829"><ele>354.0</ele><time>2026-03-22T14:47:51.096Z</time></trkpt><trkpt lat="45.7168335" lon="9.4382086"><ele>354.0</ele><time>2026-03-22T14:47:54.096Z</time></trkpt><trkpt lat="45.7168059" lon="9.4383044"><ele>354.0</ele><time>2026-03-22T14:47:57.096Z</time></trkpt><trkpt lat="45.7167727" lon="9.438393"><ele>354.75</ele><time>2026-03-22T14:48:00.095Z</time></trkpt><trkpt lat="45.7167398" lon="9.4384877"><ele>355.5</ele><time>2026-03-22T14:48:03.096Z</time></trkpt><trkpt lat="45.7166539" lon="9.4387903"><ele>356.25</ele><time>2026-03-22T14:48:05.095Z</time></trkpt><trkpt lat="45.7165602" lon="9.4388428"><ele>357.0</ele><time>2026-03-22T14:48:07.096Z</time></trkpt><trkpt lat="45.7164577" lon="9.4389276"><ele>356.40000000000003</ele><time>2026-03-22T14:48:09.096Z</time></trkpt><trkpt lat="45.7163864" lon="9.4389977"><ele>355.8</ele><time>2026-03-22T14:48:11.096Z</time></trkpt><trkpt lat="45.7162389" lon="9.4391139"><ele>355.2</ele><time>2026-03-22T14:48:13.096Z</time></trkpt><trkpt lat="45.7161305" lon="9.4391701"><ele>354.6</ele><time>2026-03-22T14:48:15.096Z</time></trkpt><trkpt lat="45.7160641" lon="9.4392219"><ele>354.0</ele><time>2026-03-22T14:48:17.095Z</time></trkpt><trkpt lat="45.7159935" lon="9.4392862"><ele>354.0</ele><time>2026-03-22T14:48:19.096Z</time></trkpt><trkpt lat="45.7158646" lon="9.4394091"><ele>354.0</ele><time>2026-03-22T14:48:21.096Z</time></trkpt><trkpt lat="45.7158067" lon="9.4395128"><ele>354.0</ele><time>2026-03-22T14:48:22.096Z</time></trkpt><trkpt lat="45.7157534" lon="9.4396056"><ele>354.0</ele><time>2026-03-22T14:48:23.096Z</time></trkpt><trkpt lat="45.7156817" lon="9.4397203"><ele>354.0</ele><time>2026-03-22T14:48:24.096Z</time></trkpt><trkpt lat="45.7155829" lon="9.4398382"><ele>353.5</ele><time>2026-03-22T14:48:26.096Z</time></trkpt><trkpt lat="45.7155256" lon="9.4399099"><ele>353.0</ele><time>2026-03-22T14:48:27.096Z</time></trkpt><trkpt lat="45.7154461" lon="9.4399539"><ele>352.5</ele><time>2026-03-22T14:48:28.096Z</time></trkpt><trkpt lat="45.7153473" lon="9.4400016"><ele>352.0</ele><time>2026-03-22T14:48:29.096Z</time></trkpt><trkpt lat="45.7152845" lon="9.4400554"><ele>351.5</ele><time>2026-03-22T14:48:30.096Z</time></trkpt><trkpt lat="45.7152228" lon="9.4401143"><ele>351.0</ele><time>2026-03-22T14:48:31.096Z</time></trkpt><trkpt lat="45.7151521" lon="9.4401753"><ele>351.0</ele><time>2026-03-22T14:48:32.096Z</time></trkpt><trkpt lat="45.7150908" lon="9.4402299"><ele>351.0</ele><time>2026-03-22T14:48:33.095Z</time></trkpt><trkpt lat="45.7150066" lon="9.4403195"><ele>351.0</ele><time>2026-03-22T14:48:36.096Z</time></trkpt><trkpt lat="45.7149427" lon="9.4403972"><ele>351.0</ele><time>2026-03-22T14:48:38.096Z</time></trkpt><trkpt lat="45.7148559" lon="9.4404857"><ele>351.0</ele><time>2026-03-22T14:48:40.096Z</time></trkpt><trkpt lat="45.7148091" lon="9.4405683"><ele>351.0</ele><time>2026-03-22T14:48:43.096Z</time></trkpt><trkpt lat="45.7147273" lon="9.4406337"><ele>350.8</ele><time>2026-03-22T14:48:45.096Z</time></trkpt><trkpt lat="45.7146415" lon="9.4406962"><ele>350.6</ele><time>2026-03-22T14:48:47.096Z</time></trkpt><trkpt lat="45.7145741" lon="9.440739"><ele>350.4</ele><time>2026-03-22T14:48:49.096Z</time></trkpt><trkpt lat="45.7144897" lon="9.440798"><ele>350.2</ele><time>2026-03-22T14:48:51.096Z</time></trkpt><trkpt lat="45.7144095" lon="9.4408725"><ele>350.0</ele><time>2026-03-22T14:48:53.096Z</time></trkpt><trkpt lat="45.7142953" lon="9.4409508"><ele>350.0</ele><time>2026-03-22T14:48:55.096Z</time></trkpt><trkpt lat="45.714237" lon="9.4409893"><ele>350.0</ele><time>2026-03-22T14:48:56.096Z</time></trkpt><trkpt lat="45.7141508" lon="9.4410246"><ele>350.0</ele><time>2026-03-22T14:48:58.096Z</time></trkpt><trkpt lat="45.7140022" lon="9.4410511"><ele>350.0</ele><time>2026-03-22T14:49:00.096Z</time></trkpt><trkpt lat="45.7139335" lon="9.4410555"><ele>350.0</ele><time>2026-03-22T14:49:01.096Z</time></trkpt><trkpt lat="45.7137891" lon="9.4410691"><ele>350.0</ele><time>2026-03-22T14:49:03.096Z</time></trkpt><trkpt lat="45.7137045" lon="9.441083"><ele>350.0</ele><time>2026-03-22T14:49:04.096Z</time></trkpt><trkpt lat="45.7136277" lon="9.4410944"><ele>350.0</ele><time>2026-03-22T14:49:05.096Z</time></trkpt><trkpt lat="45.713547" lon="9.4410964"><ele>350.0</ele><time>2026-03-22T14:49:06.096Z</time></trkpt><trkpt lat="45.7134772" lon="9.4410797"><ele>350.0</ele><time>2026-03-22T14:49:07.096Z</time></trkpt><trkpt lat="45.7133635" lon="9.4410554"><ele>350.0</ele><time>2026-03-22T14:49:09.096Z</time></trkpt><trkpt lat="45.7132851" lon="9.44106"><ele>348.83333333333337</ele><time>2026-03-22T14:49:10.096Z</time></trkpt><trkpt lat="45.7132218" lon="9.4410636"><ele>347.6666666666667</ele><time>2026-03-22T14:49:11.096Z</time></trkpt><trkpt lat="45.7130816" lon="9.4410374"><ele>346.5</ele><time>2026-03-22T14:49:13.096Z</time></trkpt><trkpt lat="45.7129963" lon="9.4410119"><ele>345.3333333333333</ele><time>2026-03-22T14:49:14.096Z</time></trkpt><trkpt lat="45.7129252" lon="9.440984"><ele>344.16666666666663</ele><time>2026-03-22T14:49:15.096Z</time></trkpt><trkpt lat="45.7128538" lon="9.4409519"><ele>343.0</ele><time>2026-03-22T14:49:16.095Z</time></trkpt><trkpt lat="45.7127835" lon="9.4409366"><ele>341.16666666666663</ele><time>2026-03-22T14:49:17.096Z</time></trkpt><trkpt lat="45.7127221" lon="9.4408965"><ele>339.3333333333333</ele><time>2026-03-22T14:49:18.096Z</time></trkpt><trkpt lat="45.7126563" lon="9.4408083"><ele>337.5</ele><time>2026-03-22T14:49:20.096Z</time></trkpt><trkpt lat="45.7126139" lon="9.4407393"><ele>335.6666666666667</ele><time>2026-03-22T14:49:22.096Z</time></trkpt><trkpt lat="45.7125524" lon="9.4407149"><ele>333.83333333333337</ele><time>2026-03-22T14:49:24.096Z</time></trkpt><trkpt lat="45.7124829" lon="9.4408006"><ele>332.0</ele><time>2026-03-22T14:49:26.096Z</time></trkpt><trkpt lat="45.7124191" lon="9.4408985"><ele>332.0</ele><time>2026-03-22T14:49:28.096Z</time></trkpt><trkpt lat="45.7123265" lon="9.4410292"><ele>332.0</ele><time>2026-03-22T14:49:30.096Z</time></trkpt><trkpt lat="45.7122396" lon="9.4411907"><ele>332.0</ele><time>2026-03-22T14:49:32.096Z</time></trkpt><trkpt lat="45.7121761" lon="9.4412781"><ele>332.0</ele><time>2026-03-22T14:49:33.095Z</time></trkpt><trkpt lat="45.7121275" lon="9.4413578"><ele>332.0</ele><time>2026-03-22T14:49:34.096Z</time></trkpt><trkpt lat="45.7120688" lon="9.4415131"><ele>333.40000000000003</ele><time>2026-03-22T14:49:36.096Z</time></trkpt><trkpt lat="45.7119837" lon="9.4416602"><ele>334.8</ele><time>2026-03-22T14:49:38.096Z</time></trkpt><trkpt lat="45.7119444" lon="9.4417873"><ele>336.2</ele><time>2026-03-22T14:49:40.096Z</time></trkpt><trkpt lat="45.7118652" lon="9.4417636"><ele>337.6</ele><time>2026-03-22T14:49:43.095Z</time></trkpt><trkpt lat="45.7118907" lon="9.4416483"><ele>339.0</ele><time>2026-03-22T14:49:46.096Z</time></trkpt><trkpt lat="45.7119602" lon="9.4415102"><ele>339.0</ele><time>2026-03-22T14:49:48.095Z</time></trkpt><trkpt lat="45.7120087" lon="9.4413602"><ele>339.0</ele><time>2026-03-22T14:49:50.096Z</time></trkpt><trkpt lat="45.7120474" lon="9.4411896"><ele>339.0</ele><time>2026-03-22T14:49:52.095Z</time></trkpt><trkpt lat="45.7120245" lon="9.4410205"><ele>339.0</ele><time>2026-03-22T14:49:54.096Z</time></trkpt><trkpt lat="45.7119485" lon="9.4409047"><ele>336.6</ele><time>2026-03-22T14:49:56.096Z</time></trkpt><trkpt lat="45.7119061" lon="9.440799"><ele>334.2</ele><time>2026-03-22T14:49:58.096Z</time></trkpt><trkpt lat="45.7118118" lon="9.440653"><ele>331.8</ele><time>2026-03-22T14:50:01.096Z</time></trkpt><trkpt lat="45.7117239" lon="9.4405559"><ele>329.40000000000003</ele><time>2026-03-22T14:50:03.096Z</time></trkpt><trkpt lat="45.711661" lon="9.4404701"><ele>327.0</ele><time>2026-03-22T14:50:05.096Z</time></trkpt><trkpt lat="45.7115851" lon="9.4403786"><ele>327.0</ele><time>2026-03-22T14:50:07.096Z</time></trkpt><trkpt lat="45.711491" lon="9.4403051"><ele>327.0</ele><time>2026-03-22T14:50:10.096Z</time></trkpt><trkpt lat="45.7114154" lon="9.4402327"><ele>327.0</ele><time>2026-03-22T14:50:12.096Z</time></trkpt><trkpt lat="45.7113447" lon="9.4401509"><ele>327.0</ele><time>2026-03-22T14:50:14.096Z</time></trkpt><trkpt lat="45.7112767" lon="9.4400632"><ele>327.0</ele><time>2026-03-22T14:50:16.096Z</time></trkpt><trkpt lat="45.7112142" lon="9.4399594"><ele>327.0</ele><time>2026-03-22T14:50:18.096Z</time></trkpt><trkpt lat="45.7111435" lon="9.4398549"><ele>327.0</ele><time>2026-03-22T14:50:20.096Z</time></trkpt><trkpt lat="45.7110681" lon="9.4397548"><ele>327.0</ele><time>2026-03-22T14:50:22.096Z</time></trkpt><trkpt lat="45.7109977" lon="9.4396753"><ele>327.0</ele><time>2026-03-22T14:50:24.096Z</time></trkpt><trkpt lat="45.7109142" lon="9.4395769"><ele>327.0</ele><time>2026-03-22T14:50:26.095Z</time></trkpt><trkpt lat="45.7108259" lon="9.4394862"><ele>326.25</ele><time>2026-03-22T14:50:28.096Z</time></trkpt><trkpt lat="45.7107332" lon="9.4394177"><ele>325.5</ele><time>2026-03-22T14:50:30.095Z</time></trkpt><trkpt lat="45.7106211" lon="9.439401"><ele>324.75</ele><time>2026-03-22T14:50:32.096Z</time></trkpt><trkpt lat="45.7105233" lon="9.4392944"><ele>324.0</ele><time>2026-03-22T14:50:34.096Z</time></trkpt><trkpt lat="45.7104638" lon="9.4391473"><ele>324.0</ele><time>2026-03-22T14:50:36.096Z</time></trkpt><trkpt lat="45.7104132" lon="9.4389809"><ele>324.0</ele><time>2026-03-22T14:50:38.096Z</time></trkpt><trkpt lat="45.7103867" lon="9.4388888"><ele>324.0</ele><time>2026-03-22T14:50:39.096Z</time></trkpt><trkpt lat="45.7103486" lon="9.4387635"><ele>324.0</ele><time>2026-03-22T14:50:40.096Z</time></trkpt><trkpt lat="45.7103022" lon="9.4386054"><ele>324.0</ele><time>2026-03-22T14:50:42.096Z</time></trkpt><trkpt lat="45.7102931" lon="9.4385059"><ele>323.0</ele><time>2026-03-22T14:50:43.096Z</time></trkpt><trkpt lat="45.7102871" lon="9.4384056"><ele>322.0</ele><time>2026-03-22T14:50:44.096Z</time></trkpt><trkpt lat="45.7102838" lon="9.438298"><ele>321.0</ele><time>2026-03-22T14:50:45.096Z</time></trkpt><trkpt lat="45.7102806" lon="9.4381906"><ele>320.0</ele><time>2026-03-22T14:50:46.096Z</time></trkpt><trkpt lat="45.7102749" lon="9.4380116"><ele>319.0</ele><time>2026-03-22T14:50:48.096Z</time></trkpt><trkpt lat="45.7102784" lon="9.4378342"><ele>318.66666666666663</ele><time>2026-03-22T14:50:50.096Z</time></trkpt><trkpt lat="45.7102878" lon="9.4377308"><ele>318.3333333333333</ele><time>2026-03-22T14:50:51.096Z</time></trkpt><trkpt lat="45.7103025" lon="9.4376331"><ele>318.0</ele><time>2026-03-22T14:50:52.095Z</time></trkpt><trkpt lat="45.7103155" lon="9.4375401"><ele>317.6666666666667</ele><time>2026-03-22T14:50:53.096Z</time></trkpt><trkpt lat="45.7103369" lon="9.4374434"><ele>317.33333333333337</ele><time>2026-03-22T14:50:54.095Z</time></trkpt><trkpt lat="45.7103748" lon="9.4372733"><ele>317.0</ele><time>2026-03-22T14:50:56.096Z</time></trkpt><trkpt lat="45.7103962" lon="9.4371746"><ele>317.14285714285717</ele><time>2026-03-22T14:50:57.096Z</time></trkpt><trkpt lat="45.710419" lon="9.4370779"><ele>317.2857142857143</ele><time>2026-03-22T14:50:58.095Z</time></trkpt><trkpt lat="45.7104432" lon="9.4369893"><ele>317.42857142857144</ele><time>2026-03-22T14:50:59.096Z</time></trkpt><trkpt lat="45.7104629" lon="9.4368569"><ele>317.57142857142856</ele><time>2026-03-22T14:51:00.096Z</time></trkpt><trkpt lat="45.7104835" lon="9.4367651"><ele>317.7142857142857</ele><time>2026-03-22T14:51:01.096Z</time></trkpt><trkpt lat="45.7105021" lon="9.4366627"><ele>317.85714285714283</ele><time>2026-03-22T14:51:02.096Z</time></trkpt><trkpt lat="45.7105212" lon="9.4365637"><ele>318.0</ele><time>2026-03-22T14:51:03.096Z</time></trkpt><trkpt lat="45.7105239" lon="9.4364431"><ele>318.0</ele><time>2026-03-22T14:51:04.096Z</time></trkpt><trkpt lat="45.7105231" lon="9.4363243"><ele>318.0</ele><time>2026-03-22T14:51:05.096Z</time></trkpt><trkpt lat="45.7105008" lon="9.4362053"><ele>318.0</ele><time>2026-03-22T14:51:06.096Z</time></trkpt><trkpt lat="45.7104707" lon="9.4360976"><ele>318.0</ele><time>2026-03-22T14:51:07.096Z</time></trkpt><trkpt lat="45.7104444" lon="9.4359967"><ele>318.0</ele><time>2026-03-22T14:51:08.096Z</time></trkpt><trkpt lat="45.7104009" lon="9.4359007"><ele>318.0</ele><time>2026-03-22T14:51:09.096Z</time></trkpt><trkpt lat="45.7103644" lon="9.4358036"><ele>318.1666666666667</ele><time>2026-03-22T14:51:10.096Z</time></trkpt><trkpt lat="45.7103218" lon="9.4356986"><ele>318.3333333333333</ele><time>2026-03-22T14:51:11.096Z</time></trkpt><trkpt lat="45.7102838" lon="9.4356011"><ele>318.5</ele><time>2026-03-22T14:51:12.096Z</time></trkpt><trkpt lat="45.7102436" lon="9.4355067"><ele>318.66666666666663</ele><time>2026-03-22T14:51:13.096Z</time></trkpt><trkpt lat="45.7102042" lon="9.4354189"><ele>318.8333333333333</ele><time>2026-03-22T14:51:14.096Z</time></trkpt><trkpt lat="45.7101579" lon="9.4353264"><ele>319.0</ele><time>2026-03-22T14:51:15.096Z</time></trkpt><trkpt lat="45.7101075" lon="9.4352443"><ele>319.0</ele><time>2026-03-22T14:51:16.096Z</time></trkpt><trkpt lat="45.710055" lon="9.4351691"><ele>319.0</ele><time>2026-03-22T14:51:17.096Z</time></trkpt><trkpt lat="45.710001" lon="9.4350858"><ele>319.0</ele><time>2026-03-22T14:51:18.096Z</time></trkpt><trkpt lat="45.7099525" lon="9.4350169"><ele>319.0</ele><time>2026-03-22T14:51:19.096Z</time></trkpt><trkpt lat="45.7098834" lon="9.4349523"><ele>319.0</ele><time>2026-03-22T14:51:20.096Z</time></trkpt><trkpt lat="45.7098321" lon="9.4348767"><ele>319.0</ele><time>2026-03-22T14:51:21.096Z</time></trkpt><trkpt lat="45.7097842" lon="9.4347994"><ele>319.0</ele><time>2026-03-22T14:51:22.095Z</time></trkpt><trkpt lat="45.7097328" lon="9.4347277"><ele>319.0</ele><time>2026-03-22T14:51:23.096Z</time></trkpt><trkpt lat="45.7096643" lon="9.4346435"><ele>319.0</ele><time>2026-03-22T14:51:24.096Z</time></trkpt><trkpt lat="45.7096244" lon="9.4345697"><ele>319.0</ele><time>2026-03-22T14:51:25.096Z</time></trkpt><trkpt lat="45.7095488" lon="9.4344218"><ele>319.0</ele><time>2026-03-22T14:51:27.096Z</time></trkpt><trkpt lat="45.7094705" lon="9.4342595"><ele>319.16666666666663</ele><time>2026-03-22T14:51:29.096Z</time></trkpt><trkpt lat="45.7094263" lon="9.4341612"><ele>319.3333333333333</ele><time>2026-03-22T14:51:30.096Z</time></trkpt><trkpt lat="45.7093763" lon="9.4340736"><ele>319.5</ele><time>2026-03-22T14:51:31.096Z</time></trkpt><trkpt lat="45.7093259" lon="9.4339888"><ele>319.6666666666667</ele><time>2026-03-22T14:51:32.096Z</time></trkpt><trkpt lat="45.709287" lon="9.4338749"><ele>319.83333333333337</ele><time>2026-03-22T14:51:33.096Z</time></trkpt><trkpt lat="45.7092387" lon="9.4337564"><ele>320.0</ele><time>2026-03-22T14:51:34.096Z</time></trkpt><trkpt lat="45.7092012" lon="9.4336027"><ele>318.4</ele><time>2026-03-22T14:51:35.096Z</time></trkpt><trkpt lat="45.7091726" lon="9.433464"><ele>316.8</ele><time>2026-03-22T14:51:36.096Z</time></trkpt><trkpt lat="45.7091466" lon="9.4333325"><ele>315.2</ele><time>2026-03-22T14:51:37.096Z</time></trkpt><trkpt lat="45.7091276" lon="9.4332058"><ele>313.6</ele><time>2026-03-22T14:51:38.096Z</time></trkpt><trkpt lat="45.7090889" lon="9.433091"><ele>312.0</ele><time>2026-03-22T14:51:39.096Z</time></trkpt><trkpt lat="45.7090582" lon="9.4329661"><ele>311.6666666666667</ele><time>2026-03-22T14:51:40.096Z</time></trkpt><trkpt lat="45.7090239" lon="9.4328379"><ele>311.3333333333333</ele><time>2026-03-22T14:51:41.096Z</time></trkpt><trkpt lat="45.7089905" lon="9.4327166"><ele>311.0</ele><time>2026-03-22T14:51:42.096Z</time></trkpt><trkpt lat="45.7089597" lon="9.4325992"><ele>310.66666666666663</ele><time>2026-03-22T14:51:43.096Z</time></trkpt><trkpt lat="45.7089281" lon="9.4324867"><ele>310.3333333333333</ele><time>2026-03-22T14:51:44.095Z</time></trkpt><trkpt lat="45.7088981" lon="9.4323709"><ele>310.0</ele><time>2026-03-22T14:51:45.096Z</time></trkpt><trkpt lat="45.7088644" lon="9.4322429"><ele>310.0</ele><time>2026-03-22T14:51:46.096Z</time></trkpt><trkpt lat="45.7088432" lon="9.4321496"><ele>310.0</ele><time>2026-03-22T14:51:47.096Z</time></trkpt><trkpt lat="45.7088123" lon="9.4320443"><ele>310.0</ele><time>2026-03-22T14:51:48.096Z</time></trkpt><trkpt lat="45.7087779" lon="9.4319555"><ele>310.0</ele><time>2026-03-22T14:51:49.096Z</time></trkpt><trkpt lat="45.7087074" lon="9.4318011"><ele>310.0</ele><time>2026-03-22T14:51:51.096Z</time></trkpt><trkpt lat="45.7086586" lon="9.4317318"><ele>310.0</ele><time>2026-03-22T14:51:52.096Z</time></trkpt><trkpt lat="45.7086178" lon="9.4316605"><ele>311.4</ele><time>2026-03-22T14:51:53.096Z</time></trkpt><trkpt lat="45.7085512" lon="9.4315333"><ele>312.8</ele><time>2026-03-22T14:51:55.096Z</time></trkpt><trkpt lat="45.7084939" lon="9.4314244"><ele>314.2</ele><time>2026-03-22T14:51:57.096Z</time></trkpt><trkpt lat="45.7084432" lon="9.431316"><ele>315.6</ele><time>2026-03-22T14:51:59.096Z</time></trkpt><trkpt lat="45.7083952" lon="9.4312126"><ele>317.0</ele><time>2026-03-22T14:52:01.095Z</time></trkpt><trkpt lat="45.7083462" lon="9.4311162"><ele>317.6</ele><time>2026-03-22T14:52:03.096Z</time></trkpt><trkpt lat="45.7082854" lon="9.4310228"><ele>318.2</ele><time>2026-03-22T14:52:05.096Z</time></trkpt><trkpt lat="45.7082253" lon="9.4309107"><ele>318.8</ele><time>2026-03-22T14:52:07.096Z</time></trkpt><trkpt lat="45.7081871" lon="9.4307846"><ele>319.4</ele><time>2026-03-22T14:52:09.096Z</time></trkpt><trkpt lat="45.7081519" lon="9.4306372"><ele>320.0</ele><time>2026-03-22T14:52:11.096Z</time></trkpt><trkpt lat="45.7081089" lon="9.4304679"><ele>320.0</ele><time>2026-03-22T14:52:13.096Z</time></trkpt><trkpt lat="45.7080613" lon="9.4303154"><ele>320.0</ele><time>2026-03-22T14:52:15.096Z</time></trkpt><trkpt lat="45.7080517" lon="9.4301365"><ele>320.0</ele><time>2026-03-22T14:52:17.096Z</time></trkpt><trkpt lat="45.7080046" lon="9.4299873"><ele>320.0</ele><time>2026-03-22T14:52:19.096Z</time></trkpt><trkpt lat="45.7079459" lon="9.4298927"><ele>320.0</ele><time>2026-03-22T14:52:21.096Z</time></trkpt><trkpt lat="45.7078944" lon="9.4297961"><ele>319.6</ele><time>2026-03-22T14:52:22.096Z</time></trkpt><trkpt lat="45.7078208" lon="9.4296404"><ele>319.2</ele><time>2026-03-22T14:52:24.096Z</time></trkpt><trkpt lat="45.7077731" lon="9.4295095"><ele>318.8</ele><time>2026-03-22T14:52:26.096Z</time></trkpt><trkpt lat="45.7077298" lon="9.4294005"><ele>318.4</ele><time>2026-03-22T14:52:28.096Z</time></trkpt><trkpt lat="45.7077133" lon="9.4293017"><ele>318.0</ele><time>2026-03-22T14:52:30.096Z</time></trkpt><trkpt lat="45.7077088" lon="9.4291702"><ele>318.0</ele><time>2026-03-22T14:52:32.096Z</time></trkpt><trkpt lat="45.7077352" lon="9.4290465"><ele>318.0</ele><time>2026-03-22T14:52:34.096Z</time></trkpt><trkpt lat="45.7077463" lon="9.4289115"><ele>318.0</ele><time>2026-03-22T14:52:36.096Z</time></trkpt><trkpt lat="45.70777" lon="9.4287851"><ele>318.0</ele><time>2026-03-22T14:52:38.096Z</time></trkpt><trkpt lat="45.7077959" lon="9.4286713"><ele>318.0</ele><time>2026-03-22T14:52:40.096Z</time></trkpt><trkpt lat="45.7078133" lon="9.4285682"><ele>318.0</ele><time>2026-03-22T14:52:42.096Z</time></trkpt><trkpt lat="45.7078314" lon="9.4284628"><ele>318.5</ele><time>2026-03-22T14:52:44.096Z</time></trkpt><trkpt lat="45.7078371" lon="9.4283542"><ele>319.0</ele><time>2026-03-22T14:52:55.096Z</time></trkpt><trkpt lat="45.707793" lon="9.4282393"><ele>319.5</ele><time>2026-03-22T14:52:58.096Z</time></trkpt><trkpt lat="45.7077221" lon="9.428191"><ele>320.0</ele><time>2026-03-22T14:53:00.096Z</time></trkpt><trkpt lat="45.7076518" lon="9.4281637"><ele>320.5</ele><time>2026-03-22T14:53:02.096Z</time></trkpt><trkpt lat="45.7075818" lon="9.4281417"><ele>321.0</ele><time>2026-03-22T14:53:04.096Z</time></trkpt><trkpt lat="45.7075111" lon="9.4281172"><ele>322.0</ele><time>2026-03-22T14:53:06.096Z</time></trkpt><trkpt lat="45.7074429" lon="9.4280891"><ele>323.0</ele><time>2026-03-22T14:53:08.096Z</time></trkpt><trkpt lat="45.7073814" lon="9.4280426"><ele>324.0</ele><time>2026-03-22T14:53:10.096Z</time></trkpt><trkpt lat="45.7073754" lon="9.4279291"><ele>325.0</ele><time>2026-03-22T14:53:12.095Z</time></trkpt><trkpt lat="45.7074371" lon="9.4278466"><ele>326.0</ele><time>2026-03-22T14:53:14.096Z</time></trkpt><trkpt lat="45.7075046" lon="9.4277912"><ele>327.0</ele><time>2026-03-22T14:53:16.096Z</time></trkpt><trkpt lat="45.7075645" lon="9.4277213"><ele>327.0</ele><time>2026-03-22T14:53:18.096Z</time></trkpt><trkpt lat="45.7075993" lon="9.4276107"><ele>327.0</ele><time>2026-03-22T14:53:20.096Z</time></trkpt><trkpt lat="45.7076361" lon="9.4275143"><ele>327.0</ele><time>2026-03-22T14:53:22.095Z</time></trkpt><trkpt lat="45.707603" lon="9.4273673"><ele>327.0</ele><time>2026-03-22T14:53:24.096Z</time></trkpt><trkpt lat="45.7075856" lon="9.4272517"><ele>327.0</ele><time>2026-03-22T14:53:26.096Z</time></trkpt><trkpt lat="45.7075538" lon="9.4271487"><ele>327.0</ele><time>2026-03-22T14:53:28.096Z</time></trkpt><trkpt lat="45.7075329" lon="9.4270386"><ele>326.6</ele><time>2026-03-22T14:53:30.096Z</time></trkpt><trkpt lat="45.7075223" lon="9.4268825"><ele>326.20000000000005</ele><time>2026-03-22T14:53:32.096Z</time></trkpt><trkpt lat="45.707529" lon="9.4267431"><ele>325.8</ele><time>2026-03-22T14:53:34.096Z</time></trkpt><trkpt lat="45.7075572" lon="9.4266035"><ele>325.4</ele><time>2026-03-22T14:53:36.096Z</time></trkpt><trkpt lat="45.70757" lon="9.4264664"><ele>325.0</ele><time>2026-03-22T14:53:38.096Z</time></trkpt><trkpt lat="45.7075508" lon="9.4263135"><ele>325.0</ele><time>2026-03-22T14:53:40.096Z</time></trkpt><trkpt lat="45.7075248" lon="9.4261872"><ele>325.0</ele><time>2026-03-22T14:53:42.096Z</time></trkpt><trkpt lat="45.7074677" lon="9.4260977"><ele>325.0</ele><time>2026-03-22T14:53:44.096Z</time></trkpt><trkpt lat="45.7074171" lon="9.4259993"><ele>325.0</ele><time>2026-03-22T14:53:46.095Z</time></trkpt><trkpt lat="45.7073701" lon="9.4259214"><ele>325.0</ele><time>2026-03-22T14:53:48.096Z</time></trkpt><trkpt lat="45.7073456" lon="9.4258069"><ele>325.0</ele><time>2026-03-22T14:53:50.096Z</time></trkpt><trkpt lat="45.7073327" lon="9.4257072"><ele>325.0</ele><time>2026-03-22T14:53:51.096Z</time></trkpt><trkpt lat="45.7073112" lon="9.4256171"><ele>325.0</ele><time>2026-03-22T14:53:52.096Z</time></trkpt><trkpt lat="45.7072839" lon="9.4254919"><ele>325.0</ele><time>2026-03-22T14:53:54.096Z</time></trkpt><trkpt lat="45.7072464" lon="9.4254173"><ele>325.0</ele><time>2026-03-22T14:53:55.096Z</time></trkpt><trkpt lat="45.7071862" lon="9.4252684"><ele>325.0</ele><time>2026-03-22T14:53:57.096Z</time></trkpt><trkpt lat="45.7070975" lon="9.425093"><ele>325.0</ele><time>2026-03-22T14:53:58.096Z</time></trkpt><trkpt lat="45.7070449" lon="9.4250389"><ele>325.0</ele><time>2026-03-22T14:53:59.096Z</time></trkpt><trkpt lat="45.7069599" lon="9.4249646"><ele>325.0</ele><time>2026-03-22T14:54:01.096Z</time></trkpt><trkpt lat="45.7069207" lon="9.4248411"><ele>325.0</ele><time>2026-03-22T14:54:03.096Z</time></trkpt><trkpt lat="45.7069264" lon="9.4247265"><ele>325.0</ele><time>2026-03-22T14:54:05.096Z</time></trkpt><trkpt lat="45.7069358" lon="9.4245409"><ele>325.5</ele><time>2026-03-22T14:54:08.096Z</time></trkpt><trkpt lat="45.7069711" lon="9.4244023"><ele>326.0</ele><time>2026-03-22T14:54:10.096Z</time></trkpt><trkpt lat="45.7069965" lon="9.4242893"><ele>326.5</ele><time>2026-03-22T14:54:12.095Z</time></trkpt><trkpt lat="45.7070241" lon="9.4241997"><ele>327.0</ele><time>2026-03-22T14:54:13.096Z</time></trkpt><trkpt lat="45.7070659" lon="9.4240707"><ele>327.5</ele><time>2026-03-22T14:54:15.096Z</time></trkpt><trkpt lat="45.7071004" lon="9.4239531"><ele>328.0</ele><time>2026-03-22T14:54:17.096Z</time></trkpt><trkpt lat="45.7070776" lon="9.423864"><ele>329.16666666666663</ele><time>2026-03-22T14:54:19.096Z</time></trkpt><trkpt lat="45.707021" lon="9.4237608"><ele>330.3333333333333</ele><time>2026-03-22T14:54:22.096Z</time></trkpt><trkpt lat="45.7069545" lon="9.4237075"><ele>331.5</ele><time>2026-03-22T14:54:24.096Z</time></trkpt><trkpt lat="45.7068866" lon="9.4236751"><ele>332.6666666666667</ele><time>2026-03-22T14:54:26.096Z</time></trkpt><trkpt lat="45.7068272" lon="9.4236399"><ele>333.83333333333337</ele><time>2026-03-22T14:54:28.096Z</time></trkpt><trkpt lat="45.7067539" lon="9.4235933"><ele>335.0</ele><time>2026-03-22T14:54:30.096Z</time></trkpt><trkpt lat="45.7066855" lon="9.4235627"><ele>337.0</ele><time>2026-03-22T14:54:32.096Z</time></trkpt><trkpt lat="45.7066193" lon="9.4235176"><ele>339.0</ele><time>2026-03-22T14:54:34.096Z</time></trkpt><trkpt lat="45.7065517" lon="9.4234738"><ele>341.0</ele><time>2026-03-22T14:54:37.096Z</time></trkpt><trkpt lat="45.706807" lon="9.4235171"><ele>343.0</ele><time>2026-03-22T14:54:39.096Z</time></trkpt><trkpt lat="45.7067436" lon="9.4235411"><ele>343.0</ele><time>2026-03-22T14:54:43.096Z</time></trkpt><trkpt lat="45.7065371" lon="9.4234497"><ele>343.0</ele><time>2026-03-22T14:54:48.096Z</time></trkpt><trkpt lat="45.7063471" lon="9.4234074"><ele>343.0</ele><time>2026-03-22T14:54:49.096Z</time></trkpt><trkpt lat="45.7062403" lon="9.4233678"><ele>343.0</ele><time>2026-03-22T14:54:50.098Z</time></trkpt><trkpt lat="45.7061784" lon="9.4233416"><ele>343.0</ele><time>2026-03-22T14:54:51.096Z</time></trkpt><trkpt lat="45.7061144" lon="9.4233043"><ele>343.0</ele><time>2026-03-22T14:54:53.095Z</time></trkpt><trkpt lat="45.706038" lon="9.4232531"><ele>343.0</ele><time>2026-03-22T14:54:56.096Z</time></trkpt><trkpt lat="45.7059784" lon="9.4231898"><ele>343.0</ele><time>2026-03-22T14:54:59.096Z</time></trkpt><trkpt lat="45.705871" lon="9.4231023"><ele>343.0</ele><time>2026-03-22T14:55:00.096Z</time></trkpt><trkpt lat="45.7058033" lon="9.4230483"><ele>343.0</ele><time>2026-03-22T14:55:03.096Z</time></trkpt><trkpt lat="45.7057382" lon="9.4230039"><ele>343.0</ele><time>2026-03-22T14:55:06.096Z</time></trkpt><trkpt lat="45.7056512" lon="9.4229711"><ele>343.0</ele><time>2026-03-22T14:55:09.096Z</time></trkpt><trkpt lat="45.7055838" lon="9.4229483"><ele>343.0</ele><time>2026-03-22T14:55:11.096Z</time></trkpt><trkpt lat="45.7055014" lon="9.4229336"><ele>343.0</ele><time>2026-03-22T14:55:13.096Z</time></trkpt><trkpt lat="45.7053941" lon="9.4229237"><ele>343.0</ele><time>2026-03-22T14:55:15.096Z</time></trkpt><trkpt lat="45.7053035" lon="9.4229204"><ele>344.2</ele><time>2026-03-22T14:55:17.096Z</time></trkpt><trkpt lat="45.7051783" lon="9.4229194"><ele>345.4</ele><time>2026-03-22T14:55:19.096Z</time></trkpt><trkpt lat="45.7051071" lon="9.4229203"><ele>346.59999999999997</ele><time>2026-03-22T14:55:20.096Z</time></trkpt><trkpt lat="45.705042" lon="9.4229234"><ele>347.79999999999995</ele><time>2026-03-22T14:55:21.096Z</time></trkpt><trkpt lat="45.7049371" lon="9.4228982"><ele>349.0</ele><time>2026-03-22T14:55:23.096Z</time></trkpt><trkpt lat="45.7048262" lon="9.4228991"><ele>349.0</ele><time>2026-03-22T14:55:25.096Z</time></trkpt><trkpt lat="45.7046921" lon="9.4229148"><ele>349.0</ele><time>2026-03-22T14:55:26.096Z</time></trkpt><trkpt lat="45.7047289" lon="9.4228201"><ele>349.0</ele><time>2026-03-22T14:55:27.095Z</time></trkpt><trkpt lat="45.7045854" lon="9.4229228"><ele>349.0</ele><time>2026-03-22T14:55:28.095Z</time></trkpt><trkpt lat="45.7045107" lon="9.4229319"><ele>349.0</ele><time>2026-03-22T14:55:29.096Z</time></trkpt><trkpt lat="45.7044013" lon="9.4229344"><ele>348.2</ele><time>2026-03-22T14:55:31.096Z</time></trkpt><trkpt lat="45.7043377" lon="9.4229351"><ele>347.4</ele><time>2026-03-22T14:55:32.096Z</time></trkpt><trkpt lat="45.7042287" lon="9.4229125"><ele>346.6</ele><time>2026-03-22T14:55:34.096Z</time></trkpt><trkpt lat="45.7041358" lon="9.4228649"><ele>345.8</ele><time>2026-03-22T14:55:37.096Z</time></trkpt><trkpt lat="45.7040584" lon="9.4228094"><ele>345.0</ele><time>2026-03-22T14:55:40.096Z</time></trkpt><trkpt lat="45.7040174" lon="9.4226925"><ele>345.0</ele><time>2026-03-22T14:55:41.096Z</time></trkpt><trkpt lat="45.7038807" lon="9.422615"><ele>345.0</ele><time>2026-03-22T14:55:43.096Z</time></trkpt><trkpt lat="45.7038217" lon="9.4225574"><ele>345.0</ele><time>2026-03-22T14:55:44.096Z</time></trkpt><trkpt lat="45.7037347" lon="9.4224735"><ele>345.0</ele><time>2026-03-22T14:55:46.096Z</time></trkpt><trkpt lat="45.7036057" lon="9.4223769"><ele>343.2</ele><time>2026-03-22T14:55:48.096Z</time></trkpt><trkpt lat="45.7034843" lon="9.4223347"><ele>341.4</ele><time>2026-03-22T14:55:50.096Z</time></trkpt><trkpt lat="45.7033937" lon="9.4222465"><ele>339.6</ele><time>2026-03-22T14:55:52.096Z</time></trkpt><trkpt lat="45.703352" lon="9.4221639"><ele>337.8</ele><time>2026-03-22T14:55:53.096Z</time></trkpt><trkpt lat="45.7033043" lon="9.4220776"><ele>336.0</ele><time>2026-03-22T14:55:55.096Z</time></trkpt><trkpt lat="45.7031516" lon="9.4219651"><ele>335.4</ele><time>2026-03-22T14:56:00.096Z</time></trkpt><trkpt lat="45.703034" lon="9.4219132"><ele>334.8</ele><time>2026-03-22T14:56:02.096Z</time></trkpt><trkpt lat="45.7029869" lon="9.4218391"><ele>334.2</ele><time>2026-03-22T14:56:03.095Z</time></trkpt><trkpt lat="45.7029226" lon="9.4218015"><ele>333.59999999999997</ele><time>2026-03-22T14:56:04.096Z</time></trkpt><trkpt lat="45.702791" lon="9.4217498"><ele>333.0</ele><time>2026-03-22T14:56:06.096Z</time></trkpt><trkpt lat="45.7027256" lon="9.4217349"><ele>331.0</ele><time>2026-03-22T14:56:07.096Z</time></trkpt><trkpt lat="45.7026684" lon="9.4216854"><ele>329.0</ele><time>2026-03-22T14:56:08.096Z</time></trkpt><trkpt lat="45.7025482" lon="9.4216294"><ele>327.0</ele><time>2026-03-22T14:56:10.096Z</time></trkpt><trkpt lat="45.7024462" lon="9.421554"><ele>325.0</ele><time>2026-03-22T14:56:12.096Z</time></trkpt><trkpt lat="45.702374" lon="9.4215734"><ele>323.0</ele><time>2026-03-22T14:56:14.096Z</time></trkpt><trkpt lat="45.7023195" lon="9.4214982"><ele>323.0</ele><time>2026-03-22T14:56:16.096Z</time></trkpt><trkpt lat="45.7022669" lon="9.4213374"><ele>323.0</ele><time>2026-03-22T14:56:18.096Z</time></trkpt><trkpt lat="45.7022497" lon="9.4212357"><ele>323.0</ele><time>2026-03-22T14:56:19.096Z</time></trkpt><trkpt lat="45.702219" lon="9.4210557"><ele>323.0</ele><time>2026-03-22T14:56:21.096Z</time></trkpt><trkpt lat="45.7022033" lon="9.4209674"><ele>323.0</ele><time>2026-03-22T14:56:22.096Z</time></trkpt><trkpt lat="45.7021966" lon="9.420858"><ele>322.6666666666667</ele><time>2026-03-22T14:56:23.095Z</time></trkpt><trkpt lat="45.7022174" lon="9.4206612"><ele>322.33333333333337</ele><time>2026-03-22T14:56:25.096Z</time></trkpt><trkpt lat="45.7022322" lon="9.4205397"><ele>322.0</ele><time>2026-03-22T14:56:26.096Z</time></trkpt><trkpt lat="45.7022515" lon="9.4204379"><ele>321.6666666666667</ele><time>2026-03-22T14:56:27.096Z</time></trkpt><trkpt lat="45.7022526" lon="9.4203341"><ele>321.3333333333333</ele><time>2026-03-22T14:56:28.096Z</time></trkpt><trkpt lat="45.7022323" lon="9.4202283"><ele>321.0</ele><time>2026-03-22T14:56:29.096Z</time></trkpt><trkpt lat="45.7021873" lon="9.4201424"><ele>320.3333333333333</ele><time>2026-03-22T14:56:30.096Z</time></trkpt><trkpt lat="45.702136" lon="9.4200373"><ele>319.6666666666667</ele><time>2026-03-22T14:56:31.096Z</time></trkpt><trkpt lat="45.7020854" lon="9.4199549"><ele>319.0</ele><time>2026-03-22T14:56:32.096Z</time></trkpt><trkpt lat="45.702036" lon="9.419863"><ele>318.33333333333337</ele><time>2026-03-22T14:56:33.096Z</time></trkpt><trkpt lat="45.7019879" lon="9.4197697"><ele>317.6666666666667</ele><time>2026-03-22T14:56:34.096Z</time></trkpt><trkpt lat="45.701946" lon="9.4196689"><ele>317.0</ele><time>2026-03-22T14:56:35.096Z</time></trkpt><trkpt lat="45.7018855" lon="9.4195922"><ele>316.33333333333337</ele><time>2026-03-22T14:56:36.096Z</time></trkpt><trkpt lat="45.7018347" lon="9.4194426"><ele>315.6666666666667</ele><time>2026-03-22T14:56:38.095Z</time></trkpt><trkpt lat="45.7017954" lon="9.4193397"><ele>315.0</ele><time>2026-03-22T14:56:40.096Z</time></trkpt><trkpt lat="45.7017324" lon="9.4192963"><ele>314.3333333333333</ele><time>2026-03-22T14:56:42.096Z</time></trkpt><trkpt lat="45.7017808" lon="9.4193626"><ele>313.66666666666663</ele><time>2026-03-22T14:57:03.096Z</time></trkpt><trkpt lat="45.7017148" lon="9.4192486"><ele>313.0</ele><time>2026-03-22T14:58:06.096Z</time></trkpt><trkpt lat="45.7016782" lon="9.4191358"><ele>313.0</ele><time>2026-03-22T14:58:08.096Z</time></trkpt><trkpt lat="45.7016314" lon="9.4190569"><ele>313.0</ele><time>2026-03-22T14:58:10.096Z</time></trkpt><trkpt lat="45.7015322" lon="9.4189413"><ele>313.0</ele><time>2026-03-22T14:58:12.096Z</time></trkpt><trkpt lat="45.7014778" lon="9.4188716"><ele>313.0</ele><time>2026-03-22T14:58:13.096Z</time></trkpt><trkpt lat="45.7014094" lon="9.4187909"><ele>313.0</ele><time>2026-03-22T14:58:14.096Z</time></trkpt><trkpt lat="45.7013605" lon="9.4187245"><ele>313.0</ele><time>2026-03-22T14:58:15.096Z</time></trkpt><trkpt lat="45.7012965" lon="9.4186709"><ele>313.0</ele><time>2026-03-22T14:58:16.096Z</time></trkpt><trkpt lat="45.701236" lon="9.4186267"><ele>313.0</ele><time>2026-03-22T14:58:17.096Z</time></trkpt><trkpt lat="45.7011188" lon="9.4185656"><ele>313.0</ele><time>2026-03-22T14:58:19.096Z</time></trkpt><trkpt lat="45.7011071" lon="9.4184514"><ele>313.0</ele><time>2026-03-22T14:58:21.096Z</time></trkpt><trkpt lat="45.7011416" lon="9.418345"><ele>313.0</ele><time>2026-03-22T14:58:23.096Z</time></trkpt><trkpt lat="45.7011861" lon="9.4182116"><ele>313.0</ele><time>2026-03-22T14:58:25.096Z</time></trkpt><trkpt lat="45.701221" lon="9.4180617"><ele>313.0</ele><time>2026-03-22T14:58:27.096Z</time></trkpt><trkpt lat="45.7012726" lon="9.4179329"><ele>313.0</ele><time>2026-03-22T14:58:29.096Z</time></trkpt><trkpt lat="45.7013425" lon="9.4177862"><ele>313.0</ele><time>2026-03-22T14:58:31.096Z</time></trkpt><trkpt lat="45.7013933" lon="9.4176657"><ele>313.0</ele><time>2026-03-22T14:58:33.096Z</time></trkpt><trkpt lat="45.7014332" lon="9.4175721"><ele>312.66666666666663</ele><time>2026-03-22T14:58:34.096Z</time></trkpt><trkpt lat="45.701475" lon="9.4174953"><ele>312.3333333333333</ele><time>2026-03-22T14:58:35.096Z</time></trkpt><trkpt lat="45.7015225" lon="9.4174254"><ele>312.0</ele><time>2026-03-22T14:58:36.095Z</time></trkpt><trkpt lat="45.7015735" lon="9.4173384"><ele>311.6666666666667</ele><time>2026-03-22T14:58:37.096Z</time></trkpt><trkpt lat="45.7016209" lon="9.4172391"><ele>311.33333333333337</ele><time>2026-03-22T14:58:38.096Z</time></trkpt><trkpt lat="45.7017018" lon="9.4170853"><ele>311.0</ele><time>2026-03-22T14:58:39.096Z</time></trkpt><trkpt lat="45.7017352" lon="9.4169983"><ele>310.6</ele><time>2026-03-22T14:58:40.096Z</time></trkpt><trkpt lat="45.7017798" lon="9.416912"><ele>310.20000000000005</ele><time>2026-03-22T14:58:41.096Z</time></trkpt><trkpt lat="45.7018204" lon="9.4168231"><ele>309.79999999999995</ele><time>2026-03-22T14:58:42.096Z</time></trkpt><trkpt lat="45.7018517" lon="9.4167427"><ele>309.4</ele><time>2026-03-22T14:58:43.096Z</time></trkpt><trkpt lat="45.7019044" lon="9.4165389"><ele>309.0</ele><time>2026-03-22T14:58:45.096Z</time></trkpt><trkpt lat="45.7018707" lon="9.4164219"><ele>309.0</ele><time>2026-03-22T14:58:46.096Z</time></trkpt><trkpt lat="45.7019041" lon="9.416322"><ele>309.0</ele><time>2026-03-22T14:58:47.096Z</time></trkpt><trkpt lat="45.7019065" lon="9.4162093"><ele>309.0</ele><time>2026-03-22T14:58:48.095Z</time></trkpt><trkpt lat="45.7019265" lon="9.4161108"><ele>309.0</ele><time>2026-03-22T14:58:49.096Z</time></trkpt><trkpt lat="45.7019559" lon="9.4159901"><ele>309.0</ele><time>2026-03-22T14:58:50.096Z</time></trkpt><trkpt lat="45.7019824" lon="9.4158924"><ele>309.0</ele><time>2026-03-22T14:58:51.095Z</time></trkpt><trkpt lat="45.7020114" lon="9.4157804"><ele>308.59999999999997</ele><time>2026-03-22T14:58:52.096Z</time></trkpt><trkpt lat="45.7020486" lon="9.415683"><ele>308.2</ele><time>2026-03-22T14:58:53.096Z</time></trkpt><trkpt lat="45.7020752" lon="9.4155833"><ele>307.79999999999995</ele><time>2026-03-22T14:58:54.096Z</time></trkpt><trkpt lat="45.7021034" lon="9.4154947"><ele>307.4</ele><time>2026-03-22T14:58:55.096Z</time></trkpt><trkpt lat="45.7021482" lon="9.4153287"><ele>307.0</ele><time>2026-03-22T14:58:57.096Z</time></trkpt><trkpt lat="45.7021958" lon="9.4151882"><ele>306.8</ele><time>2026-03-22T14:58:59.096Z</time></trkpt><trkpt lat="45.7022797" lon="9.4150981"><ele>306.6</ele><time>2026-03-22T14:59:01.095Z</time></trkpt><trkpt lat="45.7023813" lon="9.4149946"><ele>306.40000000000003</ele><time>2026-03-22T14:59:03.096Z</time></trkpt><trkpt lat="45.7024413" lon="9.4149525"><ele>306.2</ele><time>2026-03-22T14:59:04.096Z</time></trkpt><trkpt lat="45.7025427" lon="9.4148494"><ele>306.0</ele><time>2026-03-22T14:59:06.096Z</time></trkpt><trkpt lat="45.7026178" lon="9.4147129"><ele>305.85714285714283</ele><time>2026-03-22T14:59:08.095Z</time></trkpt><trkpt lat="45.7026658" lon="9.4146256"><ele>305.7142857142857</ele><time>2026-03-22T14:59:09.096Z</time></trkpt><trkpt lat="45.7027055" lon="9.414551"><ele>305.57142857142856</ele><time>2026-03-22T14:59:10.096Z</time></trkpt><trkpt lat="45.7027512" lon="9.4144663"><ele>305.42857142857144</ele><time>2026-03-22T14:59:11.096Z</time></trkpt><trkpt lat="45.7028006" lon="9.4143905"><ele>305.2857142857143</ele><time>2026-03-22T14:59:12.096Z</time></trkpt><trkpt lat="45.7028452" lon="9.4142943"><ele>305.14285714285717</ele><time>2026-03-22T14:59:13.095Z</time></trkpt><trkpt lat="45.7028843" lon="9.4142041"><ele>305.0</ele><time>2026-03-22T14:59:14.096Z</time></trkpt><trkpt lat="45.7029697" lon="9.4140627"><ele>304.0</ele><time>2026-03-22T14:59:16.096Z</time></trkpt><trkpt lat="45.7030124" lon="9.4139688"><ele>303.0</ele><time>2026-03-22T14:59:17.096Z</time></trkpt><trkpt lat="45.7031222" lon="9.413849"><ele>302.0</ele><time>2026-03-22T14:59:19.096Z</time></trkpt><trkpt lat="45.7032412" lon="9.413769"><ele>301.0</ele><time>2026-03-22T14:59:21.096Z</time></trkpt><trkpt lat="45.7033151" lon="9.4137219"><ele>300.0</ele><time>2026-03-22T14:59:22.096Z</time></trkpt><trkpt lat="45.7033834" lon="9.4136933"><ele>299.8333333333333</ele><time>2026-03-22T14:59:23.095Z</time></trkpt><trkpt lat="45.7034535" lon="9.4136699"><ele>299.6666666666667</ele><time>2026-03-22T14:59:24.096Z</time></trkpt><trkpt lat="45.7035228" lon="9.4136542"><ele>299.5</ele><time>2026-03-22T14:59:25.096Z</time></trkpt><trkpt lat="45.70365" lon="9.413596"><ele>299.33333333333337</ele><time>2026-03-22T14:59:27.096Z</time></trkpt><trkpt lat="45.7037332" lon="9.4135682"><ele>299.1666666666667</ele><time>2026-03-22T14:59:28.096Z</time></trkpt><trkpt lat="45.703795" lon="9.4135342"><ele>299.0</ele><time>2026-03-22T14:59:29.096Z</time></trkpt><trkpt lat="45.7038624" lon="9.4135123"><ele>299.0</ele><time>2026-03-22T14:59:30.096Z</time></trkpt><trkpt lat="45.7039382" lon="9.4134948"><ele>299.0</ele><time>2026-03-22T14:59:31.096Z</time></trkpt><trkpt lat="45.7040108" lon="9.4134512"><ele>299.0</ele><time>2026-03-22T14:59:32.095Z</time></trkpt><trkpt lat="45.7040816" lon="9.4134209"><ele>299.0</ele><time>2026-03-22T14:59:33.096Z</time></trkpt><trkpt lat="45.7041479" lon="9.4133861"><ele>299.0</ele><time>2026-03-22T14:59:34.096Z</time></trkpt><trkpt lat="45.7042173" lon="9.4133512"><ele>299.0</ele><time>2026-03-22T14:59:35.096Z</time></trkpt><trkpt lat="45.7042778" lon="9.4133158"><ele>299.0</ele><time>2026-03-22T14:59:36.096Z</time></trkpt><trkpt lat="45.7043385" lon="9.4132792"><ele>299.0</ele><time>2026-03-22T14:59:37.096Z</time></trkpt><trkpt lat="45.7044005" lon="9.4132494"><ele>299.0</ele><time>2026-03-22T14:59:38.096Z</time></trkpt><trkpt lat="45.7044594" lon="9.4132051"><ele>299.0</ele><time>2026-03-22T14:59:39.096Z</time></trkpt><trkpt lat="45.7045169" lon="9.4131579"><ele>299.0</ele><time>2026-03-22T14:59:40.095Z</time></trkpt><trkpt lat="45.7045831" lon="9.4131091"><ele>299.0</ele><time>2026-03-22T14:59:41.096Z</time></trkpt><trkpt lat="45.7046887" lon="9.4130268"><ele>299.0</ele><time>2026-03-22T14:59:43.096Z</time></trkpt><trkpt lat="45.7047458" lon="9.4129513"><ele>299.0</ele><time>2026-03-22T14:59:44.096Z</time></trkpt><trkpt lat="45.7047868" lon="9.4128681"><ele>299.0</ele><time>2026-03-22T14:59:45.096Z</time></trkpt><trkpt lat="45.7048254" lon="9.4127753"><ele>299.0</ele><time>2026-03-22T14:59:46.096Z</time></trkpt><trkpt lat="45.7048411" lon="9.4126632"><ele>299.0</ele><time>2026-03-22T14:59:47.096Z</time></trkpt><trkpt lat="45.7048522" lon="9.4125604"><ele>299.0</ele><time>2026-03-22T14:59:48.096Z</time></trkpt><trkpt lat="45.7048863" lon="9.412459"><ele>299.0</ele><time>2026-03-22T14:59:49.095Z</time></trkpt><trkpt lat="45.7049368" lon="9.4123836"><ele>299.0</ele><time>2026-03-22T14:59:50.096Z</time></trkpt><trkpt lat="45.7049834" lon="9.4123211"><ele>299.0</ele><time>2026-03-22T14:59:51.096Z</time></trkpt><trkpt lat="45.7050733" lon="9.4122287"><ele>299.0</ele><time>2026-03-22T14:59:53.096Z</time></trkpt><trkpt lat="45.7051441" lon="9.4122041"><ele>299.0</ele><time>2026-03-22T14:59:54.096Z</time></trkpt><trkpt lat="45.7052241" lon="9.4121585"><ele>299.0</ele><time>2026-03-22T14:59:55.096Z</time></trkpt><trkpt lat="45.7052933" lon="9.4121227"><ele>299.0</ele><time>2026-03-22T14:59:56.096Z</time></trkpt><trkpt lat="45.7053697" lon="9.4120907"><ele>299.0</ele><time>2026-03-22T14:59:57.096Z</time></trkpt><trkpt lat="45.70543" lon="9.4120603"><ele>299.0</ele><time>2026-03-22T14:59:58.096Z</time></trkpt><trkpt lat="45.7055504" lon="9.4120098"><ele>299.0</ele><time>2026-03-22T15:00:00.096Z</time></trkpt><trkpt lat="45.705619" lon="9.4119779"><ele>299.0</ele><time>2026-03-22T15:00:01.095Z</time></trkpt><trkpt lat="45.7056831" lon="9.4119484"><ele>299.0</ele><time>2026-03-22T15:00:02.096Z</time></trkpt><trkpt lat="45.7057555" lon="9.4119154"><ele>299.0</ele><time>2026-03-22T15:00:03.096Z</time></trkpt><trkpt lat="45.7058386" lon="9.4118772"><ele>299.0</ele><time>2026-03-22T15:00:04.096Z</time></trkpt><trkpt lat="45.705912" lon="9.4118297"><ele>299.0</ele><time>2026-03-22T15:00:05.096Z</time></trkpt><trkpt lat="45.7059855" lon="9.4117662"><ele>299.0</ele><time>2026-03-22T15:00:06.096Z</time></trkpt><trkpt lat="45.7060496" lon="9.4117168"><ele>299.0</ele><time>2026-03-22T15:00:07.096Z</time></trkpt><trkpt lat="45.7060899" lon="9.4115658"><ele>299.0</ele><time>2026-03-22T15:00:09.096Z</time></trkpt><trkpt lat="45.7061033" lon="9.4113664"><ele>299.0</ele><time>2026-03-22T15:00:11.096Z</time></trkpt><trkpt lat="45.7061126" lon="9.4112697"><ele>299.0</ele><time>2026-03-22T15:00:12.096Z</time></trkpt><trkpt lat="45.7061357" lon="9.4111696"><ele>299.0</ele><time>2026-03-22T15:00:13.096Z</time></trkpt><trkpt lat="45.7061614" lon="9.4110676"><ele>299.0</ele><time>2026-03-22T15:00:14.096Z</time></trkpt><trkpt lat="45.7061579" lon="9.4109378"><ele>299.0</ele><time>2026-03-22T15:00:15.096Z</time></trkpt><trkpt lat="45.706176" lon="9.4107718"><ele>299.0</ele><time>2026-03-22T15:00:17.096Z</time></trkpt><trkpt lat="45.7062033" lon="9.4106567"><ele>299.0</ele><time>2026-03-22T15:00:18.096Z</time></trkpt><trkpt lat="45.7062582" lon="9.4105007"><ele>299.0</ele><time>2026-03-22T15:00:20.096Z</time></trkpt><trkpt lat="45.7063574" lon="9.4104437"><ele>299.0</ele><time>2026-03-22T15:00:22.095Z</time></trkpt><trkpt lat="45.7064134" lon="9.4103582"><ele>299.0</ele><time>2026-03-22T15:00:24.096Z</time></trkpt><trkpt lat="45.7064797" lon="9.4102479"><ele>299.0</ele><time>2026-03-22T15:00:27.096Z</time></trkpt><trkpt lat="45.7064924" lon="9.4101293"><ele>299.0</ele><time>2026-03-22T15:00:30.095Z</time></trkpt><trkpt lat="45.7064538" lon="9.4100273"><ele>299.0</ele><time>2026-03-22T15:00:32.096Z</time></trkpt><trkpt lat="45.7064051" lon="9.4099319"><ele>299.0</ele><time>2026-03-22T15:00:34.096Z</time></trkpt><trkpt lat="45.7063717" lon="9.4097902"><ele>299.0</ele><time>2026-03-22T15:00:36.096Z</time></trkpt><trkpt lat="45.7063519" lon="9.4096277"><ele>299.0</ele><time>2026-03-22T15:00:38.096Z</time></trkpt><trkpt lat="45.7063321" lon="9.4095365"><ele>298.5</ele><time>2026-03-22T15:00:39.096Z</time></trkpt><trkpt lat="45.7063205" lon="9.4094461"><ele>298.0</ele><time>2026-03-22T15:00:40.096Z</time></trkpt><trkpt lat="45.7063021" lon="9.4093542"><ele>297.5</ele><time>2026-03-22T15:00:41.096Z</time></trkpt><trkpt lat="45.7062862" lon="9.4092607"><ele>297.0</ele><time>2026-03-22T15:00:42.096Z</time></trkpt><trkpt lat="45.7062751" lon="9.4091394"><ele>296.5</ele><time>2026-03-22T15:00:43.096Z</time></trkpt><trkpt lat="45.7062709" lon="9.4090347"><ele>296.0</ele><time>2026-03-22T15:00:44.096Z</time></trkpt><trkpt lat="45.7062612" lon="9.4088796"><ele>296.1666666666667</ele><time>2026-03-22T15:00:45.096Z</time></trkpt><trkpt lat="45.7062741" lon="9.4087522"><ele>296.33333333333337</ele><time>2026-03-22T15:00:46.095Z</time></trkpt><trkpt lat="45.7062598" lon="9.4086474"><ele>296.5</ele><time>2026-03-22T15:00:47.096Z</time></trkpt><trkpt lat="45.7062572" lon="9.40852"><ele>296.6666666666667</ele><time>2026-03-22T15:00:48.096Z</time></trkpt><trkpt lat="45.7062592" lon="9.4084178"><ele>296.8333333333333</ele><time>2026-03-22T15:00:49.096Z</time></trkpt><trkpt lat="45.7062579" lon="9.4083159"><ele>297.0</ele><time>2026-03-22T15:00:50.095Z</time></trkpt><trkpt lat="45.7062699" lon="9.4081953"><ele>297.0</ele><time>2026-03-22T15:00:51.095Z</time></trkpt><trkpt lat="45.7062611" lon="9.4080338"><ele>297.0</ele><time>2026-03-22T15:00:53.096Z</time></trkpt><trkpt lat="45.7062578" lon="9.4078847"><ele>297.0</ele><time>2026-03-22T15:00:55.096Z</time></trkpt><trkpt lat="45.706254" lon="9.4077614"><ele>297.0</ele><time>2026-03-22T15:00:57.096Z</time></trkpt><trkpt lat="45.7062552" lon="9.4076512"><ele>297.0</ele><time>2026-03-22T15:00:59.096Z</time></trkpt><trkpt lat="45.706251" lon="9.4075448"><ele>297.6666666666667</ele><time>2026-03-22T15:01:01.096Z</time></trkpt><trkpt lat="45.7062414" lon="9.4074236"><ele>298.3333333333333</ele><time>2026-03-22T15:01:03.096Z</time></trkpt><trkpt lat="45.7062414" lon="9.4073108"><ele>299.0</ele><time>2026-03-22T15:01:05.096Z</time></trkpt><trkpt lat="45.7062417" lon="9.4072"><ele>299.66666666666663</ele><time>2026-03-22T15:01:07.096Z</time></trkpt><trkpt lat="45.7062479" lon="9.4070749"><ele>300.3333333333333</ele><time>2026-03-22T15:01:09.096Z</time></trkpt><trkpt lat="45.706265" lon="9.4069482"><ele>301.0</ele><time>2026-03-22T15:01:11.096Z</time></trkpt><trkpt lat="45.7063051" lon="9.4068611"><ele>301.3333333333333</ele><time>2026-03-22T15:01:13.096Z</time></trkpt><trkpt lat="45.7063525" lon="9.4067495"><ele>301.66666666666663</ele><time>2026-03-22T15:01:15.096Z</time></trkpt><trkpt lat="45.7063945" lon="9.406638"><ele>302.0</ele><time>2026-03-22T15:01:17.096Z</time></trkpt><trkpt lat="45.7064363" lon="9.4065265"><ele>302.3333333333333</ele><time>2026-03-22T15:01:19.096Z</time></trkpt><trkpt lat="45.7064721" lon="9.4064225"><ele>302.6666666666667</ele><time>2026-03-22T15:01:21.096Z</time></trkpt><trkpt lat="45.7065156" lon="9.4063302"><ele>303.0</ele><time>2026-03-22T15:01:23.095Z</time></trkpt><trkpt lat="45.70655" lon="9.4062479"><ele>303.2</ele><time>2026-03-22T15:01:25.096Z</time></trkpt><trkpt lat="45.7065882" lon="9.4061549"><ele>303.4</ele><time>2026-03-22T15:01:27.095Z</time></trkpt><trkpt lat="45.7066221" lon="9.4060484"><ele>303.59999999999997</ele><time>2026-03-22T15:01:29.096Z</time></trkpt><trkpt lat="45.7066713" lon="9.4059244"><ele>303.8</ele><time>2026-03-22T15:01:31.096Z</time></trkpt><trkpt lat="45.7067173" lon="9.40581"><ele>304.0</ele><time>2026-03-22T15:01:33.096Z</time></trkpt><trkpt lat="45.706764" lon="9.4056748"><ele>304.0</ele><time>2026-03-22T15:01:35.095Z</time></trkpt><trkpt lat="45.7068121" lon="9.4055292"><ele>304.0</ele><time>2026-03-22T15:01:37.096Z</time></trkpt><trkpt lat="45.7068613" lon="9.4053894"><ele>304.0</ele><time>2026-03-22T15:01:39.095Z</time></trkpt><trkpt lat="45.7069101" lon="9.4052588"><ele>304.0</ele><time>2026-03-22T15:01:41.096Z</time></trkpt><trkpt lat="45.7069727" lon="9.4051317"><ele>304.0</ele><time>2026-03-22T15:01:43.096Z</time></trkpt><trkpt lat="45.7070383" lon="9.4050067"><ele>304.59999999999997</ele><time>2026-03-22T15:01:45.096Z</time></trkpt><trkpt lat="45.7070958" lon="9.404903"><ele>305.2</ele><time>2026-03-22T15:01:47.096Z</time></trkpt><trkpt lat="45.7071771" lon="9.404793"><ele>305.79999999999995</ele><time>2026-03-22T15:01:49.096Z</time></trkpt><trkpt lat="45.707259" lon="9.4046813"><ele>306.4</ele><time>2026-03-22T15:01:51.096Z</time></trkpt><trkpt lat="45.7073436" lon="9.4045849"><ele>307.0</ele><time>2026-03-22T15:01:53.096Z</time></trkpt><trkpt lat="45.7074312" lon="9.4044915"><ele>307.0</ele><time>2026-03-22T15:01:55.096Z</time></trkpt><trkpt lat="45.7075198" lon="9.4044002"><ele>307.0</ele><time>2026-03-22T15:01:57.096Z</time></trkpt><trkpt lat="45.7076077" lon="9.4043014"><ele>307.0</ele><time>2026-03-22T15:01:59.096Z</time></trkpt><trkpt lat="45.7076945" lon="9.4042053"><ele>307.0</ele><time>2026-03-22T15:02:01.095Z</time></trkpt><trkpt lat="45.7077872" lon="9.4041165"><ele>307.0</ele><time>2026-03-22T15:02:03.096Z</time></trkpt><trkpt lat="45.7078777" lon="9.4040246"><ele>306.8</ele><time>2026-03-22T15:02:05.096Z</time></trkpt><trkpt lat="45.7079692" lon="9.4039274"><ele>306.6</ele><time>2026-03-22T15:02:07.096Z</time></trkpt><trkpt lat="45.7080554" lon="9.4038358"><ele>306.40000000000003</ele><time>2026-03-22T15:02:09.096Z</time></trkpt><trkpt lat="45.7081448" lon="9.4037381"><ele>306.2</ele><time>2026-03-22T15:02:11.096Z</time></trkpt><trkpt lat="45.7082368" lon="9.403638"><ele>306.0</ele><time>2026-03-22T15:02:13.096Z</time></trkpt><trkpt lat="45.7083203" lon="9.4035352"><ele>306.0</ele><time>2026-03-22T15:02:15.096Z</time></trkpt><trkpt lat="45.7083701" lon="9.4034701"><ele>306.0</ele><time>2026-03-22T15:02:16.096Z</time></trkpt><trkpt lat="45.7084146" lon="9.4034"><ele>306.0</ele><time>2026-03-22T15:02:17.096Z</time></trkpt><trkpt lat="45.7084618" lon="9.4033322"><ele>306.0</ele><time>2026-03-22T15:02:18.096Z</time></trkpt><trkpt lat="45.7085025" lon="9.4032478"><ele>306.0</ele><time>2026-03-22T15:02:19.095Z</time></trkpt><trkpt lat="45.7085402" lon="9.4031626"><ele>306.0</ele><time>2026-03-22T15:02:20.096Z</time></trkpt><trkpt lat="45.7085853" lon="9.4030416"><ele>306.0</ele><time>2026-03-22T15:02:21.096Z</time></trkpt><trkpt lat="45.7086166" lon="9.4029285"><ele>305.0</ele><time>2026-03-22T15:02:22.096Z</time></trkpt><trkpt lat="45.7086511" lon="9.4028179"><ele>304.0</ele><time>2026-03-22T15:02:23.096Z</time></trkpt><trkpt lat="45.7086793" lon="9.4027053"><ele>303.0</ele><time>2026-03-22T15:02:24.096Z</time></trkpt><trkpt lat="45.7087075" lon="9.4025464"><ele>302.0</ele><time>2026-03-22T15:02:25.096Z</time></trkpt><trkpt lat="45.7087364" lon="9.4024076"><ele>301.0</ele><time>2026-03-22T15:02:26.096Z</time></trkpt><trkpt lat="45.7087624" lon="9.4022855"><ele>301.0</ele><time>2026-03-22T15:02:27.095Z</time></trkpt><trkpt lat="45.7087856" lon="9.4021824"><ele>301.0</ele><time>2026-03-22T15:02:28.096Z</time></trkpt><trkpt lat="45.7088046" lon="9.4020639"><ele>301.0</ele><time>2026-03-22T15:02:29.096Z</time></trkpt><trkpt lat="45.708836" lon="9.4019407"><ele>301.0</ele><time>2026-03-22T15:02:30.096Z</time></trkpt><trkpt lat="45.7088595" lon="9.4018203"><ele>301.0</ele><time>2026-03-22T15:02:31.096Z</time></trkpt><trkpt lat="45.7088791" lon="9.4017133"><ele>301.0</ele><time>2026-03-22T15:02:32.096Z</time></trkpt><trkpt lat="45.7089111" lon="9.4016077"><ele>299.6</ele><time>2026-03-22T15:02:33.096Z</time></trkpt><trkpt lat="45.7089489" lon="9.4014633"><ele>298.20000000000005</ele><time>2026-03-22T15:02:35.096Z</time></trkpt><trkpt lat="45.7089794" lon="9.4013777"><ele>296.79999999999995</ele><time>2026-03-22T15:02:37.096Z</time></trkpt><trkpt lat="45.7090385" lon="9.4012991"><ele>295.4</ele><time>2026-03-22T15:02:39.096Z</time></trkpt><trkpt lat="45.7091386" lon="9.4012005"><ele>294.0</ele><time>2026-03-22T15:02:41.096Z</time></trkpt><trkpt lat="45.7092043" lon="9.4011479"><ele>292.59999999999997</ele><time>2026-03-22T15:02:42.096Z</time></trkpt><trkpt lat="45.7093371" lon="9.4010778"><ele>291.2</ele><time>2026-03-22T15:02:44.096Z</time></trkpt><trkpt lat="45.7094079" lon="9.4010335"><ele>289.79999999999995</ele><time>2026-03-22T15:02:45.096Z</time></trkpt><trkpt lat="45.7094684" lon="9.4009854"><ele>288.4</ele><time>2026-03-22T15:02:46.096Z</time></trkpt><trkpt lat="45.7095408" lon="9.400937"><ele>287.0</ele><time>2026-03-22T15:02:47.096Z</time></trkpt><trkpt lat="45.70962" lon="9.4008465"><ele>287.0</ele><time>2026-03-22T15:02:48.096Z</time></trkpt><trkpt lat="45.7096886" lon="9.4007696"><ele>287.0</ele><time>2026-03-22T15:02:49.096Z</time></trkpt><trkpt lat="45.7097429" lon="9.4006743"><ele>287.0</ele><time>2026-03-22T15:02:50.096Z</time></trkpt><trkpt lat="45.709797" lon="9.4005797"><ele>287.0</ele><time>2026-03-22T15:02:51.093Z</time></trkpt><trkpt lat="45.7098559" lon="9.4004882"><ele>287.0</ele><time>2026-03-22T15:02:52.096Z</time></trkpt><trkpt lat="45.7099223" lon="9.4004025"><ele>287.0</ele><time>2026-03-22T15:02:53.096Z</time></trkpt><trkpt lat="45.7099604" lon="9.4003027"><ele>286.4</ele><time>2026-03-22T15:02:54.095Z</time></trkpt><trkpt lat="45.7100191" lon="9.4002032"><ele>285.79999999999995</ele><time>2026-03-22T15:02:55.095Z</time></trkpt><trkpt lat="45.7100683" lon="9.4001202"><ele>285.2</ele><time>2026-03-22T15:02:56.096Z</time></trkpt><trkpt lat="45.7101266" lon="9.4000411"><ele>284.59999999999997</ele><time>2026-03-22T15:02:57.096Z</time></trkpt><trkpt lat="45.710217" lon="9.3999456"><ele>284.0</ele><time>2026-03-22T15:02:58.096Z</time></trkpt><trkpt lat="45.7102907" lon="9.3998471"><ele>285.0</ele><time>2026-03-22T15:02:59.096Z</time></trkpt><trkpt lat="45.7103583" lon="9.3997561"><ele>286.0</ele><time>2026-03-22T15:03:00.096Z</time></trkpt><trkpt lat="45.710411" lon="9.3996583"><ele>287.0</ele><time>2026-03-22T15:03:01.095Z</time></trkpt><trkpt lat="45.7104616" lon="9.3995607"><ele>288.0</ele><time>2026-03-22T15:03:02.096Z</time></trkpt><trkpt lat="45.7105104" lon="9.399466"><ele>289.0</ele><time>2026-03-22T15:03:03.096Z</time></trkpt><trkpt lat="45.7105391" lon="9.3993793"><ele>290.0</ele><time>2026-03-22T15:03:04.096Z</time></trkpt><trkpt lat="45.7105767" lon="9.3992952"><ele>290.0</ele><time>2026-03-22T15:03:05.095Z</time></trkpt><trkpt lat="45.7106043" lon="9.3992055"><ele>290.0</ele><time>2026-03-22T15:03:06.096Z</time></trkpt><trkpt lat="45.7106264" lon="9.3991068"><ele>290.0</ele><time>2026-03-22T15:03:07.095Z</time></trkpt><trkpt lat="45.7106105" lon="9.3990165"><ele>290.0</ele><time>2026-03-22T15:03:08.096Z</time></trkpt><trkpt lat="45.7105501" lon="9.3988595"><ele>290.0</ele><time>2026-03-22T15:03:10.096Z</time></trkpt><trkpt lat="45.710506" lon="9.3987718"><ele>290.0</ele><time>2026-03-22T15:03:11.096Z</time></trkpt><trkpt lat="45.7104503" lon="9.3986947"><ele>289.2857142857143</ele><time>2026-03-22T15:03:12.096Z</time></trkpt><trkpt lat="45.7103929" lon="9.3986194"><ele>288.5714285714286</ele><time>2026-03-22T15:03:13.096Z</time></trkpt><trkpt lat="45.7103595" lon="9.3985339"><ele>287.8571428571429</ele><time>2026-03-22T15:03:14.096Z</time></trkpt><trkpt lat="45.7103469" lon="9.3984363"><ele>287.14285714285717</ele><time>2026-03-22T15:03:15.096Z</time></trkpt><trkpt lat="45.7103667" lon="9.3983295"><ele>286.42857142857144</ele><time>2026-03-22T15:03:16.096Z</time></trkpt><trkpt lat="45.7103932" lon="9.3982379"><ele>285.7142857142857</ele><time>2026-03-22T15:03:17.095Z</time></trkpt><trkpt lat="45.710416" lon="9.3981522"><ele>285.0</ele><time>2026-03-22T15:03:18.096Z</time></trkpt><trkpt lat="45.7104474" lon="9.398004"><ele>283.6</ele><time>2026-03-22T15:03:19.096Z</time></trkpt><trkpt lat="45.7104657" lon="9.3978591"><ele>282.2</ele><time>2026-03-22T15:03:20.096Z</time></trkpt><trkpt lat="45.71046" lon="9.3977134"><ele>280.8</ele><time>2026-03-22T15:03:21.096Z</time></trkpt><trkpt lat="45.7104626" lon="9.3975911"><ele>279.4</ele><time>2026-03-22T15:03:22.096Z</time></trkpt><trkpt lat="45.7104619" lon="9.397457"><ele>278.0</ele><time>2026-03-22T15:03:23.096Z</time></trkpt><trkpt lat="45.7104703" lon="9.3973487"><ele>278.0</ele><time>2026-03-22T15:03:24.096Z</time></trkpt><trkpt lat="45.7104756" lon="9.3972523"><ele>278.0</ele><time>2026-03-22T15:03:25.095Z</time></trkpt><trkpt lat="45.7105007" lon="9.3971372"><ele>278.0</ele><time>2026-03-22T15:03:26.096Z</time></trkpt><trkpt lat="45.7105254" lon="9.3970267"><ele>278.0</ele><time>2026-03-22T15:03:27.096Z</time></trkpt><trkpt lat="45.7105388" lon="9.3969145"><ele>278.0</ele><time>2026-03-22T15:03:28.096Z</time></trkpt><trkpt lat="45.7105499" lon="9.3967273"><ele>278.0</ele><time>2026-03-22T15:03:30.096Z</time></trkpt><trkpt lat="45.7105303" lon="9.39664"><ele>277.0</ele><time>2026-03-22T15:03:31.096Z</time></trkpt><trkpt lat="45.7105098" lon="9.3965496"><ele>276.0</ele><time>2026-03-22T15:03:32.096Z</time></trkpt><trkpt lat="45.7104508" lon="9.3964032"><ele>275.0</ele><time>2026-03-22T15:03:34.096Z</time></trkpt><trkpt lat="45.7103906" lon="9.3962427"><ele>274.0</ele><time>2026-03-22T15:03:36.096Z</time></trkpt><trkpt lat="45.7103254" lon="9.3960827"><ele>273.0</ele><time>2026-03-22T15:03:38.096Z</time></trkpt><trkpt lat="45.7103058" lon="9.3959875"><ele>272.6</ele><time>2026-03-22T15:03:39.096Z</time></trkpt><trkpt lat="45.7102691" lon="9.3958209"><ele>272.20000000000005</ele><time>2026-03-22T15:03:41.096Z</time></trkpt><trkpt lat="45.7102393" lon="9.3956691"><ele>271.8</ele><time>2026-03-22T15:03:43.096Z</time></trkpt><trkpt lat="45.7102133" lon="9.3955151"><ele>271.40000000000003</ele><time>2026-03-22T15:03:45.096Z</time></trkpt><trkpt lat="45.710182" lon="9.3953694"><ele>271.0</ele><time>2026-03-22T15:03:47.096Z</time></trkpt><trkpt lat="45.7101556" lon="9.3952205"><ele>272.8</ele><time>2026-03-22T15:03:49.096Z</time></trkpt><trkpt lat="45.7101521" lon="9.3950942"><ele>274.6</ele><time>2026-03-22T15:03:51.096Z</time></trkpt><trkpt lat="45.7100851" lon="9.3949687"><ele>276.4</ele><time>2026-03-22T15:03:53.096Z</time></trkpt><trkpt lat="45.71003" lon="9.3949222"><ele>278.2</ele><time>2026-03-22T15:03:54.096Z</time></trkpt><trkpt lat="45.7099723" lon="9.3948306"><ele>280.0</ele><time>2026-03-22T15:03:56.096Z</time></trkpt><trkpt lat="45.7099556" lon="9.3946842"><ele>280.0</ele><time>2026-03-22T15:03:58.096Z</time></trkpt><trkpt lat="45.7099303" lon="9.3945196"><ele>280.0</ele><time>2026-03-22T15:04:00.096Z</time></trkpt><trkpt lat="45.7098947" lon="9.3944008"><ele>280.0</ele><time>2026-03-22T15:04:02.096Z</time></trkpt><trkpt lat="45.7098492" lon="9.3943193"><ele>280.0</ele><time>2026-03-22T15:04:04.096Z</time></trkpt><trkpt lat="45.7098193" lon="9.3942116"><ele>280.0</ele><time>2026-03-22T15:04:06.096Z</time></trkpt><trkpt lat="45.7098072" lon="9.3940519"><ele>280.0</ele><time>2026-03-22T15:04:08.096Z</time></trkpt><trkpt lat="45.7098002" lon="9.3939168"><ele>280.0</ele><time>2026-03-22T15:04:10.096Z</time></trkpt><trkpt lat="45.709773" lon="9.3937924"><ele>280.0</ele><time>2026-03-22T15:04:12.096Z</time></trkpt><trkpt lat="45.7097404" lon="9.3936351"><ele>280.0</ele><time>2026-03-22T15:04:14.096Z</time></trkpt><trkpt lat="45.7097089" lon="9.3935074"><ele>280.0</ele><time>2026-03-22T15:04:16.095Z</time></trkpt><trkpt lat="45.7096996" lon="9.3933838"><ele>280.16666666666663</ele><time>2026-03-22T15:04:18.096Z</time></trkpt><trkpt lat="45.7096912" lon="9.393263"><ele>280.3333333333333</ele><time>2026-03-22T15:04:20.095Z</time></trkpt><trkpt lat="45.7096854" lon="9.3931264"><ele>280.5</ele><time>2026-03-22T15:04:22.096Z</time></trkpt><trkpt lat="45.7097154" lon="9.3929838"><ele>280.6666666666667</ele><time>2026-03-22T15:04:24.096Z</time></trkpt><trkpt lat="45.709728" lon="9.3928877"><ele>280.83333333333337</ele><time>2026-03-22T15:04:26.096Z</time></trkpt><trkpt lat="45.7097538" lon="9.3927956"><ele>281.0</ele><time>2026-03-22T15:04:28.096Z</time></trkpt><trkpt lat="45.709767" lon="9.3927035"><ele>281.83333333333337</ele><time>2026-03-22T15:04:30.096Z</time></trkpt><trkpt lat="45.7097859" lon="9.3925872"><ele>282.6666666666667</ele><time>2026-03-22T15:04:33.096Z</time></trkpt><trkpt lat="45.7097989" lon="9.3924695"><ele>283.5</ele><time>2026-03-22T15:04:35.096Z</time></trkpt><trkpt lat="45.7098316" lon="9.3923301"><ele>284.3333333333333</ele><time>2026-03-22T15:04:38.096Z</time></trkpt><trkpt lat="45.7098628" lon="9.3922149"><ele>285.16666666666663</ele><time>2026-03-22T15:04:40.096Z</time></trkpt><trkpt lat="45.7098996" lon="9.392107"><ele>286.0</ele><time>2026-03-22T15:04:43.096Z</time></trkpt><trkpt lat="45.7099369" lon="9.392017"><ele>287.85714285714283</ele><time>2026-03-22T15:04:46.096Z</time></trkpt><trkpt lat="45.7099787" lon="9.3919361"><ele>289.7142857142857</ele><time>2026-03-22T15:04:49.096Z</time></trkpt><trkpt lat="45.7100073" lon="9.3918407"><ele>291.57142857142856</ele><time>2026-03-22T15:04:55.096Z</time></trkpt><trkpt lat="45.7100424" lon="9.3917442"><ele>293.42857142857144</ele><time>2026-03-22T15:04:58.096Z</time></trkpt><trkpt lat="45.7100708" lon="9.3916563"><ele>295.2857142857143</ele><time>2026-03-22T15:05:01.02Z</time></trkpt><trkpt lat="45.7101062" lon="9.3915603"><ele>297.1428571428571</ele><time>2026-03-22T15:05:03.828Z</time></trkpt><trkpt lat="45.7101433" lon="9.3914569"><ele>299.0</ele><time>2026-03-22T15:05:06.643Z</time></trkpt><trkpt lat="45.7101827" lon="9.3913665"><ele>300.0</ele><time>2026-03-22T15:05:09.472Z</time></trkpt><trkpt lat="45.7102142" lon="9.3912858"><ele>301.0</ele><time>2026-03-22T15:05:11.726Z</time></trkpt><trkpt lat="45.7102395" lon="9.3911971"><ele>302.0</ele><time>2026-03-22T15:05:14.002Z</time></trkpt><trkpt lat="45.7102839" lon="9.3910693"><ele>303.0</ele><time>2026-03-22T15:05:17.095Z</time></trkpt><trkpt lat="45.7103615" lon="9.3909209"><ele>304.0</ele><time>2026-03-22T15:05:19.096Z</time></trkpt><trkpt lat="45.7104073" lon="9.3908395"><ele>305.0</ele><time>2026-03-22T15:05:23.004Z</time></trkpt><trkpt lat="45.7105359" lon="9.3905708"><ele>305.6666666666667</ele><time>2026-03-22T15:05:24.096Z</time></trkpt><trkpt lat="45.7105708" lon="9.3904841"><ele>306.33333333333337</ele><time>2026-03-22T15:05:26.096Z</time></trkpt><trkpt lat="45.7105997" lon="9.3903957"><ele>307.0</ele><time>2026-03-22T15:05:28.096Z</time></trkpt><trkpt lat="45.7106398" lon="9.3902969"><ele>307.6666666666667</ele><time>2026-03-22T15:05:30.096Z</time></trkpt><trkpt lat="45.7106806" lon="9.3901764"><ele>308.3333333333333</ele><time>2026-03-22T15:05:33.096Z</time></trkpt><trkpt lat="45.7107182" lon="9.3900531"><ele>309.0</ele><time>2026-03-22T15:05:36.096Z</time></trkpt><trkpt lat="45.7107397" lon="9.3899636"><ele>309.0</ele><time>2026-03-22T15:05:38.096Z</time></trkpt><trkpt lat="45.7107606" lon="9.3898591"><ele>309.0</ele><time>2026-03-22T15:05:40.096Z</time></trkpt><trkpt lat="45.7107887" lon="9.3897614"><ele>309.0</ele><time>2026-03-22T15:05:42.096Z</time></trkpt><trkpt lat="45.7108294" lon="9.3896503"><ele>309.0</ele><time>2026-03-22T15:05:44.096Z</time></trkpt><trkpt lat="45.7108745" lon="9.3895382"><ele>309.0</ele><time>2026-03-22T15:05:46.095Z</time></trkpt><trkpt lat="45.7109113" lon="9.3894269"><ele>309.0</ele><time>2026-03-22T15:05:48.096Z</time></trkpt><trkpt lat="45.7109409" lon="9.3893266"><ele>309.0</ele><time>2026-03-22T15:05:50.096Z</time></trkpt><trkpt lat="45.7109531" lon="9.388935"><ele>309.0</ele><time>2026-03-22T15:05:57.096Z</time></trkpt><trkpt lat="45.7109228" lon="9.388811"><ele>309.0</ele><time>2026-03-22T15:05:58.096Z</time></trkpt><trkpt lat="45.7108982" lon="9.388701"><ele>309.0</ele><time>2026-03-22T15:05:59.096Z</time></trkpt><trkpt lat="45.7108457" lon="9.3886111"><ele>308.5</ele><time>2026-03-22T15:06:00.096Z</time></trkpt><trkpt lat="45.710793" lon="9.3885171"><ele>308.0</ele><time>2026-03-22T15:06:01.096Z</time></trkpt><trkpt lat="45.7107384" lon="9.3884135"><ele>307.5</ele><time>2026-03-22T15:06:02.096Z</time></trkpt><trkpt lat="45.7106921" lon="9.3883222"><ele>307.0</ele><time>2026-03-22T15:06:03.095Z</time></trkpt><trkpt lat="45.7106402" lon="9.3882108"><ele>306.5</ele><time>2026-03-22T15:06:04.096Z</time></trkpt><trkpt lat="45.7105948" lon="9.3881145"><ele>306.0</ele><time>2026-03-22T15:06:05.096Z</time></trkpt><trkpt lat="45.7105595" lon="9.3880161"><ele>304.6</ele><time>2026-03-22T15:06:06.096Z</time></trkpt><trkpt lat="45.7105439" lon="9.3879092"><ele>303.20000000000005</ele><time>2026-03-22T15:06:07.095Z</time></trkpt><trkpt lat="45.7105125" lon="9.3877674"><ele>301.79999999999995</ele><time>2026-03-22T15:06:08.096Z</time></trkpt><trkpt lat="45.7105105" lon="9.3876296"><ele>300.4</ele><time>2026-03-22T15:06:09.096Z</time></trkpt><trkpt lat="45.7105192" lon="9.3874583"><ele>299.0</ele><time>2026-03-22T15:06:10.096Z</time></trkpt><trkpt lat="45.71052" lon="9.3873294"><ele>299.0</ele><time>2026-03-22T15:06:11.096Z</time></trkpt><trkpt lat="45.7105216" lon="9.3872245"><ele>299.0</ele><time>2026-03-22T15:06:12.096Z</time></trkpt><trkpt lat="45.7104968" lon="9.3870677"><ele>299.0</ele><time>2026-03-22T15:06:14.096Z</time></trkpt><trkpt lat="45.7105046" lon="9.3869467"><ele>299.0</ele><time>2026-03-22T15:06:15.096Z</time></trkpt><trkpt lat="45.710516" lon="9.3868217"><ele>299.0</ele><time>2026-03-22T15:06:16.096Z</time></trkpt><trkpt lat="45.7105145" lon="9.3867054"><ele>299.0</ele><time>2026-03-22T15:06:17.096Z</time></trkpt><trkpt lat="45.7105221" lon="9.3865704"><ele>299.2</ele><time>2026-03-22T15:06:18.096Z</time></trkpt><trkpt lat="45.71051" lon="9.3864673"><ele>299.4</ele><time>2026-03-22T15:06:19.096Z</time></trkpt><trkpt lat="45.710505" lon="9.3863476"><ele>299.6</ele><time>2026-03-22T15:06:20.096Z</time></trkpt><trkpt lat="45.7104742" lon="9.3862421"><ele>299.8</ele><time>2026-03-22T15:06:21.096Z</time></trkpt><trkpt lat="45.710413" lon="9.3861263"><ele>300.0</ele><time>2026-03-22T15:06:23.096Z</time></trkpt><trkpt lat="45.7103268" lon="9.3860217"><ele>300.0</ele><time>2026-03-22T15:06:25.096Z</time></trkpt><trkpt lat="45.7102706" lon="9.3859254"><ele>300.0</ele><time>2026-03-22T15:06:27.096Z</time></trkpt><trkpt lat="45.7102221" lon="9.3858208"><ele>300.0</ele><time>2026-03-22T15:06:29.095Z</time></trkpt><trkpt lat="45.7101998" lon="9.3857084"><ele>300.0</ele><time>2026-03-22T15:06:31.096Z</time></trkpt><trkpt lat="45.7101886" lon="9.3855947"><ele>300.0</ele><time>2026-03-22T15:06:33.096Z</time></trkpt><trkpt lat="45.7101882" lon="9.3854881"><ele>300.0</ele><time>2026-03-22T15:06:35.096Z</time></trkpt><trkpt lat="45.7102052" lon="9.3853845"><ele>300.3333333333333</ele><time>2026-03-22T15:06:37.096Z</time></trkpt><trkpt lat="45.710243" lon="9.3852873"><ele>300.6666666666667</ele><time>2026-03-22T15:06:39.096Z</time></trkpt><trkpt lat="45.710296" lon="9.3851901"><ele>301.0</ele><time>2026-03-22T15:06:41.096Z</time></trkpt><trkpt lat="45.7103507" lon="9.3850928"><ele>301.33333333333337</ele><time>2026-03-22T15:06:43.096Z</time></trkpt><trkpt lat="45.7103925" lon="9.3849971"><ele>301.6666666666667</ele><time>2026-03-22T15:06:45.096Z</time></trkpt><trkpt lat="45.7104313" lon="9.3848937"><ele>302.0</ele><time>2026-03-22T15:06:47.096Z</time></trkpt><trkpt lat="45.7104875" lon="9.3847637"><ele>302.0</ele><time>2026-03-22T15:06:49.096Z</time></trkpt><trkpt lat="45.7105511" lon="9.3846409"><ele>302.0</ele><time>2026-03-22T15:06:51.096Z</time></trkpt><trkpt lat="45.7106167" lon="9.384499"><ele>302.0</ele><time>2026-03-22T15:06:53.096Z</time></trkpt><trkpt lat="45.7106797" lon="9.3843579"><ele>302.0</ele><time>2026-03-22T15:06:55.096Z</time></trkpt><trkpt lat="45.7107379" lon="9.3842172"><ele>302.0</ele><time>2026-03-22T15:06:57.096Z</time></trkpt><trkpt lat="45.7107903" lon="9.3840777"><ele>302.0</ele><time>2026-03-22T15:06:59.096Z</time></trkpt><trkpt lat="45.7108872" lon="9.3839857"><ele>302.0</ele><time>2026-03-22T15:07:00.095Z</time></trkpt><trkpt lat="45.7109411" lon="9.3838379"><ele>302.0</ele><time>2026-03-22T15:07:02.096Z</time></trkpt><trkpt lat="45.7109957" lon="9.3836854"><ele>301.0</ele><time>2026-03-22T15:07:04.096Z</time></trkpt><trkpt lat="45.7110778" lon="9.3835608"><ele>300.0</ele><time>2026-03-22T15:07:06.096Z</time></trkpt><trkpt lat="45.7111478" lon="9.3834108"><ele>299.0</ele><time>2026-03-22T15:07:08.096Z</time></trkpt><trkpt lat="45.7112095" lon="9.3833599"><ele>298.0</ele><time>2026-03-22T15:07:09.096Z</time></trkpt><trkpt lat="45.7112946" lon="9.3831873"><ele>298.0</ele><time>2026-03-22T15:07:11.096Z</time></trkpt><trkpt lat="45.7113277" lon="9.3830914"><ele>298.0</ele><time>2026-03-22T15:07:13.095Z</time></trkpt><trkpt lat="45.7113648" lon="9.3830029"><ele>298.0</ele><time>2026-03-22T15:07:14.096Z</time></trkpt><trkpt lat="45.7114008" lon="9.382919"><ele>298.0</ele><time>2026-03-22T15:07:15.096Z</time></trkpt><trkpt lat="45.7114773" lon="9.3827882"><ele>298.0</ele><time>2026-03-22T15:07:17.096Z</time></trkpt><trkpt lat="45.7115105" lon="9.3827063"><ele>298.0</ele><time>2026-03-22T15:07:18.096Z</time></trkpt><trkpt lat="45.7115386" lon="9.3826189"><ele>298.0</ele><time>2026-03-22T15:07:19.096Z</time></trkpt><trkpt lat="45.7115772" lon="9.3825131"><ele>298.0</ele><time>2026-03-22T15:07:20.096Z</time></trkpt><trkpt lat="45.711611" lon="9.3824219"><ele>298.0</ele><time>2026-03-22T15:07:21.096Z</time></trkpt><trkpt lat="45.71166" lon="9.3823289"><ele>298.0</ele><time>2026-03-22T15:07:22.096Z</time></trkpt><trkpt lat="45.7116975" lon="9.3822416"><ele>298.0</ele><time>2026-03-22T15:07:23.096Z</time></trkpt><trkpt lat="45.7117775" lon="9.3820693"><ele>298.0</ele><time>2026-03-22T15:07:25.096Z</time></trkpt><trkpt lat="45.7118193" lon="9.3819746"><ele>298.0</ele><time>2026-03-22T15:07:26.096Z</time></trkpt><trkpt lat="45.7118612" lon="9.3818936"><ele>298.0</ele><time>2026-03-22T15:07:27.095Z</time></trkpt><trkpt lat="45.7118864" lon="9.3818024"><ele>298.0</ele><time>2026-03-22T15:07:28.096Z</time></trkpt><trkpt lat="45.7119429" lon="9.3816322"><ele>298.0</ele><time>2026-03-22T15:07:30.096Z</time></trkpt><trkpt lat="45.7119946" lon="9.3815604"><ele>298.0</ele><time>2026-03-22T15:07:31.096Z</time></trkpt><trkpt lat="45.7120513" lon="9.3814948"><ele>298.0</ele><time>2026-03-22T15:07:32.096Z</time></trkpt><trkpt lat="45.7121114" lon="9.3814343"><ele>298.0</ele><time>2026-03-22T15:07:33.096Z</time></trkpt><trkpt lat="45.7121759" lon="9.3813805"><ele>298.0</ele><time>2026-03-22T15:07:34.095Z</time></trkpt><trkpt lat="45.712233" lon="9.3813366"><ele>298.0</ele><time>2026-03-22T15:07:35.096Z</time></trkpt><trkpt lat="45.7123201" lon="9.3812954"><ele>298.0</ele><time>2026-03-22T15:07:36.096Z</time></trkpt><trkpt lat="45.712394" lon="9.3812705"><ele>298.0</ele><time>2026-03-22T15:07:37.096Z</time></trkpt><trkpt lat="45.7124655" lon="9.3812429"><ele>297.5</ele><time>2026-03-22T15:07:38.096Z</time></trkpt><trkpt lat="45.7125343" lon="9.3812151"><ele>297.0</ele><time>2026-03-22T15:07:39.096Z</time></trkpt><trkpt lat="45.7126013" lon="9.3811911"><ele>296.5</ele><time>2026-03-22T15:07:40.096Z</time></trkpt><trkpt lat="45.7126764" lon="9.3811536"><ele>296.0</ele><time>2026-03-22T15:07:41.096Z</time></trkpt><trkpt lat="45.7127437" lon="9.3811303"><ele>295.5</ele><time>2026-03-22T15:07:42.096Z</time></trkpt><trkpt lat="45.712874" lon="9.3810841"><ele>295.0</ele><time>2026-03-22T15:07:44.096Z</time></trkpt><trkpt lat="45.7129443" lon="9.3810759"><ele>295.00000000000006</ele><time>2026-03-22T15:07:45.096Z</time></trkpt><trkpt lat="45.7130085" lon="9.3810306"><ele>295.0</ele><time>2026-03-22T15:07:46.096Z</time></trkpt><trkpt lat="45.7130687" lon="9.3810002"><ele>295.0</ele><time>2026-03-22T15:07:47.096Z</time></trkpt><trkpt lat="45.7131529" lon="9.3809838"><ele>295.0</ele><time>2026-03-22T15:07:48.096Z</time></trkpt><trkpt lat="45.7132205" lon="9.3809519"><ele>295.0</ele><time>2026-03-22T15:07:49.096Z</time></trkpt><trkpt lat="45.7132642" lon="9.3808682"><ele>295.00000000000006</ele><time>2026-03-22T15:07:51.096Z</time></trkpt><trkpt lat="45.7133463" lon="9.3808485"><ele>295.0</ele><time>2026-03-22T15:07:54.096Z</time></trkpt><trkpt lat="45.7132718" lon="9.380788"><ele>295.0</ele><time>2026-03-22T15:07:57.096Z</time></trkpt><trkpt lat="45.7131919" lon="9.3807291"><ele>295.0</ele><time>2026-03-22T15:08:00.095Z</time></trkpt><trkpt lat="45.7130824" lon="9.380664"><ele>295.0</ele><time>2026-03-22T15:08:03.096Z</time></trkpt><trkpt lat="45.7130067" lon="9.3805868"><ele>295.0</ele><time>2026-03-22T15:08:05.096Z</time></trkpt><trkpt lat="45.7129192" lon="9.3804931"><ele>295.0</ele><time>2026-03-22T15:08:07.095Z</time></trkpt><trkpt lat="45.7128453" lon="9.3804557"><ele>295.16666666666663</ele><time>2026-03-22T15:08:08.096Z</time></trkpt><trkpt lat="45.7127933" lon="9.3803852"><ele>295.3333333333333</ele><time>2026-03-22T15:08:09.096Z</time></trkpt><trkpt lat="45.7127323" lon="9.3803624"><ele>295.5</ele><time>2026-03-22T15:08:10.096Z</time></trkpt><trkpt lat="45.7126629" lon="9.380271"><ele>295.6666666666667</ele><time>2026-03-22T15:08:12.096Z</time></trkpt><trkpt lat="45.712605" lon="9.3801873"><ele>295.83333333333337</ele><time>2026-03-22T15:08:15.095Z</time></trkpt><trkpt lat="45.7125331" lon="9.3801484"><ele>296.0</ele><time>2026-03-22T15:08:17.096Z</time></trkpt><trkpt lat="45.7124387" lon="9.3801057"><ele>296.0</ele><time>2026-03-22T15:08:20.096Z</time></trkpt><trkpt lat="45.7123731" lon="9.3800889"><ele>296.0</ele><time>2026-03-22T15:08:22.096Z</time></trkpt><trkpt lat="45.712303" lon="9.3800612"><ele>296.0</ele><time>2026-03-22T15:08:24.096Z</time></trkpt><trkpt lat="45.7122162" lon="9.3800405"><ele>296.0</ele><time>2026-03-22T15:08:27.095Z</time></trkpt><trkpt lat="45.7121493" lon="9.3800081"><ele>296.0</ele><time>2026-03-22T15:08:29.096Z</time></trkpt><trkpt lat="45.7120837" lon="9.3800066"><ele>296.0</ele><time>2026-03-22T15:08:31.096Z</time></trkpt><trkpt lat="45.7120065" lon="9.3800163"><ele>296.0</ele><time>2026-03-22T15:08:33.096Z</time></trkpt><trkpt lat="45.7119257" lon="9.3800392"><ele>296.83333333333337</ele><time>2026-03-22T15:08:35.095Z</time></trkpt><trkpt lat="45.7118624" lon="9.3800511"><ele>297.6666666666667</ele><time>2026-03-22T15:08:37.096Z</time></trkpt><trkpt lat="45.7117792" lon="9.3800423"><ele>298.5</ele><time>2026-03-22T15:08:40.096Z</time></trkpt><trkpt lat="45.7116887" lon="9.3800142"><ele>299.3333333333333</ele><time>2026-03-22T15:08:43.096Z</time></trkpt><trkpt lat="45.7116189" lon="9.3799629"><ele>300.16666666666663</ele><time>2026-03-22T15:08:46.096Z</time></trkpt><trkpt lat="45.7115545" lon="9.3798966"><ele>301.0</ele><time>2026-03-22T15:08:49.096Z</time></trkpt><trkpt lat="45.7114987" lon="9.379816"><ele>301.0</ele><time>2026-03-22T15:08:52.096Z</time></trkpt><trkpt lat="45.7114331" lon="9.3797656"><ele>301.0</ele><time>2026-03-22T15:08:54.096Z</time></trkpt><trkpt lat="45.7113775" lon="9.3796776"><ele>301.0</ele><time>2026-03-22T15:08:56.095Z</time></trkpt><trkpt lat="45.7113346" lon="9.3796107"><ele>301.0</ele><time>2026-03-22T15:08:58.096Z</time></trkpt><trkpt lat="45.7112774" lon="9.3795396"><ele>301.0</ele><time>2026-03-22T15:09:00.096Z</time></trkpt><trkpt lat="45.7112359" lon="9.3794593"><ele>301.0</ele><time>2026-03-22T15:09:02.095Z</time></trkpt><trkpt lat="45.7111852" lon="9.3793748"><ele>301.0</ele><time>2026-03-22T15:09:04.096Z</time></trkpt><trkpt lat="45.7111393" lon="9.3792996"><ele>301.5</ele><time>2026-03-22T15:09:06.096Z</time></trkpt><trkpt lat="45.7110999" lon="9.3792152"><ele>302.0</ele><time>2026-03-22T15:09:08.096Z</time></trkpt><trkpt lat="45.7110641" lon="9.3791264"><ele>302.5</ele><time>2026-03-22T15:09:10.096Z</time></trkpt><trkpt lat="45.7110276" lon="9.3789959"><ele>303.0</ele><time>2026-03-22T15:09:13.096Z</time></trkpt><trkpt lat="45.7110135" lon="9.3789044"><ele>303.5</ele><time>2026-03-22T15:09:15.096Z</time></trkpt><trkpt lat="45.7109897" lon="9.3787827"><ele>304.0</ele><time>2026-03-22T15:09:18.096Z</time></trkpt><trkpt lat="45.7109662" lon="9.3786878"><ele>304.25</ele><time>2026-03-22T15:09:22.096Z</time></trkpt><trkpt lat="45.7109514" lon="9.3785778"><ele>304.5</ele><time>2026-03-22T15:09:27.096Z</time></trkpt><trkpt lat="45.7109311" lon="9.3784636"><ele>304.75</ele><time>2026-03-22T15:09:31.096Z</time></trkpt><trkpt lat="45.7109305" lon="9.3781613"><ele>305.0</ele><time>2026-03-22T15:09:32.096Z</time></trkpt><trkpt lat="45.7109246" lon="9.3780408"><ele>306.5</ele><time>2026-03-22T15:09:35.096Z</time></trkpt><trkpt lat="45.7109105" lon="9.3779287"><ele>308.0</ele><time>2026-03-22T15:09:38.096Z</time></trkpt><trkpt lat="45.7109086" lon="9.3778092"><ele>309.5</ele><time>2026-03-22T15:09:41.096Z</time></trkpt><trkpt lat="45.7109043" lon="9.3777011"><ele>311.0</ele><time>2026-03-22T15:09:44.096Z</time></trkpt><trkpt lat="45.7108956" lon="9.3775898"><ele>312.5</ele><time>2026-03-22T15:09:47.096Z</time></trkpt><trkpt lat="45.7108806" lon="9.3774723"><ele>314.0</ele><time>2026-03-22T15:09:50.096Z</time></trkpt><trkpt lat="45.7108687" lon="9.3773526"><ele>314.0</ele><time>2026-03-22T15:09:53.096Z</time></trkpt><trkpt lat="45.710863" lon="9.3772388"><ele>314.0</ele><time>2026-03-22T15:09:56.096Z</time></trkpt><trkpt lat="45.7108585" lon="9.3771195"><ele>314.0</ele><time>2026-03-22T15:09:59.096Z</time></trkpt><trkpt lat="45.7108228" lon="9.3770134"><ele>314.0</ele><time>2026-03-22T15:10:02.095Z</time></trkpt><trkpt lat="45.7107566" lon="9.376929"><ele>314.0</ele><time>2026-03-22T15:10:05.096Z</time></trkpt><trkpt lat="45.710679" lon="9.376871"><ele>314.0</ele><time>2026-03-22T15:10:08.096Z</time></trkpt><trkpt lat="45.7106126" lon="9.3768545"><ele>314.0</ele><time>2026-03-22T15:10:10.096Z</time></trkpt><trkpt lat="45.7105151" lon="9.3768861"><ele>314.0</ele><time>2026-03-22T15:10:12.096Z</time></trkpt><trkpt lat="45.7104394" lon="9.3769656"><ele>314.0</ele><time>2026-03-22T15:10:14.096Z</time></trkpt><trkpt lat="45.7103918" lon="9.3771053"><ele>314.0</ele><time>2026-03-22T15:10:17.096Z</time></trkpt><trkpt lat="45.710341" lon="9.3771689"><ele>314.0</ele><time>2026-03-22T15:10:18.096Z</time></trkpt><trkpt lat="45.7102608" lon="9.3772695"><ele>315.83333333333337</ele><time>2026-03-22T15:10:20.096Z</time></trkpt><trkpt lat="45.7101834" lon="9.3773779"><ele>317.6666666666667</ele><time>2026-03-22T15:10:22.096Z</time></trkpt><trkpt lat="45.7101305" lon="9.3774722"><ele>319.5</ele><time>2026-03-22T15:10:24.095Z</time></trkpt><trkpt lat="45.7100495" lon="9.3775065"><ele>321.3333333333333</ele><time>2026-03-22T15:10:26.096Z</time></trkpt><trkpt lat="45.7099829" lon="9.3775101"><ele>323.16666666666663</ele><time>2026-03-22T15:10:28.095Z</time></trkpt><trkpt lat="45.7098896" lon="9.377522"><ele>325.0</ele><time>2026-03-22T15:10:30.095Z</time></trkpt><trkpt lat="45.7098045" lon="9.3774942"><ele>325.0</ele><time>2026-03-22T15:10:32.096Z</time></trkpt><trkpt lat="45.7097419" lon="9.3774533"><ele>325.0</ele><time>2026-03-22T15:10:34.096Z</time></trkpt><trkpt lat="45.7096685" lon="9.3774185"><ele>325.0</ele><time>2026-03-22T15:10:36.096Z</time></trkpt><trkpt lat="45.7095868" lon="9.3774071"><ele>325.0</ele><time>2026-03-22T15:10:38.095Z</time></trkpt><trkpt lat="45.7095187" lon="9.3774033"><ele>325.0</ele><time>2026-03-22T15:10:40.096Z</time></trkpt><trkpt lat="45.7094431" lon="9.3774137"><ele>325.0</ele><time>2026-03-22T15:10:43.096Z</time></trkpt><trkpt lat="45.7094455" lon="9.3775205"><ele>325.0</ele><time>2026-03-22T15:10:47.096Z</time></trkpt><trkpt lat="45.7094529" lon="9.3776136"><ele>325.0</ele><time>2026-03-22T15:10:51.096Z</time></trkpt><trkpt lat="45.7094284" lon="9.3777165"><ele>325.0</ele><time>2026-03-22T15:10:54.096Z</time></trkpt><trkpt lat="45.7093602" lon="9.3777841"><ele>325.0</ele><time>2026-03-22T15:10:57.096Z</time></trkpt><trkpt lat="45.7093259" lon="9.3778721"><ele>325.0</ele><time>2026-03-22T15:11:00.096Z</time></trkpt><trkpt lat="45.7093186" lon="9.3779673"><ele>325.0</ele><time>2026-03-22T15:11:03.096Z</time></trkpt><trkpt lat="45.7093173" lon="9.3780756"><ele>325.0</ele><time>2026-03-22T15:11:07.096Z</time></trkpt><trkpt lat="45.7093423" lon="9.3781752"><ele>325.0</ele><time>2026-03-22T15:11:11.096Z</time></trkpt><trkpt lat="45.7093446" lon="9.3782757"><ele>328.0</ele><time>2026-03-22T15:11:15.096Z</time></trkpt><trkpt lat="45.7093386" lon="9.378396"><ele>331.0</ele><time>2026-03-22T15:11:18.096Z</time></trkpt><trkpt lat="45.7093144" lon="9.3785078"><ele>334.0</ele><time>2026-03-22T15:11:21.096Z</time></trkpt><trkpt lat="45.7093047" lon="9.3785978"><ele>337.0</ele><time>2026-03-22T15:11:23.096Z</time></trkpt><trkpt lat="45.7092826" lon="9.3787005"><ele>340.0</ele><time>2026-03-22T15:11:26.096Z</time></trkpt><trkpt lat="45.7092485" lon="9.3788097"><ele>343.0</ele><time>2026-03-22T15:11:29.095Z</time></trkpt><trkpt lat="45.7092419" lon="9.3789022"><ele>344.2857142857143</ele><time>2026-03-22T15:11:31.096Z</time></trkpt><trkpt lat="45.7092708" lon="9.3790078"><ele>345.57142857142856</ele><time>2026-03-22T15:11:34.096Z</time></trkpt><trkpt lat="45.7093117" lon="9.3790905"><ele>346.8571428571429</ele><time>2026-03-22T15:11:37.096Z</time></trkpt><trkpt lat="45.7093465" lon="9.3791782"><ele>348.1428571428571</ele><time>2026-03-22T15:11:40.096Z</time></trkpt><trkpt lat="45.7093824" lon="9.3792617"><ele>349.42857142857144</ele><time>2026-03-22T15:11:43.096Z</time></trkpt><trkpt lat="45.7094164" lon="9.3793575"><ele>350.7142857142857</ele><time>2026-03-22T15:11:46.096Z</time></trkpt><trkpt lat="45.7094342" lon="9.3794615"><ele>352.0</ele><time>2026-03-22T15:11:49.095Z</time></trkpt><trkpt lat="45.7094683" lon="9.3795483"><ele>351.66666666666663</ele><time>2026-03-22T15:11:53.096Z</time></trkpt><trkpt lat="45.7094415" lon="9.3796299"><ele>351.3333333333333</ele><time>2026-03-22T15:11:57.096Z</time></trkpt><trkpt lat="45.7094376" lon="9.379764"><ele>351.0</ele><time>2026-03-22T15:12:00.096Z</time></trkpt><trkpt lat="45.7094395" lon="9.379889"><ele>350.6666666666667</ele><time>2026-03-22T15:12:03.095Z</time></trkpt><trkpt lat="45.7094271" lon="9.3799925"><ele>350.33333333333337</ele><time>2026-03-22T15:12:05.096Z</time></trkpt><trkpt lat="45.7093978" lon="9.3800964"><ele>350.0</ele><time>2026-03-22T15:12:07.096Z</time></trkpt><trkpt lat="45.7093439" lon="9.3801821"><ele>350.0</ele><time>2026-03-22T15:12:09.096Z</time></trkpt><trkpt lat="45.7092826" lon="9.3802527"><ele>350.0</ele><time>2026-03-22T15:12:11.096Z</time></trkpt><trkpt lat="45.7092232" lon="9.3803242"><ele>350.0</ele><time>2026-03-22T15:12:13.096Z</time></trkpt><trkpt lat="45.7091682" lon="9.3804129"><ele>350.0</ele><time>2026-03-22T15:12:15.096Z</time></trkpt><trkpt lat="45.7092801" lon="9.3804011"><ele>350.0</ele><time>2026-03-22T15:12:18.096Z</time></trkpt><trkpt lat="45.7089211" lon="9.3807441"><ele>351.1666666666667</ele><time>2026-03-22T15:12:23.096Z</time></trkpt><trkpt lat="45.708841" lon="9.3808749"><ele>352.33333333333337</ele><time>2026-03-22T15:12:25.096Z</time></trkpt><trkpt lat="45.7088076" lon="9.3809585"><ele>353.5</ele><time>2026-03-22T15:12:26.096Z</time></trkpt><trkpt lat="45.7087628" lon="9.3810252"><ele>354.6666666666667</ele><time>2026-03-22T15:12:27.095Z</time></trkpt><trkpt lat="45.708709" lon="9.3811002"><ele>355.8333333333333</ele><time>2026-03-22T15:12:28.096Z</time></trkpt><trkpt lat="45.7086467" lon="9.3811798"><ele>357.0</ele><time>2026-03-22T15:12:30.096Z</time></trkpt><trkpt lat="45.7085693" lon="9.3812502"><ele>357.0</ele><time>2026-03-22T15:12:32.096Z</time></trkpt><trkpt lat="45.7084434" lon="9.3812729"><ele>357.0</ele><time>2026-03-22T15:12:34.096Z</time></trkpt><trkpt lat="45.7083682" lon="9.3813194"><ele>357.0</ele><time>2026-03-22T15:12:35.096Z</time></trkpt><trkpt lat="45.70828" lon="9.3813438"><ele>357.0</ele><time>2026-03-22T15:12:36.096Z</time></trkpt><trkpt lat="45.7081789" lon="9.3813649"><ele>357.0</ele><time>2026-03-22T15:12:38.096Z</time></trkpt><trkpt lat="45.708089" lon="9.3814075"><ele>355.40000000000003</ele><time>2026-03-22T15:12:39.096Z</time></trkpt><trkpt lat="45.7080042" lon="9.3814351"><ele>353.8</ele><time>2026-03-22T15:12:40.096Z</time></trkpt><trkpt lat="45.7078773" lon="9.3814504"><ele>352.2</ele><time>2026-03-22T15:12:42.096Z</time></trkpt><trkpt lat="45.7077777" lon="9.3814639"><ele>350.6</ele><time>2026-03-22T15:12:44.096Z</time></trkpt><trkpt lat="45.7077068" lon="9.3814774"><ele>349.0</ele><time>2026-03-22T15:12:45.096Z</time></trkpt><trkpt lat="45.7075876" lon="9.3815"><ele>349.0</ele><time>2026-03-22T15:12:47.096Z</time></trkpt><trkpt lat="45.7074936" lon="9.3815704"><ele>349.0</ele><time>2026-03-22T15:12:49.096Z</time></trkpt><trkpt lat="45.7074034" lon="9.3816445"><ele>349.0</ele><time>2026-03-22T15:12:51.096Z</time></trkpt><trkpt lat="45.7073461" lon="9.3816965"><ele>349.0</ele><time>2026-03-22T15:12:52.096Z</time></trkpt><trkpt lat="45.7072643" lon="9.3817397"><ele>349.0</ele><time>2026-03-22T15:12:54.095Z</time></trkpt><trkpt lat="45.7071985" lon="9.3817806"><ele>349.0</ele><time>2026-03-22T15:12:56.096Z</time></trkpt><trkpt lat="45.7071243" lon="9.3818149"><ele>349.0</ele><time>2026-03-22T15:12:58.096Z</time></trkpt><trkpt lat="45.7070506" lon="9.3818205"><ele>349.0</ele><time>2026-03-22T15:13:00.096Z</time></trkpt><trkpt lat="45.706975" lon="9.3818232"><ele>349.0</ele><time>2026-03-22T15:13:03.095Z</time></trkpt><trkpt lat="45.706886" lon="9.3818286"><ele>349.0</ele><time>2026-03-22T15:13:06.095Z</time></trkpt><trkpt lat="45.7068154" lon="9.3818316"><ele>349.0</ele><time>2026-03-22T15:13:08.096Z</time></trkpt><trkpt lat="45.7067516" lon="9.3818575"><ele>349.0</ele><time>2026-03-22T15:13:10.095Z</time></trkpt><trkpt lat="45.7066831" lon="9.3819184"><ele>349.16666666666663</ele><time>2026-03-22T15:13:13.095Z</time></trkpt><trkpt lat="45.7066095" lon="9.3819936"><ele>349.3333333333333</ele><time>2026-03-22T15:13:16.096Z</time></trkpt><trkpt lat="45.7065483" lon="9.3820771"><ele>349.5</ele><time>2026-03-22T15:13:19.096Z</time></trkpt><trkpt lat="45.706502" lon="9.3821545"><ele>349.6666666666667</ele><time>2026-03-22T15:13:22.096Z</time></trkpt><trkpt lat="45.706455" lon="9.3822236"><ele>349.83333333333337</ele><time>2026-03-22T15:13:25.096Z</time></trkpt><trkpt lat="45.7064293" lon="9.382323"><ele>350.0</ele><time>2026-03-22T15:13:28.095Z</time></trkpt><trkpt lat="45.7063914" lon="9.3824212"><ele>350.0</ele><time>2026-03-22T15:13:32.096Z</time></trkpt><trkpt lat="45.7063452" lon="9.3825072"><ele>350.0</ele><time>2026-03-22T15:13:35.096Z</time></trkpt><trkpt lat="45.7062926" lon="9.3825733"><ele>350.0</ele><time>2026-03-22T15:13:37.096Z</time></trkpt><trkpt lat="45.7062311" lon="9.3826471"><ele>350.0</ele><time>2026-03-22T15:13:39.096Z</time></trkpt><trkpt lat="45.7061533" lon="9.3827356"><ele>350.0</ele><time>2026-03-22T15:13:41.096Z</time></trkpt><trkpt lat="45.7060913" lon="9.3827859"><ele>350.0</ele><time>2026-03-22T15:13:43.096Z</time></trkpt><trkpt lat="45.7060248" lon="9.3828398"><ele>351.2857142857143</ele><time>2026-03-22T15:13:45.096Z</time></trkpt><trkpt lat="45.7059721" lon="9.3828929"><ele>352.57142857142856</ele><time>2026-03-22T15:13:47.096Z</time></trkpt><trkpt lat="45.7059224" lon="9.3829566"><ele>353.8571428571429</ele><time>2026-03-22T15:13:49.096Z</time></trkpt><trkpt lat="45.7058608" lon="9.3829885"><ele>355.1428571428571</ele><time>2026-03-22T15:13:52.096Z</time></trkpt><trkpt lat="45.7057991" lon="9.3830463"><ele>356.42857142857144</ele><time>2026-03-22T15:13:55.096Z</time></trkpt><trkpt lat="45.7057282" lon="9.383073"><ele>357.7142857142857</ele><time>2026-03-22T15:13:59.095Z</time></trkpt><trkpt lat="45.7056668" lon="9.38305"><ele>359.0</ele><time>2026-03-22T15:14:03.095Z</time></trkpt><trkpt lat="45.705614" lon="9.3829952"><ele>359.7142857142857</ele><time>2026-03-22T15:14:07.096Z</time></trkpt><trkpt lat="45.7055583" lon="9.3829453"><ele>360.42857142857144</ele><time>2026-03-22T15:14:11.096Z</time></trkpt><trkpt lat="45.705492" lon="9.3828941"><ele>361.1428571428571</ele><time>2026-03-22T15:14:16.096Z</time></trkpt><trkpt lat="45.7054139" lon="9.3828782"><ele>361.8571428571429</ele><time>2026-03-22T15:14:20.095Z</time></trkpt><trkpt lat="45.7053361" lon="9.3828456"><ele>362.57142857142856</ele><time>2026-03-22T15:14:24.095Z</time></trkpt><trkpt lat="45.7052714" lon="9.3828154"><ele>363.2857142857143</ele><time>2026-03-22T15:14:30.096Z</time></trkpt><trkpt lat="45.7052179" lon="9.3827417"><ele>364.0</ele><time>2026-03-22T15:14:37.096Z</time></trkpt><trkpt lat="45.7052134" lon="9.3826482"><ele>364.0</ele><time>2026-03-22T15:14:42.096Z</time></trkpt><trkpt lat="45.7052313" lon="9.3825602"><ele>364.0</ele><time>2026-03-22T15:14:46.096Z</time></trkpt><trkpt lat="45.7052481" lon="9.3824587"><ele>364.0</ele><time>2026-03-22T15:14:50.096Z</time></trkpt><trkpt lat="45.7052658" lon="9.3823545"><ele>364.0</ele><time>2026-03-22T15:14:54.096Z</time></trkpt><trkpt lat="45.7052908" lon="9.3822498"><ele>364.0</ele><time>2026-03-22T15:14:58.096Z</time></trkpt><trkpt lat="45.7053112" lon="9.3821562"><ele>364.0</ele><time>2026-03-22T15:15:02.096Z</time></trkpt><trkpt lat="45.7053331" lon="9.3820706"><ele>364.0</ele><time>2026-03-22T15:15:05.096Z</time></trkpt><trkpt lat="45.7053366" lon="9.3819597"><ele>365.7142857142857</ele><time>2026-03-22T15:15:09.096Z</time></trkpt><trkpt lat="45.7053577" lon="9.381861"><ele>367.42857142857144</ele><time>2026-03-22T15:15:13.095Z</time></trkpt><trkpt lat="45.7053694" lon="9.3817588"><ele>369.1428571428571</ele><time>2026-03-22T15:15:18.096Z</time></trkpt><trkpt lat="45.7053993" lon="9.3816487"><ele>370.8571428571429</ele><time>2026-03-22T15:15:22.096Z</time></trkpt><trkpt lat="45.705416" lon="9.3815462"><ele>372.57142857142856</ele><time>2026-03-22T15:15:26.096Z</time></trkpt><trkpt lat="45.705432" lon="9.3814451"><ele>374.2857142857143</ele><time>2026-03-22T15:15:30.096Z</time></trkpt><trkpt lat="45.7054339" lon="9.3813394"><ele>376.0</ele><time>2026-03-22T15:15:34.096Z</time></trkpt><trkpt lat="45.7054355" lon="9.381231"><ele>378.2857142857143</ele><time>2026-03-22T15:15:39.096Z</time></trkpt><trkpt lat="45.7054651" lon="9.3811426"><ele>380.57142857142856</ele><time>2026-03-22T15:15:43.095Z</time></trkpt><trkpt lat="45.7055186" lon="9.38105"><ele>382.8571428571429</ele><time>2026-03-22T15:15:47.096Z</time></trkpt><trkpt lat="45.7055439" lon="9.3809463"><ele>385.1428571428571</ele><time>2026-03-22T15:15:50.096Z</time></trkpt><trkpt lat="45.7055672" lon="9.3808302"><ele>387.42857142857144</ele><time>2026-03-22T15:15:54.096Z</time></trkpt><trkpt lat="45.7055826" lon="9.3807381"><ele>389.7142857142857</ele><time>2026-03-22T15:15:57.096Z</time></trkpt><trkpt lat="45.7055995" lon="9.3806422"><ele>392.0</ele><time>2026-03-22T15:16:00.096Z</time></trkpt><trkpt lat="45.7056183" lon="9.3805424"><ele>394.14285714285717</ele><time>2026-03-22T15:16:03.096Z</time></trkpt><trkpt lat="45.7056403" lon="9.3804507"><ele>396.2857142857143</ele><time>2026-03-22T15:16:06.096Z</time></trkpt><trkpt lat="45.7056705" lon="9.3803397"><ele>398.42857142857144</ele><time>2026-03-22T15:16:10.096Z</time></trkpt><trkpt lat="45.7056924" lon="9.3802435"><ele>400.57142857142856</ele><time>2026-03-22T15:16:14.096Z</time></trkpt><trkpt lat="45.7057323" lon="9.3801622"><ele>402.7142857142857</ele><time>2026-03-22T15:16:18.096Z</time></trkpt><trkpt lat="45.7057922" lon="9.3801247"><ele>404.8571428571429</ele><time>2026-03-22T15:16:23.096Z</time></trkpt><trkpt lat="45.7058392" lon="9.3800487"><ele>407.0</ele><time>2026-03-22T15:16:28.095Z</time></trkpt><trkpt lat="45.7059029" lon="9.3799852"><ele>406.99999999999994</ele><time>2026-03-22T15:16:32.096Z</time></trkpt><trkpt lat="45.7059756" lon="9.3799273"><ele>407.0</ele><time>2026-03-22T15:16:36.096Z</time></trkpt><trkpt lat="45.706048" lon="9.3798586"><ele>407.0</ele><time>2026-03-22T15:16:39.096Z</time></trkpt><trkpt lat="45.7061023" lon="9.3798031"><ele>407.0</ele><time>2026-03-22T15:16:41.096Z</time></trkpt><trkpt lat="45.7061728" lon="9.3797446"><ele>406.99999999999994</ele><time>2026-03-22T15:16:44.096Z</time></trkpt><trkpt lat="45.7062348" lon="9.3796737"><ele>407.0</ele><time>2026-03-22T15:16:47.096Z</time></trkpt><trkpt lat="45.7062904" lon="9.3796166"><ele>408.3333333333333</ele><time>2026-03-22T15:16:49.096Z</time></trkpt><trkpt lat="45.7063465" lon="9.3795687"><ele>409.66666666666663</ele><time>2026-03-22T15:16:51.096Z</time></trkpt><trkpt lat="45.7064271" lon="9.3794959"><ele>411.0</ele><time>2026-03-22T15:16:54.096Z</time></trkpt><trkpt lat="45.706476" lon="9.379427"><ele>412.33333333333337</ele><time>2026-03-22T15:16:56.096Z</time></trkpt><trkpt lat="45.7065302" lon="9.3793589"><ele>413.6666666666667</ele><time>2026-03-22T15:16:58.096Z</time></trkpt><trkpt lat="45.7065929" lon="9.3792743"><ele>415.0</ele><time>2026-03-22T15:17:01.096Z</time></trkpt><trkpt lat="45.7066514" lon="9.3792061"><ele>415.0</ele><time>2026-03-22T15:17:04.096Z</time></trkpt><trkpt lat="45.7067131" lon="9.3791376"><ele>415.0</ele><time>2026-03-22T15:17:08.096Z</time></trkpt><trkpt lat="45.7067697" lon="9.3790952"><ele>415.0</ele><time>2026-03-22T15:17:11.096Z</time></trkpt><trkpt lat="45.7068354" lon="9.3790451"><ele>415.0</ele><time>2026-03-22T15:17:14.095Z</time></trkpt><trkpt lat="45.706899" lon="9.3790212"><ele>415.0</ele><time>2026-03-22T15:17:18.14Z</time></trkpt><trkpt lat="45.7069665" lon="9.3789892"><ele>415.0</ele><time>2026-03-22T15:17:21.984Z</time></trkpt><trkpt lat="45.7070484" lon="9.3789663"><ele>415.0</ele><time>2026-03-22T15:17:25.766Z</time></trkpt><trkpt lat="45.7071151" lon="9.378949"><ele>413.6666666666667</ele><time>2026-03-22T15:17:28.666Z</time></trkpt><trkpt lat="45.7071844" lon="9.3789009"><ele>412.33333333333337</ele><time>2026-03-22T15:17:32.096Z</time></trkpt><trkpt lat="45.7072701" lon="9.3788245"><ele>411.0</ele><time>2026-03-22T15:17:33.096Z</time></trkpt><trkpt lat="45.7073137" lon="9.3787241"><ele>409.66666666666663</ele><time>2026-03-22T15:17:36.096Z</time></trkpt><trkpt lat="45.7073215" lon="9.3786128"><ele>408.3333333333333</ele><time>2026-03-22T15:17:39.095Z</time></trkpt><trkpt lat="45.7072991" lon="9.3785274"><ele>407.0</ele><time>2026-03-22T15:17:42.095Z</time></trkpt><trkpt lat="45.7072548" lon="9.3784391"><ele>406.99999999999994</ele><time>2026-03-22T15:17:46.096Z</time></trkpt><trkpt lat="45.7071982" lon="9.3783713"><ele>407.0</ele><time>2026-03-22T15:17:50.096Z</time></trkpt><trkpt lat="45.7071457" lon="9.3782883"><ele>407.0</ele><time>2026-03-22T15:17:53.096Z</time></trkpt><trkpt lat="45.7070975" lon="9.3782027"><ele>407.0</ele><time>2026-03-22T15:17:56.096Z</time></trkpt><trkpt lat="45.7070463" lon="9.3781229"><ele>406.99999999999994</ele><time>2026-03-22T15:17:59.096Z</time></trkpt><trkpt lat="45.7070061" lon="9.3780292"><ele>407.0</ele><time>2026-03-22T15:18:02.096Z</time></trkpt><trkpt lat="45.7069702" lon="9.3779344"><ele>406.49999999999994</ele><time>2026-03-22T15:18:05.096Z</time></trkpt><trkpt lat="45.7069425" lon="9.3778275"><ele>406.0</ele><time>2026-03-22T15:18:08.096Z</time></trkpt><trkpt lat="45.7069197" lon="9.3776995"><ele>405.5</ele><time>2026-03-22T15:18:11.095Z</time></trkpt><trkpt lat="45.7068989" lon="9.3776053"><ele>405.0</ele><time>2026-03-22T15:18:13.096Z</time></trkpt><trkpt lat="45.7068834" lon="9.3774932"><ele>404.49999999999994</ele><time>2026-03-22T15:18:16.096Z</time></trkpt><trkpt lat="45.7068554" lon="9.3773885"><ele>404.0</ele><time>2026-03-22T15:18:19.096Z</time></trkpt><trkpt lat="45.7068204" lon="9.3772941"><ele>407.99999999999994</ele><time>2026-03-22T15:18:22.096Z</time></trkpt><trkpt lat="45.7067789" lon="9.3772073"><ele>412.0</ele><time>2026-03-22T15:18:25.096Z</time></trkpt><trkpt lat="45.7067432" lon="9.3771203"><ele>416.0</ele><time>2026-03-22T15:18:28.096Z</time></trkpt><trkpt lat="45.7066833" lon="9.3770388"><ele>420.0</ele><time>2026-03-22T15:18:33.096Z</time></trkpt><trkpt lat="45.70662" lon="9.3769819"><ele>423.99999999999994</ele><time>2026-03-22T15:18:36.096Z</time></trkpt><trkpt lat="45.7065468" lon="9.3769365"><ele>428.0</ele><time>2026-03-22T15:18:39.096Z</time></trkpt><trkpt lat="45.7064651" lon="9.3768903"><ele>428.00000000000006</ele><time>2026-03-22T15:18:42.096Z</time></trkpt><trkpt lat="45.7064092" lon="9.3768458"><ele>428.0</ele><time>2026-03-22T15:18:45.096Z</time></trkpt><trkpt lat="45.7063461" lon="9.3768015"><ele>428.0</ele><time>2026-03-22T15:18:49.096Z</time></trkpt><trkpt lat="45.7062739" lon="9.3767559"><ele>428.0</ele><time>2026-03-22T15:18:53.096Z</time></trkpt><trkpt lat="45.7062049" lon="9.3766914"><ele>428.0</ele><time>2026-03-22T15:18:57.096Z</time></trkpt><trkpt lat="45.7061559" lon="9.3766306"><ele>428.00000000000006</ele><time>2026-03-22T15:19:00.096Z</time></trkpt><trkpt lat="45.7060929" lon="9.3765553"><ele>428.0</ele><time>2026-03-22T15:19:04.095Z</time></trkpt><trkpt lat="45.7060436" lon="9.3764631"><ele>430.7142857142857</ele><time>2026-03-22T15:19:08.096Z</time></trkpt><trkpt lat="45.7059825" lon="9.3764112"><ele>433.42857142857144</ele><time>2026-03-22T15:19:12.096Z</time></trkpt><trkpt lat="45.7059114" lon="9.3763968"><ele>436.1428571428571</ele><time>2026-03-22T15:19:17.096Z</time></trkpt><trkpt lat="45.7058572" lon="9.3763211"><ele>438.8571428571429</ele><time>2026-03-22T15:19:23.096Z</time></trkpt><trkpt lat="45.7058116" lon="9.3762368"><ele>441.57142857142856</ele><time>2026-03-22T15:19:26.096Z</time></trkpt><trkpt lat="45.7057688" lon="9.3761587"><ele>444.2857142857143</ele><time>2026-03-22T15:19:29.096Z</time></trkpt><trkpt lat="45.7057569" lon="9.3760546"><ele>447.0</ele><time>2026-03-22T15:19:32.096Z</time></trkpt><trkpt lat="45.7057362" lon="9.3759371"><ele>447.0</ele><time>2026-03-22T15:19:34.096Z</time></trkpt><trkpt lat="45.7057058" lon="9.3758462"><ele>447.0</ele><time>2026-03-22T15:19:36.095Z</time></trkpt><trkpt lat="45.7056677" lon="9.3757425"><ele>447.0</ele><time>2026-03-22T15:19:39.096Z</time></trkpt><trkpt lat="45.705615" lon="9.375661"><ele>447.0</ele><time>2026-03-22T15:19:43.095Z</time></trkpt><trkpt lat="45.7055555" lon="9.3756179"><ele>447.0</ele><time>2026-03-22T15:19:47.096Z</time></trkpt><trkpt lat="45.7056864" lon="9.3756824"><ele>447.0</ele><time>2026-03-22T15:19:52.096Z</time></trkpt><trkpt lat="45.7057168" lon="9.3755891"><ele>447.0</ele><time>2026-03-22T15:20:29.096Z</time></trkpt><trkpt lat="45.7057657" lon="9.3754967"><ele>447.0</ele><time>2026-03-22T15:20:33.096Z</time></trkpt><trkpt lat="45.705797" lon="9.3753896"><ele>447.0</ele><time>2026-03-22T15:20:36.096Z</time></trkpt><trkpt lat="45.7058239" lon="9.3752935"><ele>447.0</ele><time>2026-03-22T15:20:39.096Z</time></trkpt><trkpt lat="45.7058589" lon="9.3751748"><ele>447.0</ele><time>2026-03-22T15:20:42.095Z</time></trkpt><trkpt lat="45.7058863" lon="9.3750614"><ele>447.0</ele><time>2026-03-22T15:20:45.096Z</time></trkpt><trkpt lat="45.7059239" lon="9.3749518"><ele>447.0</ele><time>2026-03-22T15:20:48.095Z</time></trkpt><trkpt lat="45.7059868" lon="9.3748826"><ele>447.0</ele><time>2026-03-22T15:20:51.096Z</time></trkpt><trkpt lat="45.7060532" lon="9.3748152"><ele>447.0</ele><time>2026-03-22T15:20:54.096Z</time></trkpt><trkpt lat="45.7061031" lon="9.374726"><ele>447.0</ele><time>2026-03-22T15:20:57.095Z</time></trkpt><trkpt lat="45.7061423" lon="9.3746384"><ele>447.0</ele><time>2026-03-22T15:21:00.095Z</time></trkpt><trkpt lat="45.7061854" lon="9.3745425"><ele>447.0</ele><time>2026-03-22T15:21:03.096Z</time></trkpt><trkpt lat="45.7061939" lon="9.3744234"><ele>448.1666666666667</ele><time>2026-03-22T15:21:06.096Z</time></trkpt><trkpt lat="45.7061861" lon="9.3743325"><ele>449.33333333333337</ele><time>2026-03-22T15:21:08.096Z</time></trkpt><trkpt lat="45.7062236" lon="9.3742369"><ele>450.5</ele><time>2026-03-22T15:21:11.096Z</time></trkpt><trkpt lat="45.7062678" lon="9.3741218"><ele>451.6666666666667</ele><time>2026-03-22T15:21:14.096Z</time></trkpt><trkpt lat="45.7063075" lon="9.3740196"><ele>452.83333333333337</ele><time>2026-03-22T15:21:17.096Z</time></trkpt><trkpt lat="45.7063354" lon="9.3739132"><ele>454.0</ele><time>2026-03-22T15:21:20.096Z</time></trkpt><trkpt lat="45.7063701" lon="9.3738027"><ele>455.1666666666667</ele><time>2026-03-22T15:21:23.096Z</time></trkpt><trkpt lat="45.7063997" lon="9.3737002"><ele>456.33333333333337</ele><time>2026-03-22T15:21:26.096Z</time></trkpt><trkpt lat="45.7064343" lon="9.3735899"><ele>457.5</ele><time>2026-03-22T15:21:29.096Z</time></trkpt><trkpt lat="45.706454" lon="9.3734904"><ele>458.66666666666663</ele><time>2026-03-22T15:21:32.095Z</time></trkpt><trkpt lat="45.7065007" lon="9.3733686"><ele>459.8333333333333</ele><time>2026-03-22T15:21:35.096Z</time></trkpt><trkpt lat="45.7065389" lon="9.3732567"><ele>461.0</ele><time>2026-03-22T15:21:38.095Z</time></trkpt><trkpt lat="45.7065771" lon="9.373145"><ele>460.99999999999994</ele><time>2026-03-22T15:21:41.096Z</time></trkpt><trkpt lat="45.7066303" lon="9.3730527"><ele>461.0</ele><time>2026-03-22T15:21:44.096Z</time></trkpt><trkpt lat="45.7066848" lon="9.3729855"><ele>461.0</ele><time>2026-03-22T15:21:46.096Z</time></trkpt><trkpt lat="45.7067721" lon="9.3729377"><ele>461.0</ele><time>2026-03-22T15:21:49.096Z</time></trkpt><trkpt lat="45.7068635" lon="9.3728977"><ele>460.99999999999994</ele><time>2026-03-22T15:21:52.096Z</time></trkpt><trkpt lat="45.7069505" lon="9.3728641"><ele>461.0</ele><time>2026-03-22T15:21:55.095Z</time></trkpt><trkpt lat="45.7070096" lon="9.3728294"><ele>460.16666666666663</ele><time>2026-03-22T15:21:57.096Z</time></trkpt><trkpt lat="45.7070946" lon="9.3727661"><ele>459.3333333333333</ele><time>2026-03-22T15:22:00.096Z</time></trkpt><trkpt lat="45.7071664" lon="9.3727272"><ele>458.5</ele><time>2026-03-22T15:22:02.096Z</time></trkpt><trkpt lat="45.7072375" lon="9.3726965"><ele>457.66666666666663</ele><time>2026-03-22T15:22:04.096Z</time></trkpt><trkpt lat="45.7073185" lon="9.3726591"><ele>456.8333333333333</ele><time>2026-03-22T15:22:06.095Z</time></trkpt><trkpt lat="45.707389" lon="9.3726274"><ele>456.0</ele><time>2026-03-22T15:22:09.096Z</time></trkpt><trkpt lat="45.7074426" lon="9.3725741"><ele>456.0</ele><time>2026-03-22T15:22:11.096Z</time></trkpt><trkpt lat="45.7074912" lon="9.3724863"><ele>456.0</ele><time>2026-03-22T15:22:13.096Z</time></trkpt><trkpt lat="45.7075302" lon="9.3723859"><ele>456.0</ele><time>2026-03-22T15:22:15.096Z</time></trkpt><trkpt lat="45.707571" lon="9.3722584"><ele>456.0</ele><time>2026-03-22T15:22:18.096Z</time></trkpt><trkpt lat="45.7075891" lon="9.3721329"><ele>456.0</ele><time>2026-03-22T15:22:20.096Z</time></trkpt><trkpt lat="45.7076031" lon="9.3719905"><ele>456.0</ele><time>2026-03-22T15:22:22.096Z</time></trkpt><trkpt lat="45.7076065" lon="9.3718247"><ele>456.20000000000005</ele><time>2026-03-22T15:22:24.096Z</time></trkpt><trkpt lat="45.7075889" lon="9.3716454"><ele>456.40000000000003</ele><time>2026-03-22T15:22:26.096Z</time></trkpt><trkpt lat="45.7075627" lon="9.3714619"><ele>456.6</ele><time>2026-03-22T15:22:28.096Z</time></trkpt><trkpt lat="45.7075537" lon="9.3713363"><ele>456.8</ele><time>2026-03-22T15:22:29.096Z</time></trkpt><trkpt lat="45.7075505" lon="9.3712438"><ele>457.0</ele><time>2026-03-22T15:22:30.096Z</time></trkpt><trkpt lat="45.7075759" lon="9.37108"><ele>456.40000000000003</ele><time>2026-03-22T15:22:32.096Z</time></trkpt><trkpt lat="45.7076164" lon="9.3709179"><ele>455.80000000000007</ele><time>2026-03-22T15:22:34.096Z</time></trkpt><trkpt lat="45.7076414" lon="9.3708343"><ele>455.2</ele><time>2026-03-22T15:22:35.096Z</time></trkpt><trkpt lat="45.7076941" lon="9.3706814"><ele>454.6</ele><time>2026-03-22T15:22:37.096Z</time></trkpt><trkpt lat="45.7077557" lon="9.3705526"><ele>454.0</ele><time>2026-03-22T15:22:39.096Z</time></trkpt><trkpt lat="45.7078141" lon="9.3704155"><ele>454.00000000000006</ele><time>2026-03-22T15:22:41.096Z</time></trkpt><trkpt lat="45.7078712" lon="9.3702761"><ele>454.0</ele><time>2026-03-22T15:22:43.096Z</time></trkpt><trkpt lat="45.7079121" lon="9.3701965"><ele>454.0</ele><time>2026-03-22T15:22:44.096Z</time></trkpt><trkpt lat="45.7079667" lon="9.3700897"><ele>454.0</ele><time>2026-03-22T15:22:46.096Z</time></trkpt><trkpt lat="45.7080198" lon="9.3699831"><ele>454.00000000000006</ele><time>2026-03-22T15:22:48.096Z</time></trkpt><trkpt lat="45.7080533" lon="9.3699003"><ele>454.0</ele><time>2026-03-22T15:22:50.096Z</time></trkpt><trkpt lat="45.7081063" lon="9.3697869"><ele>455.50000000000006</ele><time>2026-03-22T15:22:53.096Z</time></trkpt><trkpt lat="45.7081534" lon="9.3696854"><ele>457.0</ele><time>2026-03-22T15:22:56.096Z</time></trkpt><trkpt lat="45.7081934" lon="9.3695847"><ele>458.5</ele><time>2026-03-22T15:22:59.096Z</time></trkpt><trkpt lat="45.7082375" lon="9.369485"><ele>460.0</ele><time>2026-03-22T15:23:02.096Z</time></trkpt><trkpt lat="45.7082817" lon="9.3693947"><ele>461.50000000000006</ele><time>2026-03-22T15:23:05.096Z</time></trkpt><trkpt lat="45.7083326" lon="9.3692811"><ele>463.0</ele><time>2026-03-22T15:23:08.096Z</time></trkpt><trkpt lat="45.7083761" lon="9.3692046"><ele>463.00000000000006</ele><time>2026-03-22T15:23:10.096Z</time></trkpt><trkpt lat="45.7084361" lon="9.3691555"><ele>463.0</ele><time>2026-03-22T15:23:12.096Z</time></trkpt><trkpt lat="45.7085184" lon="9.3692077"><ele>463.0</ele><time>2026-03-22T15:23:14.096Z</time></trkpt><trkpt lat="45.7085923" lon="9.3692385"><ele>463.0</ele><time>2026-03-22T15:23:16.096Z</time></trkpt><trkpt lat="45.7086739" lon="9.3692073"><ele>463.00000000000006</ele><time>2026-03-22T15:23:18.096Z</time></trkpt><trkpt lat="45.7087469" lon="9.3691639"><ele>463.0</ele><time>2026-03-22T15:23:20.096Z</time></trkpt><trkpt lat="45.7088403" lon="9.3691248"><ele>461.4</ele><time>2026-03-22T15:23:22.096Z</time></trkpt><trkpt lat="45.7089432" lon="9.3690869"><ele>459.79999999999995</ele><time>2026-03-22T15:23:24.096Z</time></trkpt><trkpt lat="45.7090801" lon="9.3690527"><ele>458.2</ele><time>2026-03-22T15:23:25.096Z</time></trkpt><trkpt lat="45.7091856" lon="9.3690348"><ele>456.6</ele><time>2026-03-22T15:23:27.096Z</time></trkpt><trkpt lat="45.7092721" lon="9.3690075"><ele>455.0</ele><time>2026-03-22T15:23:29.096Z</time></trkpt><trkpt lat="45.7093353" lon="9.3689849"><ele>455.66666666666663</ele><time>2026-03-22T15:23:30.096Z</time></trkpt><trkpt lat="45.7094158" lon="9.368925"><ele>456.3333333333333</ele><time>2026-03-22T15:23:32.096Z</time></trkpt><trkpt lat="45.7095008" lon="9.3688724"><ele>457.0</ele><time>2026-03-22T15:23:34.096Z</time></trkpt><trkpt lat="45.7095566" lon="9.3688094"><ele>457.66666666666663</ele><time>2026-03-22T15:23:36.096Z</time></trkpt><trkpt lat="45.7096481" lon="9.3687506"><ele>458.3333333333333</ele><time>2026-03-22T15:23:38.096Z</time></trkpt><trkpt lat="45.7097318" lon="9.3687248"><ele>459.0</ele><time>2026-03-22T15:23:40.096Z</time></trkpt><trkpt lat="45.7098273" lon="9.3687008"><ele>459.0</ele><time>2026-03-22T15:23:42.095Z</time></trkpt><trkpt lat="45.7098912" lon="9.3686616"><ele>459.0</ele><time>2026-03-22T15:23:43.096Z</time></trkpt><trkpt lat="45.7099916" lon="9.3686192"><ele>459.0</ele><time>2026-03-22T15:23:45.096Z</time></trkpt><trkpt lat="45.710056" lon="9.3685835"><ele>459.0</ele><time>2026-03-22T15:23:46.096Z</time></trkpt><trkpt lat="45.7101124" lon="9.3685384"><ele>459.0</ele><time>2026-03-22T15:23:47.096Z</time></trkpt><trkpt lat="45.7102087" lon="9.3684698"><ele>459.0</ele><time>2026-03-22T15:23:49.096Z</time></trkpt><trkpt lat="45.7102575" lon="9.3684099"><ele>457.8333333333333</ele><time>2026-03-22T15:23:50.096Z</time></trkpt><trkpt lat="45.710303" lon="9.3683414"><ele>456.66666666666663</ele><time>2026-03-22T15:23:51.095Z</time></trkpt><trkpt lat="45.7103678" lon="9.3681905"><ele>455.5</ele><time>2026-03-22T15:23:53.096Z</time></trkpt><trkpt lat="45.710402" lon="9.3680919"><ele>454.3333333333333</ele><time>2026-03-22T15:23:54.096Z</time></trkpt><trkpt lat="45.7104304" lon="9.3679904"><ele>453.16666666666663</ele><time>2026-03-22T15:23:55.096Z</time></trkpt><trkpt lat="45.7104589" lon="9.367882"><ele>452.0</ele><time>2026-03-22T15:23:56.096Z</time></trkpt><trkpt lat="45.7104797" lon="9.3677851"><ele>451.8333333333333</ele><time>2026-03-22T15:23:57.096Z</time></trkpt><trkpt lat="45.7104968" lon="9.3676762"><ele>451.66666666666663</ele><time>2026-03-22T15:23:58.096Z</time></trkpt><trkpt lat="45.7105099" lon="9.3675721"><ele>451.5</ele><time>2026-03-22T15:23:59.096Z</time></trkpt><trkpt lat="45.7105246" lon="9.3674655"><ele>451.33333333333337</ele><time>2026-03-22T15:24:00.096Z</time></trkpt><trkpt lat="45.7105408" lon="9.3673614"><ele>451.1666666666667</ele><time>2026-03-22T15:24:01.096Z</time></trkpt><trkpt lat="45.7105619" lon="9.3672429"><ele>451.0</ele><time>2026-03-22T15:24:02.096Z</time></trkpt><trkpt lat="45.7105781" lon="9.367128"><ele>450.20000000000005</ele><time>2026-03-22T15:24:03.096Z</time></trkpt><trkpt lat="45.7105949" lon="9.3670051"><ele>449.40000000000003</ele><time>2026-03-22T15:24:04.096Z</time></trkpt><trkpt lat="45.7106115" lon="9.3668191"><ele>448.6</ele><time>2026-03-22T15:24:06.096Z</time></trkpt><trkpt lat="45.7105947" lon="9.3667166"><ele>447.8</ele><time>2026-03-22T15:24:07.096Z</time></trkpt><trkpt lat="45.7105709" lon="9.3666277"><ele>447.0</ele><time>2026-03-22T15:24:08.096Z</time></trkpt><trkpt lat="45.7105521" lon="9.3664594"><ele>447.0</ele><time>2026-03-22T15:24:10.096Z</time></trkpt><trkpt lat="45.7105494" lon="9.3662733"><ele>447.0</ele><time>2026-03-22T15:24:12.096Z</time></trkpt><trkpt lat="45.7105702" lon="9.3661384"><ele>447.0</ele><time>2026-03-22T15:24:14.096Z</time></trkpt><trkpt lat="45.7106017" lon="9.3660444"><ele>447.0</ele><time>2026-03-22T15:24:15.096Z</time></trkpt><trkpt lat="45.7106007" lon="9.3659524"><ele>447.0</ele><time>2026-03-22T15:24:16.096Z</time></trkpt><trkpt lat="45.7106125" lon="9.3658477"><ele>447.0</ele><time>2026-03-22T15:24:17.096Z</time></trkpt><trkpt lat="45.7106432" lon="9.3657509"><ele>447.0</ele><time>2026-03-22T15:24:18.096Z</time></trkpt><trkpt lat="45.710709" lon="9.3656267"><ele>447.00000000000006</ele><time>2026-03-22T15:24:20.096Z</time></trkpt><trkpt lat="45.710787" lon="9.3655519"><ele>447.00000000000006</ele><time>2026-03-22T15:24:22.096Z</time></trkpt><trkpt lat="45.7108471" lon="9.3654462"><ele>447.0</ele><time>2026-03-22T15:24:24.096Z</time></trkpt><trkpt lat="45.7108959" lon="9.3653476"><ele>447.0</ele><time>2026-03-22T15:24:26.096Z</time></trkpt><trkpt lat="45.7109256" lon="9.3652318"><ele>448.5</ele><time>2026-03-22T15:24:28.096Z</time></trkpt><trkpt lat="45.710997" lon="9.3651288"><ele>450.0</ele><time>2026-03-22T15:24:30.096Z</time></trkpt><trkpt lat="45.7110427" lon="9.3650591"><ele>451.5</ele><time>2026-03-22T15:24:31.096Z</time></trkpt><trkpt lat="45.7110919" lon="9.3649437"><ele>453.0</ele><time>2026-03-22T15:24:33.095Z</time></trkpt><trkpt lat="45.7111381" lon="9.3648279"><ele>454.5</ele><time>2026-03-22T15:24:35.096Z</time></trkpt><trkpt lat="45.7111781" lon="9.3647207"><ele>456.0</ele><time>2026-03-22T15:24:37.096Z</time></trkpt><trkpt lat="45.7112568" lon="9.364653"><ele>456.20000000000005</ele><time>2026-03-22T15:24:39.096Z</time></trkpt><trkpt lat="45.7113368" lon="9.3646372"><ele>456.40000000000003</ele><time>2026-03-22T15:24:41.096Z</time></trkpt><trkpt lat="45.7114429" lon="9.364606"><ele>456.6</ele><time>2026-03-22T15:24:43.095Z</time></trkpt><trkpt lat="45.7115288" lon="9.3645245"><ele>456.8</ele><time>2026-03-22T15:24:45.096Z</time></trkpt><trkpt lat="45.7115955" lon="9.3644428"><ele>457.0</ele><time>2026-03-22T15:24:47.096Z</time></trkpt><trkpt lat="45.7116557" lon="9.3643588"><ele>457.00000000000006</ele><time>2026-03-22T15:24:49.096Z</time></trkpt><trkpt lat="45.7117268" lon="9.3642913"><ele>457.0</ele><time>2026-03-22T15:24:51.096Z</time></trkpt><trkpt lat="45.7117803" lon="9.3642397"><ele>457.0</ele><time>2026-03-22T15:24:53.096Z</time></trkpt><trkpt lat="45.7118547" lon="9.3641977"><ele>457.0</ele><time>2026-03-22T15:24:56.096Z</time></trkpt><trkpt lat="45.7119251" lon="9.3641171"><ele>457.00000000000006</ele><time>2026-03-22T15:24:59.096Z</time></trkpt><trkpt lat="45.7119804" lon="9.3640719"><ele>457.0</ele><time>2026-03-22T15:25:01.096Z</time></trkpt><trkpt lat="45.7120503" lon="9.3639904"><ele>457.33333333333337</ele><time>2026-03-22T15:25:03.096Z</time></trkpt><trkpt lat="45.7121122" lon="9.3639554"><ele>457.6666666666667</ele><time>2026-03-22T15:25:05.096Z</time></trkpt><trkpt lat="45.7121736" lon="9.363905"><ele>458.0</ele><time>2026-03-22T15:25:07.096Z</time></trkpt><trkpt lat="45.712231" lon="9.3638488"><ele>458.33333333333337</ele><time>2026-03-22T15:25:09.096Z</time></trkpt><trkpt lat="45.7122845" lon="9.3637371"><ele>458.6666666666667</ele><time>2026-03-22T15:25:11.096Z</time></trkpt><trkpt lat="45.7123415" lon="9.3636527"><ele>459.0</ele><time>2026-03-22T15:25:12.096Z</time></trkpt><trkpt lat="45.7123595" lon="9.3635491"><ele>459.0</ele><time>2026-03-22T15:25:14.096Z</time></trkpt><trkpt lat="45.7124148" lon="9.363482"><ele>459.0</ele><time>2026-03-22T15:25:16.096Z</time></trkpt><trkpt lat="45.7125207" lon="9.3634523"><ele>459.0</ele><time>2026-03-22T15:25:20.096Z</time></trkpt><trkpt lat="45.7125838" lon="9.3634067"><ele>459.0</ele><time>2026-03-22T15:25:22.096Z</time></trkpt><trkpt lat="45.712645" lon="9.363299"><ele>459.0</ele><time>2026-03-22T15:25:25.096Z</time></trkpt><trkpt lat="45.7127076" lon="9.3632355"><ele>459.0</ele><time>2026-03-22T15:25:27.095Z</time></trkpt><trkpt lat="45.7128185" lon="9.3631934"><ele>456.79999999999995</ele><time>2026-03-22T15:25:31.096Z</time></trkpt><trkpt lat="45.7128804" lon="9.3631425"><ele>454.59999999999997</ele><time>2026-03-22T15:25:33.096Z</time></trkpt><trkpt lat="45.7129733" lon="9.3631029"><ele>452.4</ele><time>2026-03-22T15:25:35.096Z</time></trkpt><trkpt lat="45.7130508" lon="9.363093"><ele>450.2</ele><time>2026-03-22T15:25:37.095Z</time></trkpt><trkpt lat="45.7131443" lon="9.363065"><ele>448.0</ele><time>2026-03-22T15:25:39.096Z</time></trkpt><trkpt lat="45.7132536" lon="9.3629784"><ele>449.4</ele><time>2026-03-22T15:25:41.096Z</time></trkpt><trkpt lat="45.7133461" lon="9.3629371"><ele>450.79999999999995</ele><time>2026-03-22T15:25:43.096Z</time></trkpt><trkpt lat="45.7134267" lon="9.3629224"><ele>452.2</ele><time>2026-03-22T15:25:44.096Z</time></trkpt><trkpt lat="45.7135278" lon="9.3628693"><ele>453.6</ele><time>2026-03-22T15:25:46.096Z</time></trkpt><trkpt lat="45.7135958" lon="9.3628027"><ele>455.0</ele><time>2026-03-22T15:25:48.096Z</time></trkpt><trkpt lat="45.7137079" lon="9.362779"><ele>455.0</ele><time>2026-03-22T15:25:51.096Z</time></trkpt><trkpt lat="45.7138013" lon="9.3627391"><ele>455.0</ele><time>2026-03-22T15:25:53.096Z</time></trkpt><trkpt lat="45.7138844" lon="9.3627108"><ele>455.0</ele><time>2026-03-22T15:25:55.096Z</time></trkpt><trkpt lat="45.7139895" lon="9.3626383"><ele>455.0</ele><time>2026-03-22T15:25:57.096Z</time></trkpt><trkpt lat="45.7140769" lon="9.3625671"><ele>455.0</ele><time>2026-03-22T15:25:59.096Z</time></trkpt><trkpt lat="45.714143" lon="9.3625096"><ele>455.0</ele><time>2026-03-22T15:26:00.096Z</time></trkpt><trkpt lat="45.7142361" lon="9.3624406"><ele>455.0</ele><time>2026-03-22T15:26:02.096Z</time></trkpt><trkpt lat="45.7143245" lon="9.3623564"><ele>455.0</ele><time>2026-03-22T15:26:04.096Z</time></trkpt><trkpt lat="45.7143525" lon="9.3622726"><ele>455.0</ele><time>2026-03-22T15:26:06.096Z</time></trkpt><trkpt lat="45.7144214" lon="9.3621862"><ele>455.0</ele><time>2026-03-22T15:26:08.095Z</time></trkpt><trkpt lat="45.7145087" lon="9.3621005"><ele>452.2</ele><time>2026-03-22T15:26:10.096Z</time></trkpt><trkpt lat="45.7145938" lon="9.3620116"><ele>449.4</ele><time>2026-03-22T15:26:12.096Z</time></trkpt><trkpt lat="45.7146637" lon="9.3618946"><ele>446.6</ele><time>2026-03-22T15:26:14.096Z</time></trkpt><trkpt lat="45.7146357" lon="9.3617409"><ele>443.8</ele><time>2026-03-22T15:26:16.096Z</time></trkpt><trkpt lat="45.7146425" lon="9.3616102"><ele>441.0</ele><time>2026-03-22T15:26:17.096Z</time></trkpt><trkpt lat="45.7146335" lon="9.3614966"><ele>441.0</ele><time>2026-03-22T15:26:18.096Z</time></trkpt><trkpt lat="45.714661" lon="9.361403"><ele>441.0</ele><time>2026-03-22T15:26:19.096Z</time></trkpt><trkpt lat="45.7146793" lon="9.3612108"><ele>441.0</ele><time>2026-03-22T15:26:21.096Z</time></trkpt><trkpt lat="45.7146666" lon="9.3611193"><ele>441.0</ele><time>2026-03-22T15:26:22.096Z</time></trkpt><trkpt lat="45.7146822" lon="9.3610215"><ele>441.0</ele><time>2026-03-22T15:26:23.096Z</time></trkpt><trkpt lat="45.7146913" lon="9.3608643"><ele>440.6</ele><time>2026-03-22T15:26:25.096Z</time></trkpt><trkpt lat="45.7147035" lon="9.3607028"><ele>440.20000000000005</ele><time>2026-03-22T15:26:27.096Z</time></trkpt><trkpt lat="45.7147247" lon="9.3605801"><ele>439.79999999999995</ele><time>2026-03-22T15:26:29.095Z</time></trkpt><trkpt lat="45.7147485" lon="9.3604572"><ele>439.4</ele><time>2026-03-22T15:26:31.096Z</time></trkpt><trkpt lat="45.714751" lon="9.3603156"><ele>439.0</ele><time>2026-03-22T15:26:33.096Z</time></trkpt><trkpt lat="45.7147314" lon="9.3601856"><ele>438.4</ele><time>2026-03-22T15:26:35.095Z</time></trkpt><trkpt lat="45.7147191" lon="9.3600406"><ele>437.79999999999995</ele><time>2026-03-22T15:26:37.096Z</time></trkpt><trkpt lat="45.7147248" lon="9.3598919"><ele>437.20000000000005</ele><time>2026-03-22T15:26:39.096Z</time></trkpt><trkpt lat="45.7146994" lon="9.3597627"><ele>436.6</ele><time>2026-03-22T15:26:41.096Z</time></trkpt><trkpt lat="45.714676" lon="9.3596273"><ele>436.0</ele><time>2026-03-22T15:26:43.095Z</time></trkpt><trkpt lat="45.7146782" lon="9.3595149"><ele>435.83333333333337</ele><time>2026-03-22T15:26:46.096Z</time></trkpt><trkpt lat="45.7147056" lon="9.3593963"><ele>435.6666666666667</ele><time>2026-03-22T15:26:48.096Z</time></trkpt><trkpt lat="45.7147558" lon="9.359299"><ele>435.5</ele><time>2026-03-22T15:26:51.096Z</time></trkpt><trkpt lat="45.7148146" lon="9.3592381"><ele>435.33333333333337</ele><time>2026-03-22T15:26:53.096Z</time></trkpt><trkpt lat="45.7148647" lon="9.3591669"><ele>435.1666666666667</ele><time>2026-03-22T15:26:55.096Z</time></trkpt><trkpt lat="45.7149194" lon="9.3590755"><ele>435.0</ele><time>2026-03-22T15:26:58.096Z</time></trkpt><trkpt lat="45.7149632" lon="9.3589921"><ele>435.0</ele><time>2026-03-22T15:27:00.096Z</time></trkpt><trkpt lat="45.7150096" lon="9.3588783"><ele>435.0</ele><time>2026-03-22T15:27:02.096Z</time></trkpt><trkpt lat="45.7149708" lon="9.3587611"><ele>435.0</ele><time>2026-03-22T15:27:04.096Z</time></trkpt><trkpt lat="45.7149477" lon="9.3586039"><ele>435.0</ele><time>2026-03-22T15:27:06.096Z</time></trkpt><trkpt lat="45.7149929" lon="9.3584764"><ele>435.0</ele><time>2026-03-22T15:27:08.096Z</time></trkpt><trkpt lat="45.7150158" lon="9.3583304"><ele>435.3333333333333</ele><time>2026-03-22T15:27:10.096Z</time></trkpt><trkpt lat="45.7150009" lon="9.3581945"><ele>435.66666666666663</ele><time>2026-03-22T15:27:12.096Z</time></trkpt><trkpt lat="45.7150322" lon="9.3581137"><ele>436.0</ele><time>2026-03-22T15:27:14.096Z</time></trkpt><trkpt lat="45.7151157" lon="9.358097"><ele>436.3333333333333</ele><time>2026-03-22T15:27:18.096Z</time></trkpt><trkpt lat="45.7151998" lon="9.3580924"><ele>436.66666666666663</ele><time>2026-03-22T15:27:21.096Z</time></trkpt><trkpt lat="45.7152751" lon="9.3580752"><ele>437.0</ele><time>2026-03-22T15:27:23.096Z</time></trkpt><trkpt lat="45.7153808" lon="9.3580151"><ele>435.6</ele><time>2026-03-22T15:27:25.096Z</time></trkpt><trkpt lat="45.7154639" lon="9.3579881"><ele>434.20000000000005</ele><time>2026-03-22T15:27:27.096Z</time></trkpt><trkpt lat="45.715544" lon="9.357935"><ele>432.8</ele><time>2026-03-22T15:27:29.095Z</time></trkpt><trkpt lat="45.7156438" lon="9.3578582"><ele>431.4</ele><time>2026-03-22T15:27:31.096Z</time></trkpt><trkpt lat="45.7157118" lon="9.3577604"><ele>430.0</ele><time>2026-03-22T15:27:33.096Z</time></trkpt><trkpt lat="45.7157857" lon="9.3577037"><ele>430.0</ele><time>2026-03-22T15:27:35.096Z</time></trkpt><trkpt lat="45.7158531" lon="9.3576517"><ele>430.0</ele><time>2026-03-22T15:27:37.096Z</time></trkpt><trkpt lat="45.7159292" lon="9.3576073"><ele>430.0</ele><time>2026-03-22T15:27:39.096Z</time></trkpt><trkpt lat="45.7160312" lon="9.3575465"><ele>430.0</ele><time>2026-03-22T15:27:41.096Z</time></trkpt><trkpt lat="45.716143" lon="9.3574557"><ele>430.0</ele><time>2026-03-22T15:27:43.095Z</time></trkpt><trkpt lat="45.716205" lon="9.3574322"><ele>431.6</ele><time>2026-03-22T15:27:44.096Z</time></trkpt><trkpt lat="45.7162616" lon="9.3573893"><ele>433.2</ele><time>2026-03-22T15:27:45.096Z</time></trkpt><trkpt lat="45.716349" lon="9.3573058"><ele>434.79999999999995</ele><time>2026-03-22T15:27:47.096Z</time></trkpt><trkpt lat="45.7164459" lon="9.3572214"><ele>436.4</ele><time>2026-03-22T15:27:49.096Z</time></trkpt><trkpt lat="45.7165678" lon="9.3571737"><ele>438.0</ele><time>2026-03-22T15:27:51.096Z</time></trkpt><trkpt lat="45.716653" lon="9.3572122"><ele>433.8333333333333</ele><time>2026-03-22T15:27:55.096Z</time></trkpt><trkpt lat="45.7167156" lon="9.3572708"><ele>429.66666666666663</ele><time>2026-03-22T15:27:59.096Z</time></trkpt><trkpt lat="45.7168176" lon="9.3573079"><ele>425.5</ele><time>2026-03-22T15:28:02.096Z</time></trkpt><trkpt lat="45.7169001" lon="9.3573266"><ele>421.3333333333333</ele><time>2026-03-22T15:28:04.096Z</time></trkpt><trkpt lat="45.7170087" lon="9.3573186"><ele>417.16666666666663</ele><time>2026-03-22T15:28:07.096Z</time></trkpt><trkpt lat="45.717073" lon="9.3572963"><ele>413.0</ele><time>2026-03-22T15:28:09.096Z</time></trkpt><trkpt lat="45.7171395" lon="9.3572673"><ele>411.79999999999995</ele><time>2026-03-22T15:28:11.096Z</time></trkpt><trkpt lat="45.7172634" lon="9.3572547"><ele>410.6</ele><time>2026-03-22T15:28:14.095Z</time></trkpt><trkpt lat="45.7173455" lon="9.3572308"><ele>409.4</ele><time>2026-03-22T15:28:16.096Z</time></trkpt><trkpt lat="45.717429" lon="9.3572161"><ele>408.20000000000005</ele><time>2026-03-22T15:28:18.096Z</time></trkpt><trkpt lat="45.7175208" lon="9.357187"><ele>407.0</ele><time>2026-03-22T15:28:20.096Z</time></trkpt><trkpt lat="45.7176111" lon="9.3571585"><ele>409.0</ele><time>2026-03-22T15:28:22.096Z</time></trkpt><trkpt lat="45.7177834" lon="9.3571432"><ele>411.0</ele><time>2026-03-22T15:28:28.096Z</time></trkpt><trkpt lat="45.7178446" lon="9.3571002"><ele>413.0</ele><time>2026-03-22T15:28:30.096Z</time></trkpt><trkpt lat="45.7179046" lon="9.3570527"><ele>415.0</ele><time>2026-03-22T15:28:32.096Z</time></trkpt><trkpt lat="45.7179597" lon="9.3569906"><ele>417.0</ele><time>2026-03-22T15:28:34.096Z</time></trkpt><trkpt lat="45.7180276" lon="9.3568977"><ele>417.0</ele><time>2026-03-22T15:28:37.096Z</time></trkpt><trkpt lat="45.7180993" lon="9.3568515"><ele>417.0</ele><time>2026-03-22T15:28:39.096Z</time></trkpt><trkpt lat="45.7181596" lon="9.3568057"><ele>417.0</ele><time>2026-03-22T15:28:41.096Z</time></trkpt><trkpt lat="45.7182271" lon="9.3567611"><ele>417.0</ele><time>2026-03-22T15:28:43.096Z</time></trkpt><trkpt lat="45.7183076" lon="9.3566842"><ele>417.0</ele><time>2026-03-22T15:28:46.096Z</time></trkpt><trkpt lat="45.7183686" lon="9.3565989"><ele>417.0</ele><time>2026-03-22T15:28:48.096Z</time></trkpt><trkpt lat="45.7184264" lon="9.3565363"><ele>417.0</ele><time>2026-03-22T15:28:50.096Z</time></trkpt><trkpt lat="45.7184942" lon="9.356487"><ele>417.0</ele><time>2026-03-22T15:28:52.096Z</time></trkpt><trkpt lat="45.7186215" lon="9.3564449"><ele>417.0</ele><time>2026-03-22T15:28:54.096Z</time></trkpt><trkpt lat="45.7187085" lon="9.3563592"><ele>417.0</ele><time>2026-03-22T15:28:56.095Z</time></trkpt><trkpt lat="45.7187793" lon="9.3562925"><ele>417.0</ele><time>2026-03-22T15:28:58.096Z</time></trkpt><trkpt lat="45.7188634" lon="9.3562249"><ele>418.14285714285717</ele><time>2026-03-22T15:29:01.095Z</time></trkpt><trkpt lat="45.7189306" lon="9.3562077"><ele>419.2857142857143</ele><time>2026-03-22T15:29:04.096Z</time></trkpt><trkpt lat="45.7190076" lon="9.3561976"><ele>420.42857142857144</ele><time>2026-03-22T15:29:07.095Z</time></trkpt><trkpt lat="45.7190369" lon="9.3561123"><ele>421.57142857142856</ele><time>2026-03-22T15:29:10.096Z</time></trkpt><trkpt lat="45.7190922" lon="9.3560685"><ele>422.71428571428567</ele><time>2026-03-22T15:29:12.096Z</time></trkpt><trkpt lat="45.7191463" lon="9.3560167"><ele>423.85714285714283</ele><time>2026-03-22T15:29:16.096Z</time></trkpt><trkpt lat="45.719205" lon="9.3559251"><ele>425.0</ele><time>2026-03-22T15:29:19.096Z</time></trkpt><trkpt lat="45.7192537" lon="9.3558444"><ele>424.99999999999994</ele><time>2026-03-22T15:29:23.096Z</time></trkpt><trkpt lat="45.7193021" lon="9.3557539"><ele>425.0</ele><time>2026-03-22T15:29:26.096Z</time></trkpt><trkpt lat="45.7193396" lon="9.3556776"><ele>425.0</ele><time>2026-03-22T15:29:28.096Z</time></trkpt><trkpt lat="45.7194051" lon="9.3555846"><ele>425.0</ele><time>2026-03-22T15:29:31.096Z</time></trkpt><trkpt lat="45.7194411" lon="9.3554812"><ele>424.99999999999994</ele><time>2026-03-22T15:29:34.096Z</time></trkpt><trkpt lat="45.7194864" lon="9.3554015"><ele>425.0</ele><time>2026-03-22T15:29:37.096Z</time></trkpt><trkpt lat="45.7195178" lon="9.3552818"><ele>424.85714285714283</ele><time>2026-03-22T15:29:41.096Z</time></trkpt><trkpt lat="45.7195568" lon="9.3551971"><ele>424.71428571428567</ele><time>2026-03-22T15:29:44.096Z</time></trkpt><trkpt lat="45.7195876" lon="9.3551066"><ele>424.57142857142856</ele><time>2026-03-22T15:29:46.096Z</time></trkpt><trkpt lat="45.7196574" lon="9.355044"><ele>424.42857142857144</ele><time>2026-03-22T15:29:49.096Z</time></trkpt><trkpt lat="45.719727" lon="9.3549869"><ele>424.2857142857143</ele><time>2026-03-22T15:29:52.096Z</time></trkpt><trkpt lat="45.7197734" lon="9.3549221"><ele>424.14285714285717</ele><time>2026-03-22T15:29:55.096Z</time></trkpt><trkpt lat="45.7198029" lon="9.3548218"><ele>424.0</ele><time>2026-03-22T15:29:59.096Z</time></trkpt><trkpt lat="45.7198667" lon="9.3547707"><ele>424.00000000000006</ele><time>2026-03-22T15:30:02.096Z</time></trkpt><trkpt lat="45.7199481" lon="9.3547294"><ele>424.0</ele><time>2026-03-22T15:30:05.096Z</time></trkpt><trkpt lat="45.720021" lon="9.354682"><ele>424.0</ele><time>2026-03-22T15:30:08.096Z</time></trkpt><trkpt lat="45.720077" lon="9.3546223"><ele>424.0</ele><time>2026-03-22T15:30:10.096Z</time></trkpt><trkpt lat="45.7201315" lon="9.3545298"><ele>424.00000000000006</ele><time>2026-03-22T15:30:13.096Z</time></trkpt><trkpt lat="45.7201853" lon="9.3544684"><ele>424.0</ele><time>2026-03-22T15:30:16.096Z</time></trkpt><trkpt lat="45.7202498" lon="9.3544326"><ele>425.75</ele><time>2026-03-22T15:30:19.096Z</time></trkpt><trkpt lat="45.7204246" lon="9.3544217"><ele>427.5</ele><time>2026-03-22T15:30:27.096Z</time></trkpt><trkpt lat="45.7206197" lon="9.3544224"><ele>429.25</ele><time>2026-03-22T15:30:37.096Z</time></trkpt><trkpt lat="45.7206643" lon="9.3543315"><ele>431.0</ele><time>2026-03-22T15:30:42.096Z</time></trkpt><trkpt lat="45.7206603" lon="9.3542394"><ele>431.0</ele><time>2026-03-22T15:30:47.096Z</time></trkpt><trkpt lat="45.7207049" lon="9.3541647"><ele>431.0</ele><time>2026-03-22T15:30:50.096Z</time></trkpt><trkpt lat="45.7207584" lon="9.3541078"><ele>431.0</ele><time>2026-03-22T15:30:56.096Z</time></trkpt><trkpt lat="45.7208227" lon="9.3540942"><ele>431.0</ele><time>2026-03-22T15:31:03.096Z</time></trkpt><trkpt lat="45.7208693" lon="9.3540259"><ele>431.0</ele><time>2026-03-22T15:31:09.037Z</time></trkpt><trkpt lat="45.7208872" lon="9.3539267"><ele>431.0</ele><time>2026-03-22T15:31:19.096Z</time></trkpt><trkpt lat="45.7209254" lon="9.3538387"><ele>431.0</ele><time>2026-03-22T15:31:23.096Z</time></trkpt><trkpt lat="45.7210666" lon="9.3537405"><ele>430.0</ele><time>2026-03-22T15:31:27.095Z</time></trkpt><trkpt lat="45.7211327" lon="9.3536728"><ele>429.0</ele><time>2026-03-22T15:31:30.096Z</time></trkpt><trkpt lat="45.7211915" lon="9.3535874"><ele>428.0</ele><time>2026-03-22T15:31:33.096Z</time></trkpt><trkpt lat="45.721242" lon="9.3534408"><ele>427.0</ele><time>2026-03-22T15:31:36.096Z</time></trkpt><trkpt lat="45.7212689" lon="9.3533295"><ele>426.0</ele><time>2026-03-22T15:31:38.096Z</time></trkpt><trkpt lat="45.7213399" lon="9.3531884"><ele>426.0</ele><time>2026-03-22T15:31:40.095Z</time></trkpt><trkpt lat="45.7214397" lon="9.3531037"><ele>426.0</ele><time>2026-03-22T15:31:42.095Z</time></trkpt><trkpt lat="45.721513" lon="9.3530226"><ele>426.0</ele><time>2026-03-22T15:31:44.095Z</time></trkpt><trkpt lat="45.7215784" lon="9.3529697"><ele>426.0</ele><time>2026-03-22T15:31:46.095Z</time></trkpt><trkpt lat="45.7216435" lon="9.3528938"><ele>426.0</ele><time>2026-03-22T15:31:49.096Z</time></trkpt><trkpt lat="45.7217013" lon="9.3528375"><ele>426.0</ele><time>2026-03-22T15:31:52.096Z</time></trkpt><trkpt lat="45.7217338" lon="9.3527602"><ele>426.1666666666667</ele><time>2026-03-22T15:31:55.096Z</time></trkpt><trkpt lat="45.7217837" lon="9.3526851"><ele>426.33333333333337</ele><time>2026-03-22T15:31:58.096Z</time></trkpt><trkpt lat="45.7218281" lon="9.3525958"><ele>426.5</ele><time>2026-03-22T15:32:01.096Z</time></trkpt><trkpt lat="45.7218727" lon="9.3525016"><ele>426.6666666666667</ele><time>2026-03-22T15:32:05.096Z</time></trkpt><trkpt lat="45.7219219" lon="9.3524121"><ele>426.83333333333337</ele><time>2026-03-22T15:32:09.096Z</time></trkpt><trkpt lat="45.72201" lon="9.3523521"><ele>427.0</ele><time>2026-03-22T15:32:12.096Z</time></trkpt><trkpt lat="45.7220857" lon="9.3522918"><ele>427.0</ele><time>2026-03-22T15:32:14.096Z</time></trkpt><trkpt lat="45.7221565" lon="9.3522782"><ele>427.0</ele><time>2026-03-22T15:32:16.096Z</time></trkpt><trkpt lat="45.7222228" lon="9.3522636"><ele>427.0</ele><time>2026-03-22T15:32:18.096Z</time></trkpt><trkpt lat="45.7222931" lon="9.3522241"><ele>427.0</ele><time>2026-03-22T15:32:20.095Z</time></trkpt><trkpt lat="45.7223553" lon="9.3521872"><ele>427.0</ele><time>2026-03-22T15:32:22.096Z</time></trkpt><trkpt lat="45.7222708" lon="9.3522341"><ele>427.0</ele><time>2026-03-22T15:32:25.096Z</time></trkpt><trkpt lat="45.7223341" lon="9.3522278"><ele>427.0</ele><time>2026-03-22T15:32:54.096Z</time></trkpt><trkpt lat="45.722396" lon="9.3522097"><ele>427.6666666666667</ele><time>2026-03-22T15:33:15.095Z</time></trkpt><trkpt lat="45.7224773" lon="9.3521268"><ele>428.33333333333337</ele><time>2026-03-22T15:33:18.096Z</time></trkpt><trkpt lat="45.7224469" lon="9.3520405"><ele>429.0</ele><time>2026-03-22T15:34:30.096Z</time></trkpt><trkpt lat="45.7224171" lon="9.3521291"><ele>429.66666666666663</ele><time>2026-03-22T15:36:03.096Z</time></trkpt><trkpt lat="45.7224898" lon="9.3521252"><ele>430.3333333333333</ele><time>2026-03-22T15:36:16.096Z</time></trkpt><trkpt lat="45.722534" lon="9.3520445"><ele>431.0</ele><time>2026-03-22T15:36:20.096Z</time></trkpt><trkpt lat="45.7225665" lon="9.3519491"><ele>430.99999999999994</ele><time>2026-03-22T15:36:22.096Z</time></trkpt><trkpt lat="45.7226293" lon="9.351893"><ele>431.0</ele><time>2026-03-22T15:36:25.096Z</time></trkpt><trkpt lat="45.7226949" lon="9.3518442"><ele>431.0</ele><time>2026-03-22T15:36:28.096Z</time></trkpt><trkpt lat="45.722745" lon="9.3517702"><ele>431.0</ele><time>2026-03-22T15:36:31.096Z</time></trkpt><trkpt lat="45.7228171" lon="9.3517118"><ele>430.99999999999994</ele><time>2026-03-22T15:36:34.096Z</time></trkpt><trkpt lat="45.7228817" lon="9.3516567"><ele>431.0</ele><time>2026-03-22T15:36:37.096Z</time></trkpt><trkpt lat="45.722966" lon="9.3516159"><ele>431.3333333333333</ele><time>2026-03-22T15:36:40.096Z</time></trkpt><trkpt lat="45.7230215" lon="9.3515497"><ele>431.66666666666663</ele><time>2026-03-22T15:36:42.095Z</time></trkpt><trkpt lat="45.7230796" lon="9.3515137"><ele>432.0</ele><time>2026-03-22T15:36:44.096Z</time></trkpt><trkpt lat="45.7231285" lon="9.351437"><ele>432.33333333333337</ele><time>2026-03-22T15:36:46.096Z</time></trkpt><trkpt lat="45.7232105" lon="9.3513774"><ele>432.6666666666667</ele><time>2026-03-22T15:36:48.096Z</time></trkpt><trkpt lat="45.7233386" lon="9.3513584"><ele>433.0</ele><time>2026-03-22T15:36:50.096Z</time></trkpt><trkpt lat="45.7234369" lon="9.3513204"><ele>433.0</ele><time>2026-03-22T15:36:52.095Z</time></trkpt><trkpt lat="45.7235462" lon="9.3512867"><ele>432.99999999999994</ele><time>2026-03-22T15:36:54.096Z</time></trkpt><trkpt lat="45.7236328" lon="9.3513046"><ele>432.99999999999994</ele><time>2026-03-22T15:36:56.096Z</time></trkpt><trkpt lat="45.7237296" lon="9.3512683"><ele>433.0</ele><time>2026-03-22T15:36:58.095Z</time></trkpt><trkpt lat="45.7238471" lon="9.3512369"><ele>433.0</ele><time>2026-03-22T15:37:00.096Z</time></trkpt><trkpt lat="45.7239353" lon="9.351256"><ele>432.50000000000006</ele><time>2026-03-22T15:37:02.096Z</time></trkpt><trkpt lat="45.7239988" lon="9.3512804"><ele>432.0</ele><time>2026-03-22T15:37:03.096Z</time></trkpt><trkpt lat="45.7241179" lon="9.3512843"><ele>431.5</ele><time>2026-03-22T15:37:05.096Z</time></trkpt><trkpt lat="45.7242231" lon="9.3513021"><ele>431.0</ele><time>2026-03-22T15:37:07.096Z</time></trkpt><trkpt lat="45.7242975" lon="9.3513113"><ele>430.50000000000006</ele><time>2026-03-22T15:37:08.096Z</time></trkpt><trkpt lat="45.7243635" lon="9.3513096"><ele>430.0</ele><time>2026-03-22T15:37:09.096Z</time></trkpt><trkpt lat="45.7244294" lon="9.351303"><ele>430.00000000000006</ele><time>2026-03-22T15:37:10.096Z</time></trkpt><trkpt lat="45.7244985" lon="9.3513177"><ele>430.0</ele><time>2026-03-22T15:37:11.096Z</time></trkpt><trkpt lat="45.7245623" lon="9.3513215"><ele>430.0</ele><time>2026-03-22T15:37:12.096Z</time></trkpt><trkpt lat="45.7246394" lon="9.3513207"><ele>430.0</ele><time>2026-03-22T15:37:13.096Z</time></trkpt><trkpt lat="45.724783" lon="9.3513026"><ele>430.00000000000006</ele><time>2026-03-22T15:37:15.096Z</time></trkpt><trkpt lat="45.7248655" lon="9.3513272"><ele>430.0</ele><time>2026-03-22T15:37:16.096Z</time></trkpt><trkpt lat="45.72498" lon="9.3514182"><ele>430.33333333333337</ele><time>2026-03-22T15:37:18.096Z</time></trkpt><trkpt lat="45.7250475" lon="9.3514488"><ele>430.6666666666667</ele><time>2026-03-22T15:37:19.096Z</time></trkpt><trkpt lat="45.7251184" lon="9.351496"><ele>431.0</ele><time>2026-03-22T15:37:20.096Z</time></trkpt><trkpt lat="45.725201" lon="9.3515172"><ele>431.33333333333337</ele><time>2026-03-22T15:37:21.095Z</time></trkpt><trkpt lat="45.7252662" lon="9.3515481"><ele>431.6666666666667</ele><time>2026-03-22T15:37:22.096Z</time></trkpt><trkpt lat="45.7253584" lon="9.351582"><ele>432.0</ele><time>2026-03-22T15:37:23.096Z</time></trkpt><trkpt lat="45.7254358" lon="9.3515787"><ele>432.0</ele><time>2026-03-22T15:37:24.096Z</time></trkpt><trkpt lat="45.7255269" lon="9.3516125"><ele>432.00000000000006</ele><time>2026-03-22T15:37:25.096Z</time></trkpt><trkpt lat="45.7255944" lon="9.351629"><ele>432.00000000000006</ele><time>2026-03-22T15:37:26.096Z</time></trkpt><trkpt lat="45.7257284" lon="9.3516462"><ele>432.0</ele><time>2026-03-22T15:37:28.096Z</time></trkpt><trkpt lat="45.7258319" lon="9.3516281"><ele>432.0</ele><time>2026-03-22T15:37:30.096Z</time></trkpt><trkpt lat="45.7259304" lon="9.3516566"><ele>432.0</ele><time>2026-03-22T15:37:32.095Z</time></trkpt><trkpt lat="45.7260257" lon="9.3515986"><ele>432.0</ele><time>2026-03-22T15:37:36.096Z</time></trkpt><trkpt lat="45.7260915" lon="9.3515477"><ele>432.0</ele><time>2026-03-22T15:37:38.096Z</time></trkpt><trkpt lat="45.7261671" lon="9.3514807"><ele>432.0</ele><time>2026-03-22T15:37:41.096Z</time></trkpt><trkpt lat="45.7262372" lon="9.3514393"><ele>432.0</ele><time>2026-03-22T15:37:43.096Z</time></trkpt><trkpt lat="45.7262928" lon="9.3513721"><ele>432.0</ele><time>2026-03-22T15:37:46.096Z</time></trkpt><trkpt lat="45.7263469" lon="9.351312"><ele>431.6666666666667</ele><time>2026-03-22T15:37:49.095Z</time></trkpt><trkpt lat="45.7264245" lon="9.3512825"><ele>431.33333333333337</ele><time>2026-03-22T15:37:52.096Z</time></trkpt><trkpt lat="45.7264945" lon="9.3512469"><ele>431.0</ele><time>2026-03-22T15:37:55.096Z</time></trkpt><trkpt lat="45.7266075" lon="9.3512449"><ele>430.6666666666667</ele><time>2026-03-22T15:38:00.096Z</time></trkpt><trkpt lat="45.7266769" lon="9.3512221"><ele>430.33333333333337</ele><time>2026-03-22T15:38:03.096Z</time></trkpt><trkpt lat="45.7267437" lon="9.3512179"><ele>430.0</ele><time>2026-03-22T15:38:06.096Z</time></trkpt><trkpt lat="45.7268159" lon="9.3511959"><ele>430.6666666666667</ele><time>2026-03-22T15:38:10.096Z</time></trkpt><trkpt lat="45.7269027" lon="9.3511769"><ele>431.33333333333337</ele><time>2026-03-22T15:38:13.095Z</time></trkpt><trkpt lat="45.7269875" lon="9.3511658"><ele>432.0</ele><time>2026-03-22T15:38:16.096Z</time></trkpt><trkpt lat="45.7270775" lon="9.3511656"><ele>432.66666666666663</ele><time>2026-03-22T15:38:19.095Z</time></trkpt><trkpt lat="45.7271485" lon="9.3511674"><ele>433.3333333333333</ele><time>2026-03-22T15:38:21.096Z</time></trkpt><trkpt lat="45.7272123" lon="9.351168"><ele>434.0</ele><time>2026-03-22T15:38:23.096Z</time></trkpt><trkpt lat="45.7272811" lon="9.3511706"><ele>433.99999999999994</ele><time>2026-03-22T15:38:25.096Z</time></trkpt><trkpt lat="45.7273494" lon="9.3511637"><ele>434.0</ele><time>2026-03-22T15:38:27.096Z</time></trkpt><trkpt lat="45.7274217" lon="9.3511494"><ele>434.0</ele><time>2026-03-22T15:38:29.096Z</time></trkpt><trkpt lat="45.7275088" lon="9.351133"><ele>434.0</ele><time>2026-03-22T15:38:31.096Z</time></trkpt><trkpt lat="45.7276061" lon="9.3511203"><ele>433.99999999999994</ele><time>2026-03-22T15:38:33.096Z</time></trkpt><trkpt lat="45.7276721" lon="9.351111"><ele>434.0</ele><time>2026-03-22T15:38:35.096Z</time></trkpt><trkpt lat="45.7277371" lon="9.3510971"><ele>434.85714285714283</ele><time>2026-03-22T15:38:37.095Z</time></trkpt><trkpt lat="45.7278106" lon="9.3510814"><ele>435.7142857142857</ele><time>2026-03-22T15:38:39.095Z</time></trkpt><trkpt lat="45.7278814" lon="9.351063"><ele>436.57142857142856</ele><time>2026-03-22T15:38:41.096Z</time></trkpt><trkpt lat="45.7279487" lon="9.3510427"><ele>437.42857142857144</ele><time>2026-03-22T15:38:43.096Z</time></trkpt><trkpt lat="45.7280118" lon="9.3510163"><ele>438.2857142857143</ele><time>2026-03-22T15:38:45.095Z</time></trkpt><trkpt lat="45.7280994" lon="9.3509769"><ele>439.1428571428571</ele><time>2026-03-22T15:38:48.096Z</time></trkpt><trkpt lat="45.7281672" lon="9.3509581"><ele>440.0</ele><time>2026-03-22T15:38:50.096Z</time></trkpt><trkpt lat="45.7282433" lon="9.3509369"><ele>439.99999999999994</ele><time>2026-03-22T15:38:52.096Z</time></trkpt><trkpt lat="45.7283093" lon="9.3509214"><ele>440.0</ele><time>2026-03-22T15:38:54.096Z</time></trkpt><trkpt lat="45.7283751" lon="9.3509073"><ele>440.0</ele><time>2026-03-22T15:38:56.096Z</time></trkpt><trkpt lat="45.7284483" lon="9.3508664"><ele>440.0</ele><time>2026-03-22T15:38:59.096Z</time></trkpt><trkpt lat="45.7285082" lon="9.3508293"><ele>440.0</ele><time>2026-03-22T15:39:02.095Z</time></trkpt><trkpt lat="45.7285797" lon="9.3507998"><ele>439.99999999999994</ele><time>2026-03-22T15:39:08.095Z</time></trkpt><trkpt lat="45.7286477" lon="9.3507948"><ele>440.0</ele><time>2026-03-22T15:39:11.096Z</time></trkpt><trkpt lat="45.7287239" lon="9.3507824"><ele>441.57142857142856</ele><time>2026-03-22T15:39:15.096Z</time></trkpt><trkpt lat="45.728799" lon="9.3507767"><ele>443.1428571428571</ele><time>2026-03-22T15:39:19.096Z</time></trkpt><trkpt lat="45.7288777" lon="9.3507669"><ele>444.71428571428567</ele><time>2026-03-22T15:39:23.096Z</time></trkpt><trkpt lat="45.7289506" lon="9.3507698"><ele>446.2857142857143</ele><time>2026-03-22T15:39:27.096Z</time></trkpt><trkpt lat="45.7290213" lon="9.3507571"><ele>447.8571428571429</ele><time>2026-03-22T15:39:31.096Z</time></trkpt><trkpt lat="45.7290872" lon="9.3507491"><ele>449.4285714285714</ele><time>2026-03-22T15:39:35.096Z</time></trkpt><trkpt lat="45.7291558" lon="9.350721"><ele>451.0</ele><time>2026-03-22T15:39:40.096Z</time></trkpt><trkpt lat="45.7292377" lon="9.3507015"><ele>451.0</ele><time>2026-03-22T15:39:43.096Z</time></trkpt><trkpt lat="45.7293117" lon="9.3506941"><ele>451.0</ele><time>2026-03-22T15:39:46.096Z</time></trkpt><trkpt lat="45.7293904" lon="9.3506583"><ele>451.0</ele><time>2026-03-22T15:39:50.096Z</time></trkpt><trkpt lat="45.7294558" lon="9.3506384"><ele>451.0</ele><time>2026-03-22T15:39:53.096Z</time></trkpt><trkpt lat="45.729526" lon="9.3506128"><ele>451.0</ele><time>2026-03-22T15:39:56.096Z</time></trkpt><trkpt lat="45.7295956" lon="9.3505828"><ele>451.0</ele><time>2026-03-22T15:39:59.096Z</time></trkpt><trkpt lat="45.7296736" lon="9.350557"><ele>451.0</ele><time>2026-03-22T15:40:02.096Z</time></trkpt><trkpt lat="45.7297535" lon="9.3505388"><ele>454.6666666666667</ele><time>2026-03-22T15:40:05.096Z</time></trkpt><trkpt lat="45.7298318" lon="9.3505166"><ele>458.33333333333337</ele><time>2026-03-22T15:40:08.096Z</time></trkpt><trkpt lat="45.729906" lon="9.3504985"><ele>462.0</ele><time>2026-03-22T15:40:11.096Z</time></trkpt><trkpt lat="45.7299682" lon="9.3504778"><ele>465.66666666666663</ele><time>2026-03-22T15:40:14.096Z</time></trkpt><trkpt lat="45.7300332" lon="9.3504527"><ele>469.3333333333333</ele><time>2026-03-22T15:40:17.096Z</time></trkpt><trkpt lat="45.7301" lon="9.3504364"><ele>473.0</ele><time>2026-03-22T15:40:20.096Z</time></trkpt><trkpt lat="45.7302381" lon="9.3503942"><ele>475.8571428571429</ele><time>2026-03-22T15:40:27.096Z</time></trkpt><trkpt lat="45.730301" lon="9.3503699"><ele>478.71428571428567</ele><time>2026-03-22T15:40:30.096Z</time></trkpt><trkpt lat="45.7303679" lon="9.3503538"><ele>481.57142857142856</ele><time>2026-03-22T15:40:33.096Z</time></trkpt><trkpt lat="45.7304395" lon="9.3503512"><ele>484.42857142857144</ele><time>2026-03-22T15:40:36.096Z</time></trkpt><trkpt lat="45.7305227" lon="9.3503556"><ele>487.28571428571433</ele><time>2026-03-22T15:40:39.096Z</time></trkpt><trkpt lat="45.7306051" lon="9.3503833"><ele>490.1428571428571</ele><time>2026-03-22T15:40:43.095Z</time></trkpt><trkpt lat="45.7306791" lon="9.350374"><ele>493.0</ele><time>2026-03-22T15:40:46.096Z</time></trkpt><trkpt lat="45.7307526" lon="9.3503583"><ele>493.00000000000006</ele><time>2026-03-22T15:40:49.096Z</time></trkpt><trkpt lat="45.7308058" lon="9.3504117"><ele>493.0</ele><time>2026-03-22T15:40:51.095Z</time></trkpt><trkpt lat="45.7308735" lon="9.3504637"><ele>493.0</ele><time>2026-03-22T15:40:54.096Z</time></trkpt><trkpt lat="45.7309329" lon="9.3505139"><ele>493.0</ele><time>2026-03-22T15:40:57.096Z</time></trkpt><trkpt lat="45.7309846" lon="9.3505903"><ele>493.00000000000006</ele><time>2026-03-22T15:41:00.096Z</time></trkpt><trkpt lat="45.7310389" lon="9.3506755"><ele>493.0</ele><time>2026-03-22T15:41:03.095Z</time></trkpt><trkpt lat="45.7310872" lon="9.3507751"><ele>492.33333333333337</ele><time>2026-03-22T15:41:06.096Z</time></trkpt><trkpt lat="45.7311052" lon="9.3508948"><ele>491.6666666666667</ele><time>2026-03-22T15:41:09.095Z</time></trkpt><trkpt lat="45.7310951" lon="9.3510276"><ele>491.0</ele><time>2026-03-22T15:41:12.096Z</time></trkpt><trkpt lat="45.7310771" lon="9.3511575"><ele>490.33333333333337</ele><time>2026-03-22T15:41:15.095Z</time></trkpt><trkpt lat="45.7310752" lon="9.3512667"><ele>489.6666666666667</ele><time>2026-03-22T15:41:18.096Z</time></trkpt><trkpt lat="45.7310609" lon="9.3513692"><ele>489.0</ele><time>2026-03-22T15:41:20.096Z</time></trkpt><trkpt lat="45.7310516" lon="9.3514995"><ele>485.5</ele><time>2026-03-22T15:41:22.096Z</time></trkpt><trkpt lat="45.73105" lon="9.3516208"><ele>482.0</ele><time>2026-03-22T15:41:24.096Z</time></trkpt><trkpt lat="45.7310376" lon="9.3517576"><ele>478.5</ele><time>2026-03-22T15:41:26.095Z</time></trkpt><trkpt lat="45.7310065" lon="9.3518809"><ele>475.0</ele><time>2026-03-22T15:41:28.096Z</time></trkpt><trkpt lat="45.7309745" lon="9.3519945"><ele>471.5</ele><time>2026-03-22T15:41:30.096Z</time></trkpt><trkpt lat="45.7309588" lon="9.3520977"><ele>468.0</ele><time>2026-03-22T15:41:32.096Z</time></trkpt><trkpt lat="45.7309286" lon="9.3521886"><ele>467.42857142857144</ele><time>2026-03-22T15:41:34.096Z</time></trkpt><trkpt lat="45.7309105" lon="9.3522824"><ele>466.8571428571429</ele><time>2026-03-22T15:41:36.096Z</time></trkpt><trkpt lat="45.7308779" lon="9.3523661"><ele>466.28571428571433</ele><time>2026-03-22T15:41:38.096Z</time></trkpt><trkpt lat="45.7308473" lon="9.3524605"><ele>465.7142857142858</ele><time>2026-03-22T15:41:40.096Z</time></trkpt><trkpt lat="45.7308357" lon="9.35257"><ele>465.14285714285717</ele><time>2026-03-22T15:41:42.096Z</time></trkpt><trkpt lat="45.730835" lon="9.3526748"><ele>464.57142857142867</ele><time>2026-03-22T15:41:44.096Z</time></trkpt><trkpt lat="45.7307979" lon="9.3527677"><ele>464.00000000000006</ele><time>2026-03-22T15:41:46.096Z</time></trkpt><trkpt lat="45.7307457" lon="9.3528542"><ele>464.0</ele><time>2026-03-22T15:41:48.095Z</time></trkpt><trkpt lat="45.7306888" lon="9.3530036"><ele>464.0</ele><time>2026-03-22T15:41:50.096Z</time></trkpt><trkpt lat="45.7305889" lon="9.3532375"><ele>464.0</ele><time>2026-03-22T15:41:51.095Z</time></trkpt><trkpt lat="45.7305661" lon="9.3533384"><ele>464.0</ele><time>2026-03-22T15:41:52.096Z</time></trkpt><trkpt lat="45.7305544" lon="9.3534392"><ele>463.3333333333333</ele><time>2026-03-22T15:41:53.096Z</time></trkpt><trkpt lat="45.7304844" lon="9.3535609"><ele>462.66666666666663</ele><time>2026-03-22T15:41:55.096Z</time></trkpt><trkpt lat="45.7304398" lon="9.3536357"><ele>462.0</ele><time>2026-03-22T15:41:57.096Z</time></trkpt><trkpt lat="45.7304634" lon="9.3537447"><ele>461.33333333333337</ele><time>2026-03-22T15:42:00.096Z</time></trkpt><trkpt lat="45.7305342" lon="9.3537367"><ele>460.6666666666667</ele><time>2026-03-22T15:42:02.096Z</time></trkpt><trkpt lat="45.7305997" lon="9.353723"><ele>460.0</ele><time>2026-03-22T15:42:04.096Z</time></trkpt><trkpt lat="45.7306836" lon="9.3536934"><ele>459.99999999999994</ele><time>2026-03-22T15:42:07.096Z</time></trkpt><trkpt lat="45.7307504" lon="9.353623"><ele>460.0</ele><time>2026-03-22T15:42:10.096Z</time></trkpt><trkpt lat="45.7308026" lon="9.35357"><ele>459.99999999999994</ele><time>2026-03-22T15:42:13.095Z</time></trkpt><trkpt lat="45.7308821" lon="9.3535034"><ele>459.99999999999994</ele><time>2026-03-22T15:42:16.096Z</time></trkpt><trkpt lat="45.7309422" lon="9.3534612"><ele>460.0</ele><time>2026-03-22T15:42:18.096Z</time></trkpt><trkpt lat="45.7309986" lon="9.3534171"><ele>459.99999999999994</ele><time>2026-03-22T15:42:20.096Z</time></trkpt><trkpt lat="45.7310547" lon="9.3533761"><ele>459.99999999999994</ele><time>2026-03-22T15:42:22.096Z</time></trkpt><trkpt lat="45.7311303" lon="9.3533201"><ele>459.00000000000006</ele><time>2026-03-22T15:42:24.096Z</time></trkpt><trkpt lat="45.7312168" lon="9.3532657"><ele>458.0</ele><time>2026-03-22T15:42:26.096Z</time></trkpt><trkpt lat="45.7312873" lon="9.3531947"><ele>457.0</ele><time>2026-03-22T15:42:28.095Z</time></trkpt><trkpt lat="45.731348" lon="9.3530891"><ele>456.0</ele><time>2026-03-22T15:42:30.096Z</time></trkpt><trkpt lat="45.7314053" lon="9.3530067"><ele>455.00000000000006</ele><time>2026-03-22T15:42:32.096Z</time></trkpt><trkpt lat="45.7314343" lon="9.3529242"><ele>454.0</ele><time>2026-03-22T15:42:34.096Z</time></trkpt><trkpt lat="45.7314894" lon="9.3528598"><ele>454.00000000000006</ele><time>2026-03-22T15:42:36.096Z</time></trkpt><trkpt lat="45.7315502" lon="9.3527919"><ele>454.0</ele><time>2026-03-22T15:42:38.096Z</time></trkpt><trkpt lat="45.7316198" lon="9.3527461"><ele>454.0</ele><time>2026-03-22T15:42:40.096Z</time></trkpt><trkpt lat="45.7316847" lon="9.352717"><ele>454.0</ele><time>2026-03-22T15:42:42.096Z</time></trkpt><trkpt lat="45.7317591" lon="9.3527414"><ele>454.00000000000006</ele><time>2026-03-22T15:42:44.096Z</time></trkpt><trkpt lat="45.7318329" lon="9.3528219"><ele>454.0</ele><time>2026-03-22T15:42:46.096Z</time></trkpt><trkpt lat="45.7318921" lon="9.3529355"><ele>453.6666666666667</ele><time>2026-03-22T15:42:48.096Z</time></trkpt><trkpt lat="45.7319387" lon="9.3530548"><ele>453.33333333333337</ele><time>2026-03-22T15:42:50.096Z</time></trkpt><trkpt lat="45.7319898" lon="9.353167"><ele>453.0</ele><time>2026-03-22T15:42:52.096Z</time></trkpt><trkpt lat="45.7320078" lon="9.3532824"><ele>452.66666666666663</ele><time>2026-03-22T15:42:54.096Z</time></trkpt><trkpt lat="45.7320446" lon="9.3533687"><ele>452.3333333333333</ele><time>2026-03-22T15:42:55.096Z</time></trkpt><trkpt lat="45.7320893" lon="9.3535082"><ele>452.0</ele><time>2026-03-22T15:42:57.096Z</time></trkpt><trkpt lat="45.7321383" lon="9.3536531"><ele>452.0</ele><time>2026-03-22T15:42:59.096Z</time></trkpt><trkpt lat="45.7321712" lon="9.3538202"><ele>452.00000000000006</ele><time>2026-03-22T15:43:01.096Z</time></trkpt><trkpt lat="45.7321804" lon="9.3539627"><ele>452.00000000000006</ele><time>2026-03-22T15:43:03.096Z</time></trkpt><trkpt lat="45.7322177" lon="9.3541076"><ele>452.0</ele><time>2026-03-22T15:43:05.096Z</time></trkpt><trkpt lat="45.7322774" lon="9.3542102"><ele>452.0</ele><time>2026-03-22T15:43:07.096Z</time></trkpt><trkpt lat="45.7323084" lon="9.3543009"><ele>450.49999999999994</ele><time>2026-03-22T15:43:09.096Z</time></trkpt><trkpt lat="45.7322629" lon="9.3544012"><ele>449.0</ele><time>2026-03-22T15:43:12.096Z</time></trkpt><trkpt lat="45.7321775" lon="9.3544598"><ele>447.5</ele><time>2026-03-22T15:43:14.096Z</time></trkpt><trkpt lat="45.7320941" lon="9.3545408"><ele>446.0</ele><time>2026-03-22T15:43:16.096Z</time></trkpt><trkpt lat="45.7320446" lon="9.354614"><ele>444.49999999999994</ele><time>2026-03-22T15:43:17.096Z</time></trkpt><trkpt lat="45.7320087" lon="9.3547011"><ele>443.0</ele><time>2026-03-22T15:43:18.096Z</time></trkpt><trkpt lat="45.7319734" lon="9.3547852"><ele>442.25</ele><time>2026-03-22T15:43:19.096Z</time></trkpt><trkpt lat="45.7319042" lon="9.3549312"><ele>441.5</ele><time>2026-03-22T15:43:21.095Z</time></trkpt><trkpt lat="45.7318214" lon="9.3549987"><ele>440.75</ele><time>2026-03-22T15:43:23.096Z</time></trkpt><trkpt lat="45.7317156" lon="9.3549557"><ele>440.0</ele><time>2026-03-22T15:43:25.096Z</time></trkpt><trkpt lat="45.7315914" lon="9.3548997"><ele>439.0</ele><time>2026-03-22T15:43:27.096Z</time></trkpt><trkpt lat="45.7314805" lon="9.3548397"><ele>438.0</ele><time>2026-03-22T15:43:29.096Z</time></trkpt><trkpt lat="45.7314199" lon="9.354792"><ele>437.0</ele><time>2026-03-22T15:43:30.096Z</time></trkpt><trkpt lat="45.7312911" lon="9.3547522"><ele>436.0</ele><time>2026-03-22T15:43:32.096Z</time></trkpt><trkpt lat="45.7311736" lon="9.3547541"><ele>435.0</ele><time>2026-03-22T15:43:34.096Z</time></trkpt><trkpt lat="45.7310786" lon="9.3548015"><ele>435.6666666666667</ele><time>2026-03-22T15:43:36.096Z</time></trkpt><trkpt lat="45.7310132" lon="9.3548643"><ele>436.33333333333337</ele><time>2026-03-22T15:43:37.095Z</time></trkpt><trkpt lat="45.7309405" lon="9.3549368"><ele>437.0</ele><time>2026-03-22T15:43:38.096Z</time></trkpt><trkpt lat="45.7309003" lon="9.3550178"><ele>437.6666666666667</ele><time>2026-03-22T15:43:39.096Z</time></trkpt><trkpt lat="45.7308484" lon="9.3551061"><ele>438.33333333333337</ele><time>2026-03-22T15:43:40.095Z</time></trkpt><trkpt lat="45.7307625" lon="9.3552289"><ele>439.0</ele><time>2026-03-22T15:43:42.096Z</time></trkpt><trkpt lat="45.730714" lon="9.3552866"><ele>439.00000000000006</ele><time>2026-03-22T15:43:43.095Z</time></trkpt><trkpt lat="45.7306651" lon="9.355346"><ele>439.0</ele><time>2026-03-22T15:43:44.096Z</time></trkpt><trkpt lat="45.7306188" lon="9.3554134"><ele>439.0</ele><time>2026-03-22T15:43:45.096Z</time></trkpt><trkpt lat="45.7305568" lon="9.3555188"><ele>439.0</ele><time>2026-03-22T15:43:47.096Z</time></trkpt><trkpt lat="45.7305132" lon="9.3555848"><ele>439.00000000000006</ele><time>2026-03-22T15:43:48.095Z</time></trkpt><trkpt lat="45.7304461" lon="9.3557205"><ele>439.0</ele><time>2026-03-22T15:43:50.096Z</time></trkpt><trkpt lat="45.7303765" lon="9.3558357"><ele>440.2</ele><time>2026-03-22T15:43:52.096Z</time></trkpt><trkpt lat="45.7303067" lon="9.3559255"><ele>441.4</ele><time>2026-03-22T15:43:54.096Z</time></trkpt><trkpt lat="45.7302425" lon="9.3559712"><ele>442.6</ele><time>2026-03-22T15:43:55.096Z</time></trkpt><trkpt lat="45.7301365" lon="9.3560443"><ele>443.8</ele><time>2026-03-22T15:43:57.095Z</time></trkpt><trkpt lat="45.7300792" lon="9.3560935"><ele>445.0</ele><time>2026-03-22T15:43:58.096Z</time></trkpt><trkpt lat="45.7299917" lon="9.3561761"><ele>445.0</ele><time>2026-03-22T15:44:00.096Z</time></trkpt><trkpt lat="45.7299198" lon="9.3562579"><ele>445.0</ele><time>2026-03-22T15:44:02.096Z</time></trkpt><trkpt lat="45.729827" lon="9.3563631"><ele>445.0</ele><time>2026-03-22T15:44:04.096Z</time></trkpt><trkpt lat="45.7297363" lon="9.3564513"><ele>445.0</ele><time>2026-03-22T15:44:06.096Z</time></trkpt><trkpt lat="45.7296851" lon="9.3565046"><ele>445.0</ele><time>2026-03-22T15:44:09.096Z</time></trkpt><trkpt lat="45.7295172" lon="9.3565137"><ele>444.33333333333337</ele><time>2026-03-22T15:44:13.096Z</time></trkpt><trkpt lat="45.7294483" lon="9.3565646"><ele>443.6666666666667</ele><time>2026-03-22T15:44:15.096Z</time></trkpt><trkpt lat="45.7293872" lon="9.3566421"><ele>443.0</ele><time>2026-03-22T15:44:17.096Z</time></trkpt><trkpt lat="45.7294959" lon="9.3564923"><ele>442.33333333333337</ele><time>2026-03-22T15:44:18.075Z</time></trkpt><trkpt lat="45.729452" lon="9.3565785"><ele>441.6666666666667</ele><time>2026-03-22T15:44:21.096Z</time></trkpt><trkpt lat="45.7294247" lon="9.3566608"><ele>441.0</ele><time>2026-03-22T15:44:24.096Z</time></trkpt><trkpt lat="45.729388" lon="9.3567735"><ele>439.0</ele><time>2026-03-22T15:44:27.096Z</time></trkpt><trkpt lat="45.7291992" lon="9.3572559"><ele>437.0</ele><time>2026-03-22T15:44:29.096Z</time></trkpt><trkpt lat="45.7291562" lon="9.3573517"><ele>436.99999999999994</ele><time>2026-03-22T15:44:31.096Z</time></trkpt><trkpt lat="45.7291113" lon="9.3574524"><ele>437.0</ele><time>2026-03-22T15:44:33.096Z</time></trkpt><trkpt lat="45.7290586" lon="9.3575662"><ele>437.0</ele><time>2026-03-22T15:44:35.095Z</time></trkpt><trkpt lat="45.7289827" lon="9.3577073"><ele>437.0</ele><time>2026-03-22T15:44:37.096Z</time></trkpt><trkpt lat="45.7289377" lon="9.3577769"><ele>436.99999999999994</ele><time>2026-03-22T15:44:38.095Z</time></trkpt><trkpt lat="45.7288906" lon="9.3578445"><ele>437.0</ele><time>2026-03-22T15:44:39.096Z</time></trkpt><trkpt lat="45.7288444" lon="9.3579062"><ele>437.0</ele><time>2026-03-22T15:44:40.096Z</time></trkpt><trkpt lat="45.7287663" lon="9.3580015"><ele>437.00000000000006</ele><time>2026-03-22T15:44:41.096Z</time></trkpt><trkpt lat="45.7287179" lon="9.3580592"><ele>437.00000000000006</ele><time>2026-03-22T15:44:42.096Z</time></trkpt><trkpt lat="45.7286092" lon="9.3581692"><ele>437.0</ele><time>2026-03-22T15:44:44.096Z</time></trkpt><trkpt lat="45.7285776" lon="9.3582517"><ele>437.0</ele><time>2026-03-22T15:44:45.096Z</time></trkpt><trkpt lat="45.7285042" lon="9.3583748"><ele>437.20000000000005</ele><time>2026-03-22T15:44:47.096Z</time></trkpt><trkpt lat="45.7284549" lon="9.3584984"><ele>437.40000000000003</ele><time>2026-03-22T15:44:49.095Z</time></trkpt><trkpt lat="45.728405" lon="9.3586444"><ele>437.59999999999997</ele><time>2026-03-22T15:44:51.096Z</time></trkpt><trkpt lat="45.7283997" lon="9.3587538"><ele>437.79999999999995</ele><time>2026-03-22T15:44:53.096Z</time></trkpt><trkpt lat="45.72843" lon="9.3588709"><ele>438.0</ele><time>2026-03-22T15:44:55.096Z</time></trkpt><trkpt lat="45.7284502" lon="9.3590106"><ele>438.4</ele><time>2026-03-22T15:44:57.096Z</time></trkpt><trkpt lat="45.7284785" lon="9.3591454"><ele>438.79999999999995</ele><time>2026-03-22T15:44:59.096Z</time></trkpt><trkpt lat="45.7285101" lon="9.3592819"><ele>439.2</ele><time>2026-03-22T15:45:01.095Z</time></trkpt><trkpt lat="45.7285437" lon="9.3594144"><ele>439.6</ele><time>2026-03-22T15:45:03.096Z</time></trkpt><trkpt lat="45.7285858" lon="9.3595268"><ele>440.0</ele><time>2026-03-22T15:45:05.096Z</time></trkpt><trkpt lat="45.7286253" lon="9.3596665"><ele>438.8</ele><time>2026-03-22T15:45:07.096Z</time></trkpt><trkpt lat="45.728663" lon="9.3598058"><ele>437.6</ele><time>2026-03-22T15:45:09.095Z</time></trkpt><trkpt lat="45.7286775" lon="9.3599366"><ele>436.4</ele><time>2026-03-22T15:45:11.096Z</time></trkpt><trkpt lat="45.7287026" lon="9.3600545"><ele>435.2</ele><time>2026-03-22T15:45:13.096Z</time></trkpt><trkpt lat="45.7287006" lon="9.3601566"><ele>434.0</ele><time>2026-03-22T15:45:15.096Z</time></trkpt><trkpt lat="45.7287586" lon="9.3602703"><ele>433.99999999999994</ele><time>2026-03-22T15:45:17.096Z</time></trkpt><trkpt lat="45.7287553" lon="9.3603937"><ele>434.0</ele><time>2026-03-22T15:45:19.096Z</time></trkpt><trkpt lat="45.7287272" lon="9.3605197"><ele>434.0</ele><time>2026-03-22T15:45:22.096Z</time></trkpt><trkpt lat="45.7287163" lon="9.3606213"><ele>434.0</ele><time>2026-03-22T15:45:24.096Z</time></trkpt><trkpt lat="45.7287054" lon="9.3607429"><ele>433.99999999999994</ele><time>2026-03-22T15:45:57.096Z</time></trkpt><trkpt lat="45.728663" lon="9.3608677"><ele>434.0</ele><time>2026-03-22T15:45:59.096Z</time></trkpt><trkpt lat="45.7286353" lon="9.3609714"><ele>436.2</ele><time>2026-03-22T15:46:01.096Z</time></trkpt><trkpt lat="45.7285826" lon="9.3610919"><ele>438.4</ele><time>2026-03-22T15:46:03.096Z</time></trkpt><trkpt lat="45.7285606" lon="9.3611942"><ele>440.6</ele><time>2026-03-22T15:46:05.096Z</time></trkpt><trkpt lat="45.7286128" lon="9.3613563"><ele>442.8</ele><time>2026-03-22T15:46:07.096Z</time></trkpt><trkpt lat="45.7286175" lon="9.3614466"><ele>445.0</ele><time>2026-03-22T15:46:08.096Z</time></trkpt><trkpt lat="45.728622" lon="9.3616387"><ele>445.0</ele><time>2026-03-22T15:46:10.096Z</time></trkpt><trkpt lat="45.7285957" lon="9.3617772"><ele>445.0</ele><time>2026-03-22T15:46:12.096Z</time></trkpt><trkpt lat="45.7285786" lon="9.3619218"><ele>445.0</ele><time>2026-03-22T15:46:14.096Z</time></trkpt><trkpt lat="45.7285703" lon="9.3620673"><ele>445.0</ele><time>2026-03-22T15:46:16.096Z</time></trkpt><trkpt lat="45.7286097" lon="9.3622275"><ele>445.0</ele><time>2026-03-22T15:46:18.096Z</time></trkpt><trkpt lat="45.7286293" lon="9.3623803"><ele>445.0</ele><time>2026-03-22T15:46:20.096Z</time></trkpt><trkpt lat="45.7286309" lon="9.3624837"><ele>445.0</ele><time>2026-03-22T15:46:21.096Z</time></trkpt><trkpt lat="45.7285761" lon="9.3626209"><ele>445.0</ele><time>2026-03-22T15:46:23.096Z</time></trkpt><trkpt lat="45.7285262" lon="9.3627696"><ele>445.0</ele><time>2026-03-22T15:46:25.096Z</time></trkpt><trkpt lat="45.7285023" lon="9.3629306"><ele>445.0</ele><time>2026-03-22T15:46:27.096Z</time></trkpt><trkpt lat="45.7284611" lon="9.3630805"><ele>436.2</ele><time>2026-03-22T15:46:29.096Z</time></trkpt><trkpt lat="45.7284293" lon="9.3632366"><ele>427.4</ele><time>2026-03-22T15:46:31.096Z</time></trkpt><trkpt lat="45.7283821" lon="9.3633738"><ele>418.6</ele><time>2026-03-22T15:46:33.095Z</time></trkpt><trkpt lat="45.7283558" lon="9.363528"><ele>409.8</ele><time>2026-03-22T15:46:35.096Z</time></trkpt><trkpt lat="45.7283595" lon="9.3636587"><ele>401.0</ele><time>2026-03-22T15:46:37.096Z</time></trkpt><trkpt lat="45.7283338" lon="9.3637443"><ele>400.99999999999994</ele><time>2026-03-22T15:46:38.096Z</time></trkpt><trkpt lat="45.7282522" lon="9.3638589"><ele>401.0</ele><time>2026-03-22T15:46:40.096Z</time></trkpt><trkpt lat="45.7282103" lon="9.3639284"><ele>401.0</ele><time>2026-03-22T15:46:41.095Z</time></trkpt><trkpt lat="45.7281638" lon="9.3640679"><ele>401.0</ele><time>2026-03-22T15:46:43.096Z</time></trkpt><trkpt lat="45.7281441" lon="9.3641602"><ele>400.99999999999994</ele><time>2026-03-22T15:46:44.096Z</time></trkpt><trkpt lat="45.7281316" lon="9.3642912"><ele>401.0</ele><time>2026-03-22T15:46:45.096Z</time></trkpt><trkpt lat="45.7281053" lon="9.3643806"><ele>400.66666666666663</ele><time>2026-03-22T15:46:46.096Z</time></trkpt><trkpt lat="45.7280808" lon="9.3644774"><ele>400.3333333333333</ele><time>2026-03-22T15:46:47.096Z</time></trkpt><trkpt lat="45.7280577" lon="9.3645696"><ele>400.0</ele><time>2026-03-22T15:46:48.096Z</time></trkpt><trkpt lat="45.7280258" lon="9.3646666"><ele>399.66666666666663</ele><time>2026-03-22T15:46:49.096Z</time></trkpt><trkpt lat="45.727971" lon="9.3647854"><ele>399.3333333333333</ele><time>2026-03-22T15:46:51.096Z</time></trkpt><trkpt lat="45.7279225" lon="9.3649282"><ele>399.0</ele><time>2026-03-22T15:46:53.096Z</time></trkpt><trkpt lat="45.7278623" lon="9.365071"><ele>399.79999999999995</ele><time>2026-03-22T15:46:55.096Z</time></trkpt><trkpt lat="45.7278002" lon="9.3651987"><ele>400.59999999999997</ele><time>2026-03-22T15:46:57.095Z</time></trkpt><trkpt lat="45.7277349" lon="9.365298"><ele>401.4</ele><time>2026-03-22T15:46:59.096Z</time></trkpt><trkpt lat="45.7276695" lon="9.3654181"><ele>402.2</ele><time>2026-03-22T15:47:01.096Z</time></trkpt><trkpt lat="45.7276257" lon="9.3655351"><ele>403.0</ele><time>2026-03-22T15:47:03.096Z</time></trkpt><trkpt lat="45.7276108" lon="9.3656489"><ele>398.4</ele><time>2026-03-22T15:47:05.096Z</time></trkpt><trkpt lat="45.7276025" lon="9.3657404"><ele>393.79999999999995</ele><time>2026-03-22T15:47:06.096Z</time></trkpt><trkpt lat="45.7275744" lon="9.3658836"><ele>389.2</ele><time>2026-03-22T15:47:08.096Z</time></trkpt><trkpt lat="45.7275402" lon="9.3660372"><ele>384.6</ele><time>2026-03-22T15:47:10.096Z</time></trkpt><trkpt lat="45.7275286" lon="9.3662242"><ele>380.0</ele><time>2026-03-22T15:47:12.096Z</time></trkpt><trkpt lat="45.7275148" lon="9.3663304"><ele>380.5</ele><time>2026-03-22T15:47:13.096Z</time></trkpt><trkpt lat="45.727524" lon="9.3664254"><ele>381.0</ele><time>2026-03-22T15:47:14.096Z</time></trkpt><trkpt lat="45.7275338" lon="9.3665158"><ele>381.5</ele><time>2026-03-22T15:47:15.096Z</time></trkpt><trkpt lat="45.7275626" lon="9.3666247"><ele>382.0</ele><time>2026-03-22T15:47:16.096Z</time></trkpt><trkpt lat="45.7275958" lon="9.3667455"><ele>382.5</ele><time>2026-03-22T15:47:17.096Z</time></trkpt><trkpt lat="45.727589" lon="9.3668471"><ele>383.0</ele><time>2026-03-22T15:47:18.096Z</time></trkpt><trkpt lat="45.727586" lon="9.3669578"><ele>383.0</ele><time>2026-03-22T15:47:19.096Z</time></trkpt><trkpt lat="45.72753" lon="9.367103"><ele>383.0</ele><time>2026-03-22T15:47:21.096Z</time></trkpt><trkpt lat="45.7274603" lon="9.3671903"><ele>383.0</ele><time>2026-03-22T15:47:24.096Z</time></trkpt><trkpt lat="45.7273978" lon="9.3672436"><ele>383.0</ele><time>2026-03-22T15:47:26.096Z</time></trkpt><trkpt lat="45.7273358" lon="9.3672753"><ele>383.0</ele><time>2026-03-22T15:47:28.095Z</time></trkpt><trkpt lat="45.7272412" lon="9.3673152"><ele>383.0</ele><time>2026-03-22T15:47:31.096Z</time></trkpt><trkpt lat="45.7271599" lon="9.3673587"><ele>381.4</ele><time>2026-03-22T15:47:33.096Z</time></trkpt><trkpt lat="45.7270788" lon="9.367436"><ele>379.79999999999995</ele><time>2026-03-22T15:47:35.095Z</time></trkpt><trkpt lat="45.7270021" lon="9.3675333"><ele>378.2</ele><time>2026-03-22T15:47:37.096Z</time></trkpt><trkpt lat="45.7269159" lon="9.3676599"><ele>376.6</ele><time>2026-03-22T15:47:39.095Z</time></trkpt><trkpt lat="45.7268327" lon="9.367783"><ele>375.0</ele><time>2026-03-22T15:47:41.096Z</time></trkpt><trkpt lat="45.7267534" lon="9.3678879"><ele>375.0</ele><time>2026-03-22T15:47:43.096Z</time></trkpt><trkpt lat="45.7266785" lon="9.3679845"><ele>375.0</ele><time>2026-03-22T15:47:45.096Z</time></trkpt><trkpt lat="45.7266054" lon="9.3680817"><ele>375.0</ele><time>2026-03-22T15:47:47.096Z</time></trkpt><trkpt lat="45.7265285" lon="9.3681639"><ele>375.0</ele><time>2026-03-22T15:47:49.096Z</time></trkpt><trkpt lat="45.7264663" lon="9.3682558"><ele>375.0</ele><time>2026-03-22T15:47:51.095Z</time></trkpt><trkpt lat="45.7263867" lon="9.3683357"><ele>378.2</ele><time>2026-03-22T15:47:53.096Z</time></trkpt><trkpt lat="45.7263433" lon="9.3684642"><ele>381.4</ele><time>2026-03-22T15:47:55.096Z</time></trkpt><trkpt lat="45.7263769" lon="9.3686383"><ele>384.6</ele><time>2026-03-22T15:47:57.096Z</time></trkpt><trkpt lat="45.7264155" lon="9.368769"><ele>387.8</ele><time>2026-03-22T15:47:59.096Z</time></trkpt><trkpt lat="45.726473" lon="9.3688878"><ele>391.0</ele><time>2026-03-22T15:48:01.096Z</time></trkpt><trkpt lat="45.7265262" lon="9.3689985"><ele>391.0</ele><time>2026-03-22T15:48:03.096Z</time></trkpt><trkpt lat="45.7265864" lon="9.3691081"><ele>391.0</ele><time>2026-03-22T15:48:05.096Z</time></trkpt><trkpt lat="45.7266182" lon="9.3692689"><ele>391.0</ele><time>2026-03-22T15:48:07.096Z</time></trkpt><trkpt lat="45.7266123" lon="9.3694146"><ele>391.0</ele><time>2026-03-22T15:48:09.095Z</time></trkpt><trkpt lat="45.7265867" lon="9.3695474"><ele>391.0</ele><time>2026-03-22T15:48:11.096Z</time></trkpt><trkpt lat="45.7265382" lon="9.3696821"><ele>391.8</ele><time>2026-03-22T15:48:13.096Z</time></trkpt><trkpt lat="45.7264781" lon="9.3697861"><ele>392.6</ele><time>2026-03-22T15:48:15.096Z</time></trkpt><trkpt lat="45.7263951" lon="9.3698845"><ele>393.4</ele><time>2026-03-22T15:48:17.096Z</time></trkpt><trkpt lat="45.7263434" lon="9.3699504"><ele>394.2</ele><time>2026-03-22T15:48:18.096Z</time></trkpt><trkpt lat="45.7263028" lon="9.3700708"><ele>395.0</ele><time>2026-03-22T15:48:20.096Z</time></trkpt><trkpt lat="45.7262938" lon="9.3702156"><ele>395.0</ele><time>2026-03-22T15:48:22.096Z</time></trkpt><trkpt lat="45.7262515" lon="9.3702879"><ele>395.0</ele><time>2026-03-22T15:48:23.096Z</time></trkpt><trkpt lat="45.7261693" lon="9.3704049"><ele>395.0</ele><time>2026-03-22T15:48:25.096Z</time></trkpt><trkpt lat="45.7260855" lon="9.3704901"><ele>395.0</ele><time>2026-03-22T15:48:27.095Z</time></trkpt><trkpt lat="45.7259892" lon="9.3704972"><ele>395.0</ele><time>2026-03-22T15:48:29.096Z</time></trkpt><trkpt lat="45.7258859" lon="9.3705075"><ele>394.2</ele><time>2026-03-22T15:48:31.096Z</time></trkpt><trkpt lat="45.7257918" lon="9.3705378"><ele>393.4</ele><time>2026-03-22T15:48:33.096Z</time></trkpt><trkpt lat="45.7256821" lon="9.3705531"><ele>392.6</ele><time>2026-03-22T15:48:35.096Z</time></trkpt><trkpt lat="45.7255935" lon="9.37057"><ele>391.8</ele><time>2026-03-22T15:48:37.095Z</time></trkpt><trkpt lat="45.7255095" lon="9.3706201"><ele>391.0</ele><time>2026-03-22T15:48:39.096Z</time></trkpt><trkpt lat="45.7254338" lon="9.370711"><ele>391.00000000000006</ele><time>2026-03-22T15:48:41.096Z</time></trkpt><trkpt lat="45.7253928" lon="9.3707877"><ele>391.0</ele><time>2026-03-22T15:48:42.095Z</time></trkpt><trkpt lat="45.7253761" lon="9.3708756"><ele>391.0</ele><time>2026-03-22T15:48:43.096Z</time></trkpt><trkpt lat="45.7253319" lon="9.3710051"><ele>391.0</ele><time>2026-03-22T15:48:45.096Z</time></trkpt><trkpt lat="45.7253224" lon="9.3711516"><ele>391.00000000000006</ele><time>2026-03-22T15:48:47.095Z</time></trkpt><trkpt lat="45.7253476" lon="9.3712789"><ele>391.0</ele><time>2026-03-22T15:48:49.096Z</time></trkpt><trkpt lat="45.7253727" lon="9.3714047"><ele>392.4</ele><time>2026-03-22T15:48:51.096Z</time></trkpt><trkpt lat="45.7253935" lon="9.371546"><ele>393.8</ele><time>2026-03-22T15:48:53.096Z</time></trkpt><trkpt lat="45.7254291" lon="9.3716908"><ele>395.2</ele><time>2026-03-22T15:48:55.096Z</time></trkpt><trkpt lat="45.7254718" lon="9.3718525"><ele>396.59999999999997</ele><time>2026-03-22T15:48:57.096Z</time></trkpt><trkpt lat="45.7254978" lon="9.3719903"><ele>398.0</ele><time>2026-03-22T15:48:59.096Z</time></trkpt><trkpt lat="45.7255058" lon="9.3721185"><ele>397.79999999999995</ele><time>2026-03-22T15:49:01.096Z</time></trkpt><trkpt lat="45.7254592" lon="9.3722418"><ele>397.6</ele><time>2026-03-22T15:49:03.096Z</time></trkpt><trkpt lat="45.7253952" lon="9.3723443"><ele>397.4</ele><time>2026-03-22T15:49:05.096Z</time></trkpt><trkpt lat="45.7253233" lon="9.3724315"><ele>397.20000000000005</ele><time>2026-03-22T15:49:07.096Z</time></trkpt><trkpt lat="45.7252516" lon="9.3725116"><ele>397.0</ele><time>2026-03-22T15:49:09.096Z</time></trkpt><trkpt lat="45.7251746" lon="9.3726053"><ele>395.20000000000005</ele><time>2026-03-22T15:49:11.096Z</time></trkpt><trkpt lat="45.7251063" lon="9.3727149"><ele>393.4</ele><time>2026-03-22T15:49:13.096Z</time></trkpt><trkpt lat="45.7250279" lon="9.372834"><ele>391.6</ele><time>2026-03-22T15:49:15.096Z</time></trkpt><trkpt lat="45.724945" lon="9.3729436"><ele>389.79999999999995</ele><time>2026-03-22T15:49:17.096Z</time></trkpt><trkpt lat="45.7248734" lon="9.3730224"><ele>388.0</ele><time>2026-03-22T15:49:19.096Z</time></trkpt><trkpt lat="45.7247755" lon="9.3730884"><ele>388.0</ele><time>2026-03-22T15:49:21.096Z</time></trkpt><trkpt lat="45.724712" lon="9.3731095"><ele>388.0</ele><time>2026-03-22T15:49:22.096Z</time></trkpt><trkpt lat="45.7246031" lon="9.3731334"><ele>388.0</ele><time>2026-03-22T15:49:24.096Z</time></trkpt><trkpt lat="45.7244887" lon="9.3731618"><ele>388.0</ele><time>2026-03-22T15:49:26.095Z</time></trkpt><trkpt lat="45.7243621" lon="9.3731577"><ele>388.0</ele><time>2026-03-22T15:49:28.096Z</time></trkpt><trkpt lat="45.7242551" lon="9.3730849"><ele>387.1428571428571</ele><time>2026-03-22T15:49:30.096Z</time></trkpt><trkpt lat="45.724199" lon="9.3730425"><ele>386.28571428571433</ele><time>2026-03-22T15:49:31.096Z</time></trkpt><trkpt lat="45.724142" lon="9.3729962"><ele>385.42857142857144</ele><time>2026-03-22T15:49:32.096Z</time></trkpt><trkpt lat="45.7240817" lon="9.372953"><ele>384.57142857142856</ele><time>2026-03-22T15:49:33.095Z</time></trkpt><trkpt lat="45.7240221" lon="9.3729099"><ele>383.71428571428567</ele><time>2026-03-22T15:49:34.096Z</time></trkpt><trkpt lat="45.7239563" lon="9.3728702"><ele>382.8571428571429</ele><time>2026-03-22T15:49:35.096Z</time></trkpt><trkpt lat="45.7238873" lon="9.3728383"><ele>382.0</ele><time>2026-03-22T15:49:36.096Z</time></trkpt><trkpt lat="45.7238179" lon="9.3728128"><ele>379.16666666666663</ele><time>2026-03-22T15:49:37.096Z</time></trkpt><trkpt lat="45.7237553" lon="9.3727936"><ele>376.3333333333333</ele><time>2026-03-22T15:49:38.095Z</time></trkpt><trkpt lat="45.7236862" lon="9.3727758"><ele>373.5</ele><time>2026-03-22T15:49:39.096Z</time></trkpt><trkpt lat="45.7236098" lon="9.3727643"><ele>370.6666666666667</ele><time>2026-03-22T15:49:40.096Z</time></trkpt><trkpt lat="45.723508" lon="9.3727759"><ele>367.83333333333337</ele><time>2026-03-22T15:49:42.096Z</time></trkpt><trkpt lat="45.7234534" lon="9.3728797"><ele>365.0</ele><time>2026-03-22T15:49:44.096Z</time></trkpt><trkpt lat="45.7234432" lon="9.3729882"><ele>364.8</ele><time>2026-03-22T15:49:46.096Z</time></trkpt><trkpt lat="45.723386" lon="9.3729239"><ele>364.6</ele><time>2026-03-22T15:49:51.096Z</time></trkpt><trkpt lat="45.7233528" lon="9.3727761"><ele>364.4</ele><time>2026-03-22T15:49:53.096Z</time></trkpt><trkpt lat="45.7233263" lon="9.3726545"><ele>364.2</ele><time>2026-03-22T15:49:55.096Z</time></trkpt><trkpt lat="45.7232634" lon="9.3724988"><ele>364.0</ele><time>2026-03-22T15:49:57.096Z</time></trkpt><trkpt lat="45.7232307" lon="9.3724123"><ele>364.0</ele><time>2026-03-22T15:49:58.096Z</time></trkpt><trkpt lat="45.7231909" lon="9.3723109"><ele>364.0</ele><time>2026-03-22T15:49:59.096Z</time></trkpt><trkpt lat="45.7231465" lon="9.3722304"><ele>364.0</ele><time>2026-03-22T15:50:00.096Z</time></trkpt><trkpt lat="45.7230932" lon="9.3721364"><ele>364.0</ele><time>2026-03-22T15:50:01.095Z</time></trkpt><trkpt lat="45.7230591" lon="9.3720597"><ele>364.0</ele><time>2026-03-22T15:50:02.096Z</time></trkpt><trkpt lat="45.7230173" lon="9.3719806"><ele>364.0</ele><time>2026-03-22T15:50:03.096Z</time></trkpt><trkpt lat="45.7229278" lon="9.3718544"><ele>361.25</ele><time>2026-03-22T15:50:05.095Z</time></trkpt><trkpt lat="45.7228388" lon="9.3717338"><ele>358.5</ele><time>2026-03-22T15:50:07.096Z</time></trkpt><trkpt lat="45.7227384" lon="9.3716547"><ele>355.75</ele><time>2026-03-22T15:50:09.096Z</time></trkpt><trkpt lat="45.7226264" lon="9.3715704"><ele>353.0</ele><time>2026-03-22T15:50:11.095Z</time></trkpt><trkpt lat="45.7225422" lon="9.3715314"><ele>352.5</ele><time>2026-03-22T15:50:13.096Z</time></trkpt><trkpt lat="45.7224297" lon="9.371504"><ele>352.0</ele><time>2026-03-22T15:50:15.096Z</time></trkpt><trkpt lat="45.7223674" lon="9.3715177"><ele>351.5</ele><time>2026-03-22T15:50:16.095Z</time></trkpt><trkpt lat="45.7222746" lon="9.3715844"><ele>351.0</ele><time>2026-03-22T15:50:18.096Z</time></trkpt><trkpt lat="45.7222094" lon="9.3716525"><ele>350.5</ele><time>2026-03-22T15:50:20.096Z</time></trkpt><trkpt lat="45.7221744" lon="9.371765"><ele>350.0</ele><time>2026-03-22T15:50:22.096Z</time></trkpt><trkpt lat="45.7221719" lon="9.3718593"><ele>350.0</ele><time>2026-03-22T15:50:23.096Z</time></trkpt><trkpt lat="45.7222014" lon="9.3720197"><ele>350.0</ele><time>2026-03-22T15:50:25.096Z</time></trkpt><trkpt lat="45.7222537" lon="9.3721801"><ele>350.0</ele><time>2026-03-22T15:50:27.096Z</time></trkpt><trkpt lat="45.7222821" lon="9.3722688"><ele>350.0</ele><time>2026-03-22T15:50:28.096Z</time></trkpt><trkpt lat="45.7223199" lon="9.3723507"><ele>350.0</ele><time>2026-03-22T15:50:29.096Z</time></trkpt><trkpt lat="45.7223519" lon="9.3724307"><ele>350.0</ele><time>2026-03-22T15:50:30.096Z</time></trkpt><trkpt lat="45.7224131" lon="9.3726041"><ele>349.33333333333337</ele><time>2026-03-22T15:50:32.096Z</time></trkpt><trkpt lat="45.7224827" lon="9.3727523"><ele>348.6666666666667</ele><time>2026-03-22T15:50:34.096Z</time></trkpt><trkpt lat="45.7225154" lon="9.3728401"><ele>348.0</ele><time>2026-03-22T15:50:35.096Z</time></trkpt><trkpt lat="45.7225506" lon="9.3729191"><ele>347.3333333333333</ele><time>2026-03-22T15:50:36.096Z</time></trkpt><trkpt lat="45.7225901" lon="9.373005"><ele>346.66666666666663</ele><time>2026-03-22T15:50:37.096Z</time></trkpt><trkpt lat="45.7226222" lon="9.3730851"><ele>346.0</ele><time>2026-03-22T15:50:38.096Z</time></trkpt><trkpt lat="45.7226471" lon="9.3731706"><ele>345.4285714285714</ele><time>2026-03-22T15:50:39.096Z</time></trkpt><trkpt lat="45.7226661" lon="9.3732618"><ele>344.8571428571429</ele><time>2026-03-22T15:50:40.096Z</time></trkpt><trkpt lat="45.7226781" lon="9.373369"><ele>344.2857142857143</ele><time>2026-03-22T15:50:41.096Z</time></trkpt><trkpt lat="45.72267" lon="9.3734648"><ele>343.71428571428567</ele><time>2026-03-22T15:50:42.096Z</time></trkpt><trkpt lat="45.722656" lon="9.3735623"><ele>343.1428571428571</ele><time>2026-03-22T15:50:43.096Z</time></trkpt><trkpt lat="45.7226301" lon="9.3736573"><ele>342.57142857142856</ele><time>2026-03-22T15:50:44.096Z</time></trkpt><trkpt lat="45.7225919" lon="9.3737327"><ele>342.0</ele><time>2026-03-22T15:50:45.096Z</time></trkpt><trkpt lat="45.7224978" lon="9.3738399"><ele>344.20000000000005</ele><time>2026-03-22T15:50:47.096Z</time></trkpt><trkpt lat="45.7224003" lon="9.3739031"><ele>346.4</ele><time>2026-03-22T15:50:49.096Z</time></trkpt><trkpt lat="45.722304" lon="9.3739555"><ele>348.6</ele><time>2026-03-22T15:50:51.096Z</time></trkpt><trkpt lat="45.7222129" lon="9.3739804"><ele>350.79999999999995</ele><time>2026-03-22T15:50:53.095Z</time></trkpt><trkpt lat="45.7221048" lon="9.3739995"><ele>353.0</ele><time>2026-03-22T15:50:55.096Z</time></trkpt><trkpt lat="45.7220243" lon="9.3740035"><ele>353.0</ele><time>2026-03-22T15:50:57.096Z</time></trkpt><trkpt lat="45.7219463" lon="9.3740076"><ele>353.0</ele><time>2026-03-22T15:50:59.096Z</time></trkpt><trkpt lat="45.7218818" lon="9.3740345"><ele>353.0</ele><time>2026-03-22T15:51:01.096Z</time></trkpt><trkpt lat="45.7218133" lon="9.3740855"><ele>353.0</ele><time>2026-03-22T15:51:03.096Z</time></trkpt><trkpt lat="45.721754" lon="9.3741466"><ele>353.0</ele><time>2026-03-22T15:51:05.096Z</time></trkpt><trkpt lat="45.7216853" lon="9.3742192"><ele>353.0</ele><time>2026-03-22T15:51:07.096Z</time></trkpt><trkpt lat="45.7216143" lon="9.3742859"><ele>352.33333333333337</ele><time>2026-03-22T15:51:09.095Z</time></trkpt><trkpt lat="45.721557" lon="9.374335"><ele>351.6666666666667</ele><time>2026-03-22T15:51:11.096Z</time></trkpt><trkpt lat="45.7214998" lon="9.374436"><ele>351.0</ele><time>2026-03-22T15:51:13.096Z</time></trkpt><trkpt lat="45.7214374" lon="9.3745188"><ele>350.3333333333333</ele><time>2026-03-22T15:51:15.096Z</time></trkpt><trkpt lat="45.7213733" lon="9.374568"><ele>349.66666666666663</ele><time>2026-03-22T15:51:17.096Z</time></trkpt><trkpt lat="45.7213028" lon="9.3746418"><ele>349.0</ele><time>2026-03-22T15:51:19.096Z</time></trkpt><trkpt lat="45.7212258" lon="9.374729"><ele>348.5</ele><time>2026-03-22T15:51:21.095Z</time></trkpt><trkpt lat="45.7211602" lon="9.3748146"><ele>348.0</ele><time>2026-03-22T15:51:23.096Z</time></trkpt><trkpt lat="45.7210918" lon="9.3748979"><ele>347.5</ele><time>2026-03-22T15:51:25.096Z</time></trkpt><trkpt lat="45.7210199" lon="9.3749536"><ele>347.0</ele><time>2026-03-22T15:51:26.096Z</time></trkpt><trkpt lat="45.7209414" lon="9.3749481"><ele>346.5</ele><time>2026-03-22T15:51:27.096Z</time></trkpt><trkpt lat="45.7208601" lon="9.3749316"><ele>346.0</ele><time>2026-03-22T15:51:28.096Z</time></trkpt><trkpt lat="45.7207551" lon="9.3748873"><ele>346.0</ele><time>2026-03-22T15:51:30.096Z</time></trkpt><trkpt lat="45.7206473" lon="9.3748637"><ele>346.0</ele><time>2026-03-22T15:51:32.096Z</time></trkpt><trkpt lat="45.7205338" lon="9.3748398"><ele>346.0</ele><time>2026-03-22T15:51:34.096Z</time></trkpt><trkpt lat="45.7204654" lon="9.3748413"><ele>346.0</ele><time>2026-03-22T15:51:35.096Z</time></trkpt><trkpt lat="45.7204021" lon="9.3748365"><ele>346.0</ele><time>2026-03-22T15:51:36.096Z</time></trkpt><trkpt lat="45.7202792" lon="9.3748208"><ele>344.8</ele><time>2026-03-22T15:51:38.096Z</time></trkpt><trkpt lat="45.7202081" lon="9.37483"><ele>343.6</ele><time>2026-03-22T15:51:39.096Z</time></trkpt><trkpt lat="45.7200619" lon="9.3748619"><ele>342.4</ele><time>2026-03-22T15:51:41.096Z</time></trkpt><trkpt lat="45.7199693" lon="9.3748666"><ele>341.2</ele><time>2026-03-22T15:51:42.096Z</time></trkpt><trkpt lat="45.7198671" lon="9.3748882"><ele>340.0</ele><time>2026-03-22T15:51:43.096Z</time></trkpt><trkpt lat="45.719791" lon="9.3749035"><ele>340.0</ele><time>2026-03-22T15:51:44.096Z</time></trkpt><trkpt lat="45.7197083" lon="9.3749237"><ele>340.0</ele><time>2026-03-22T15:51:45.096Z</time></trkpt><trkpt lat="45.7196151" lon="9.3749083"><ele>340.0</ele><time>2026-03-22T15:51:46.096Z</time></trkpt><trkpt lat="45.7195405" lon="9.374881"><ele>340.0</ele><time>2026-03-22T15:51:47.096Z</time></trkpt><trkpt lat="45.7194593" lon="9.3748379"><ele>340.0</ele><time>2026-03-22T15:51:48.096Z</time></trkpt><trkpt lat="45.7193912" lon="9.3747968"><ele>340.0</ele><time>2026-03-22T15:51:49.096Z</time></trkpt><trkpt lat="45.7193088" lon="9.3747548"><ele>339.0</ele><time>2026-03-22T15:51:50.096Z</time></trkpt><trkpt lat="45.7192267" lon="9.374716"><ele>338.0</ele><time>2026-03-22T15:51:51.096Z</time></trkpt><trkpt lat="45.7191487" lon="9.3746755"><ele>337.0</ele><time>2026-03-22T15:51:52.096Z</time></trkpt><trkpt lat="45.7190696" lon="9.3746331"><ele>336.0</ele><time>2026-03-22T15:51:53.096Z</time></trkpt><trkpt lat="45.719" lon="9.3745938"><ele>335.0</ele><time>2026-03-22T15:51:54.096Z</time></trkpt><trkpt lat="45.718921" lon="9.3745495"><ele>334.0</ele><time>2026-03-22T15:51:55.096Z</time></trkpt><trkpt lat="45.7188389" lon="9.374524"><ele>334.0</ele><time>2026-03-22T15:51:56.096Z</time></trkpt><trkpt lat="45.7187549" lon="9.3745102"><ele>334.0</ele><time>2026-03-22T15:51:57.095Z</time></trkpt><trkpt lat="45.7186893" lon="9.3744698"><ele>334.0</ele><time>2026-03-22T15:51:58.096Z</time></trkpt><trkpt lat="45.7186108" lon="9.3744615"><ele>334.0</ele><time>2026-03-22T15:51:59.096Z</time></trkpt><trkpt lat="45.7185474" lon="9.3744505"><ele>334.0</ele><time>2026-03-22T15:52:00.096Z</time></trkpt><trkpt lat="45.7184782" lon="9.3744473"><ele>334.0</ele><time>2026-03-22T15:52:01.096Z</time></trkpt><trkpt lat="45.7183777" lon="9.3744196"><ele>330.4</ele><time>2026-03-22T15:52:03.096Z</time></trkpt><trkpt lat="45.7183391" lon="9.374314"><ele>326.79999999999995</ele><time>2026-03-22T15:52:05.096Z</time></trkpt><trkpt lat="45.7183632" lon="9.3741869"><ele>323.20000000000005</ele><time>2026-03-22T15:52:07.096Z</time></trkpt><trkpt lat="45.7183673" lon="9.3740542"><ele>319.6</ele><time>2026-03-22T15:52:09.096Z</time></trkpt><trkpt lat="45.7182908" lon="9.3739264"><ele>316.0</ele><time>2026-03-22T15:52:11.096Z</time></trkpt><trkpt lat="45.7181723" lon="9.3738449"><ele>315.66666666666663</ele><time>2026-03-22T15:52:13.095Z</time></trkpt><trkpt lat="45.7181033" lon="9.37379"><ele>315.3333333333333</ele><time>2026-03-22T15:52:14.096Z</time></trkpt><trkpt lat="45.7180313" lon="9.3737447"><ele>315.0</ele><time>2026-03-22T15:52:15.096Z</time></trkpt><trkpt lat="45.7179552" lon="9.3737054"><ele>314.6666666666667</ele><time>2026-03-22T15:52:16.096Z</time></trkpt><trkpt lat="45.7178871" lon="9.3736751"><ele>314.33333333333337</ele><time>2026-03-22T15:52:17.096Z</time></trkpt><trkpt lat="45.7178098" lon="9.3736469"><ele>314.0</ele><time>2026-03-22T15:52:18.096Z</time></trkpt><trkpt lat="45.7177339" lon="9.3736196"><ele>311.8</ele><time>2026-03-22T15:52:19.096Z</time></trkpt><trkpt lat="45.7176519" lon="9.3735792"><ele>309.59999999999997</ele><time>2026-03-22T15:52:20.096Z</time></trkpt><trkpt lat="45.7175759" lon="9.3735359"><ele>307.4</ele><time>2026-03-22T15:52:21.096Z</time></trkpt><trkpt lat="45.717494" lon="9.373472"><ele>305.2</ele><time>2026-03-22T15:52:22.096Z</time></trkpt><trkpt lat="45.7174136" lon="9.3734067"><ele>303.0</ele><time>2026-03-22T15:52:23.096Z</time></trkpt><trkpt lat="45.7173208" lon="9.3733234"><ele>334.0</ele><time>2026-03-22T15:52:24.096Z</time></trkpt><trkpt lat="45.719" lon="9.3745938"><ele>334.0</ele><time>2026-03-22T15:51:54.096Z</time></trkpt><trkpt lat="45.718921" lon="9.3745495"><ele>334.0</ele><time>2026-03-22T15:51:55.096Z</time></trkpt><trkpt lat="45.7188389" lon="9.374524"><ele>334.0</ele><time>2026-03-22T15:51:56.096Z</time></trkpt><trkpt lat="45.7187549" lon="9.3745102"><ele>334.0</ele><time>2026-03-22T15:51:57.095Z</time></trkpt><trkpt lat="45.7186893" lon="9.3744698"><ele>334.0</ele><time>2026-03-22T15:51:58.096Z</time></trkpt><trkpt lat="45.7186108" lon="9.3744615"><ele>334.0</ele><time>2026-03-22T15:51:59.096Z</time></trkpt><trkpt lat="45.7185474" lon="9.3744505"><ele>331.0</ele><time>2026-03-22T15:52:00.096Z</time></trkpt><trkpt lat="45.7184782" lon="9.3744473"><ele>328.0</ele><time>2026-03-22T15:52:01.096Z</time></trkpt><trkpt lat="45.7183777" lon="9.3744196"><ele>325.0</ele><time>2026-03-22T15:52:03.096Z</time></trkpt><trkpt lat="45.7183391" lon="9.374314"><ele>322.0</ele><time>2026-03-22T15:52:05.096Z</time></trkpt><trkpt lat="45.7183632" lon="9.3741869"><ele>319.0</ele><time>2026-03-22T15:52:07.096Z</time></trkpt><trkpt lat="45.7183673" lon="9.3740542"><ele>316.0</ele><time>2026-03-22T15:52:09.096Z</time></trkpt><trkpt lat="45.7182908" lon="9.3739264"><ele>315.66666666666663</ele><time>2026-03-22T15:52:11.096Z</time></trkpt><trkpt lat="45.7181723" lon="9.3738449"><ele>315.3333333333333</ele><time>2026-03-22T15:52:13.095Z</time></trkpt><trkpt lat="45.7181033" lon="9.37379"><ele>315.0</ele><time>2026-03-22T15:52:14.096Z</time></trkpt><trkpt lat="45.7180313" lon="9.3737447"><ele>314.6666666666667</ele><time>2026-03-22T15:52:15.096Z</time></trkpt><trkpt lat="45.7179552" lon="9.3737054"><ele>314.33333333333337</ele><time>2026-03-22T15:52:16.096Z</time></trkpt><trkpt lat="45.7178871" lon="9.3736751"><ele>314.0</ele><time>2026-03-22T15:52:17.096Z</time></trkpt><trkpt lat="45.7178098" lon="9.3736469"><ele>312.1666666666667</ele><time>2026-03-22T15:52:18.096Z</time></trkpt><trkpt lat="45.7177339" lon="9.3736196"><ele>310.33333333333337</ele><time>2026-03-22T15:52:19.096Z</time></trkpt><trkpt lat="45.7176519" lon="9.3735792"><ele>308.5</ele><time>2026-03-22T15:52:20.096Z</time></trkpt><trkpt lat="45.7175759" lon="9.3735359"><ele>306.6666666666667</ele><time>2026-03-22T15:52:21.096Z</time></trkpt><trkpt lat="45.717494" lon="9.373472"><ele>304.8333333333333</ele><time>2026-03-22T15:52:22.096Z</time></trkpt><trkpt lat="45.7174136" lon="9.3734067"><ele>303.0</ele><time>2026-03-22T15:52:23.096Z</time></trkpt><trkpt lat="45.7173208" lon="9.3733234"><ele>303.0</ele><time>2026-03-22T15:52:24.096Z</time></trkpt><trkpt lat="45.7172218" lon="9.3732354"><ele>303.0</ele><time>2026-03-22T15:52:26.096Z</time></trkpt><trkpt lat="45.7171492" lon="9.3731795"><ele>303.0</ele><time>2026-03-22T15:52:27.096Z</time></trkpt><trkpt lat="45.7170454" lon="9.3731511"><ele>303.0</ele><time>2026-03-22T15:52:29.096Z</time></trkpt><trkpt lat="45.7169563" lon="9.3732737"><ele>303.0</ele><time>2026-03-22T15:52:31.096Z</time></trkpt><trkpt lat="45.7169225" lon="9.3733516"><ele>302.14285714285717</ele><time>2026-03-22T15:52:32.095Z</time></trkpt><trkpt lat="45.7168854" lon="9.373433"><ele>301.2857142857143</ele><time>2026-03-22T15:52:33.096Z</time></trkpt><trkpt lat="45.7168524" lon="9.3735111"><ele>300.42857142857144</ele><time>2026-03-22T15:52:34.096Z</time></trkpt><trkpt lat="45.7168177" lon="9.3736013"><ele>299.57142857142856</ele><time>2026-03-22T15:52:35.096Z</time></trkpt><trkpt lat="45.7167763" lon="9.3736795"><ele>298.7142857142857</ele><time>2026-03-22T15:52:36.096Z</time></trkpt><trkpt lat="45.7167251" lon="9.3737478"><ele>297.8571428571429</ele><time>2026-03-22T15:52:37.096Z</time></trkpt><trkpt lat="45.7166701" lon="9.3738057"><ele>297.0</ele><time>2026-03-22T15:52:38.096Z</time></trkpt><trkpt lat="45.7166061" lon="9.3738431"><ele>297.0</ele><time>2026-03-22T15:52:39.096Z</time></trkpt><trkpt lat="45.7165384" lon="9.3738821"><ele>297.0</ele><time>2026-03-22T15:52:40.096Z</time></trkpt><trkpt lat="45.716472" lon="9.3739128"><ele>297.0</ele><time>2026-03-22T15:52:41.096Z</time></trkpt><trkpt lat="45.7164075" lon="9.3739485"><ele>297.0</ele><time>2026-03-22T15:52:42.096Z</time></trkpt><trkpt lat="45.7163434" lon="9.3739817"><ele>297.0</ele><time>2026-03-22T15:52:43.095Z</time></trkpt><trkpt lat="45.7162702" lon="9.3740093"><ele>297.0</ele><time>2026-03-22T15:52:44.096Z</time></trkpt><trkpt lat="45.7162067" lon="9.3740444"><ele>297.0</ele><time>2026-03-22T15:52:45.095Z</time></trkpt><trkpt lat="45.7161402" lon="9.3740852"><ele>297.0</ele><time>2026-03-22T15:52:46.095Z</time></trkpt><trkpt lat="45.7160806" lon="9.3741282"><ele>297.0</ele><time>2026-03-22T15:52:47.096Z</time></trkpt><trkpt lat="45.7159635" lon="9.3742242"><ele>297.0</ele><time>2026-03-22T15:52:49.096Z</time></trkpt><trkpt lat="45.7159067" lon="9.3742841"><ele>297.0</ele><time>2026-03-22T15:52:50.095Z</time></trkpt><trkpt lat="45.715839" lon="9.3743428"><ele>297.0</ele><time>2026-03-22T15:52:51.095Z</time></trkpt><trkpt lat="45.7157843" lon="9.3744026"><ele>297.0</ele><time>2026-03-22T15:52:52.096Z</time></trkpt><trkpt lat="45.715689" lon="9.3745372"><ele>296.7142857142857</ele><time>2026-03-22T15:52:54.096Z</time></trkpt><trkpt lat="45.7156564" lon="9.3746231"><ele>296.42857142857144</ele><time>2026-03-22T15:52:55.096Z</time></trkpt><trkpt lat="45.7156192" lon="9.3747119"><ele>296.14285714285717</ele><time>2026-03-22T15:52:56.096Z</time></trkpt><trkpt lat="45.7155902" lon="9.374808"><ele>295.8571428571429</ele><time>2026-03-22T15:52:57.096Z</time></trkpt><trkpt lat="45.7155653" lon="9.3749113"><ele>295.57142857142856</ele><time>2026-03-22T15:52:58.095Z</time></trkpt><trkpt lat="45.7155454" lon="9.3750125"><ele>295.28571428571433</ele><time>2026-03-22T15:52:59.096Z</time></trkpt><trkpt lat="45.7155266" lon="9.3751174"><ele>295.0</ele><time>2026-03-22T15:53:00.096Z</time></trkpt><trkpt lat="45.7155037" lon="9.3752205"><ele>295.00000000000006</ele><time>2026-03-22T15:53:01.095Z</time></trkpt><trkpt lat="45.7154778" lon="9.3753205"><ele>295.0</ele><time>2026-03-22T15:53:02.096Z</time></trkpt><trkpt lat="45.7154531" lon="9.3754212"><ele>295.0</ele><time>2026-03-22T15:53:03.096Z</time></trkpt><trkpt lat="45.715423" lon="9.3755182"><ele>295.0</ele><time>2026-03-22T15:53:04.096Z</time></trkpt><trkpt lat="45.7153902" lon="9.3755992"><ele>295.0</ele><time>2026-03-22T15:53:05.096Z</time></trkpt><trkpt lat="45.7153528" lon="9.3756995"><ele>295.00000000000006</ele><time>2026-03-22T15:53:06.096Z</time></trkpt><trkpt lat="45.7153197" lon="9.3757983"><ele>295.0</ele><time>2026-03-22T15:53:07.096Z</time></trkpt><trkpt lat="45.7152909" lon="9.3759007"><ele>294.66666666666663</ele><time>2026-03-22T15:53:08.096Z</time></trkpt><trkpt lat="45.7152604" lon="9.3759841"><ele>294.3333333333333</ele><time>2026-03-22T15:53:09.096Z</time></trkpt><trkpt lat="45.7152349" lon="9.3760701"><ele>294.0</ele><time>2026-03-22T15:53:10.095Z</time></trkpt><trkpt lat="45.7152163" lon="9.376168"><ele>293.6666666666667</ele><time>2026-03-22T15:53:11.096Z</time></trkpt><trkpt lat="45.7151535" lon="9.3763686"><ele>293.33333333333337</ele><time>2026-03-22T15:53:13.096Z</time></trkpt><trkpt lat="45.7151212" lon="9.3764704"><ele>293.0</ele><time>2026-03-22T15:53:14.096Z</time></trkpt><trkpt lat="45.715076" lon="9.3765661"><ele>292.6666666666667</ele><time>2026-03-22T15:53:15.096Z</time></trkpt><trkpt lat="45.7150372" lon="9.3766711"><ele>292.33333333333337</ele><time>2026-03-22T15:53:16.096Z</time></trkpt><trkpt lat="45.7149991" lon="9.3767665"><ele>292.0</ele><time>2026-03-22T15:53:17.096Z</time></trkpt><trkpt lat="45.7149647" lon="9.3768577"><ele>291.6666666666667</ele><time>2026-03-22T15:53:18.096Z</time></trkpt><trkpt lat="45.7149337" lon="9.3769591"><ele>291.3333333333333</ele><time>2026-03-22T15:53:19.095Z</time></trkpt><trkpt lat="45.7149015" lon="9.3770621"><ele>291.0</ele><time>2026-03-22T15:53:20.096Z</time></trkpt><trkpt lat="45.7148683" lon="9.3771515"><ele>291.0</ele><time>2026-03-22T15:53:21.096Z</time></trkpt><trkpt lat="45.7148349" lon="9.3772466"><ele>291.0</ele><time>2026-03-22T15:53:22.096Z</time></trkpt><trkpt lat="45.7148064" lon="9.3773688"><ele>291.0</ele><time>2026-03-22T15:53:23.096Z</time></trkpt><trkpt lat="45.7147764" lon="9.3774591"><ele>291.0</ele><time>2026-03-22T15:53:24.096Z</time></trkpt><trkpt lat="45.7147351" lon="9.3775609"><ele>291.0</ele><time>2026-03-22T15:53:25.095Z</time></trkpt><trkpt lat="45.7147083" lon="9.3776493"><ele>291.0</ele><time>2026-03-22T15:53:26.096Z</time></trkpt><trkpt lat="45.7146823" lon="9.377738"><ele>291.0</ele><time>2026-03-22T15:53:27.096Z</time></trkpt><trkpt lat="45.7146533" lon="9.37782"><ele>291.0</ele><time>2026-03-22T15:53:28.096Z</time></trkpt><trkpt lat="45.7146254" lon="9.3779122"><ele>291.0</ele><time>2026-03-22T15:53:29.096Z</time></trkpt><trkpt lat="45.7145901" lon="9.3779875"><ele>291.0</ele><time>2026-03-22T15:53:30.096Z</time></trkpt><trkpt lat="45.7145502" lon="9.3780635"><ele>291.0</ele><time>2026-03-22T15:53:31.095Z</time></trkpt><trkpt lat="45.7145185" lon="9.3781525"><ele>291.0</ele><time>2026-03-22T15:53:32.096Z</time></trkpt><trkpt lat="45.714482" lon="9.3782476"><ele>291.0</ele><time>2026-03-22T15:53:33.096Z</time></trkpt><trkpt lat="45.7144498" lon="9.3783455"><ele>291.1428571428571</ele><time>2026-03-22T15:53:34.096Z</time></trkpt><trkpt lat="45.7144259" lon="9.378429"><ele>291.2857142857143</ele><time>2026-03-22T15:53:35.096Z</time></trkpt><trkpt lat="45.7143959" lon="9.3785221"><ele>291.42857142857144</ele><time>2026-03-22T15:53:36.096Z</time></trkpt><trkpt lat="45.7143635" lon="9.3786256"><ele>291.57142857142856</ele><time>2026-03-22T15:53:37.096Z</time></trkpt><trkpt lat="45.7143452" lon="9.378742"><ele>291.7142857142857</ele><time>2026-03-22T15:53:38.096Z</time></trkpt><trkpt lat="45.7143207" lon="9.3788336"><ele>291.85714285714283</ele><time>2026-03-22T15:53:39.096Z</time></trkpt><trkpt lat="45.7142898" lon="9.3789404"><ele>292.0</ele><time>2026-03-22T15:53:40.096Z</time></trkpt><trkpt lat="45.7142611" lon="9.3790404"><ele>292.0</ele><time>2026-03-22T15:53:41.096Z</time></trkpt><trkpt lat="45.714237" lon="9.3791446"><ele>292.0</ele><time>2026-03-22T15:53:42.096Z</time></trkpt><trkpt lat="45.7142062" lon="9.3792429"><ele>292.0</ele><time>2026-03-22T15:53:43.096Z</time></trkpt><trkpt lat="45.7141743" lon="9.3793371"><ele>292.0</ele><time>2026-03-22T15:53:44.096Z</time></trkpt><trkpt lat="45.7141469" lon="9.3794303"><ele>292.0</ele><time>2026-03-22T15:53:45.096Z</time></trkpt><trkpt lat="45.7141204" lon="9.379519"><ele>292.0</ele><time>2026-03-22T15:53:46.096Z</time></trkpt><trkpt lat="45.7140854" lon="9.3796167"><ele>292.0</ele><time>2026-03-22T15:53:47.096Z</time></trkpt><trkpt lat="45.7140478" lon="9.379721"><ele>292.0</ele><time>2026-03-22T15:53:48.096Z</time></trkpt><trkpt lat="45.7140081" lon="9.3798214"><ele>292.0</ele><time>2026-03-22T15:53:49.096Z</time></trkpt><trkpt lat="45.7139756" lon="9.3799117"><ele>292.0</ele><time>2026-03-22T15:53:50.096Z</time></trkpt><trkpt lat="45.7139441" lon="9.3799903"><ele>292.0</ele><time>2026-03-22T15:53:51.096Z</time></trkpt><trkpt lat="45.7138887" lon="9.3801276"><ele>292.0</ele><time>2026-03-22T15:53:53.096Z</time></trkpt><trkpt lat="45.7138431" lon="9.3802761"><ele>292.0</ele><time>2026-03-22T15:53:55.095Z</time></trkpt><trkpt lat="45.7137895" lon="9.380421"><ele>292.0</ele><time>2026-03-22T15:53:57.095Z</time></trkpt><trkpt lat="45.7137627" lon="9.3805081"><ele>292.0</ele><time>2026-03-22T15:53:58.096Z</time></trkpt><trkpt lat="45.7137082" lon="9.3806279"><ele>292.0</ele><time>2026-03-22T15:54:00.096Z</time></trkpt><trkpt lat="45.7136833" lon="9.3807265"><ele>292.0</ele><time>2026-03-22T15:54:02.095Z</time></trkpt><trkpt lat="45.7135911" lon="9.3807893"><ele>292.0</ele><time>2026-03-22T15:54:04.096Z</time></trkpt><trkpt lat="45.713497" lon="9.3808084"><ele>292.0</ele><time>2026-03-22T15:54:06.096Z</time></trkpt><trkpt lat="45.7133781" lon="9.3808661"><ele>292.6</ele><time>2026-03-22T15:54:08.096Z</time></trkpt><trkpt lat="45.7132677" lon="9.3809097"><ele>293.2</ele><time>2026-03-22T15:54:10.095Z</time></trkpt><trkpt lat="45.7131944" lon="9.3809212"><ele>293.8</ele><time>2026-03-22T15:54:11.096Z</time></trkpt><trkpt lat="45.7131053" lon="9.3809636"><ele>294.4</ele><time>2026-03-22T15:54:13.096Z</time></trkpt><trkpt lat="45.7130396" lon="9.3810309"><ele>295.0</ele><time>2026-03-22T15:54:15.096Z</time></trkpt><trkpt lat="45.712925" lon="9.3810711"><ele>295.0</ele><time>2026-03-22T15:54:17.096Z</time></trkpt><trkpt lat="45.7128331" lon="9.3810827"><ele>295.0</ele><time>2026-03-22T15:54:19.096Z</time></trkpt><trkpt lat="45.7127292" lon="9.381103"><ele>295.0</ele><time>2026-03-22T15:54:21.096Z</time></trkpt><trkpt lat="45.7126117" lon="9.3811344"><ele>295.0</ele><time>2026-03-22T15:54:23.096Z</time></trkpt><trkpt lat="45.7125113" lon="9.3811787"><ele>295.0</ele><time>2026-03-22T15:54:25.096Z</time></trkpt><trkpt lat="45.7124039" lon="9.381239"><ele>295.0</ele><time>2026-03-22T15:54:27.096Z</time></trkpt><trkpt lat="45.7123138" lon="9.3813174"><ele>295.0</ele><time>2026-03-22T15:54:29.096Z</time></trkpt><trkpt lat="45.7122252" lon="9.3814042"><ele>295.0</ele><time>2026-03-22T15:54:31.096Z</time></trkpt><trkpt lat="45.7121673" lon="9.3815047"><ele>295.0</ele><time>2026-03-22T15:54:33.095Z</time></trkpt><trkpt lat="45.7121328" lon="9.381622"><ele>295.0</ele><time>2026-03-22T15:54:35.096Z</time></trkpt><trkpt lat="45.7120865" lon="9.3817479"><ele>295.6</ele><time>2026-03-22T15:54:37.096Z</time></trkpt><trkpt lat="45.712012" lon="9.381869"><ele>296.2</ele><time>2026-03-22T15:54:39.096Z</time></trkpt><trkpt lat="45.7119722" lon="9.3819412"><ele>296.8</ele><time>2026-03-22T15:54:40.096Z</time></trkpt><trkpt lat="45.7119042" lon="9.3820678"><ele>297.4</ele><time>2026-03-22T15:54:42.095Z</time></trkpt><trkpt lat="45.7118351" lon="9.3821945"><ele>298.0</ele><time>2026-03-22T15:54:44.096Z</time></trkpt><trkpt lat="45.7117702" lon="9.3823361"><ele>298.16666666666663</ele><time>2026-03-22T15:54:46.095Z</time></trkpt><trkpt lat="45.7117001" lon="9.3824695"><ele>298.3333333333333</ele><time>2026-03-22T15:54:48.096Z</time></trkpt><trkpt lat="45.7116323" lon="9.3825957"><ele>298.5</ele><time>2026-03-22T15:54:50.095Z</time></trkpt><trkpt lat="45.7115927" lon="9.3826755"><ele>298.6666666666667</ele><time>2026-03-22T15:54:51.096Z</time></trkpt><trkpt lat="45.7115577" lon="9.3827506"><ele>298.83333333333337</ele><time>2026-03-22T15:54:52.096Z</time></trkpt><trkpt lat="45.7115248" lon="9.3828348"><ele>299.0</ele><time>2026-03-22T15:54:53.096Z</time></trkpt><trkpt lat="45.7114633" lon="9.3829788"><ele>298.8</ele><time>2026-03-22T15:54:55.096Z</time></trkpt><trkpt lat="45.7114227" lon="9.3830499"><ele>298.59999999999997</ele><time>2026-03-22T15:54:56.096Z</time></trkpt><trkpt lat="45.7113568" lon="9.383176"><ele>298.4</ele><time>2026-03-22T15:54:58.096Z</time></trkpt><trkpt lat="45.7112834" lon="9.3833082"><ele>298.2</ele><time>2026-03-22T15:55:00.096Z</time></trkpt><trkpt lat="45.7112293" lon="9.3834396"><ele>298.0</ele><time>2026-03-22T15:55:02.096Z</time></trkpt><trkpt lat="45.7111563" lon="9.3835696"><ele>298.0</ele><time>2026-03-22T15:55:04.095Z</time></trkpt><trkpt lat="45.7110762" lon="9.3837101"><ele>298.0</ele><time>2026-03-22T15:55:06.096Z</time></trkpt><trkpt lat="45.710999" lon="9.3838366"><ele>298.0</ele><time>2026-03-22T15:55:08.096Z</time></trkpt><trkpt lat="45.710922" lon="9.383999"><ele>298.0</ele><time>2026-03-22T15:55:10.096Z</time></trkpt><trkpt lat="45.7108703" lon="9.3841515"><ele>298.8</ele><time>2026-03-22T15:55:12.096Z</time></trkpt><trkpt lat="45.7108074" lon="9.3842931"><ele>299.6</ele><time>2026-03-22T15:55:14.096Z</time></trkpt><trkpt lat="45.7107655" lon="9.3843676"><ele>300.4</ele><time>2026-03-22T15:55:15.096Z</time></trkpt><trkpt lat="45.7106954" lon="9.3845082"><ele>301.2</ele><time>2026-03-22T15:55:17.096Z</time></trkpt><trkpt lat="45.7106454" lon="9.384579"><ele>302.0</ele><time>2026-03-22T15:55:18.096Z</time></trkpt><trkpt lat="45.710588" lon="9.3846503"><ele>302.0</ele><time>2026-03-22T15:55:19.095Z</time></trkpt><trkpt lat="45.7105398" lon="9.3847174"><ele>302.0</ele><time>2026-03-22T15:55:20.096Z</time></trkpt><trkpt lat="45.7104979" lon="9.3847892"><ele>302.0</ele><time>2026-03-22T15:55:21.096Z</time></trkpt><trkpt lat="45.7104271" lon="9.3849336"><ele>302.0</ele><time>2026-03-22T15:55:23.096Z</time></trkpt><trkpt lat="45.7103471" lon="9.3850768"><ele>302.0</ele><time>2026-03-22T15:55:25.096Z</time></trkpt><trkpt lat="45.7103099" lon="9.3851524"><ele>302.0</ele><time>2026-03-22T15:55:26.096Z</time></trkpt><trkpt lat="45.7102749" lon="9.385233"><ele>302.0</ele><time>2026-03-22T15:55:27.096Z</time></trkpt><trkpt lat="45.7102458" lon="9.3853211"><ele>302.0</ele><time>2026-03-22T15:55:28.096Z</time></trkpt><trkpt lat="45.7102141" lon="9.3854526"><ele>302.0</ele><time>2026-03-22T15:55:29.096Z</time></trkpt><trkpt lat="45.7102081" lon="9.3855523"><ele>302.0</ele><time>2026-03-22T15:55:30.096Z</time></trkpt><trkpt lat="45.7102241" lon="9.385664"><ele>302.0</ele><time>2026-03-22T15:55:31.096Z</time></trkpt><trkpt lat="45.7102579" lon="9.3857649"><ele>302.0</ele><time>2026-03-22T15:55:32.096Z</time></trkpt><trkpt lat="45.7103138" lon="9.3858729"><ele>301.6</ele><time>2026-03-22T15:55:33.096Z</time></trkpt><trkpt lat="45.7103499" lon="9.3859864"><ele>301.2</ele><time>2026-03-22T15:55:34.096Z</time></trkpt><trkpt lat="45.7104093" lon="9.3860688"><ele>300.8</ele><time>2026-03-22T15:55:35.096Z</time></trkpt><trkpt lat="45.7104736" lon="9.3861664"><ele>300.4</ele><time>2026-03-22T15:55:36.096Z</time></trkpt><trkpt lat="45.710527" lon="9.386288"><ele>300.0</ele><time>2026-03-22T15:55:37.095Z</time></trkpt><trkpt lat="45.7105555" lon="9.3864233"><ele>299.1666666666667</ele><time>2026-03-22T15:55:38.096Z</time></trkpt><trkpt lat="45.7105716" lon="9.3865583"><ele>298.3333333333333</ele><time>2026-03-22T15:55:39.096Z</time></trkpt><trkpt lat="45.7105842" lon="9.386698"><ele>297.5</ele><time>2026-03-22T15:55:40.096Z</time></trkpt><trkpt lat="45.7105954" lon="9.3868267"><ele>296.66666666666663</ele><time>2026-03-22T15:55:41.095Z</time></trkpt><trkpt lat="45.7106073" lon="9.3869457"><ele>295.8333333333333</ele><time>2026-03-22T15:55:42.096Z</time></trkpt><trkpt lat="45.7106108" lon="9.3870525"><ele>295.0</ele><time>2026-03-22T15:55:43.096Z</time></trkpt><trkpt lat="45.7105901" lon="9.3871535"><ele>295.66666666666663</ele><time>2026-03-22T15:55:44.096Z</time></trkpt><trkpt lat="45.710587" lon="9.3872567"><ele>296.3333333333333</ele><time>2026-03-22T15:55:45.096Z</time></trkpt><trkpt lat="45.7105766" lon="9.387349"><ele>297.0</ele><time>2026-03-22T15:55:46.095Z</time></trkpt><trkpt lat="45.710581" lon="9.3875033"><ele>297.6666666666667</ele><time>2026-03-22T15:55:48.096Z</time></trkpt><trkpt lat="45.7105907" lon="9.3875933"><ele>298.33333333333337</ele><time>2026-03-22T15:55:49.096Z</time></trkpt><trkpt lat="45.7105982" lon="9.3877655"><ele>299.0</ele><time>2026-03-22T15:55:51.096Z</time></trkpt><trkpt lat="45.7106661" lon="9.3878984"><ele>299.0</ele><time>2026-03-22T15:55:53.096Z</time></trkpt><trkpt lat="45.7106847" lon="9.3879949"><ele>299.0</ele><time>2026-03-22T15:55:54.095Z</time></trkpt><trkpt lat="45.7107087" lon="9.3881094"><ele>299.0</ele><time>2026-03-22T15:55:56.096Z</time></trkpt><trkpt lat="45.7107819" lon="9.3882539"><ele>299.0</ele><time>2026-03-22T15:55:58.096Z</time></trkpt><trkpt lat="45.710806" lon="9.3883464"><ele>299.0</ele><time>2026-03-22T15:56:01.096Z</time></trkpt><trkpt lat="45.7108556" lon="9.388451"><ele>299.0</ele><time>2026-03-22T15:56:03.096Z</time></trkpt><trkpt lat="45.7109089" lon="9.3885296"><ele>300.1666666666667</ele><time>2026-03-22T15:56:07.096Z</time></trkpt><trkpt lat="45.7109375" lon="9.3886463"><ele>301.33333333333337</ele><time>2026-03-22T15:56:09.096Z</time></trkpt><trkpt lat="45.7109997" lon="9.3887906"><ele>302.5</ele><time>2026-03-22T15:56:10.095Z</time></trkpt><trkpt lat="45.7110054" lon="9.3888994"><ele>303.6666666666667</ele><time>2026-03-22T15:56:12.096Z</time></trkpt><trkpt lat="45.7110056" lon="9.3890142"><ele>304.8333333333333</ele><time>2026-03-22T15:56:14.096Z</time></trkpt><trkpt lat="45.7109716" lon="9.388915"><ele>306.0</ele><time>2026-03-22T15:56:16.095Z</time></trkpt><trkpt lat="45.7109584" lon="9.3890307"><ele>306.6</ele><time>2026-03-22T15:56:19.106Z</time></trkpt><trkpt lat="45.710924" lon="9.3891212"><ele>307.20000000000005</ele><time>2026-03-22T15:56:21.096Z</time></trkpt><trkpt lat="45.7108736" lon="9.3892758"><ele>307.79999999999995</ele><time>2026-03-22T15:56:23.096Z</time></trkpt><trkpt lat="45.7108256" lon="9.389434"><ele>308.4</ele><time>2026-03-22T15:56:24.096Z</time></trkpt><trkpt lat="45.7107815" lon="9.3895833"><ele>309.0</ele><time>2026-03-22T15:56:25.096Z</time></trkpt><trkpt lat="45.7107444" lon="9.3897099"><ele>309.0</ele><time>2026-03-22T15:56:26.096Z</time></trkpt><trkpt lat="45.7107176" lon="9.3898146"><ele>309.0</ele><time>2026-03-22T15:56:27.096Z</time></trkpt><trkpt lat="45.7106602" lon="9.3899688"><ele>309.0</ele><time>2026-03-22T15:56:29.096Z</time></trkpt><trkpt lat="45.7106234" lon="9.3900527"><ele>309.0</ele><time>2026-03-22T15:56:30.096Z</time></trkpt><trkpt lat="45.7105876" lon="9.3901341"><ele>309.0</ele><time>2026-03-22T15:56:31.096Z</time></trkpt><trkpt lat="45.7105499" lon="9.390208"><ele>309.0</ele><time>2026-03-22T15:56:32.096Z</time></trkpt><trkpt lat="45.7105122" lon="9.3902831"><ele>309.0</ele><time>2026-03-22T15:56:33.095Z</time></trkpt><trkpt lat="45.7104844" lon="9.3903863"><ele>309.0</ele><time>2026-03-22T15:56:34.096Z</time></trkpt><trkpt lat="45.7104681" lon="9.390506"><ele>309.0</ele><time>2026-03-22T15:56:35.096Z</time></trkpt><trkpt lat="45.7104335" lon="9.3906356"><ele>309.0</ele><time>2026-03-22T15:56:36.096Z</time></trkpt><trkpt lat="45.7104025" lon="9.3907657"><ele>309.0</ele><time>2026-03-22T15:56:37.096Z</time></trkpt><trkpt lat="45.7103781" lon="9.3908752"><ele>309.0</ele><time>2026-03-22T15:56:38.096Z</time></trkpt><trkpt lat="45.7103329" lon="9.3909677"><ele>308.2</ele><time>2026-03-22T15:56:39.095Z</time></trkpt><trkpt lat="45.7102716" lon="9.3910697"><ele>307.4</ele><time>2026-03-22T15:56:40.096Z</time></trkpt><trkpt lat="45.7102208" lon="9.3911801"><ele>306.6</ele><time>2026-03-22T15:56:41.096Z</time></trkpt><trkpt lat="45.7101737" lon="9.3913042"><ele>305.8</ele><time>2026-03-22T15:56:42.096Z</time></trkpt><trkpt lat="45.7101205" lon="9.3914276"><ele>305.0</ele><time>2026-03-22T15:56:43.096Z</time></trkpt><trkpt lat="45.7100632" lon="9.3915525"><ele>303.8</ele><time>2026-03-22T15:56:44.096Z</time></trkpt><trkpt lat="45.7100091" lon="9.3916818"><ele>302.6</ele><time>2026-03-22T15:56:45.096Z</time></trkpt><trkpt lat="45.7099574" lon="9.3918218"><ele>301.4</ele><time>2026-03-22T15:56:46.096Z</time></trkpt><trkpt lat="45.7099151" lon="9.391966"><ele>300.2</ele><time>2026-03-22T15:56:47.096Z</time></trkpt><trkpt lat="45.7098896" lon="9.3921297"><ele>299.0</ele><time>2026-03-22T15:56:48.096Z</time></trkpt><trkpt lat="45.7098618" lon="9.3922925"><ele>296.4</ele><time>2026-03-22T15:56:49.095Z</time></trkpt><trkpt lat="45.7098436" lon="9.3924459"><ele>293.79999999999995</ele><time>2026-03-22T15:56:50.096Z</time></trkpt><trkpt lat="45.7098128" lon="9.3925954"><ele>291.20000000000005</ele><time>2026-03-22T15:56:51.096Z</time></trkpt><trkpt lat="45.7097877" lon="9.3927354"><ele>288.6</ele><time>2026-03-22T15:56:52.096Z</time></trkpt><trkpt lat="45.7097694" lon="9.3928673"><ele>286.0</ele><time>2026-03-22T15:56:53.096Z</time></trkpt><trkpt lat="45.7097608" lon="9.39298"><ele>285.16666666666663</ele><time>2026-03-22T15:56:54.096Z</time></trkpt><trkpt lat="45.7097557" lon="9.3930831"><ele>284.3333333333333</ele><time>2026-03-22T15:56:55.096Z</time></trkpt><trkpt lat="45.7097587" lon="9.3931844"><ele>283.5</ele><time>2026-03-22T15:56:56.095Z</time></trkpt><trkpt lat="45.7097658" lon="9.3932878"><ele>282.6666666666667</ele><time>2026-03-22T15:56:57.096Z</time></trkpt><trkpt lat="45.709782" lon="9.3933907"><ele>281.83333333333337</ele><time>2026-03-22T15:56:58.096Z</time></trkpt><trkpt lat="45.7098076" lon="9.3935002"><ele>281.0</ele><time>2026-03-22T15:56:59.096Z</time></trkpt><trkpt lat="45.7098224" lon="9.3936188"><ele>281.0</ele><time>2026-03-22T15:57:00.095Z</time></trkpt><trkpt lat="45.7098222" lon="9.3937436"><ele>281.0</ele><time>2026-03-22T15:57:01.096Z</time></trkpt><trkpt lat="45.7098344" lon="9.393848"><ele>281.0</ele><time>2026-03-22T15:57:02.096Z</time></trkpt><trkpt lat="45.70986" lon="9.3939447"><ele>281.0</ele><time>2026-03-22T15:57:03.096Z</time></trkpt><trkpt lat="45.7098909" lon="9.3940592"><ele>281.0</ele><time>2026-03-22T15:57:04.096Z</time></trkpt><trkpt lat="45.7099043" lon="9.3941667"><ele>281.0</ele><time>2026-03-22T15:57:05.096Z</time></trkpt><trkpt lat="45.70992" lon="9.3942614"><ele>280.8571428571429</ele><time>2026-03-22T15:57:06.096Z</time></trkpt><trkpt lat="45.7099322" lon="9.3943627"><ele>280.7142857142857</ele><time>2026-03-22T15:57:07.096Z</time></trkpt><trkpt lat="45.7099522" lon="9.3944569"><ele>280.57142857142856</ele><time>2026-03-22T15:57:08.096Z</time></trkpt><trkpt lat="45.7099709" lon="9.3945531"><ele>280.42857142857144</ele><time>2026-03-22T15:57:09.096Z</time></trkpt><trkpt lat="45.7099889" lon="9.3946421"><ele>280.2857142857143</ele><time>2026-03-22T15:57:10.096Z</time></trkpt><trkpt lat="45.7100172" lon="9.3947342"><ele>280.14285714285717</ele><time>2026-03-22T15:57:11.096Z</time></trkpt><trkpt lat="45.7100587" lon="9.3948549"><ele>280.0</ele><time>2026-03-22T15:57:12.096Z</time></trkpt><trkpt lat="45.7100927" lon="9.3949472"><ele>280.0</ele><time>2026-03-22T15:57:13.096Z</time></trkpt><trkpt lat="45.7101362" lon="9.3950307"><ele>280.0</ele><time>2026-03-22T15:57:14.096Z</time></trkpt><trkpt lat="45.7101641" lon="9.3951241"><ele>280.0</ele><time>2026-03-22T15:57:15.095Z</time></trkpt><trkpt lat="45.7102125" lon="9.3953095"><ele>280.0</ele><time>2026-03-22T15:57:17.096Z</time></trkpt><trkpt lat="45.7102357" lon="9.3953962"><ele>280.0</ele><time>2026-03-22T15:57:18.096Z</time></trkpt><trkpt lat="45.710244" lon="9.3955361"><ele>280.0</ele><time>2026-03-22T15:57:19.095Z</time></trkpt><trkpt lat="45.7102721" lon="9.3956555"><ele>278.5</ele><time>2026-03-22T15:57:20.096Z</time></trkpt><trkpt lat="45.7102732" lon="9.3957715"><ele>277.0</ele><time>2026-03-22T15:57:21.095Z</time></trkpt><trkpt lat="45.7102829" lon="9.3958716"><ele>275.5</ele><time>2026-03-22T15:57:22.096Z</time></trkpt><trkpt lat="45.7102956" lon="9.3960003"><ele>274.0</ele><time>2026-03-22T15:57:23.096Z</time></trkpt><trkpt lat="45.7103253" lon="9.396091"><ele>272.5</ele><time>2026-03-22T15:57:24.096Z</time></trkpt><trkpt lat="45.7103602" lon="9.3961818"><ele>271.0</ele><time>2026-03-22T15:57:25.096Z</time></trkpt><trkpt lat="45.7103945" lon="9.3962824"><ele>271.3333333333333</ele><time>2026-03-22T15:57:26.096Z</time></trkpt><trkpt lat="45.7104297" lon="9.3964037"><ele>271.66666666666663</ele><time>2026-03-22T15:57:27.095Z</time></trkpt><trkpt lat="45.7104586" lon="9.3965123"><ele>272.0</ele><time>2026-03-22T15:57:28.095Z</time></trkpt><trkpt lat="45.7104829" lon="9.3966157"><ele>272.3333333333333</ele><time>2026-03-22T15:57:29.096Z</time></trkpt><trkpt lat="45.7104985" lon="9.3967256"><ele>272.6666666666667</ele><time>2026-03-22T15:57:30.096Z</time></trkpt><trkpt lat="45.7105028" lon="9.3968382"><ele>273.0</ele><time>2026-03-22T15:57:31.096Z</time></trkpt><trkpt lat="45.7105141" lon="9.3969469"><ele>273.0</ele><time>2026-03-22T15:57:32.096Z</time></trkpt><trkpt lat="45.7104962" lon="9.3970703"><ele>273.0</ele><time>2026-03-22T15:57:33.096Z</time></trkpt><trkpt lat="45.7104724" lon="9.3971656"><ele>273.0</ele><time>2026-03-22T15:57:34.095Z</time></trkpt><trkpt lat="45.7104484" lon="9.3972614"><ele>273.0</ele><time>2026-03-22T15:57:35.096Z</time></trkpt><trkpt lat="45.7104412" lon="9.3973739"><ele>273.0</ele><time>2026-03-22T15:57:36.095Z</time></trkpt><trkpt lat="45.7104425" lon="9.3974875"><ele>273.0</ele><time>2026-03-22T15:57:37.096Z</time></trkpt><trkpt lat="45.7104481" lon="9.397592"><ele>273.8333333333333</ele><time>2026-03-22T15:57:38.096Z</time></trkpt><trkpt lat="45.7104502" lon="9.3977067"><ele>274.6666666666667</ele><time>2026-03-22T15:57:39.096Z</time></trkpt><trkpt lat="45.7104436" lon="9.3978251"><ele>275.5</ele><time>2026-03-22T15:57:40.096Z</time></trkpt><trkpt lat="45.7104317" lon="9.3979278"><ele>276.33333333333337</ele><time>2026-03-22T15:57:41.096Z</time></trkpt><trkpt lat="45.7104085" lon="9.3980508"><ele>277.1666666666667</ele><time>2026-03-22T15:57:42.096Z</time></trkpt><trkpt lat="45.7103902" lon="9.3981381"><ele>278.0</ele><time>2026-03-22T15:57:43.096Z</time></trkpt><trkpt lat="45.7103594" lon="9.3982276"><ele>279.1666666666667</ele><time>2026-03-22T15:57:44.095Z</time></trkpt><trkpt lat="45.7103316" lon="9.3983422"><ele>280.33333333333337</ele><time>2026-03-22T15:57:46.095Z</time></trkpt><trkpt lat="45.7103163" lon="9.3984607"><ele>281.5</ele><time>2026-03-22T15:57:48.096Z</time></trkpt><trkpt lat="45.7103251" lon="9.398591"><ele>282.6666666666667</ele><time>2026-03-22T15:57:50.096Z</time></trkpt><trkpt lat="45.7103735" lon="9.3986944"><ele>283.8333333333333</ele><time>2026-03-22T15:57:52.096Z</time></trkpt><trkpt lat="45.7104437" lon="9.3987825"><ele>285.0</ele><time>2026-03-22T15:57:54.096Z</time></trkpt><trkpt lat="45.7105111" lon="9.3988495"><ele>285.8333333333333</ele><time>2026-03-22T15:57:56.096Z</time></trkpt><trkpt lat="45.7105534" lon="9.3989421"><ele>286.6666666666667</ele><time>2026-03-22T15:57:58.096Z</time></trkpt><trkpt lat="45.7105849" lon="9.3990619"><ele>287.5</ele><time>2026-03-22T15:58:00.096Z</time></trkpt><trkpt lat="45.7105735" lon="9.3991907"><ele>288.33333333333337</ele><time>2026-03-22T15:58:02.096Z</time></trkpt><trkpt lat="45.710542" lon="9.3992994"><ele>289.1666666666667</ele><time>2026-03-22T15:58:04.096Z</time></trkpt><trkpt lat="45.7104936" lon="9.3994123"><ele>290.0</ele><time>2026-03-22T15:58:06.096Z</time></trkpt><trkpt lat="45.7104463" lon="9.3995416"><ele>290.0</ele><time>2026-03-22T15:58:08.096Z</time></trkpt><trkpt lat="45.7103855" lon="9.3996639"><ele>290.0</ele><time>2026-03-22T15:58:10.096Z</time></trkpt><trkpt lat="45.7102165" lon="9.3999427"><ele>290.0</ele><time>2026-03-22T15:58:11.096Z</time></trkpt><trkpt lat="45.7101585" lon="9.4000086"><ele>290.0</ele><time>2026-03-22T15:58:12.095Z</time></trkpt><trkpt lat="45.7101065" lon="9.4000753"><ele>289.5</ele><time>2026-03-22T15:58:13.096Z</time></trkpt><trkpt lat="45.7100688" lon="9.4001664"><ele>289.0</ele><time>2026-03-22T15:58:14.096Z</time></trkpt><trkpt lat="45.7100194" lon="9.4002395"><ele>288.5</ele><time>2026-03-22T15:58:15.096Z</time></trkpt><trkpt lat="45.7099683" lon="9.4003105"><ele>288.0</ele><time>2026-03-22T15:58:16.096Z</time></trkpt><trkpt lat="45.7098863" lon="9.400431"><ele>287.5</ele><time>2026-03-22T15:58:18.096Z</time></trkpt><trkpt lat="45.7098534" lon="9.4005131"><ele>287.0</ele><time>2026-03-22T15:58:19.095Z</time></trkpt><trkpt lat="45.7098105" lon="9.4005814"><ele>287.0</ele><time>2026-03-22T15:58:20.095Z</time></trkpt><trkpt lat="45.7097437" lon="9.400735"><ele>287.0</ele><time>2026-03-22T15:58:22.096Z</time></trkpt><trkpt lat="45.709668" lon="9.4008673"><ele>287.0</ele><time>2026-03-22T15:58:24.096Z</time></trkpt><trkpt lat="45.7095756" lon="9.4009318"><ele>287.0</ele><time>2026-03-22T15:58:26.096Z</time></trkpt><trkpt lat="45.7094922" lon="9.4009718"><ele>287.0</ele><time>2026-03-22T15:58:28.096Z</time></trkpt><trkpt lat="45.7094155" lon="9.4010129"><ele>286.83333333333337</ele><time>2026-03-22T15:58:30.096Z</time></trkpt><trkpt lat="45.709358" lon="9.4010623"><ele>286.6666666666667</ele><time>2026-03-22T15:58:32.096Z</time></trkpt><trkpt lat="45.7092987" lon="9.4011061"><ele>286.5</ele><time>2026-03-22T15:58:34.096Z</time></trkpt><trkpt lat="45.7092434" lon="9.4011525"><ele>286.3333333333333</ele><time>2026-03-22T15:58:36.096Z</time></trkpt><trkpt lat="45.7091565" lon="9.4012005"><ele>286.16666666666663</ele><time>2026-03-22T15:58:39.096Z</time></trkpt><trkpt lat="45.7090762" lon="9.4012504"><ele>286.0</ele><time>2026-03-22T15:58:42.096Z</time></trkpt><trkpt lat="45.709008" lon="9.4012806"><ele>287.3333333333333</ele><time>2026-03-22T15:58:44.096Z</time></trkpt><trkpt lat="45.7089669" lon="9.4013771"><ele>288.66666666666663</ele><time>2026-03-22T15:58:49.096Z</time></trkpt><trkpt lat="45.7089319" lon="9.4014584"><ele>290.0</ele><time>2026-03-22T15:58:53.01Z</time></trkpt><trkpt lat="45.7089056" lon="9.4015691"><ele>291.3333333333333</ele><time>2026-03-22T15:58:56.786Z</time></trkpt><trkpt lat="45.7088772" lon="9.4016943"><ele>292.6666666666667</ele><time>2026-03-22T15:58:59.608Z</time></trkpt><trkpt lat="45.7088513" lon="9.4018263"><ele>294.0</ele><time>2026-03-22T15:59:02.547Z</time></trkpt><trkpt lat="45.7087991" lon="9.4020271"><ele>294.0</ele><time>2026-03-22T15:59:04.096Z</time></trkpt><trkpt lat="45.7087708" lon="9.4021132"><ele>294.0</ele><time>2026-03-22T15:59:05.096Z</time></trkpt><trkpt lat="45.7087373" lon="9.4022184"><ele>294.0</ele><time>2026-03-22T15:59:07.095Z</time></trkpt><trkpt lat="45.7087069" lon="9.4023414"><ele>294.0</ele><time>2026-03-22T15:59:10.096Z</time></trkpt><trkpt lat="45.708682" lon="9.4024456"><ele>294.0</ele><time>2026-03-22T15:59:14.096Z</time></trkpt><trkpt lat="45.7086661" lon="9.4025581"><ele>294.0</ele><time>2026-03-22T15:59:16.096Z</time></trkpt><trkpt lat="45.708655" lon="9.4026607"><ele>294.85714285714283</ele><time>2026-03-22T15:59:20.096Z</time></trkpt><trkpt lat="45.7086305" lon="9.4027544"><ele>295.7142857142857</ele><time>2026-03-22T15:59:24.096Z</time></trkpt><trkpt lat="45.708592" lon="9.4028647"><ele>296.57142857142856</ele><time>2026-03-22T15:59:27.096Z</time></trkpt><trkpt lat="45.7085646" lon="9.4029493"><ele>297.42857142857144</ele><time>2026-03-22T15:59:29.096Z</time></trkpt><trkpt lat="45.7085333" lon="9.4030321"><ele>298.2857142857143</ele><time>2026-03-22T15:59:31.096Z</time></trkpt><trkpt lat="45.7084818" lon="9.4031431"><ele>299.1428571428571</ele><time>2026-03-22T15:59:34.096Z</time></trkpt><trkpt lat="45.7084442" lon="9.4032163"><ele>300.0</ele><time>2026-03-22T15:59:36.096Z</time></trkpt><trkpt lat="45.708399" lon="9.4033147"><ele>301.0</ele><time>2026-03-22T15:59:39.096Z</time></trkpt><trkpt lat="45.7083469" lon="9.4033762"><ele>302.0</ele><time>2026-03-22T15:59:41.096Z</time></trkpt><trkpt lat="45.7082719" lon="9.4034703"><ele>303.0</ele><time>2026-03-22T15:59:44.096Z</time></trkpt><trkpt lat="45.7082179" lon="9.4035349"><ele>304.0</ele><time>2026-03-22T15:59:46.095Z</time></trkpt><trkpt lat="45.708163" lon="9.4036022"><ele>305.0</ele><time>2026-03-22T15:59:48.096Z</time></trkpt><trkpt lat="45.7081096" lon="9.4036754"><ele>306.0</ele><time>2026-03-22T15:59:50.095Z</time></trkpt><trkpt lat="45.7080571" lon="9.403749"><ele>306.0</ele><time>2026-03-22T15:59:52.096Z</time></trkpt><trkpt lat="45.7079967" lon="9.4038224"><ele>306.0</ele><time>2026-03-22T15:59:54.096Z</time></trkpt><trkpt lat="45.707941" lon="9.4039079"><ele>306.0</ele><time>2026-03-22T15:59:56.096Z</time></trkpt><trkpt lat="45.7078807" lon="9.4039944"><ele>306.0</ele><time>2026-03-22T15:59:58.095Z</time></trkpt><trkpt lat="45.7077993" lon="9.4040794"><ele>306.0</ele><time>2026-03-22T16:00:00.096Z</time></trkpt><trkpt lat="45.7077205" lon="9.404176"><ele>306.25</ele><time>2026-03-22T16:00:02.096Z</time></trkpt><trkpt lat="45.707653" lon="9.4042688"><ele>306.5</ele><time>2026-03-22T16:00:04.095Z</time></trkpt><trkpt lat="45.7074559" lon="9.4044395"><ele>306.75</ele><time>2026-03-22T16:00:06.095Z</time></trkpt><trkpt lat="45.7073955" lon="9.4044667"><ele>307.0</ele><time>2026-03-22T16:00:07.096Z</time></trkpt><trkpt lat="45.7073087" lon="9.4045733"><ele>307.5</ele><time>2026-03-22T16:00:09.096Z</time></trkpt><trkpt lat="45.7072359" lon="9.404692"><ele>308.0</ele><time>2026-03-22T16:00:11.096Z</time></trkpt><trkpt lat="45.7071859" lon="9.404772"><ele>308.5</ele><time>2026-03-22T16:00:12.096Z</time></trkpt><trkpt lat="45.7071336" lon="9.4048364"><ele>309.0</ele><time>2026-03-22T16:00:13.096Z</time></trkpt><trkpt lat="45.7070763" lon="9.4048927"><ele>309.5</ele><time>2026-03-22T16:00:14.096Z</time></trkpt><trkpt lat="45.7070181" lon="9.4049701"><ele>310.0</ele><time>2026-03-22T16:00:15.095Z</time></trkpt><trkpt lat="45.7069741" lon="9.4050536"><ele>310.0</ele><time>2026-03-22T16:00:16.096Z</time></trkpt><trkpt lat="45.7069192" lon="9.4052116"><ele>310.0</ele><time>2026-03-22T16:00:18.096Z</time></trkpt><trkpt lat="45.7068881" lon="9.4052912"><ele>310.0</ele><time>2026-03-22T16:00:19.096Z</time></trkpt><trkpt lat="45.7068159" lon="9.4054332"><ele>310.0</ele><time>2026-03-22T16:00:21.096Z</time></trkpt><trkpt lat="45.7067741" lon="9.4055237"><ele>310.0</ele><time>2026-03-22T16:00:22.096Z</time></trkpt><trkpt lat="45.7067441" lon="9.4056213"><ele>308.8</ele><time>2026-03-22T16:00:23.096Z</time></trkpt><trkpt lat="45.7067255" lon="9.4057126"><ele>307.6</ele><time>2026-03-22T16:00:24.096Z</time></trkpt><trkpt lat="45.7066952" lon="9.4058054"><ele>306.4</ele><time>2026-03-22T16:00:25.096Z</time></trkpt><trkpt lat="45.7066615" lon="9.4058929"><ele>305.2</ele><time>2026-03-22T16:00:26.096Z</time></trkpt><trkpt lat="45.7066035" lon="9.4060502"><ele>304.0</ele><time>2026-03-22T16:00:28.096Z</time></trkpt><trkpt lat="45.7065438" lon="9.4062101"><ele>304.0</ele><time>2026-03-22T16:00:30.096Z</time></trkpt><trkpt lat="45.706505" lon="9.4062926"><ele>304.0</ele><time>2026-03-22T16:00:31.096Z</time></trkpt><trkpt lat="45.7064685" lon="9.4063822"><ele>304.0</ele><time>2026-03-22T16:00:32.095Z</time></trkpt><trkpt lat="45.7064338" lon="9.4064577"><ele>304.0</ele><time>2026-03-22T16:00:33.096Z</time></trkpt><trkpt lat="45.706397" lon="9.406534"><ele>304.0</ele><time>2026-03-22T16:00:34.096Z</time></trkpt><trkpt lat="45.7063436" lon="9.4066464"><ele>304.0</ele><time>2026-03-22T16:00:36.096Z</time></trkpt><trkpt lat="45.7063024" lon="9.406736"><ele>304.0</ele><time>2026-03-22T16:00:38.096Z</time></trkpt><trkpt lat="45.7062821" lon="9.4068834"><ele>303.8</ele><time>2026-03-22T16:00:40.096Z</time></trkpt><trkpt lat="45.7062914" lon="9.4069763"><ele>303.59999999999997</ele><time>2026-03-22T16:00:41.096Z</time></trkpt><trkpt lat="45.706302" lon="9.4071586"><ele>303.4</ele><time>2026-03-22T16:00:43.096Z</time></trkpt><trkpt lat="45.7063026" lon="9.4073492"><ele>303.2</ele><time>2026-03-22T16:00:45.096Z</time></trkpt><trkpt lat="45.7063098" lon="9.4074516"><ele>303.0</ele><time>2026-03-22T16:00:46.096Z</time></trkpt><trkpt lat="45.7062996" lon="9.4075522"><ele>302.6666666666667</ele><time>2026-03-22T16:00:47.096Z</time></trkpt><trkpt lat="45.7062946" lon="9.4076567"><ele>302.3333333333333</ele><time>2026-03-22T16:00:48.096Z</time></trkpt><trkpt lat="45.7062978" lon="9.4077643"><ele>302.0</ele><time>2026-03-22T16:00:49.096Z</time></trkpt><trkpt lat="45.7062985" lon="9.4078784"><ele>301.66666666666663</ele><time>2026-03-22T16:00:50.096Z</time></trkpt><trkpt lat="45.7062962" lon="9.4080093"><ele>301.3333333333333</ele><time>2026-03-22T16:00:51.096Z</time></trkpt><trkpt lat="45.7062987" lon="9.408142"><ele>301.0</ele><time>2026-03-22T16:00:52.095Z</time></trkpt><trkpt lat="45.7063015" lon="9.4082779"><ele>300.3333333333333</ele><time>2026-03-22T16:00:53.096Z</time></trkpt><trkpt lat="45.7063042" lon="9.4084162"><ele>299.66666666666663</ele><time>2026-03-22T16:00:54.096Z</time></trkpt><trkpt lat="45.7063046" lon="9.4085419"><ele>299.0</ele><time>2026-03-22T16:00:55.096Z</time></trkpt><trkpt lat="45.7063127" lon="9.4086569"><ele>298.3333333333333</ele><time>2026-03-22T16:00:56.096Z</time></trkpt><trkpt lat="45.7063173" lon="9.4087919"><ele>297.6666666666667</ele><time>2026-03-22T16:00:57.096Z</time></trkpt><trkpt lat="45.706308" lon="9.4089167"><ele>297.0</ele><time>2026-03-22T16:00:58.096Z</time></trkpt><trkpt lat="45.7063065" lon="9.4090521"><ele>296.8333333333333</ele><time>2026-03-22T16:00:59.095Z</time></trkpt><trkpt lat="45.7063193" lon="9.4091715"><ele>296.6666666666667</ele><time>2026-03-22T16:01:00.096Z</time></trkpt><trkpt lat="45.7063309" lon="9.4092713"><ele>296.5</ele><time>2026-03-22T16:01:01.096Z</time></trkpt><trkpt lat="45.7063404" lon="9.4093653"><ele>296.33333333333337</ele><time>2026-03-22T16:01:02.096Z</time></trkpt><trkpt lat="45.7063548" lon="9.4095178"><ele>296.1666666666667</ele><time>2026-03-22T16:01:04.096Z</time></trkpt><trkpt lat="45.7063698" lon="9.4096302"><ele>296.0</ele><time>2026-03-22T16:01:07.096Z</time></trkpt><trkpt lat="45.7063794" lon="9.4097517"><ele>296.5</ele><time>2026-03-22T16:01:09.096Z</time></trkpt><trkpt lat="45.7063939" lon="9.409862"><ele>297.0</ele><time>2026-03-22T16:01:13.096Z</time></trkpt><trkpt lat="45.7063714" lon="9.4099556"><ele>297.5</ele><time>2026-03-22T16:01:15.096Z</time></trkpt><trkpt lat="45.7063592" lon="9.4100977"><ele>298.0</ele><time>2026-03-22T16:01:17.096Z</time></trkpt><trkpt lat="45.7063186" lon="9.4102519"><ele>298.5</ele><time>2026-03-22T16:01:19.096Z</time></trkpt><trkpt lat="45.70628" lon="9.4103246"><ele>299.0</ele><time>2026-03-22T16:01:20.096Z</time></trkpt><trkpt lat="45.7062216" lon="9.4104545"><ele>299.0</ele><time>2026-03-22T16:01:22.096Z</time></trkpt><trkpt lat="45.706187" lon="9.410581"><ele>299.0</ele><time>2026-03-22T16:01:24.095Z</time></trkpt><trkpt lat="45.7061719" lon="9.4107437"><ele>299.0</ele><time>2026-03-22T16:01:26.096Z</time></trkpt><trkpt lat="45.7061397" lon="9.4109047"><ele>299.0</ele><time>2026-03-22T16:01:28.096Z</time></trkpt><trkpt lat="45.7061342" lon="9.4110305"><ele>299.0</ele><time>2026-03-22T16:01:30.096Z</time></trkpt><trkpt lat="45.706131" lon="9.4111706"><ele>299.0</ele><time>2026-03-22T16:01:32.096Z</time></trkpt><trkpt lat="45.7061289" lon="9.4113082"><ele>299.0</ele><time>2026-03-22T16:01:34.096Z</time></trkpt><trkpt lat="45.7061301" lon="9.4114326"><ele>299.0</ele><time>2026-03-22T16:01:36.096Z</time></trkpt><trkpt lat="45.7061566" lon="9.4115505"><ele>299.0</ele><time>2026-03-22T16:01:39.096Z</time></trkpt><trkpt lat="45.7062872" lon="9.4115544"><ele>299.0</ele><time>2026-03-22T16:01:43.096Z</time></trkpt><trkpt lat="45.7063848" lon="9.4115443"><ele>299.6666666666667</ele><time>2026-03-22T16:01:45.096Z</time></trkpt><trkpt lat="45.706481" lon="9.4115428"><ele>300.33333333333337</ele><time>2026-03-22T16:01:47.096Z</time></trkpt><trkpt lat="45.7065565" lon="9.4115682"><ele>301.0</ele><time>2026-03-22T16:01:49.096Z</time></trkpt><trkpt lat="45.7066301" lon="9.4115988"><ele>301.6666666666667</ele><time>2026-03-22T16:01:51.095Z</time></trkpt><trkpt lat="45.7067087" lon="9.4116237"><ele>302.3333333333333</ele><time>2026-03-22T16:01:53.096Z</time></trkpt><trkpt lat="45.7067914" lon="9.4116766"><ele>303.0</ele><time>2026-03-22T16:01:55.096Z</time></trkpt><trkpt lat="45.7068823" lon="9.4117334"><ele>303.1666666666667</ele><time>2026-03-22T16:01:57.096Z</time></trkpt><trkpt lat="45.7069729" lon="9.4117798"><ele>303.3333333333333</ele><time>2026-03-22T16:01:59.096Z</time></trkpt><trkpt lat="45.707041" lon="9.411841"><ele>303.5</ele><time>2026-03-22T16:02:01.096Z</time></trkpt><trkpt lat="45.7070998" lon="9.4119039"><ele>303.66666666666663</ele><time>2026-03-22T16:02:03.096Z</time></trkpt><trkpt lat="45.7071685" lon="9.4119472"><ele>303.8333333333333</ele><time>2026-03-22T16:02:05.096Z</time></trkpt><trkpt lat="45.70725" lon="9.4119897"><ele>304.0</ele><time>2026-03-22T16:02:07.096Z</time></trkpt><trkpt lat="45.7073253" lon="9.412042"><ele>304.0</ele><time>2026-03-22T16:02:09.096Z</time></trkpt><trkpt lat="45.7074005" lon="9.4121024"><ele>304.0</ele><time>2026-03-22T16:02:11.096Z</time></trkpt><trkpt lat="45.7074708" lon="9.4121604"><ele>304.0</ele><time>2026-03-22T16:02:13.096Z</time></trkpt><trkpt lat="45.7075395" lon="9.4122203"><ele>304.0</ele><time>2026-03-22T16:02:15.096Z</time></trkpt><trkpt lat="45.7076019" lon="9.4122985"><ele>304.0</ele><time>2026-03-22T16:02:17.096Z</time></trkpt><trkpt lat="45.7076618" lon="9.4123605"><ele>304.0</ele><time>2026-03-22T16:02:19.096Z</time></trkpt><trkpt lat="45.7077278" lon="9.4124251"><ele>305.0</ele><time>2026-03-22T16:02:21.096Z</time></trkpt><trkpt lat="45.7078075" lon="9.4124957"><ele>306.0</ele><time>2026-03-22T16:02:23.095Z</time></trkpt><trkpt lat="45.7078837" lon="9.412558"><ele>307.0</ele><time>2026-03-22T16:02:25.096Z</time></trkpt><trkpt lat="45.7079594" lon="9.4126201"><ele>308.0</ele><time>2026-03-22T16:02:27.096Z</time></trkpt><trkpt lat="45.7080376" lon="9.4126801"><ele>309.0</ele><time>2026-03-22T16:02:29.096Z</time></trkpt><trkpt lat="45.708101" lon="9.4127284"><ele>310.0</ele><time>2026-03-22T16:02:31.096Z</time></trkpt><trkpt lat="45.7081643" lon="9.4127907"><ele>310.0</ele><time>2026-03-22T16:02:33.096Z</time></trkpt><trkpt lat="45.7082226" lon="9.4128581"><ele>310.0</ele><time>2026-03-22T16:02:35.096Z</time></trkpt><trkpt lat="45.708283" lon="9.4129164"><ele>310.0</ele><time>2026-03-22T16:02:37.096Z</time></trkpt><trkpt lat="45.708338" lon="9.4130027"><ele>310.0</ele><time>2026-03-22T16:02:39.095Z</time></trkpt><trkpt lat="45.7083853" lon="9.41308"><ele>310.0</ele><time>2026-03-22T16:02:41.096Z</time></trkpt><trkpt lat="45.7084242" lon="9.4131602"><ele>310.0</ele><time>2026-03-22T16:02:43.096Z</time></trkpt><trkpt lat="45.7084854" lon="9.4132573"><ele>310.66666666666663</ele><time>2026-03-22T16:02:46.096Z</time></trkpt><trkpt lat="45.7085602" lon="9.4133257"><ele>311.3333333333333</ele><time>2026-03-22T16:02:49.096Z</time></trkpt><trkpt lat="45.7086318" lon="9.413418"><ele>312.0</ele><time>2026-03-22T16:02:52.096Z</time></trkpt><trkpt lat="45.7086854" lon="9.4134905"><ele>312.6666666666667</ele><time>2026-03-22T16:02:54.096Z</time></trkpt><trkpt lat="45.7087326" lon="9.4135546"><ele>313.33333333333337</ele><time>2026-03-22T16:02:56.096Z</time></trkpt><trkpt lat="45.7088047" lon="9.4136168"><ele>314.0</ele><time>2026-03-22T16:02:59.096Z</time></trkpt><trkpt lat="45.708852" lon="9.4136866"><ele>313.99999999999994</ele><time>2026-03-22T16:03:01.096Z</time></trkpt><trkpt lat="45.7089013" lon="9.4137566"><ele>314.0</ele><time>2026-03-22T16:03:03.095Z</time></trkpt><trkpt lat="45.7089494" lon="9.4138276"><ele>314.0</ele><time>2026-03-22T16:03:05.096Z</time></trkpt><trkpt lat="45.7089966" lon="9.4139065"><ele>314.0</ele><time>2026-03-22T16:03:07.096Z</time></trkpt><trkpt lat="45.7090447" lon="9.4139791"><ele>314.0</ele><time>2026-03-22T16:03:09.095Z</time></trkpt><trkpt lat="45.7091181" lon="9.414063"><ele>313.99999999999994</ele><time>2026-03-22T16:03:12.096Z</time></trkpt><trkpt lat="45.7091665" lon="9.414128"><ele>314.0</ele><time>2026-03-22T16:03:14.096Z</time></trkpt><trkpt lat="45.7092215" lon="9.4141753"><ele>314.57142857142856</ele><time>2026-03-22T16:03:16.096Z</time></trkpt><trkpt lat="45.7092684" lon="9.4142355"><ele>315.1428571428571</ele><time>2026-03-22T16:03:18.096Z</time></trkpt><trkpt lat="45.7093059" lon="9.4143084"><ele>315.71428571428567</ele><time>2026-03-22T16:03:20.096Z</time></trkpt><trkpt lat="45.7093485" lon="9.4143829"><ele>316.2857142857143</ele><time>2026-03-22T16:03:22.095Z</time></trkpt><trkpt lat="45.7093943" lon="9.4144748"><ele>316.8571428571429</ele><time>2026-03-22T16:03:24.096Z</time></trkpt><trkpt lat="45.7094378" lon="9.4145544"><ele>317.4285714285714</ele><time>2026-03-22T16:03:26.096Z</time></trkpt><trkpt lat="45.7094825" lon="9.414621"><ele>318.0</ele><time>2026-03-22T16:03:28.096Z</time></trkpt><trkpt lat="45.709529" lon="9.4146898"><ele>319.5</ele><time>2026-03-22T16:03:30.096Z</time></trkpt><trkpt lat="45.7095768" lon="9.4147502"><ele>321.0</ele><time>2026-03-22T16:03:32.096Z</time></trkpt><trkpt lat="45.7096415" lon="9.4148456"><ele>322.5</ele><time>2026-03-22T16:03:35.096Z</time></trkpt><trkpt lat="45.7096988" lon="9.4149496"><ele>324.0</ele><time>2026-03-22T16:03:38.096Z</time></trkpt><trkpt lat="45.7097449" lon="9.4150119"><ele>325.5</ele><time>2026-03-22T16:03:40.096Z</time></trkpt><trkpt lat="45.7098088" lon="9.4151028"><ele>327.0</ele><time>2026-03-22T16:03:43.096Z</time></trkpt><trkpt lat="45.709876" lon="9.4151851"><ele>327.0</ele><time>2026-03-22T16:03:46.096Z</time></trkpt><trkpt lat="45.709917" lon="9.4152601"><ele>327.0</ele><time>2026-03-22T16:03:48.096Z</time></trkpt><trkpt lat="45.7099231" lon="9.4153573"><ele>327.0</ele><time>2026-03-22T16:03:50.095Z</time></trkpt><trkpt lat="45.7099004" lon="9.4154482"><ele>327.0</ele><time>2026-03-22T16:03:52.096Z</time></trkpt><trkpt lat="45.7098861" lon="9.415549"><ele>327.0</ele><time>2026-03-22T16:03:54.096Z</time></trkpt><trkpt lat="45.709874" lon="9.4156501"><ele>327.0</ele><time>2026-03-22T16:03:56.095Z</time></trkpt><trkpt lat="45.709868" lon="9.4157687"><ele>327.0</ele><time>2026-03-22T16:03:58.096Z</time></trkpt><trkpt lat="45.7098586" lon="9.4158903"><ele>326.6666666666667</ele><time>2026-03-22T16:04:00.096Z</time></trkpt><trkpt lat="45.7098427" lon="9.4159872"><ele>326.3333333333333</ele><time>2026-03-22T16:04:02.096Z</time></trkpt><trkpt lat="45.709833" lon="9.4161136"><ele>326.0</ele><time>2026-03-22T16:04:04.096Z</time></trkpt><trkpt lat="45.709818" lon="9.4162533"><ele>325.66666666666663</ele><time>2026-03-22T16:04:06.096Z</time></trkpt><trkpt lat="45.7098093" lon="9.4163869"><ele>325.3333333333333</ele><time>2026-03-22T16:04:08.096Z</time></trkpt><trkpt lat="45.7097928" lon="9.41651"><ele>325.0</ele><time>2026-03-22T16:04:10.096Z</time></trkpt><trkpt lat="45.7097903" lon="9.4166369"><ele>324.6</ele><time>2026-03-22T16:04:12.096Z</time></trkpt><trkpt lat="45.7097724" lon="9.4167818"><ele>324.2</ele><time>2026-03-22T16:04:14.096Z</time></trkpt><trkpt lat="45.7097597" lon="9.4169445"><ele>323.79999999999995</ele><time>2026-03-22T16:04:16.096Z</time></trkpt><trkpt lat="45.7097362" lon="9.4170863"><ele>323.4</ele><time>2026-03-22T16:04:18.096Z</time></trkpt><trkpt lat="45.7097057" lon="9.4172377"><ele>323.0</ele><time>2026-03-22T16:04:20.096Z</time></trkpt><trkpt lat="45.7096933" lon="9.4173872"><ele>322.59999999999997</ele><time>2026-03-22T16:04:22.096Z</time></trkpt><trkpt lat="45.7096734" lon="9.417547"><ele>322.2</ele><time>2026-03-22T16:04:24.096Z</time></trkpt><trkpt lat="45.7096636" lon="9.4176387"><ele>321.8</ele><time>2026-03-22T16:04:25.096Z</time></trkpt><trkpt lat="45.7096554" lon="9.417821"><ele>321.4</ele><time>2026-03-22T16:04:27.096Z</time></trkpt><trkpt lat="45.7096463" lon="9.4179162"><ele>321.0</ele><time>2026-03-22T16:04:28.095Z</time></trkpt><trkpt lat="45.709581" lon="9.4183427"><ele>321.0</ele><time>2026-03-22T16:04:29.096Z</time></trkpt><trkpt lat="45.7095671" lon="9.4184402"><ele>321.0</ele><time>2026-03-22T16:04:30.096Z</time></trkpt><trkpt lat="45.7095535" lon="9.4185322"><ele>321.0</ele><time>2026-03-22T16:04:31.096Z</time></trkpt><trkpt lat="45.7095299" lon="9.4186948"><ele>321.0</ele><time>2026-03-22T16:04:33.096Z</time></trkpt><trkpt lat="45.7095255" lon="9.4187931"><ele>321.0</ele><time>2026-03-22T16:04:34.096Z</time></trkpt><trkpt lat="45.7095142" lon="9.4189588"><ele>321.0</ele><time>2026-03-22T16:04:36.096Z</time></trkpt><trkpt lat="45.7095181" lon="9.4191115"><ele>320.8</ele><time>2026-03-22T16:04:38.096Z</time></trkpt><trkpt lat="45.7095359" lon="9.4192687"><ele>320.6</ele><time>2026-03-22T16:04:40.096Z</time></trkpt><trkpt lat="45.7095787" lon="9.419393"><ele>320.4</ele><time>2026-03-22T16:04:42.096Z</time></trkpt><trkpt lat="45.7096239" lon="9.4195234"><ele>320.2</ele><time>2026-03-22T16:04:44.096Z</time></trkpt><trkpt lat="45.7096606" lon="9.4196396"><ele>320.0</ele><time>2026-03-22T16:04:46.096Z</time></trkpt><trkpt lat="45.7096898" lon="9.4198134"><ele>319.6</ele><time>2026-03-22T16:04:48.095Z</time></trkpt><trkpt lat="45.7097112" lon="9.4199706"><ele>319.2</ele><time>2026-03-22T16:04:49.096Z</time></trkpt><trkpt lat="45.7097071" lon="9.4201187"><ele>318.8</ele><time>2026-03-22T16:04:51.096Z</time></trkpt><trkpt lat="45.7096901" lon="9.4202216"><ele>318.4</ele><time>2026-03-22T16:04:52.096Z</time></trkpt><trkpt lat="45.7096746" lon="9.4203175"><ele>318.0</ele><time>2026-03-22T16:04:53.096Z</time></trkpt><trkpt lat="45.7096352" lon="9.4204486"><ele>317.8</ele><time>2026-03-22T16:04:55.096Z</time></trkpt><trkpt lat="45.7096204" lon="9.4205612"><ele>317.6</ele><time>2026-03-22T16:04:57.096Z</time></trkpt><trkpt lat="45.7095844" lon="9.4206868"><ele>317.4</ele><time>2026-03-22T16:04:59.096Z</time></trkpt><trkpt lat="45.7095598" lon="9.4208532"><ele>317.2</ele><time>2026-03-22T16:05:01.096Z</time></trkpt><trkpt lat="45.7095471" lon="9.4209936"><ele>317.0</ele><time>2026-03-22T16:05:03.096Z</time></trkpt><trkpt lat="45.7095428" lon="9.4211419"><ele>317.0</ele><time>2026-03-22T16:05:05.096Z</time></trkpt><trkpt lat="45.7095243" lon="9.4212842"><ele>317.0</ele><time>2026-03-22T16:05:07.096Z</time></trkpt><trkpt lat="45.7095037" lon="9.421428"><ele>317.0</ele><time>2026-03-22T16:05:09.096Z</time></trkpt><trkpt lat="45.7094813" lon="9.4215505"><ele>317.0</ele><time>2026-03-22T16:05:11.096Z</time></trkpt><trkpt lat="45.7094321" lon="9.4216497"><ele>317.0</ele><time>2026-03-22T16:05:13.096Z</time></trkpt><trkpt lat="45.7093732" lon="9.4217717"><ele>319.2</ele><time>2026-03-22T16:05:15.096Z</time></trkpt><trkpt lat="45.7092964" lon="9.4218726"><ele>321.4</ele><time>2026-03-22T16:05:17.096Z</time></trkpt><trkpt lat="45.7092235" lon="9.4219659"><ele>323.59999999999997</ele><time>2026-03-22T16:05:19.096Z</time></trkpt><trkpt lat="45.7091375" lon="9.422074"><ele>325.79999999999995</ele><time>2026-03-22T16:05:21.096Z</time></trkpt><trkpt lat="45.7090733" lon="9.4221923"><ele>328.0</ele><time>2026-03-22T16:05:23.096Z</time></trkpt><trkpt lat="45.7089721" lon="9.4222463"><ele>328.0</ele><time>2026-03-22T16:05:25.096Z</time></trkpt><trkpt lat="45.7088549" lon="9.422245"><ele>328.0</ele><time>2026-03-22T16:05:27.096Z</time></trkpt><trkpt lat="45.7087891" lon="9.4222437"><ele>328.0</ele><time>2026-03-22T16:05:28.095Z</time></trkpt><trkpt lat="45.7086735" lon="9.422235"><ele>328.0</ele><time>2026-03-22T16:05:30.096Z</time></trkpt><trkpt lat="45.7085668" lon="9.4222324"><ele>328.0</ele><time>2026-03-22T16:05:32.096Z</time></trkpt><trkpt lat="45.7084671" lon="9.4222294"><ele>328.8333333333333</ele><time>2026-03-22T16:05:34.096Z</time></trkpt><trkpt lat="45.7083708" lon="9.4222626"><ele>329.66666666666663</ele><time>2026-03-22T16:05:36.096Z</time></trkpt><trkpt lat="45.7082884" lon="9.4223185"><ele>330.5</ele><time>2026-03-22T16:05:38.095Z</time></trkpt><trkpt lat="45.7082352" lon="9.4224027"><ele>331.3333333333333</ele><time>2026-03-22T16:05:40.096Z</time></trkpt><trkpt lat="45.7081777" lon="9.4224825"><ele>332.1666666666667</ele><time>2026-03-22T16:05:42.096Z</time></trkpt><trkpt lat="45.7081117" lon="9.4225681"><ele>333.0</ele><time>2026-03-22T16:05:44.096Z</time></trkpt><trkpt lat="45.7080253" lon="9.4226456"><ele>333.0</ele><time>2026-03-22T16:05:46.096Z</time></trkpt><trkpt lat="45.7079523" lon="9.4226872"><ele>333.0</ele><time>2026-03-22T16:05:48.096Z</time></trkpt><trkpt lat="45.7078784" lon="9.4227285"><ele>333.0</ele><time>2026-03-22T16:05:50.096Z</time></trkpt><trkpt lat="45.7078148" lon="9.4227881"><ele>333.0</ele><time>2026-03-22T16:05:52.096Z</time></trkpt><trkpt lat="45.7077752" lon="9.4228714"><ele>333.0</ele><time>2026-03-22T16:05:54.096Z</time></trkpt><trkpt lat="45.7077564" lon="9.4229676"><ele>333.0</ele><time>2026-03-22T16:05:56.096Z</time></trkpt><trkpt lat="45.7076861" lon="9.4230861"><ele>333.5</ele><time>2026-03-22T16:05:58.096Z</time></trkpt><trkpt lat="45.7076062" lon="9.4232124"><ele>334.0</ele><time>2026-03-22T16:06:00.096Z</time></trkpt><trkpt lat="45.7075243" lon="9.4233232"><ele>334.5</ele><time>2026-03-22T16:06:02.096Z</time></trkpt><trkpt lat="45.7074414" lon="9.4234525"><ele>335.0</ele><time>2026-03-22T16:06:04.096Z</time></trkpt><trkpt lat="45.7073738" lon="9.4236028"><ele>335.0</ele><time>2026-03-22T16:06:06.096Z</time></trkpt><trkpt lat="45.7073262" lon="9.4237708"><ele>335.0</ele><time>2026-03-22T16:06:08.096Z</time></trkpt><trkpt lat="45.7073088" lon="9.4238677"><ele>335.0</ele><time>2026-03-22T16:06:09.096Z</time></trkpt><trkpt lat="45.7072709" lon="9.423973"><ele>335.0</ele><time>2026-03-22T16:06:10.096Z</time></trkpt><trkpt lat="45.7072281" lon="9.4240838"><ele>335.0</ele><time>2026-03-22T16:06:11.096Z</time></trkpt><trkpt lat="45.7071639" lon="9.4242598"><ele>333.83333333333337</ele><time>2026-03-22T16:06:12.096Z</time></trkpt><trkpt lat="45.7071177" lon="9.4243401"><ele>332.6666666666667</ele><time>2026-03-22T16:06:13.096Z</time></trkpt><trkpt lat="45.7070884" lon="9.4244352"><ele>331.5</ele><time>2026-03-22T16:06:14.095Z</time></trkpt><trkpt lat="45.7070618" lon="9.4245193"><ele>330.3333333333333</ele><time>2026-03-22T16:06:15.096Z</time></trkpt><trkpt lat="45.7070198" lon="9.4246613"><ele>329.16666666666663</ele><time>2026-03-22T16:06:17.096Z</time></trkpt><trkpt lat="45.7069937" lon="9.4248073"><ele>328.0</ele><time>2026-03-22T16:06:19.096Z</time></trkpt><trkpt lat="45.7070289" lon="9.4249277"><ele>327.5</ele><time>2026-03-22T16:06:22.096Z</time></trkpt><trkpt lat="45.7071148" lon="9.4250226"><ele>327.0</ele><time>2026-03-22T16:06:24.096Z</time></trkpt><trkpt lat="45.7071459" lon="9.4251012"><ele>326.5</ele><time>2026-03-22T16:06:25.096Z</time></trkpt><trkpt lat="45.7072038" lon="9.4251701"><ele>326.0</ele><time>2026-03-22T16:06:26.096Z</time></trkpt><trkpt lat="45.7072317" lon="9.4252573"><ele>325.5</ele><time>2026-03-22T16:06:27.096Z</time></trkpt><trkpt lat="45.7072647" lon="9.4254013"><ele>325.0</ele><time>2026-03-22T16:06:29.095Z</time></trkpt><trkpt lat="45.7072971" lon="9.4255605"><ele>325.0</ele><time>2026-03-22T16:06:31.096Z</time></trkpt><trkpt lat="45.7073265" lon="9.4256435"><ele>325.0</ele><time>2026-03-22T16:06:32.096Z</time></trkpt><trkpt lat="45.7074039" lon="9.4257468"><ele>325.0</ele><time>2026-03-22T16:06:34.095Z</time></trkpt><trkpt lat="45.7074883" lon="9.4258554"><ele>325.0</ele><time>2026-03-22T16:06:36.096Z</time></trkpt><trkpt lat="45.707526" lon="9.4259385"><ele>325.0</ele><time>2026-03-22T16:06:37.095Z</time></trkpt><trkpt lat="45.7075603" lon="9.4260171"><ele>325.0</ele><time>2026-03-22T16:06:38.096Z</time></trkpt><trkpt lat="45.7075908" lon="9.4261875"><ele>325.0</ele><time>2026-03-22T16:06:40.096Z</time></trkpt><trkpt lat="45.7075809" lon="9.4262771"><ele>325.0</ele><time>2026-03-22T16:06:41.095Z</time></trkpt><trkpt lat="45.7075295" lon="9.4264243"><ele>325.0</ele><time>2026-03-22T16:06:43.096Z</time></trkpt><trkpt lat="45.7074913" lon="9.4265666"><ele>325.0</ele><time>2026-03-22T16:06:45.096Z</time></trkpt><trkpt lat="45.7075181" lon="9.4267462"><ele>325.0</ele><time>2026-03-22T16:06:47.096Z</time></trkpt><trkpt lat="45.7075422" lon="9.4269005"><ele>325.0</ele><time>2026-03-22T16:06:49.096Z</time></trkpt><trkpt lat="45.7075999" lon="9.4270685"><ele>325.0</ele><time>2026-03-22T16:06:51.096Z</time></trkpt><trkpt lat="45.7076203" lon="9.4271561"><ele>325.0</ele><time>2026-03-22T16:06:52.096Z</time></trkpt><trkpt lat="45.7076621" lon="9.4272442"><ele>325.0</ele><time>2026-03-22T16:06:53.096Z</time></trkpt><trkpt lat="45.7076668" lon="9.4274089"><ele>325.0</ele><time>2026-03-22T16:06:55.096Z</time></trkpt><trkpt lat="45.7076338" lon="9.4275386"><ele>325.4</ele><time>2026-03-22T16:06:57.096Z</time></trkpt><trkpt lat="45.7075524" lon="9.4276745"><ele>325.8</ele><time>2026-03-22T16:06:59.096Z</time></trkpt><trkpt lat="45.7075106" lon="9.4278069"><ele>326.20000000000005</ele><time>2026-03-22T16:07:01.096Z</time></trkpt><trkpt lat="45.7074507" lon="9.4278833"><ele>326.6</ele><time>2026-03-22T16:07:03.096Z</time></trkpt><trkpt lat="45.7074092" lon="9.4279548"><ele>327.0</ele><time>2026-03-22T16:07:05.096Z</time></trkpt><trkpt lat="45.7074521" lon="9.4280525"><ele>327.20000000000005</ele><time>2026-03-22T16:07:16.096Z</time></trkpt><trkpt lat="45.7075286" lon="9.4280821"><ele>327.4</ele><time>2026-03-22T16:07:18.096Z</time></trkpt><trkpt lat="45.7076323" lon="9.4280932"><ele>327.6</ele><time>2026-03-22T16:07:20.096Z</time></trkpt><trkpt lat="45.7077334" lon="9.428122"><ele>327.79999999999995</ele><time>2026-03-22T16:07:22.096Z</time></trkpt><trkpt lat="45.7078119" lon="9.4281966"><ele>328.0</ele><time>2026-03-22T16:07:24.096Z</time></trkpt><trkpt lat="45.7078383" lon="9.4283941"><ele>327.3333333333333</ele><time>2026-03-22T16:07:26.096Z</time></trkpt><trkpt lat="45.7078177" lon="9.4284931"><ele>326.66666666666663</ele><time>2026-03-22T16:07:27.096Z</time></trkpt><trkpt lat="45.7077979" lon="9.4286016"><ele>326.0</ele><time>2026-03-22T16:07:28.095Z</time></trkpt><trkpt lat="45.7077806" lon="9.4287012"><ele>325.3333333333333</ele><time>2026-03-22T16:07:29.096Z</time></trkpt><trkpt lat="45.7077664" lon="9.4288143"><ele>324.6666666666667</ele><time>2026-03-22T16:07:30.096Z</time></trkpt><trkpt lat="45.7077592" lon="9.4289471"><ele>324.0</ele><time>2026-03-22T16:07:31.095Z</time></trkpt><trkpt lat="45.7077419" lon="9.4290661"><ele>324.0</ele><time>2026-03-22T16:07:32.095Z</time></trkpt><trkpt lat="45.7077259" lon="9.4291672"><ele>324.0</ele><time>2026-03-22T16:07:33.096Z</time></trkpt><trkpt lat="45.7077254" lon="9.4292596"><ele>324.0</ele><time>2026-03-22T16:07:34.096Z</time></trkpt><trkpt lat="45.7077019" lon="9.4293833"><ele>324.0</ele><time>2026-03-22T16:07:36.096Z</time></trkpt><trkpt lat="45.7076632" lon="9.4294574"><ele>324.0</ele><time>2026-03-22T16:07:37.096Z</time></trkpt><trkpt lat="45.7076073" lon="9.4295243"><ele>324.0</ele><time>2026-03-22T16:07:39.096Z</time></trkpt><trkpt lat="45.7075334" lon="9.4295926"><ele>323.3333333333333</ele><time>2026-03-22T16:07:41.096Z</time></trkpt><trkpt lat="45.7074581" lon="9.4296634"><ele>322.6666666666667</ele><time>2026-03-22T16:07:43.096Z</time></trkpt><trkpt lat="45.7073883" lon="9.4297258"><ele>322.0</ele><time>2026-03-22T16:07:45.096Z</time></trkpt><trkpt lat="45.7073146" lon="9.4297923"><ele>321.33333333333337</ele><time>2026-03-22T16:07:47.095Z</time></trkpt><trkpt lat="45.7072432" lon="9.4298922"><ele>320.6666666666667</ele><time>2026-03-22T16:07:49.096Z</time></trkpt><trkpt lat="45.7071851" lon="9.4299798"><ele>320.0</ele><time>2026-03-22T16:07:51.096Z</time></trkpt><trkpt lat="45.707095" lon="9.4300562"><ele>320.0</ele><time>2026-03-22T16:07:53.096Z</time></trkpt><trkpt lat="45.7070324" lon="9.4300732"><ele>320.0</ele><time>2026-03-22T16:07:54.095Z</time></trkpt><trkpt lat="45.7069496" lon="9.4301313"><ele>320.0</ele><time>2026-03-22T16:07:57.095Z</time></trkpt><trkpt lat="45.7068753" lon="9.430146"><ele>320.0</ele><time>2026-03-22T16:08:01.096Z</time></trkpt><trkpt lat="45.7067924" lon="9.4301774"><ele>320.0</ele><time>2026-03-22T16:08:04.095Z</time></trkpt><trkpt lat="45.7067095" lon="9.4302112"><ele>320.0</ele><time>2026-03-22T16:08:07.096Z</time></trkpt><trkpt lat="45.7066396" lon="9.4302699"><ele>319.6</ele><time>2026-03-22T16:08:10.095Z</time></trkpt><trkpt lat="45.7065672" lon="9.4302813"><ele>319.2</ele><time>2026-03-22T16:08:13.096Z</time></trkpt><trkpt lat="45.7064827" lon="9.4303032"><ele>318.8</ele><time>2026-03-22T16:08:16.096Z</time></trkpt><trkpt lat="45.7064223" lon="9.4303676"><ele>318.4</ele><time>2026-03-22T16:08:21.096Z</time></trkpt><trkpt lat="45.7062933" lon="9.4304526"><ele>318.0</ele><time>2026-03-22T16:08:22.096Z</time></trkpt><trkpt lat="45.7062212" lon="9.4305488"><ele>318.0</ele><time>2026-03-22T16:08:24.096Z</time></trkpt><trkpt lat="45.7061476" lon="9.4306364"><ele>318.0</ele><time>2026-03-22T16:08:26.096Z</time></trkpt><trkpt lat="45.7060964" lon="9.4306963"><ele>318.0</ele><time>2026-03-22T16:08:27.096Z</time></trkpt><trkpt lat="45.7060457" lon="9.4307516"><ele>318.0</ele><time>2026-03-22T16:08:28.096Z</time></trkpt><trkpt lat="45.7059889" lon="9.4307983"><ele>318.0</ele><time>2026-03-22T16:08:29.096Z</time></trkpt><trkpt lat="45.7058905" lon="9.430893"><ele>318.0</ele><time>2026-03-22T16:08:31.096Z</time></trkpt><trkpt lat="45.7058292" lon="9.4309658"><ele>317.6666666666667</ele><time>2026-03-22T16:08:32.096Z</time></trkpt><trkpt lat="45.705771" lon="9.4310533"><ele>317.3333333333333</ele><time>2026-03-22T16:08:33.096Z</time></trkpt><trkpt lat="45.7057269" lon="9.4311509"><ele>317.0</ele><time>2026-03-22T16:08:34.096Z</time></trkpt><trkpt lat="45.7056797" lon="9.4312455"><ele>316.66666666666663</ele><time>2026-03-22T16:08:35.096Z</time></trkpt><trkpt lat="45.7055954" lon="9.4313303"><ele>316.3333333333333</ele><time>2026-03-22T16:08:36.096Z</time></trkpt><trkpt lat="45.7055277" lon="9.4313909"><ele>316.0</ele><time>2026-03-22T16:08:37.096Z</time></trkpt><trkpt lat="45.7054661" lon="9.4314645"><ele>316.0</ele><time>2026-03-22T16:08:38.096Z</time></trkpt><trkpt lat="45.7054109" lon="9.431531"><ele>316.0</ele><time>2026-03-22T16:08:39.096Z</time></trkpt><trkpt lat="45.7053536" lon="9.4316049"><ele>316.0</ele><time>2026-03-22T16:08:40.096Z</time></trkpt><trkpt lat="45.7052879" lon="9.4316561"><ele>316.0</ele><time>2026-03-22T16:08:41.096Z</time></trkpt><trkpt lat="45.7052273" lon="9.4317304"><ele>316.0</ele><time>2026-03-22T16:08:42.096Z</time></trkpt><trkpt lat="45.7051554" lon="9.4318222"><ele>316.0</ele><time>2026-03-22T16:08:43.096Z</time></trkpt><trkpt lat="45.7050827" lon="9.4319084"><ele>315.5</ele><time>2026-03-22T16:08:44.096Z</time></trkpt><trkpt lat="45.7050136" lon="9.4319919"><ele>315.0</ele><time>2026-03-22T16:08:45.096Z</time></trkpt><trkpt lat="45.7049645" lon="9.4320715"><ele>314.5</ele><time>2026-03-22T16:08:46.096Z</time></trkpt><trkpt lat="45.7048979" lon="9.432158"><ele>314.0</ele><time>2026-03-22T16:08:47.095Z</time></trkpt><trkpt lat="45.7048269" lon="9.432224"><ele>313.5</ele><time>2026-03-22T16:08:48.096Z</time></trkpt><trkpt lat="45.7047669" lon="9.4322732"><ele>313.0</ele><time>2026-03-22T16:08:49.096Z</time></trkpt><trkpt lat="45.7047008" lon="9.4323206"><ele>313.0</ele><time>2026-03-22T16:08:50.096Z</time></trkpt><trkpt lat="45.7045951" lon="9.4324022"><ele>313.0</ele><time>2026-03-22T16:08:52.096Z</time></trkpt><trkpt lat="45.7045396" lon="9.4324544"><ele>313.0</ele><time>2026-03-22T16:08:53.096Z</time></trkpt><trkpt lat="45.704492" lon="9.4325279"><ele>313.0</ele><time>2026-03-22T16:08:54.096Z</time></trkpt><trkpt lat="45.7044303" lon="9.4325795"><ele>313.0</ele><time>2026-03-22T16:08:55.096Z</time></trkpt><trkpt lat="45.7043645" lon="9.4326179"><ele>313.0</ele><time>2026-03-22T16:08:56.095Z</time></trkpt><trkpt lat="45.7042973" lon="9.4326496"><ele>312.4</ele><time>2026-03-22T16:08:57.096Z</time></trkpt><trkpt lat="45.7042337" lon="9.4326597"><ele>311.8</ele><time>2026-03-22T16:08:58.096Z</time></trkpt><trkpt lat="45.7040941" lon="9.4327056"><ele>311.2</ele><time>2026-03-22T16:09:00.096Z</time></trkpt><trkpt lat="45.7040188" lon="9.4327202"><ele>310.6</ele><time>2026-03-22T16:09:01.096Z</time></trkpt><trkpt lat="45.7039523" lon="9.4327461"><ele>310.0</ele><time>2026-03-22T16:09:02.096Z</time></trkpt><trkpt lat="45.7038218" lon="9.4328333"><ele>310.0</ele><time>2026-03-22T16:09:04.096Z</time></trkpt><trkpt lat="45.7037446" lon="9.4328973"><ele>310.0</ele><time>2026-03-22T16:09:05.096Z</time></trkpt><trkpt lat="45.7036799" lon="9.4329443"><ele>310.0</ele><time>2026-03-22T16:09:06.096Z</time></trkpt><trkpt lat="45.7036132" lon="9.4329978"><ele>310.0</ele><time>2026-03-22T16:09:07.095Z</time></trkpt><trkpt lat="45.7035452" lon="9.4330119"><ele>310.0</ele><time>2026-03-22T16:09:08.096Z</time></trkpt><trkpt lat="45.7034831" lon="9.4330324"><ele>310.0</ele><time>2026-03-22T16:09:09.096Z</time></trkpt><trkpt lat="45.7034139" lon="9.4330677"><ele>310.0</ele><time>2026-03-22T16:09:10.095Z</time></trkpt><trkpt lat="45.7033178" lon="9.4331477"><ele>309.2</ele><time>2026-03-22T16:09:12.096Z</time></trkpt><trkpt lat="45.7032511" lon="9.4332833"><ele>308.4</ele><time>2026-03-22T16:09:14.096Z</time></trkpt><trkpt lat="45.703179" lon="9.4334143"><ele>307.6</ele><time>2026-03-22T16:09:16.096Z</time></trkpt><trkpt lat="45.7030967" lon="9.4335172"><ele>306.8</ele><time>2026-03-22T16:09:18.096Z</time></trkpt><trkpt lat="45.7030426" lon="9.4336339"><ele>306.0</ele><time>2026-03-22T16:09:20.096Z</time></trkpt><trkpt lat="45.7029847" lon="9.4337509"><ele>306.2</ele><time>2026-03-22T16:09:22.096Z</time></trkpt><trkpt lat="45.7029243" lon="9.4338829"><ele>306.40000000000003</ele><time>2026-03-22T16:09:24.096Z</time></trkpt><trkpt lat="45.7028522" lon="9.434005"><ele>306.6</ele><time>2026-03-22T16:09:26.096Z</time></trkpt><trkpt lat="45.7027991" lon="9.434128"><ele>306.8</ele><time>2026-03-22T16:09:28.096Z</time></trkpt><trkpt lat="45.702741" lon="9.4342499"><ele>307.0</ele><time>2026-03-22T16:09:30.096Z</time></trkpt><trkpt lat="45.7026706" lon="9.4343598"><ele>306.8</ele><time>2026-03-22T16:09:32.096Z</time></trkpt><trkpt lat="45.7026187" lon="9.4344183"><ele>306.6</ele><time>2026-03-22T16:09:33.096Z</time></trkpt><trkpt lat="45.7025556" lon="9.4345457"><ele>306.40000000000003</ele><time>2026-03-22T16:09:35.096Z</time></trkpt><trkpt lat="45.7024576" lon="9.434653"><ele>306.2</ele><time>2026-03-22T16:09:37.095Z</time></trkpt><trkpt lat="45.7023921" lon="9.4347603"><ele>306.0</ele><time>2026-03-22T16:09:39.096Z</time></trkpt><trkpt lat="45.7023401" lon="9.4349238"><ele>306.0</ele><time>2026-03-22T16:09:41.095Z</time></trkpt><trkpt lat="45.7022741" lon="9.4350696"><ele>306.0</ele><time>2026-03-22T16:09:43.096Z</time></trkpt><trkpt lat="45.7022123" lon="9.4352013"><ele>306.0</ele><time>2026-03-22T16:09:45.096Z</time></trkpt><trkpt lat="45.7021652" lon="9.435348"><ele>306.0</ele><time>2026-03-22T16:09:47.096Z</time></trkpt><trkpt lat="45.7021369" lon="9.4354349"><ele>306.0</ele><time>2026-03-22T16:09:48.096Z</time></trkpt><trkpt lat="45.7020958" lon="9.4355821"><ele>306.0</ele><time>2026-03-22T16:09:50.096Z</time></trkpt><trkpt lat="45.7020587" lon="9.4357451"><ele>306.0</ele><time>2026-03-22T16:09:52.095Z</time></trkpt><trkpt lat="45.7019959" lon="9.4358698"><ele>306.0</ele><time>2026-03-22T16:09:54.096Z</time></trkpt><trkpt lat="45.7019249" lon="9.4360026"><ele>306.0</ele><time>2026-03-22T16:09:56.096Z</time></trkpt><trkpt lat="45.701866" lon="9.436147"><ele>306.2</ele><time>2026-03-22T16:09:58.096Z</time></trkpt><trkpt lat="45.7018043" lon="9.4362966"><ele>306.40000000000003</ele><time>2026-03-22T16:10:00.096Z</time></trkpt><trkpt lat="45.7017013" lon="9.4364392"><ele>306.6</ele><time>2026-03-22T16:10:02.096Z</time></trkpt><trkpt lat="45.7016515" lon="9.4365093"><ele>306.8</ele><time>2026-03-22T16:10:03.096Z</time></trkpt><trkpt lat="45.7015992" lon="9.4365811"><ele>307.0</ele><time>2026-03-22T16:10:04.096Z</time></trkpt><trkpt lat="45.701537" lon="9.4366627"><ele>306.71428571428567</ele><time>2026-03-22T16:10:05.096Z</time></trkpt><trkpt lat="45.7014947" lon="9.4367421"><ele>306.42857142857144</ele><time>2026-03-22T16:10:06.096Z</time></trkpt><trkpt lat="45.7014676" lon="9.4368404"><ele>306.1428571428571</ele><time>2026-03-22T16:10:07.096Z</time></trkpt><trkpt lat="45.7014396" lon="9.4369357"><ele>305.85714285714283</ele><time>2026-03-22T16:10:08.096Z</time></trkpt><trkpt lat="45.7014036" lon="9.4370197"><ele>305.57142857142856</ele><time>2026-03-22T16:10:09.096Z</time></trkpt><trkpt lat="45.7013901" lon="9.4371175"><ele>305.2857142857143</ele><time>2026-03-22T16:10:10.096Z</time></trkpt><trkpt lat="45.7013492" lon="9.4371975"><ele>305.0</ele><time>2026-03-22T16:10:11.096Z</time></trkpt><trkpt lat="45.7013262" lon="9.4372818"><ele>305.0</ele><time>2026-03-22T16:10:12.096Z</time></trkpt><trkpt lat="45.7012543" lon="9.4374133"><ele>305.0</ele><time>2026-03-22T16:10:14.095Z</time></trkpt><trkpt lat="45.7011834" lon="9.437542"><ele>305.0</ele><time>2026-03-22T16:10:16.096Z</time></trkpt><trkpt lat="45.7011118" lon="9.4376849"><ele>305.0</ele><time>2026-03-22T16:10:18.096Z</time></trkpt><trkpt lat="45.7010077" lon="9.4377598"><ele>304.8</ele><time>2026-03-22T16:10:20.095Z</time></trkpt><trkpt lat="45.7009433" lon="9.4377657"><ele>304.6</ele><time>2026-03-22T16:10:21.096Z</time></trkpt><trkpt lat="45.7008387" lon="9.4377665"><ele>304.4</ele><time>2026-03-22T16:10:23.096Z</time></trkpt><trkpt lat="45.7007349" lon="9.4377665"><ele>304.2</ele><time>2026-03-22T16:10:25.096Z</time></trkpt><trkpt lat="45.7006159" lon="9.4377729"><ele>304.0</ele><time>2026-03-22T16:10:27.096Z</time></trkpt><trkpt lat="45.7005519" lon="9.4377723"><ele>304.0</ele><time>2026-03-22T16:10:28.096Z</time></trkpt><trkpt lat="45.7004425" lon="9.4377981"><ele>304.0</ele><time>2026-03-22T16:10:30.096Z</time></trkpt><trkpt lat="45.7003461" lon="9.4378658"><ele>304.0</ele><time>2026-03-22T16:10:32.096Z</time></trkpt><trkpt lat="45.7002606" lon="9.4379603"><ele>304.0</ele><time>2026-03-22T16:10:34.096Z</time></trkpt><trkpt lat="45.7001701" lon="9.4380511"><ele>304.0</ele><time>2026-03-22T16:10:36.096Z</time></trkpt><trkpt lat="45.7000968" lon="9.4381367"><ele>304.8</ele><time>2026-03-22T16:10:38.096Z</time></trkpt><trkpt lat="45.6999919" lon="9.438201"><ele>305.59999999999997</ele><time>2026-03-22T16:10:40.096Z</time></trkpt><trkpt lat="45.6999088" lon="9.4382131"><ele>306.4</ele><time>2026-03-22T16:10:42.096Z</time></trkpt><trkpt lat="45.6998265" lon="9.4382424"><ele>307.2</ele><time>2026-03-22T16:10:44.095Z</time></trkpt><trkpt lat="45.6997273" lon="9.4382718"><ele>308.0</ele><time>2026-03-22T16:10:46.096Z</time></trkpt><trkpt lat="45.6996238" lon="9.4383158"><ele>308.0</ele><time>2026-03-22T16:10:48.095Z</time></trkpt><trkpt lat="45.6995181" lon="9.4383909"><ele>308.0</ele><time>2026-03-22T16:10:50.096Z</time></trkpt><trkpt lat="45.6994255" lon="9.4384869"><ele>308.0</ele><time>2026-03-22T16:10:52.096Z</time></trkpt><trkpt lat="45.6993807" lon="9.4385921"><ele>308.0</ele><time>2026-03-22T16:10:54.095Z</time></trkpt><trkpt lat="45.6992889" lon="9.4387144"><ele>308.0</ele><time>2026-03-22T16:10:56.096Z</time></trkpt><trkpt lat="45.6992411" lon="9.4387804"><ele>307.8</ele><time>2026-03-22T16:10:57.096Z</time></trkpt><trkpt lat="45.6991803" lon="9.4388523"><ele>307.6</ele><time>2026-03-22T16:10:58.096Z</time></trkpt><trkpt lat="45.6991516" lon="9.4389352"><ele>307.4</ele><time>2026-03-22T16:10:59.095Z</time></trkpt><trkpt lat="45.6991168" lon="9.4390135"><ele>307.2</ele><time>2026-03-22T16:11:00.096Z</time></trkpt><trkpt lat="45.6990533" lon="9.4391663"><ele>307.0</ele><time>2026-03-22T16:11:02.096Z</time></trkpt><trkpt lat="45.6989844" lon="9.4393041"><ele>307.0</ele><time>2026-03-22T16:11:04.096Z</time></trkpt><trkpt lat="45.6989262" lon="9.4394532"><ele>307.0</ele><time>2026-03-22T16:11:06.096Z</time></trkpt><trkpt lat="45.6988585" lon="9.4396046"><ele>307.0</ele><time>2026-03-22T16:11:08.096Z</time></trkpt><trkpt lat="45.6988253" lon="9.4396836"><ele>307.0</ele><time>2026-03-22T16:11:09.096Z</time></trkpt><trkpt lat="45.6987754" lon="9.4397595"><ele>307.0</ele><time>2026-03-22T16:11:10.096Z</time></trkpt><trkpt lat="45.6987253" lon="9.439828"><ele>306.8333333333333</ele><time>2026-03-22T16:11:11.096Z</time></trkpt><trkpt lat="45.6986582" lon="9.4399432"><ele>306.66666666666663</ele><time>2026-03-22T16:11:13.095Z</time></trkpt><trkpt lat="45.6985969" lon="9.4400598"><ele>306.5</ele><time>2026-03-22T16:11:15.096Z</time></trkpt><trkpt lat="45.6985406" lon="9.440178"><ele>306.3333333333333</ele><time>2026-03-22T16:11:17.096Z</time></trkpt><trkpt lat="45.6984942" lon="9.4402541"><ele>306.1666666666667</ele><time>2026-03-22T16:11:19.095Z</time></trkpt><trkpt lat="45.6984827" lon="9.4403543"><ele>306.0</ele><time>2026-03-22T16:11:22.096Z</time></trkpt><trkpt lat="45.6983782" lon="9.4403667"><ele>306.5</ele><time>2026-03-22T16:11:24.096Z</time></trkpt><trkpt lat="45.6982829" lon="9.4403833"><ele>307.0</ele><time>2026-03-22T16:11:26.096Z</time></trkpt><trkpt lat="45.6982069" lon="9.4404158"><ele>307.5</ele><time>2026-03-22T16:11:28.096Z</time></trkpt><trkpt lat="45.6981426" lon="9.4404451"><ele>308.0</ele><time>2026-03-22T16:11:29.096Z</time></trkpt><trkpt lat="45.6980597" lon="9.4404763"><ele>308.5</ele><time>2026-03-22T16:11:30.096Z</time></trkpt><trkpt lat="45.6979917" lon="9.4404981"><ele>309.0</ele><time>2026-03-22T16:11:31.096Z</time></trkpt><trkpt lat="45.6979229" lon="9.4405355"><ele>309.0</ele><time>2026-03-22T16:11:32.096Z</time></trkpt><trkpt lat="45.6978305" lon="9.4405743"><ele>309.0</ele><time>2026-03-22T16:11:33.095Z</time></trkpt><trkpt lat="45.6977545" lon="9.4405937"><ele>309.0</ele><time>2026-03-22T16:11:34.096Z</time></trkpt><trkpt lat="45.697658" lon="9.4406206"><ele>309.0</ele><time>2026-03-22T16:11:35.095Z</time></trkpt><trkpt lat="45.6975244" lon="9.440649"><ele>309.0</ele><time>2026-03-22T16:11:37.096Z</time></trkpt><trkpt lat="45.6974409" lon="9.4406642"><ele>308.3333333333333</ele><time>2026-03-22T16:11:38.096Z</time></trkpt><trkpt lat="45.6973213" lon="9.4406982"><ele>307.6666666666667</ele><time>2026-03-22T16:11:40.096Z</time></trkpt><trkpt lat="45.697255" lon="9.4407145"><ele>307.0</ele><time>2026-03-22T16:11:41.096Z</time></trkpt><trkpt lat="45.6971718" lon="9.4407617"><ele>306.33333333333337</ele><time>2026-03-22T16:11:42.095Z</time></trkpt><trkpt lat="45.6970827" lon="9.4408053"><ele>305.6666666666667</ele><time>2026-03-22T16:11:43.096Z</time></trkpt><trkpt lat="45.6970081" lon="9.4408288"><ele>305.0</ele><time>2026-03-22T16:11:44.095Z</time></trkpt><trkpt lat="45.6969344" lon="9.4408405"><ele>303.2</ele><time>2026-03-22T16:11:45.096Z</time></trkpt><trkpt lat="45.6968441" lon="9.4408409"><ele>301.4</ele><time>2026-03-22T16:11:46.096Z</time></trkpt><trkpt lat="45.6967435" lon="9.4408545"><ele>299.6</ele><time>2026-03-22T16:11:47.096Z</time></trkpt><trkpt lat="45.6966501" lon="9.4408683"><ele>297.8</ele><time>2026-03-22T16:11:48.096Z</time></trkpt><trkpt lat="45.6965506" lon="9.4408757"><ele>296.0</ele><time>2026-03-22T16:11:49.096Z</time></trkpt><trkpt lat="45.6964511" lon="9.4408867"><ele>296.0</ele><time>2026-03-22T16:11:50.096Z</time></trkpt><trkpt lat="45.6963586" lon="9.4408989"><ele>296.0</ele><time>2026-03-22T16:11:51.096Z</time></trkpt><trkpt lat="45.6962601" lon="9.4409005"><ele>296.0</ele><time>2026-03-22T16:11:52.096Z</time></trkpt><trkpt lat="45.69616" lon="9.4409126"><ele>296.0</ele><time>2026-03-22T16:11:53.096Z</time></trkpt><trkpt lat="45.6960602" lon="9.4409259"><ele>296.0</ele><time>2026-03-22T16:11:54.096Z</time></trkpt><trkpt lat="45.6959588" lon="9.4409312"><ele>295.2</ele><time>2026-03-22T16:11:55.096Z</time></trkpt><trkpt lat="45.6958618" lon="9.4409451"><ele>294.40000000000003</ele><time>2026-03-22T16:11:56.096Z</time></trkpt><trkpt lat="45.6957478" lon="9.4409428"><ele>293.6</ele><time>2026-03-22T16:11:57.096Z</time></trkpt><trkpt lat="45.6956278" lon="9.4409296"><ele>292.8</ele><time>2026-03-22T16:11:58.096Z</time></trkpt><trkpt lat="45.6955208" lon="9.4409058"><ele>292.0</ele><time>2026-03-22T16:11:59.096Z</time></trkpt><trkpt lat="45.6954131" lon="9.4408801"><ele>292.0</ele><time>2026-03-22T16:12:00.096Z</time></trkpt><trkpt lat="45.6953066" lon="9.4408573"><ele>292.0</ele><time>2026-03-22T16:12:01.096Z</time></trkpt><trkpt lat="45.6952138" lon="9.4408462"><ele>292.0</ele><time>2026-03-22T16:12:02.096Z</time></trkpt><trkpt lat="45.6951033" lon="9.44084"><ele>292.0</ele><time>2026-03-22T16:12:03.096Z</time></trkpt><trkpt lat="45.6950128" lon="9.4408396"><ele>292.0</ele><time>2026-03-22T16:12:04.095Z</time></trkpt><trkpt lat="45.6949141" lon="9.4408572"><ele>291.0</ele><time>2026-03-22T16:12:05.095Z</time></trkpt><trkpt lat="45.6948264" lon="9.4408864"><ele>290.0</ele><time>2026-03-22T16:12:06.095Z</time></trkpt><trkpt lat="45.6947476" lon="9.4409196"><ele>289.0</ele><time>2026-03-22T16:12:07.096Z</time></trkpt><trkpt lat="45.694677" lon="9.4409789"><ele>288.0</ele><time>2026-03-22T16:12:08.096Z</time></trkpt><trkpt lat="45.6946132" lon="9.4410364"><ele>287.0</ele><time>2026-03-22T16:12:09.096Z</time></trkpt><trkpt lat="45.6945349" lon="9.4410843"><ele>286.0</ele><time>2026-03-22T16:12:10.096Z</time></trkpt><trkpt lat="45.6944607" lon="9.4411179"><ele>285.5</ele><time>2026-03-22T16:12:11.096Z</time></trkpt><trkpt lat="45.6943824" lon="9.4411607"><ele>285.0</ele><time>2026-03-22T16:12:12.096Z</time></trkpt><trkpt lat="45.6943137" lon="9.4411995"><ele>284.5</ele><time>2026-03-22T16:12:13.096Z</time></trkpt><trkpt lat="45.6942406" lon="9.4412502"><ele>284.0</ele><time>2026-03-22T16:12:14.096Z</time></trkpt><trkpt lat="45.6941727" lon="9.4412811"><ele>283.5</ele><time>2026-03-22T16:12:15.096Z</time></trkpt><trkpt lat="45.6940986" lon="9.4413095"><ele>283.0</ele><time>2026-03-22T16:12:16.096Z</time></trkpt><trkpt lat="45.6940245" lon="9.4413363"><ele>283.0</ele><time>2026-03-22T16:12:17.096Z</time></trkpt><trkpt lat="45.6939266" lon="9.441357"><ele>283.0</ele><time>2026-03-22T16:12:18.096Z</time></trkpt><trkpt lat="45.6938448" lon="9.4413886"><ele>283.0</ele><time>2026-03-22T16:12:19.096Z</time></trkpt><trkpt lat="45.6937661" lon="9.4414116"><ele>283.0</ele><time>2026-03-22T16:12:20.096Z</time></trkpt><trkpt lat="45.6936856" lon="9.4414353"><ele>283.0</ele><time>2026-03-22T16:12:21.096Z</time></trkpt><trkpt lat="45.6936108" lon="9.4414638"><ele>283.0</ele><time>2026-03-22T16:12:22.095Z</time></trkpt><trkpt lat="45.693552" lon="9.4414983"><ele>282.66666666666663</ele><time>2026-03-22T16:12:23.096Z</time></trkpt><trkpt lat="45.6934617" lon="9.4415322"><ele>282.3333333333333</ele><time>2026-03-22T16:12:24.096Z</time></trkpt><trkpt lat="45.6933845" lon="9.4415633"><ele>282.0</ele><time>2026-03-22T16:12:25.095Z</time></trkpt><trkpt lat="45.6933059" lon="9.4415869"><ele>281.6666666666667</ele><time>2026-03-22T16:12:26.096Z</time></trkpt><trkpt lat="45.6932188" lon="9.4416293"><ele>281.33333333333337</ele><time>2026-03-22T16:12:27.096Z</time></trkpt><trkpt lat="45.6931529" lon="9.4416695"><ele>281.0</ele><time>2026-03-22T16:12:28.096Z</time></trkpt><trkpt lat="45.6930655" lon="9.4416876"><ele>281.0</ele><time>2026-03-22T16:12:29.096Z</time></trkpt><trkpt lat="45.6929747" lon="9.4417108"><ele>281.0</ele><time>2026-03-22T16:12:30.096Z</time></trkpt><trkpt lat="45.6928834" lon="9.4417307"><ele>281.0</ele><time>2026-03-22T16:12:31.096Z</time></trkpt><trkpt lat="45.6928044" lon="9.4417473"><ele>281.0</ele><time>2026-03-22T16:12:32.096Z</time></trkpt><trkpt lat="45.6927356" lon="9.4417721"><ele>281.0</ele><time>2026-03-22T16:12:33.096Z</time></trkpt><trkpt lat="45.6926117" lon="9.4417923"><ele>279.8</ele><time>2026-03-22T16:12:35.096Z</time></trkpt><trkpt lat="45.692508" lon="9.4418083"><ele>278.6</ele><time>2026-03-22T16:12:37.096Z</time></trkpt><trkpt lat="45.6924054" lon="9.4417974"><ele>277.4</ele><time>2026-03-22T16:12:39.096Z</time></trkpt><trkpt lat="45.6922993" lon="9.4418077"><ele>276.2</ele><time>2026-03-22T16:12:41.096Z</time></trkpt><trkpt lat="45.6921783" lon="9.4418012"><ele>275.0</ele><time>2026-03-22T16:12:43.096Z</time></trkpt><trkpt lat="45.6921067" lon="9.441792"><ele>275.0</ele><time>2026-03-22T16:12:44.096Z</time></trkpt><trkpt lat="45.6919918" lon="9.4417805"><ele>275.0</ele><time>2026-03-22T16:12:46.096Z</time></trkpt><trkpt lat="45.6919185" lon="9.4417832"><ele>275.0</ele><time>2026-03-22T16:12:47.096Z</time></trkpt><trkpt lat="45.6918448" lon="9.4418027"><ele>275.0</ele><time>2026-03-22T16:12:48.096Z</time></trkpt><trkpt lat="45.6917342" lon="9.4417688"><ele>275.0</ele><time>2026-03-22T16:12:50.096Z</time></trkpt><trkpt lat="45.691666" lon="9.4417635"><ele>275.0</ele><time>2026-03-22T16:12:51.096Z</time></trkpt><trkpt lat="45.6915592" lon="9.4418113"><ele>274.6</ele><time>2026-03-22T16:12:53.096Z</time></trkpt><trkpt lat="45.6914997" lon="9.4419275"><ele>274.2</ele><time>2026-03-22T16:12:55.096Z</time></trkpt><trkpt lat="45.6914693" lon="9.4420326"><ele>273.8</ele><time>2026-03-22T16:12:57.096Z</time></trkpt><trkpt lat="45.6913634" lon="9.4420738"><ele>273.4</ele><time>2026-03-22T16:12:59.096Z</time></trkpt><trkpt lat="45.6912592" lon="9.4421019"><ele>273.0</ele><time>2026-03-22T16:13:01.096Z</time></trkpt><trkpt lat="45.6911943" lon="9.4421124"><ele>273.8</ele><time>2026-03-22T16:13:02.096Z</time></trkpt><trkpt lat="45.6911301" lon="9.4421464"><ele>274.6</ele><time>2026-03-22T16:13:03.096Z</time></trkpt><trkpt lat="45.6910421" lon="9.4421546"><ele>275.4</ele><time>2026-03-22T16:13:04.096Z</time></trkpt><trkpt lat="45.6909341" lon="9.4422082"><ele>276.2</ele><time>2026-03-22T16:13:06.096Z</time></trkpt><trkpt lat="45.6908363" lon="9.4422657"><ele>277.0</ele><time>2026-03-22T16:13:08.095Z</time></trkpt><trkpt lat="45.6907145" lon="9.4423325"><ele>277.2</ele><time>2026-03-22T16:13:10.096Z</time></trkpt><trkpt lat="45.6906538" lon="9.4424632"><ele>277.4</ele><time>2026-03-22T16:13:12.095Z</time></trkpt><trkpt lat="45.6905757" lon="9.4425122"><ele>277.6</ele><time>2026-03-22T16:13:13.096Z</time></trkpt><trkpt lat="45.6905159" lon="9.4425443"><ele>277.8</ele><time>2026-03-22T16:13:14.096Z</time></trkpt><trkpt lat="45.6903918" lon="9.442604"><ele>278.0</ele><time>2026-03-22T16:13:16.096Z</time></trkpt><trkpt lat="45.6902708" lon="9.4426732"><ele>277.83333333333337</ele><time>2026-03-22T16:13:18.096Z</time></trkpt><trkpt lat="45.6901584" lon="9.4428009"><ele>277.6666666666667</ele><time>2026-03-22T16:13:20.096Z</time></trkpt><trkpt lat="45.6900953" lon="9.4428346"><ele>277.5</ele><time>2026-03-22T16:13:21.095Z</time></trkpt><trkpt lat="45.6900325" lon="9.4428815"><ele>277.3333333333333</ele><time>2026-03-22T16:13:22.096Z</time></trkpt><trkpt lat="45.6899723" lon="9.4429263"><ele>277.16666666666663</ele><time>2026-03-22T16:13:23.096Z</time></trkpt><trkpt lat="45.6899115" lon="9.4429674"><ele>277.0</ele><time>2026-03-22T16:13:24.096Z</time></trkpt><trkpt lat="45.6898024" lon="9.4430498"><ele>277.0</ele><time>2026-03-22T16:13:26.096Z</time></trkpt><trkpt lat="45.6897334" lon="9.4430791"><ele>277.0</ele><time>2026-03-22T16:13:27.095Z</time></trkpt><trkpt lat="45.6896113" lon="9.4431878"><ele>277.0</ele><time>2026-03-22T16:13:29.095Z</time></trkpt><trkpt lat="45.6895495" lon="9.4432229"><ele>277.0</ele><time>2026-03-22T16:13:30.095Z</time></trkpt><trkpt lat="45.6894933" lon="9.4432933"><ele>277.0</ele><time>2026-03-22T16:13:31.096Z</time></trkpt><trkpt lat="45.6894371" lon="9.4433359"><ele>277.0</ele><time>2026-03-22T16:13:32.096Z</time></trkpt><trkpt lat="45.6893659" lon="9.4433809"><ele>276.66666666666663</ele><time>2026-03-22T16:13:33.096Z</time></trkpt><trkpt lat="45.6892998" lon="9.4434249"><ele>276.3333333333333</ele><time>2026-03-22T16:13:34.096Z</time></trkpt><trkpt lat="45.6892433" lon="9.4434687"><ele>276.0</ele><time>2026-03-22T16:13:35.096Z</time></trkpt><trkpt lat="45.6891874" lon="9.4435184"><ele>275.6666666666667</ele><time>2026-03-22T16:13:36.096Z</time></trkpt><trkpt lat="45.6890612" lon="9.443607"><ele>275.33333333333337</ele><time>2026-03-22T16:13:38.096Z</time></trkpt><trkpt lat="45.6889901" lon="9.4436766"><ele>275.0</ele><time>2026-03-22T16:13:39.096Z</time></trkpt><trkpt lat="45.6888968" lon="9.4437848"><ele>275.2</ele><time>2026-03-22T16:13:41.096Z</time></trkpt><trkpt lat="45.6888221" lon="9.4438445"><ele>275.4</ele><time>2026-03-22T16:13:42.096Z</time></trkpt><trkpt lat="45.68875" lon="9.4438859"><ele>275.6</ele><time>2026-03-22T16:13:43.096Z</time></trkpt><trkpt lat="45.6886426" lon="9.4439946"><ele>275.8</ele><time>2026-03-22T16:13:45.096Z</time></trkpt><trkpt lat="45.6885462" lon="9.4441072"><ele>276.0</ele><time>2026-03-22T16:13:47.096Z</time></trkpt><trkpt lat="45.6884898" lon="9.4441841"><ele>276.0</ele><time>2026-03-22T16:13:48.096Z</time></trkpt><trkpt lat="45.6884006" lon="9.4441955"><ele>276.0</ele><time>2026-03-22T16:13:49.096Z</time></trkpt><trkpt lat="45.6883471" lon="9.4442518"><ele>276.0</ele><time>2026-03-22T16:13:50.096Z</time></trkpt><trkpt lat="45.6882713" lon="9.4442877"><ele>276.0</ele><time>2026-03-22T16:13:51.096Z</time></trkpt><trkpt lat="45.6881729" lon="9.4443992"><ele>276.0</ele><time>2026-03-22T16:13:53.096Z</time></trkpt><trkpt lat="45.6881105" lon="9.4444382"><ele>276.0</ele><time>2026-03-22T16:13:54.096Z</time></trkpt><trkpt lat="45.6879967" lon="9.4445266"><ele>276.0</ele><time>2026-03-22T16:13:56.096Z</time></trkpt><trkpt lat="45.6879183" lon="9.4445663"><ele>276.0</ele><time>2026-03-22T16:13:57.096Z</time></trkpt><trkpt lat="45.6878692" lon="9.4446245"><ele>276.0</ele><time>2026-03-22T16:13:58.096Z</time></trkpt><trkpt lat="45.687758" lon="9.4447227"><ele>276.0</ele><time>2026-03-22T16:14:00.096Z</time></trkpt><trkpt lat="45.6877128" lon="9.4447883"><ele>276.0</ele><time>2026-03-22T16:14:01.096Z</time></trkpt><trkpt lat="45.6876305" lon="9.4448202"><ele>276.0</ele><time>2026-03-22T16:14:02.096Z</time></trkpt><trkpt lat="45.6875598" lon="9.4448755"><ele>275.8</ele><time>2026-03-22T16:14:03.096Z</time></trkpt><trkpt lat="45.6874352" lon="9.4449803"><ele>275.6</ele><time>2026-03-22T16:14:05.096Z</time></trkpt><trkpt lat="45.6873741" lon="9.4450466"><ele>275.4</ele><time>2026-03-22T16:14:06.096Z</time></trkpt><trkpt lat="45.6872983" lon="9.4451141"><ele>275.2</ele><time>2026-03-22T16:14:07.096Z</time></trkpt><trkpt lat="45.6872261" lon="9.4451676"><ele>275.0</ele><time>2026-03-22T16:14:08.096Z</time></trkpt><trkpt lat="45.6871582" lon="9.4451999"><ele>275.0</ele><time>2026-03-22T16:14:09.095Z</time></trkpt><trkpt lat="45.6870716" lon="9.4452376"><ele>275.0</ele><time>2026-03-22T16:14:10.096Z</time></trkpt><trkpt lat="45.6869998" lon="9.4452656"><ele>275.0</ele><time>2026-03-22T16:14:11.096Z</time></trkpt><trkpt lat="45.6868863" lon="9.4452622"><ele>275.0</ele><time>2026-03-22T16:14:13.096Z</time></trkpt><trkpt lat="45.6868017" lon="9.4452611"><ele>275.0</ele><time>2026-03-22T16:14:14.095Z</time></trkpt><trkpt lat="45.686729" lon="9.4452556"><ele>275.0</ele><time>2026-03-22T16:14:15.096Z</time></trkpt><trkpt lat="45.6866548" lon="9.4452345"><ele>274.8</ele><time>2026-03-22T16:14:16.096Z</time></trkpt><trkpt lat="45.6865778" lon="9.4452351"><ele>274.6</ele><time>2026-03-22T16:14:17.095Z</time></trkpt><trkpt lat="45.6865021" lon="9.445248"><ele>274.4</ele><time>2026-03-22T16:14:18.096Z</time></trkpt><trkpt lat="45.6863703" lon="9.4452467"><ele>274.2</ele><time>2026-03-22T16:14:20.095Z</time></trkpt><trkpt lat="45.6862463" lon="9.4452062"><ele>274.0</ele><time>2026-03-22T16:14:22.096Z</time></trkpt><trkpt lat="45.6861659" lon="9.4451929"><ele>274.00000000000006</ele><time>2026-03-22T16:14:23.096Z</time></trkpt><trkpt lat="45.6860968" lon="9.4451813"><ele>274.0</ele><time>2026-03-22T16:14:24.096Z</time></trkpt><trkpt lat="45.686023" lon="9.445172"><ele>274.0</ele><time>2026-03-22T16:14:25.096Z</time></trkpt><trkpt lat="45.6859602" lon="9.4451553"><ele>274.0</ele><time>2026-03-22T16:14:26.096Z</time></trkpt><trkpt lat="45.6858896" lon="9.4451402"><ele>274.0</ele><time>2026-03-22T16:14:27.096Z</time></trkpt><trkpt lat="45.6858088" lon="9.4451245"><ele>274.00000000000006</ele><time>2026-03-22T16:14:28.096Z</time></trkpt><trkpt lat="45.68574" lon="9.4451235"><ele>274.0</ele><time>2026-03-22T16:14:29.096Z</time></trkpt><trkpt lat="45.6856307" lon="9.4450972"><ele>273.8333333333333</ele><time>2026-03-22T16:14:31.095Z</time></trkpt><trkpt lat="45.6855642" lon="9.445068"><ele>273.66666666666663</ele><time>2026-03-22T16:14:32.096Z</time></trkpt><trkpt lat="45.6854974" lon="9.4450473"><ele>273.5</ele><time>2026-03-22T16:14:33.096Z</time></trkpt><trkpt lat="45.6854193" lon="9.4450198"><ele>273.3333333333333</ele><time>2026-03-22T16:14:34.096Z</time></trkpt><trkpt lat="45.68528" lon="9.4449893"><ele>273.1666666666667</ele><time>2026-03-22T16:14:36.096Z</time></trkpt><trkpt lat="45.6852103" lon="9.4449715"><ele>273.0</ele><time>2026-03-22T16:14:37.096Z</time></trkpt><trkpt lat="45.6851382" lon="9.4449568"><ele>273.0</ele><time>2026-03-22T16:14:38.096Z</time></trkpt><trkpt lat="45.6850674" lon="9.4449273"><ele>273.0</ele><time>2026-03-22T16:14:39.095Z</time></trkpt><trkpt lat="45.6850017" lon="9.4449026"><ele>273.0</ele><time>2026-03-22T16:14:40.096Z</time></trkpt><trkpt lat="45.6849269" lon="9.4448891"><ele>273.0</ele><time>2026-03-22T16:14:41.096Z</time></trkpt><trkpt lat="45.6848622" lon="9.4448641"><ele>273.0</ele><time>2026-03-22T16:14:42.096Z</time></trkpt><trkpt lat="45.6847774" lon="9.444827"><ele>273.0</ele><time>2026-03-22T16:14:43.096Z</time></trkpt><trkpt lat="45.684706" lon="9.4447981"><ele>273.0</ele><time>2026-03-22T16:14:44.096Z</time></trkpt><trkpt lat="45.6846327" lon="9.4447652"><ele>273.0</ele><time>2026-03-22T16:14:45.095Z</time></trkpt><trkpt lat="45.6845661" lon="9.4447274"><ele>273.0</ele><time>2026-03-22T16:14:46.095Z</time></trkpt><trkpt lat="45.6844443" lon="9.4446846"><ele>273.0</ele><time>2026-03-22T16:14:48.096Z</time></trkpt><trkpt lat="45.6843734" lon="9.4446637"><ele>273.0</ele><time>2026-03-22T16:14:49.096Z</time></trkpt><trkpt lat="45.6843089" lon="9.4446369"><ele>273.0</ele><time>2026-03-22T16:14:50.096Z</time></trkpt><trkpt lat="45.6841965" lon="9.4446141"><ele>273.1666666666667</ele><time>2026-03-22T16:14:52.096Z</time></trkpt><trkpt lat="45.6841236" lon="9.4446021"><ele>273.3333333333333</ele><time>2026-03-22T16:14:53.095Z</time></trkpt><trkpt lat="45.6839876" lon="9.4446023"><ele>273.5</ele><time>2026-03-22T16:14:55.096Z</time></trkpt><trkpt lat="45.6839212" lon="9.4446051"><ele>273.66666666666663</ele><time>2026-03-22T16:14:56.096Z</time></trkpt><trkpt lat="45.6838552" lon="9.4446138"><ele>273.8333333333333</ele><time>2026-03-22T16:14:57.096Z</time></trkpt><trkpt lat="45.6837804" lon="9.4446178"><ele>274.0</ele><time>2026-03-22T16:14:58.096Z</time></trkpt><trkpt lat="45.6836747" lon="9.4446166"><ele>274.0</ele><time>2026-03-22T16:15:00.096Z</time></trkpt><trkpt lat="45.6835569" lon="9.4445943"><ele>274.0</ele><time>2026-03-22T16:15:02.096Z</time></trkpt><trkpt lat="45.6834884" lon="9.4445994"><ele>274.0</ele><time>2026-03-22T16:15:03.096Z</time></trkpt><trkpt lat="45.683422" lon="9.44459"><ele>274.0</ele><time>2026-03-22T16:15:04.096Z</time></trkpt><trkpt lat="45.6833502" lon="9.444588"><ele>274.0</ele><time>2026-03-22T16:15:05.096Z</time></trkpt><trkpt lat="45.6832247" lon="9.4445793"><ele>274.0</ele><time>2026-03-22T16:15:07.096Z</time></trkpt><trkpt lat="45.68316" lon="9.4445813"><ele>274.0</ele><time>2026-03-22T16:15:08.096Z</time></trkpt><trkpt lat="45.6830859" lon="9.4445972"><ele>274.0</ele><time>2026-03-22T16:15:09.096Z</time></trkpt><trkpt lat="45.6830198" lon="9.4446075"><ele>274.0</ele><time>2026-03-22T16:15:10.096Z</time></trkpt><trkpt lat="45.682953" lon="9.4446141"><ele>274.0</ele><time>2026-03-22T16:15:11.096Z</time></trkpt><trkpt lat="45.6828408" lon="9.4446366"><ele>274.0</ele><time>2026-03-22T16:15:13.096Z</time></trkpt><trkpt lat="45.6826919" lon="9.4446646"><ele>273.59999999999997</ele><time>2026-03-22T16:15:15.095Z</time></trkpt><trkpt lat="45.6826195" lon="9.4446802"><ele>273.2</ele><time>2026-03-22T16:15:16.096Z</time></trkpt><trkpt lat="45.6824814" lon="9.4447212"><ele>272.79999999999995</ele><time>2026-03-22T16:15:18.096Z</time></trkpt><trkpt lat="45.682418" lon="9.4447324"><ele>272.4</ele><time>2026-03-22T16:15:19.096Z</time></trkpt><trkpt lat="45.6822984" lon="9.4447626"><ele>272.0</ele><time>2026-03-22T16:15:21.096Z</time></trkpt><trkpt lat="45.6822217" lon="9.4447693"><ele>272.0</ele><time>2026-03-22T16:15:22.096Z</time></trkpt><trkpt lat="45.6821548" lon="9.4447403"><ele>272.0</ele><time>2026-03-22T16:15:24.096Z</time></trkpt><trkpt lat="45.6820727" lon="9.4447174"><ele>272.0</ele><time>2026-03-22T16:15:25.096Z</time></trkpt><trkpt lat="45.6819949" lon="9.4447167"><ele>272.0</ele><time>2026-03-22T16:15:27.096Z</time></trkpt><trkpt lat="45.6819276" lon="9.4446962"><ele>272.0</ele><time>2026-03-22T16:15:28.096Z</time></trkpt><trkpt lat="45.6818542" lon="9.4446879"><ele>272.0</ele><time>2026-03-22T16:15:29.096Z</time></trkpt><trkpt lat="45.6817477" lon="9.4446572"><ele>272.0</ele><time>2026-03-22T16:15:31.096Z</time></trkpt><trkpt lat="45.6816428" lon="9.4446308"><ele>272.0</ele><time>2026-03-22T16:15:33.096Z</time></trkpt><trkpt lat="45.6815723" lon="9.4446433"><ele>272.0</ele><time>2026-03-22T16:15:34.095Z</time></trkpt><trkpt lat="45.6814873" lon="9.4446036"><ele>272.0</ele><time>2026-03-22T16:15:37.096Z</time></trkpt><trkpt lat="45.6814296" lon="9.4445656"><ele>272.0</ele><time>2026-03-22T16:15:40.096Z</time></trkpt><trkpt lat="45.6813475" lon="9.4446097"><ele>272.0</ele><time>2026-03-22T16:15:45.095Z</time></trkpt><trkpt lat="45.6812491" lon="9.4446009"><ele>271.8</ele><time>2026-03-22T16:15:47.095Z</time></trkpt><trkpt lat="45.6811249" lon="9.4445674"><ele>271.6</ele><time>2026-03-22T16:15:49.096Z</time></trkpt><trkpt lat="45.6810087" lon="9.4445446"><ele>271.40000000000003</ele><time>2026-03-22T16:15:51.096Z</time></trkpt><trkpt lat="45.6809141" lon="9.4444719"><ele>271.2</ele><time>2026-03-22T16:15:53.095Z</time></trkpt><trkpt lat="45.6808393" lon="9.4444759"><ele>271.0</ele><time>2026-03-22T16:15:55.096Z</time></trkpt><trkpt lat="45.6807287" lon="9.4444507"><ele>270.8</ele><time>2026-03-22T16:15:57.096Z</time></trkpt><trkpt lat="45.6806386" lon="9.4444115"><ele>270.6</ele><time>2026-03-22T16:15:59.096Z</time></trkpt><trkpt lat="45.6805407" lon="9.4444691"><ele>270.4</ele><time>2026-03-22T16:16:01.096Z</time></trkpt><trkpt lat="45.6804521" lon="9.4445112"><ele>270.2</ele><time>2026-03-22T16:16:03.096Z</time></trkpt><trkpt lat="45.6803498" lon="9.4444944"><ele>270.0</ele><time>2026-03-22T16:16:05.096Z</time></trkpt><trkpt lat="45.6802382" lon="9.444512"><ele>270.0</ele><time>2026-03-22T16:16:07.096Z</time></trkpt><trkpt lat="45.6801665" lon="9.4445214"><ele>270.0</ele><time>2026-03-22T16:16:08.096Z</time></trkpt><trkpt lat="45.6800779" lon="9.4445547"><ele>270.0</ele><time>2026-03-22T16:16:10.096Z</time></trkpt><trkpt lat="45.6799567" lon="9.4444692"><ele>270.0</ele><time>2026-03-22T16:16:12.096Z</time></trkpt><trkpt lat="45.67988" lon="9.4444767"><ele>270.0</ele><time>2026-03-22T16:16:13.096Z</time></trkpt><trkpt lat="45.6798153" lon="9.444447"><ele>270.0</ele><time>2026-03-22T16:16:14.096Z</time></trkpt><trkpt lat="45.6797458" lon="9.4444425"><ele>270.0</ele><time>2026-03-22T16:16:15.096Z</time></trkpt><trkpt lat="45.679678" lon="9.4444173"><ele>270.0</ele><time>2026-03-22T16:16:16.096Z</time></trkpt><trkpt lat="45.6796105" lon="9.4443631"><ele>270.0</ele><time>2026-03-22T16:16:17.096Z</time></trkpt><trkpt lat="45.6794981" lon="9.4443525"><ele>270.0</ele><time>2026-03-22T16:16:19.096Z</time></trkpt><trkpt lat="45.679423" lon="9.4443254"><ele>270.0</ele><time>2026-03-22T16:16:20.096Z</time></trkpt><trkpt lat="45.679351" lon="9.4442941"><ele>270.0</ele><time>2026-03-22T16:16:21.096Z</time></trkpt><trkpt lat="45.6792846" lon="9.4442532"><ele>269.5</ele><time>2026-03-22T16:16:22.096Z</time></trkpt><trkpt lat="45.6792025" lon="9.4442348"><ele>269.0</ele><time>2026-03-22T16:16:23.095Z</time></trkpt><trkpt lat="45.6791384" lon="9.4442359"><ele>268.5</ele><time>2026-03-22T16:16:24.096Z</time></trkpt><trkpt lat="45.6790696" lon="9.4442315"><ele>268.0</ele><time>2026-03-22T16:16:25.095Z</time></trkpt><trkpt lat="45.6790001" lon="9.4442254"><ele>267.5</ele><time>2026-03-22T16:16:26.096Z</time></trkpt><trkpt lat="45.6788734" lon="9.4442028"><ele>267.0</ele><time>2026-03-22T16:16:28.096Z</time></trkpt><trkpt lat="45.6788068" lon="9.4442035"><ele>267.00000000000006</ele><time>2026-03-22T16:16:29.095Z</time></trkpt><trkpt lat="45.6787372" lon="9.4441787"><ele>267.0</ele><time>2026-03-22T16:16:30.096Z</time></trkpt><trkpt lat="45.6786605" lon="9.4441531"><ele>267.0</ele><time>2026-03-22T16:16:31.096Z</time></trkpt><trkpt lat="45.6785876" lon="9.4441405"><ele>267.0</ele><time>2026-03-22T16:16:32.096Z</time></trkpt><trkpt lat="45.6785166" lon="9.4441338"><ele>267.0</ele><time>2026-03-22T16:16:33.096Z</time></trkpt><trkpt lat="45.6784431" lon="9.4441168"><ele>267.00000000000006</ele><time>2026-03-22T16:16:34.096Z</time></trkpt><trkpt lat="45.6783777" lon="9.4441075"><ele>267.0</ele><time>2026-03-22T16:16:35.096Z</time></trkpt><trkpt lat="45.6783013" lon="9.4441127"><ele>267.0</ele><time>2026-03-22T16:16:36.096Z</time></trkpt><trkpt lat="45.6781845" lon="9.4441061"><ele>267.0</ele><time>2026-03-22T16:16:38.096Z</time></trkpt><trkpt lat="45.6781178" lon="9.444081"><ele>267.0</ele><time>2026-03-22T16:16:39.096Z</time></trkpt><trkpt lat="45.6780545" lon="9.4440817"><ele>267.0</ele><time>2026-03-22T16:16:40.096Z</time></trkpt><trkpt lat="45.6779775" lon="9.4440646"><ele>267.0</ele><time>2026-03-22T16:16:41.095Z</time></trkpt><trkpt lat="45.6778162" lon="9.4440015"><ele>266.8333333333333</ele><time>2026-03-22T16:16:43.096Z</time></trkpt><trkpt lat="45.6777426" lon="9.4440005"><ele>266.6666666666667</ele><time>2026-03-22T16:16:44.096Z</time></trkpt><trkpt lat="45.6776681" lon="9.4439769"><ele>266.5</ele><time>2026-03-22T16:16:45.095Z</time></trkpt><trkpt lat="45.6775927" lon="9.4439506"><ele>266.33333333333337</ele><time>2026-03-22T16:16:46.096Z</time></trkpt><trkpt lat="45.6775192" lon="9.4439287"><ele>266.1666666666667</ele><time>2026-03-22T16:16:47.096Z</time></trkpt><trkpt lat="45.6774341" lon="9.4438903"><ele>266.0</ele><time>2026-03-22T16:16:48.096Z</time></trkpt><trkpt lat="45.6773661" lon="9.4438779"><ele>266.0</ele><time>2026-03-22T16:16:49.096Z</time></trkpt><trkpt lat="45.6772943" lon="9.443862"><ele>266.0</ele><time>2026-03-22T16:16:50.096Z</time></trkpt><trkpt lat="45.6772179" lon="9.443864"><ele>266.0</ele><time>2026-03-22T16:16:51.096Z</time></trkpt><trkpt lat="45.6770808" lon="9.4438549"><ele>266.0</ele><time>2026-03-22T16:16:53.096Z</time></trkpt><trkpt lat="45.6770101" lon="9.4438252"><ele>266.0</ele><time>2026-03-22T16:16:54.096Z</time></trkpt><trkpt lat="45.6768921" lon="9.4438011"><ele>265.83333333333337</ele><time>2026-03-22T16:16:56.096Z</time></trkpt><trkpt lat="45.6768081" lon="9.4437974"><ele>265.6666666666667</ele><time>2026-03-22T16:16:57.096Z</time></trkpt><trkpt lat="45.676731" lon="9.4437715"><ele>265.5</ele><time>2026-03-22T16:16:58.096Z</time></trkpt><trkpt lat="45.6766592" lon="9.4437404"><ele>265.3333333333333</ele><time>2026-03-22T16:16:59.096Z</time></trkpt><trkpt lat="45.6765866" lon="9.4437324"><ele>265.16666666666663</ele><time>2026-03-22T16:17:00.096Z</time></trkpt><trkpt lat="45.676529" lon="9.4436818"><ele>265.0</ele><time>2026-03-22T16:17:01.096Z</time></trkpt><trkpt lat="45.6764445" lon="9.4436492"><ele>265.0</ele><time>2026-03-22T16:17:02.096Z</time></trkpt><trkpt lat="45.6763623" lon="9.443627"><ele>265.0</ele><time>2026-03-22T16:17:03.096Z</time></trkpt><trkpt lat="45.6762902" lon="9.4435932"><ele>265.0</ele><time>2026-03-22T16:17:04.096Z</time></trkpt><trkpt lat="45.6762232" lon="9.4435725"><ele>265.0</ele><time>2026-03-22T16:17:05.096Z</time></trkpt><trkpt lat="45.6761494" lon="9.4435572"><ele>265.0</ele><time>2026-03-22T16:17:06.096Z</time></trkpt><trkpt lat="45.6760722" lon="9.4435225"><ele>265.0</ele><time>2026-03-22T16:17:07.096Z</time></trkpt><trkpt lat="45.6760053" lon="9.4434965"><ele>264.8333333333333</ele><time>2026-03-22T16:17:08.096Z</time></trkpt><trkpt lat="45.6759378" lon="9.4434665"><ele>264.66666666666663</ele><time>2026-03-22T16:17:09.096Z</time></trkpt><trkpt lat="45.6758706" lon="9.4434534"><ele>264.5</ele><time>2026-03-22T16:17:10.096Z</time></trkpt><trkpt lat="45.6758003" lon="9.4434319"><ele>264.3333333333333</ele><time>2026-03-22T16:17:11.095Z</time></trkpt><trkpt lat="45.6756756" lon="9.443395"><ele>264.1666666666667</ele><time>2026-03-22T16:17:13.096Z</time></trkpt><trkpt lat="45.675604" lon="9.4433645"><ele>264.0</ele><time>2026-03-22T16:17:14.096Z</time></trkpt><trkpt lat="45.6755354" lon="9.4433246"><ele>264.0</ele><time>2026-03-22T16:17:15.096Z</time></trkpt><trkpt lat="45.6754627" lon="9.4432766"><ele>264.0</ele><time>2026-03-22T16:17:16.096Z</time></trkpt><trkpt lat="45.6753927" lon="9.4432436"><ele>264.0</ele><time>2026-03-22T16:17:17.096Z</time></trkpt><trkpt lat="45.675325" lon="9.4432123"><ele>264.0</ele><time>2026-03-22T16:17:18.096Z</time></trkpt><trkpt lat="45.6752583" lon="9.4431946"><ele>264.0</ele><time>2026-03-22T16:17:19.096Z</time></trkpt><trkpt lat="45.6751834" lon="9.4431652"><ele>264.0</ele><time>2026-03-22T16:17:20.096Z</time></trkpt><trkpt lat="45.6750554" lon="9.4431136"><ele>263.6666666666667</ele><time>2026-03-22T16:17:22.096Z</time></trkpt><trkpt lat="45.6749919" lon="9.4431001"><ele>263.3333333333333</ele><time>2026-03-22T16:17:23.096Z</time></trkpt><trkpt lat="45.674921" lon="9.4430796"><ele>263.0</ele><time>2026-03-22T16:17:24.096Z</time></trkpt><trkpt lat="45.6748503" lon="9.4430298"><ele>262.66666666666663</ele><time>2026-03-22T16:17:25.096Z</time></trkpt><trkpt lat="45.6747814" lon="9.4429996"><ele>262.3333333333333</ele><time>2026-03-22T16:17:26.096Z</time></trkpt><trkpt lat="45.6746544" lon="9.4429732"><ele>262.0</ele><time>2026-03-22T16:17:28.096Z</time></trkpt><trkpt lat="45.6745691" lon="9.4429421"><ele>261.8333333333333</ele><time>2026-03-22T16:17:29.096Z</time></trkpt><trkpt lat="45.6744988" lon="9.4429118"><ele>261.66666666666663</ele><time>2026-03-22T16:17:30.096Z</time></trkpt><trkpt lat="45.6744185" lon="9.4428875"><ele>261.5</ele><time>2026-03-22T16:17:31.096Z</time></trkpt><trkpt lat="45.6743429" lon="9.4428614"><ele>261.3333333333333</ele><time>2026-03-22T16:17:32.096Z</time></trkpt><trkpt lat="45.6742775" lon="9.442842"><ele>261.1666666666667</ele><time>2026-03-22T16:17:33.096Z</time></trkpt><trkpt lat="45.6742128" lon="9.4428327"><ele>261.0</ele><time>2026-03-22T16:17:34.096Z</time></trkpt><trkpt lat="45.6741138" lon="9.4428433"><ele>261.0</ele><time>2026-03-22T16:17:36.096Z</time></trkpt><trkpt lat="45.6740542" lon="9.4428743"><ele>261.0</ele><time>2026-03-22T16:17:38.096Z</time></trkpt><trkpt lat="45.6739709" lon="9.4428398"><ele>261.0</ele><time>2026-03-22T16:17:40.096Z</time></trkpt><trkpt lat="45.6738985" lon="9.4427471"><ele>261.0</ele><time>2026-03-22T16:17:42.095Z</time></trkpt><trkpt lat="45.6738093" lon="9.4426357"><ele>261.0</ele><time>2026-03-22T16:17:44.096Z</time></trkpt><trkpt lat="45.6737577" lon="9.4425756"><ele>261.0</ele><time>2026-03-22T16:17:45.095Z</time></trkpt><trkpt lat="45.6737033" lon="9.4425117"><ele>260.8333333333333</ele><time>2026-03-22T16:17:46.096Z</time></trkpt><trkpt lat="45.6736042" lon="9.4423939"><ele>260.6666666666667</ele><time>2026-03-22T16:17:48.095Z</time></trkpt><trkpt lat="45.6735403" lon="9.4423262"><ele>260.5</ele><time>2026-03-22T16:17:49.096Z</time></trkpt><trkpt lat="45.6734917" lon="9.4422586"><ele>260.33333333333337</ele><time>2026-03-22T16:17:50.095Z</time></trkpt><trkpt lat="45.6734428" lon="9.442192"><ele>260.1666666666667</ele><time>2026-03-22T16:17:51.096Z</time></trkpt><trkpt lat="45.6733975" lon="9.4420965"><ele>260.0</ele><time>2026-03-22T16:17:52.095Z</time></trkpt><trkpt lat="45.6733412" lon="9.4420155"><ele>260.0</ele><time>2026-03-22T16:17:53.096Z</time></trkpt><trkpt lat="45.6732909" lon="9.4419254"><ele>260.0</ele><time>2026-03-22T16:17:54.096Z</time></trkpt><trkpt lat="45.6732371" lon="9.4418542"><ele>260.0</ele><time>2026-03-22T16:17:55.096Z</time></trkpt><trkpt lat="45.673176" lon="9.4417545"><ele>260.0</ele><time>2026-03-22T16:17:56.096Z</time></trkpt><trkpt lat="45.6731142" lon="9.4416571"><ele>260.0</ele><time>2026-03-22T16:17:57.095Z</time></trkpt><trkpt lat="45.6730611" lon="9.4415773"><ele>260.0</ele><time>2026-03-22T16:17:58.096Z</time></trkpt><trkpt lat="45.6730058" lon="9.4415058"><ele>260.0</ele><time>2026-03-22T16:17:59.096Z</time></trkpt><trkpt lat="45.6729601" lon="9.441431"><ele>260.0</ele><time>2026-03-22T16:18:00.096Z</time></trkpt><trkpt lat="45.6729186" lon="9.4413526"><ele>260.0</ele><time>2026-03-22T16:18:01.096Z</time></trkpt><trkpt lat="45.6728588" lon="9.4412143"><ele>260.0</ele><time>2026-03-22T16:18:03.095Z</time></trkpt><trkpt lat="45.6728198" lon="9.4411097"><ele>260.0</ele><time>2026-03-22T16:18:06.096Z</time></trkpt><trkpt lat="45.6727742" lon="9.4410124"><ele>260.0</ele><time>2026-03-22T16:18:08.096Z</time></trkpt><trkpt lat="45.6726994" lon="9.4409793"><ele>259.4</ele><time>2026-03-22T16:18:10.095Z</time></trkpt><trkpt lat="45.6726297" lon="9.4409378"><ele>258.8</ele><time>2026-03-22T16:18:12.096Z</time></trkpt><trkpt lat="45.6725637" lon="9.4408743"><ele>258.2</ele><time>2026-03-22T16:18:14.095Z</time></trkpt><trkpt lat="45.6725061" lon="9.4408274"><ele>257.6</ele><time>2026-03-22T16:18:15.096Z</time></trkpt><trkpt lat="45.6724149" lon="9.4407257"><ele>257.0</ele><time>2026-03-22T16:18:17.095Z</time></trkpt><trkpt lat="45.6723104" lon="9.4406358"><ele>257.0</ele><time>2026-03-22T16:18:19.096Z</time></trkpt><trkpt lat="45.6722222" lon="9.4405371"><ele>257.0</ele><time>2026-03-22T16:18:21.096Z</time></trkpt><trkpt lat="45.6721618" lon="9.4404921"><ele>257.0</ele><time>2026-03-22T16:18:22.096Z</time></trkpt><trkpt lat="45.6721094" lon="9.4404302"><ele>257.0</ele><time>2026-03-22T16:18:23.096Z</time></trkpt><trkpt lat="45.6720007" lon="9.4403332"><ele>257.0</ele><time>2026-03-22T16:18:25.096Z</time></trkpt><trkpt lat="45.6718993" lon="9.4402475"><ele>256.6</ele><time>2026-03-22T16:18:27.096Z</time></trkpt><trkpt lat="45.6718005" lon="9.4401611"><ele>256.2</ele><time>2026-03-22T16:18:29.096Z</time></trkpt><trkpt lat="45.6716973" lon="9.4400483"><ele>255.8</ele><time>2026-03-22T16:18:31.095Z</time></trkpt><trkpt lat="45.671642" lon="9.4399723"><ele>255.4</ele><time>2026-03-22T16:18:32.095Z</time></trkpt><trkpt lat="45.6715851" lon="9.4399121"><ele>255.0</ele><time>2026-03-22T16:18:33.096Z</time></trkpt><trkpt lat="45.6715236" lon="9.4398584"><ele>255.0</ele><time>2026-03-22T16:18:34.096Z</time></trkpt><trkpt lat="45.671467" lon="9.4397969"><ele>255.0</ele><time>2026-03-22T16:18:35.096Z</time></trkpt><trkpt lat="45.6714104" lon="9.4397396"><ele>255.0</ele><time>2026-03-22T16:18:36.096Z</time></trkpt><trkpt lat="45.6713429" lon="9.4396674"><ele>255.0</ele><time>2026-03-22T16:18:37.096Z</time></trkpt><trkpt lat="45.6712908" lon="9.4396153"><ele>255.0</ele><time>2026-03-22T16:18:38.096Z</time></trkpt><trkpt lat="45.6712209" lon="9.4395557"><ele>255.0</ele><time>2026-03-22T16:18:39.096Z</time></trkpt><trkpt lat="45.6711518" lon="9.4394811"><ele>254.66666666666666</ele><time>2026-03-22T16:18:40.096Z</time></trkpt><trkpt lat="45.6710916" lon="9.4394196"><ele>254.33333333333331</ele><time>2026-03-22T16:18:41.096Z</time></trkpt><trkpt lat="45.6710236" lon="9.439355"><ele>254.0</ele><time>2026-03-22T16:18:42.096Z</time></trkpt><trkpt lat="45.6709562" lon="9.4392842"><ele>253.66666666666666</ele><time>2026-03-22T16:18:43.096Z</time></trkpt><trkpt lat="45.6709012" lon="9.439227"><ele>253.33333333333331</ele><time>2026-03-22T16:18:44.096Z</time></trkpt><trkpt lat="45.670844" lon="9.4391649"><ele>253.0</ele><time>2026-03-22T16:18:45.096Z</time></trkpt><trkpt lat="45.6707804" lon="9.4391039"><ele>252.99999999999997</ele><time>2026-03-22T16:18:46.096Z</time></trkpt><trkpt lat="45.6707208" lon="9.4390477"><ele>253.0</ele><time>2026-03-22T16:18:47.096Z</time></trkpt><trkpt lat="45.6705925" lon="9.4389382"><ele>253.0</ele><time>2026-03-22T16:18:49.096Z</time></trkpt><trkpt lat="45.6705351" lon="9.438889"><ele>253.0</ele><time>2026-03-22T16:18:50.096Z</time></trkpt><trkpt lat="45.6704718" lon="9.4388435"><ele>252.99999999999997</ele><time>2026-03-22T16:18:51.096Z</time></trkpt><trkpt lat="45.6704039" lon="9.4387823"><ele>253.0</ele><time>2026-03-22T16:18:52.096Z</time></trkpt><trkpt lat="45.6703249" lon="9.4387067"><ele>252.49999999999997</ele><time>2026-03-22T16:18:53.095Z</time></trkpt><trkpt lat="45.6702676" lon="9.4386646"><ele>252.0</ele><time>2026-03-22T16:18:54.095Z</time></trkpt><trkpt lat="45.6702034" lon="9.4386089"><ele>251.5</ele><time>2026-03-22T16:18:55.096Z</time></trkpt><trkpt lat="45.6701482" lon="9.4385493"><ele>251.0</ele><time>2026-03-22T16:18:56.096Z</time></trkpt><trkpt lat="45.6700472" lon="9.438447"><ele>250.49999999999997</ele><time>2026-03-22T16:18:58.096Z</time></trkpt><trkpt lat="45.669962" lon="9.4383682"><ele>250.0</ele><time>2026-03-22T16:19:00.096Z</time></trkpt><trkpt lat="45.6698912" lon="9.4382895"><ele>249.99999999999997</ele><time>2026-03-22T16:19:02.096Z</time></trkpt><trkpt lat="45.6698339" lon="9.4381833"><ele>250.0</ele><time>2026-03-22T16:19:05.096Z</time></trkpt><trkpt lat="45.6697956" lon="9.4380807"><ele>250.0</ele><time>2026-03-22T16:19:07.096Z</time></trkpt><trkpt lat="45.6697436" lon="9.4379917"><ele>250.0</ele><time>2026-03-22T16:19:09.096Z</time></trkpt><trkpt lat="45.6696739" lon="9.4379538"><ele>249.99999999999997</ele><time>2026-03-22T16:19:11.096Z</time></trkpt><trkpt lat="45.6695785" lon="9.4379821"><ele>250.0</ele><time>2026-03-22T16:19:14.096Z</time></trkpt><trkpt lat="45.6694675" lon="9.4379789"><ele>249.8</ele><time>2026-03-22T16:19:16.096Z</time></trkpt><trkpt lat="45.6694126" lon="9.4379294"><ele>249.6</ele><time>2026-03-22T16:19:17.095Z</time></trkpt><trkpt lat="45.6693286" lon="9.4378356"><ele>249.39999999999998</ele><time>2026-03-22T16:19:19.096Z</time></trkpt><trkpt lat="45.6692269" lon="9.4377403"><ele>249.2</ele><time>2026-03-22T16:19:21.096Z</time></trkpt><trkpt lat="45.6691341" lon="9.4376315"><ele>249.0</ele><time>2026-03-22T16:19:23.096Z</time></trkpt><trkpt lat="45.6690237" lon="9.4375279"><ele>249.0</ele><time>2026-03-22T16:19:25.096Z</time></trkpt><trkpt lat="45.6689178" lon="9.4374295"><ele>248.99999999999997</ele><time>2026-03-22T16:19:27.095Z</time></trkpt><trkpt lat="45.6688041" lon="9.4373332"><ele>248.99999999999997</ele><time>2026-03-22T16:19:29.096Z</time></trkpt><trkpt lat="45.6687058" lon="9.4372512"><ele>249.0</ele><time>2026-03-22T16:19:31.095Z</time></trkpt><trkpt lat="45.6686396" lon="9.437208"><ele>249.0</ele><time>2026-03-22T16:19:32.096Z</time></trkpt><trkpt lat="45.6685766" lon="9.4371488"><ele>249.16666666666666</ele><time>2026-03-22T16:19:33.096Z</time></trkpt><trkpt lat="45.6684683" lon="9.4371027"><ele>249.33333333333331</ele><time>2026-03-22T16:19:35.096Z</time></trkpt><trkpt lat="45.6683955" lon="9.4370792"><ele>249.5</ele><time>2026-03-22T16:19:36.096Z</time></trkpt><trkpt lat="45.6683317" lon="9.4370455"><ele>249.66666666666666</ele><time>2026-03-22T16:19:37.096Z</time></trkpt><trkpt lat="45.6682712" lon="9.4369974"><ele>249.83333333333331</ele><time>2026-03-22T16:19:38.096Z</time></trkpt><trkpt lat="45.6682065" lon="9.4369686"><ele>250.0</ele><time>2026-03-22T16:19:39.096Z</time></trkpt><trkpt lat="45.6681574" lon="9.4368981"><ele>249.99999999999997</ele><time>2026-03-22T16:19:40.096Z</time></trkpt><trkpt lat="45.668093" lon="9.436821"><ele>250.0</ele><time>2026-03-22T16:19:41.096Z</time></trkpt><trkpt lat="45.6680296" lon="9.4367697"><ele>250.0</ele><time>2026-03-22T16:19:42.096Z</time></trkpt><trkpt lat="45.6679561" lon="9.4367112"><ele>250.0</ele><time>2026-03-22T16:19:43.096Z</time></trkpt><trkpt lat="45.6678992" lon="9.4366504"><ele>249.99999999999997</ele><time>2026-03-22T16:19:44.096Z</time></trkpt><trkpt lat="45.6677903" lon="9.4365443"><ele>250.0</ele><time>2026-03-22T16:19:46.096Z</time></trkpt><trkpt lat="45.6676795" lon="9.4364359"><ele>249.49999999999997</ele><time>2026-03-22T16:19:48.096Z</time></trkpt><trkpt lat="45.6676264" lon="9.4363824"><ele>249.0</ele><time>2026-03-22T16:19:49.096Z</time></trkpt><trkpt lat="45.6675761" lon="9.4363264"><ele>248.5</ele><time>2026-03-22T16:19:50.096Z</time></trkpt><trkpt lat="45.6675224" lon="9.4362726"><ele>248.0</ele><time>2026-03-22T16:19:51.096Z</time></trkpt><trkpt lat="45.6674144" lon="9.4361792"><ele>247.49999999999997</ele><time>2026-03-22T16:19:53.096Z</time></trkpt><trkpt lat="45.6673599" lon="9.4361077"><ele>247.0</ele><time>2026-03-22T16:19:54.096Z</time></trkpt><trkpt lat="45.6673048" lon="9.4360412"><ele>246.8</ele><time>2026-03-22T16:19:55.096Z</time></trkpt><trkpt lat="45.6672526" lon="9.4359854"><ele>246.6</ele><time>2026-03-22T16:19:56.096Z</time></trkpt><trkpt lat="45.667158" lon="9.4358949"><ele>246.40000000000003</ele><time>2026-03-22T16:19:58.096Z</time></trkpt><trkpt lat="45.6670591" lon="9.4357816"><ele>246.20000000000002</ele><time>2026-03-22T16:20:00.096Z</time></trkpt><trkpt lat="45.6670167" lon="9.4357145"><ele>246.0</ele><time>2026-03-22T16:20:01.096Z</time></trkpt><trkpt lat="45.6669388" lon="9.4355992"><ele>245.8</ele><time>2026-03-22T16:20:03.096Z</time></trkpt><trkpt lat="45.6668521" lon="9.4354864"><ele>245.60000000000002</ele><time>2026-03-22T16:20:05.096Z</time></trkpt><trkpt lat="45.6667804" lon="9.4353877"><ele>245.4</ele><time>2026-03-22T16:20:07.095Z</time></trkpt><trkpt lat="45.6666954" lon="9.4352678"><ele>245.2</ele><time>2026-03-22T16:20:09.096Z</time></trkpt><trkpt lat="45.6666428" lon="9.4352034"><ele>245.0</ele><time>2026-03-22T16:20:10.096Z</time></trkpt><trkpt lat="45.66655" lon="9.4350941"><ele>244.8</ele><time>2026-03-22T16:20:12.096Z</time></trkpt><trkpt lat="45.6664825" lon="9.435019"><ele>244.6</ele><time>2026-03-22T16:20:14.096Z</time></trkpt><trkpt lat="45.6663973" lon="9.4349172"><ele>244.39999999999998</ele><time>2026-03-22T16:20:16.096Z</time></trkpt><trkpt lat="45.6663565" lon="9.4348413"><ele>244.2</ele><time>2026-03-22T16:20:18.63Z</time></trkpt><trkpt lat="45.6662921" lon="9.4346883"><ele>244.0</ele><time>2026-03-22T16:20:20.097Z</time></trkpt><trkpt lat="45.6662977" lon="9.4345624"><ele>243.66666666666666</ele><time>2026-03-22T16:20:22.102Z</time></trkpt><trkpt lat="45.6663273" lon="9.4344785"><ele>243.33333333333331</ele><time>2026-03-22T16:20:23.097Z</time></trkpt><trkpt lat="45.6663536" lon="9.434395"><ele>243.0</ele><time>2026-03-22T16:20:24.102Z</time></trkpt><trkpt lat="45.6663987" lon="9.434251"><ele>242.66666666666669</ele><time>2026-03-22T16:20:26.102Z</time></trkpt><trkpt lat="45.6664257" lon="9.4341624"><ele>242.33333333333334</ele><time>2026-03-22T16:20:27.102Z</time></trkpt><trkpt lat="45.6664841" lon="9.434018"><ele>242.0</ele><time>2026-03-22T16:20:29.102Z</time></trkpt><trkpt lat="45.6665314" lon="9.4338646"><ele>242.0</ele><time>2026-03-22T16:20:31.101Z</time></trkpt><trkpt lat="45.6665618" lon="9.4337843"><ele>242.0</ele><time>2026-03-22T16:20:32.102Z</time></trkpt><trkpt lat="45.6666187" lon="9.4336336"><ele>242.0</ele><time>2026-03-22T16:20:34.102Z</time></trkpt><trkpt lat="45.6666858" lon="9.4334903"><ele>242.0</ele><time>2026-03-22T16:20:36.102Z</time></trkpt><trkpt lat="45.6667373" lon="9.4333439"><ele>242.0</ele><time>2026-03-22T16:20:38.102Z</time></trkpt><trkpt lat="45.6667869" lon="9.4332276"><ele>242.0</ele><time>2026-03-22T16:20:40.101Z</time></trkpt><trkpt lat="45.666838" lon="9.4330833"><ele>242.0</ele><time>2026-03-22T16:20:42.102Z</time></trkpt><trkpt lat="45.6668898" lon="9.43293"><ele>242.0</ele><time>2026-03-22T16:20:44.102Z</time></trkpt><trkpt lat="45.6669258" lon="9.4327959"><ele>242.0</ele><time>2026-03-22T16:20:46.102Z</time></trkpt><trkpt lat="45.6669337" lon="9.4326672"><ele>242.0</ele><time>2026-03-22T16:20:48.102Z</time></trkpt><trkpt lat="45.6669372" lon="9.4325323"><ele>242.2</ele><time>2026-03-22T16:20:50.102Z</time></trkpt><trkpt lat="45.6669196" lon="9.432437"><ele>242.39999999999998</ele><time>2026-03-22T16:20:52.102Z</time></trkpt><trkpt lat="45.6668756" lon="9.4323248"><ele>242.60000000000002</ele><time>2026-03-22T16:20:54.101Z</time></trkpt><trkpt lat="45.6668119" lon="9.4322361"><ele>242.8</ele><time>2026-03-22T16:20:56.102Z</time></trkpt><trkpt lat="45.6667123" lon="9.43213"><ele>243.0</ele><time>2026-03-22T16:20:58.102Z</time></trkpt><trkpt lat="45.6666173" lon="9.4320621"><ele>242.66666666666666</ele><time>2026-03-22T16:21:00.102Z</time></trkpt><trkpt lat="45.6665663" lon="9.4319872"><ele>242.33333333333331</ele><time>2026-03-22T16:21:02.102Z</time></trkpt><trkpt lat="45.6665132" lon="9.431865"><ele>242.0</ele><time>2026-03-22T16:21:13.102Z</time></trkpt><trkpt lat="45.6664212" lon="9.4317911"><ele>241.66666666666666</ele><time>2026-03-22T16:21:15.102Z</time></trkpt><trkpt lat="45.6663762" lon="9.4317105"><ele>241.33333333333331</ele><time>2026-03-22T16:21:16.102Z</time></trkpt><trkpt lat="45.6663292" lon="9.4316441"><ele>241.0</ele><time>2026-03-22T16:21:17.102Z</time></trkpt><trkpt lat="45.6662476" lon="9.4315316"><ele>241.0</ele><time>2026-03-22T16:21:19.102Z</time></trkpt><trkpt lat="45.6662011" lon="9.4314318"><ele>241.00000000000003</ele><time>2026-03-22T16:21:20.102Z</time></trkpt><trkpt lat="45.666128" lon="9.4313141"><ele>241.00000000000003</ele><time>2026-03-22T16:21:22.101Z</time></trkpt><trkpt lat="45.6660298" lon="9.4312381"><ele>241.0</ele><time>2026-03-22T16:21:24.101Z</time></trkpt><trkpt lat="45.6659246" lon="9.4311716"><ele>241.0</ele><time>2026-03-22T16:21:26.102Z</time></trkpt><trkpt lat="45.6658688" lon="9.4311254"><ele>241.14285714285717</ele><time>2026-03-22T16:21:27.102Z</time></trkpt><trkpt lat="45.665817" lon="9.4310716"><ele>241.2857142857143</ele><time>2026-03-22T16:21:28.102Z</time></trkpt><trkpt lat="45.6657137" lon="9.430976"><ele>241.42857142857144</ele><time>2026-03-22T16:21:30.102Z</time></trkpt><trkpt lat="45.6656607" lon="9.4309231"><ele>241.57142857142856</ele><time>2026-03-22T16:21:31.102Z</time></trkpt><trkpt lat="45.6656098" lon="9.4308675"><ele>241.7142857142857</ele><time>2026-03-22T16:21:32.102Z</time></trkpt><trkpt lat="45.6655593" lon="9.4308079"><ele>241.85714285714283</ele><time>2026-03-22T16:21:33.102Z</time></trkpt><trkpt lat="45.665507" lon="9.4307551"><ele>242.0</ele><time>2026-03-22T16:21:34.102Z</time></trkpt><trkpt lat="45.6654566" lon="9.4306799"><ele>242.00000000000003</ele><time>2026-03-22T16:21:35.102Z</time></trkpt><trkpt lat="45.6653979" lon="9.4306193"><ele>242.0</ele><time>2026-03-22T16:21:36.101Z</time></trkpt><trkpt lat="45.6653352" lon="9.4305668"><ele>242.0</ele><time>2026-03-22T16:21:37.101Z</time></trkpt><trkpt lat="45.6652377" lon="9.4304742"><ele>242.0</ele><time>2026-03-22T16:21:39.102Z</time></trkpt><trkpt lat="45.6651824" lon="9.4304243"><ele>242.00000000000003</ele><time>2026-03-22T16:21:40.102Z</time></trkpt><trkpt lat="45.6651218" lon="9.4303711"><ele>242.0</ele><time>2026-03-22T16:21:41.102Z</time></trkpt><trkpt lat="45.6650596" lon="9.4303082"><ele>241.85714285714283</ele><time>2026-03-22T16:21:42.102Z</time></trkpt><trkpt lat="45.665007" lon="9.4302554"><ele>241.7142857142857</ele><time>2026-03-22T16:21:43.102Z</time></trkpt><trkpt lat="45.6649475" lon="9.4302024"><ele>241.57142857142856</ele><time>2026-03-22T16:21:44.102Z</time></trkpt><trkpt lat="45.6648921" lon="9.4301466"><ele>241.42857142857144</ele><time>2026-03-22T16:21:45.102Z</time></trkpt><trkpt lat="45.6648393" lon="9.4300948"><ele>241.2857142857143</ele><time>2026-03-22T16:21:46.102Z</time></trkpt><trkpt lat="45.6647813" lon="9.4300485"><ele>241.14285714285717</ele><time>2026-03-22T16:21:47.102Z</time></trkpt><trkpt lat="45.6647346" lon="9.4299792"><ele>241.0</ele><time>2026-03-22T16:21:48.102Z</time></trkpt><trkpt lat="45.6646806" lon="9.4299156"><ele>241.0</ele><time>2026-03-22T16:21:49.102Z</time></trkpt><trkpt lat="45.6645647" lon="9.4298299"><ele>241.00000000000003</ele><time>2026-03-22T16:21:51.102Z</time></trkpt><trkpt lat="45.6645064" lon="9.4297719"><ele>241.00000000000003</ele><time>2026-03-22T16:21:52.102Z</time></trkpt><trkpt lat="45.6643953" lon="9.4296835"><ele>241.0</ele><time>2026-03-22T16:21:54.102Z</time></trkpt><trkpt lat="45.6643429" lon="9.4296219"><ele>241.0</ele><time>2026-03-22T16:21:55.101Z</time></trkpt><trkpt lat="45.6642917" lon="9.4295681"><ele>240.49999999999997</ele><time>2026-03-22T16:21:56.102Z</time></trkpt><trkpt lat="45.6642342" lon="9.4295071"><ele>240.0</ele><time>2026-03-22T16:21:57.102Z</time></trkpt><trkpt lat="45.6641709" lon="9.4294484"><ele>239.5</ele><time>2026-03-22T16:21:58.102Z</time></trkpt><trkpt lat="45.6641155" lon="9.4293963"><ele>239.0</ele><time>2026-03-22T16:21:59.102Z</time></trkpt><trkpt lat="45.6640514" lon="9.429337"><ele>238.49999999999997</ele><time>2026-03-22T16:22:00.102Z</time></trkpt><trkpt lat="45.6639449" lon="9.4292394"><ele>238.0</ele><time>2026-03-22T16:22:02.102Z</time></trkpt><trkpt lat="45.6638879" lon="9.4291791"><ele>238.0</ele><time>2026-03-22T16:22:03.102Z</time></trkpt><trkpt lat="45.6638328" lon="9.4291194"><ele>238.0</ele><time>2026-03-22T16:22:04.102Z</time></trkpt><trkpt lat="45.6637802" lon="9.4290625"><ele>238.0</ele><time>2026-03-22T16:22:05.102Z</time></trkpt><trkpt lat="45.6637254" lon="9.428999"><ele>238.0</ele><time>2026-03-22T16:22:06.102Z</time></trkpt><trkpt lat="45.6636709" lon="9.4289484"><ele>238.0</ele><time>2026-03-22T16:22:07.102Z</time></trkpt><trkpt lat="45.6636094" lon="9.4288967"><ele>238.0</ele><time>2026-03-22T16:22:08.102Z</time></trkpt><trkpt lat="45.6635481" lon="9.4288476"><ele>238.0</ele><time>2026-03-22T16:22:09.101Z</time></trkpt><trkpt lat="45.6634904" lon="9.4288044"><ele>238.16666666666666</ele><time>2026-03-22T16:22:10.102Z</time></trkpt><trkpt lat="45.6634331" lon="9.4287652"><ele>238.33333333333331</ele><time>2026-03-22T16:22:11.102Z</time></trkpt><trkpt lat="45.6633746" lon="9.4287218"><ele>238.5</ele><time>2026-03-22T16:22:12.102Z</time></trkpt><trkpt lat="45.6632614" lon="9.4286329"><ele>238.66666666666669</ele><time>2026-03-22T16:22:14.102Z</time></trkpt><trkpt lat="45.6631726" lon="9.4285022"><ele>238.83333333333334</ele><time>2026-03-22T16:22:16.102Z</time></trkpt><trkpt lat="45.6631329" lon="9.4284315"><ele>239.0</ele><time>2026-03-22T16:22:17.102Z</time></trkpt><trkpt lat="45.6631305" lon="9.4283409"><ele>239.00000000000003</ele><time>2026-03-22T16:22:18.102Z</time></trkpt><trkpt lat="45.6631181" lon="9.4282446"><ele>239.0</ele><time>2026-03-22T16:22:19.102Z</time></trkpt><trkpt lat="45.6631185" lon="9.4281535"><ele>239.00000000000003</ele><time>2026-03-22T16:22:20.102Z</time></trkpt><trkpt lat="45.6631137" lon="9.428059"><ele>239.00000000000003</ele><time>2026-03-22T16:22:21.102Z</time></trkpt><trkpt lat="45.6631154" lon="9.4279689"><ele>239.0</ele><time>2026-03-22T16:22:22.102Z</time></trkpt><trkpt lat="45.6631207" lon="9.4278728"><ele>239.00000000000003</ele><time>2026-03-22T16:22:23.102Z</time></trkpt><trkpt lat="45.6631252" lon="9.427777"><ele>239.00000000000003</ele><time>2026-03-22T16:22:24.102Z</time></trkpt><trkpt lat="45.6631348" lon="9.4276457"><ele>239.2</ele><time>2026-03-22T16:22:25.101Z</time></trkpt><trkpt lat="45.6631586" lon="9.4274813"><ele>239.39999999999998</ele><time>2026-03-22T16:22:27.101Z</time></trkpt><trkpt lat="45.6631712" lon="9.427387"><ele>239.6</ele><time>2026-03-22T16:22:28.102Z</time></trkpt><trkpt lat="45.6631828" lon="9.4272387"><ele>239.8</ele><time>2026-03-22T16:22:30.102Z</time></trkpt><trkpt lat="45.6631672" lon="9.4270932"><ele>240.0</ele><time>2026-03-22T16:22:32.102Z</time></trkpt><trkpt lat="45.6630973" lon="9.4270119"><ele>240.4</ele><time>2026-03-22T16:22:34.102Z</time></trkpt><trkpt lat="45.6630178" lon="9.4268889"><ele>240.8</ele><time>2026-03-22T16:22:36.102Z</time></trkpt><trkpt lat="45.6629199" lon="9.4267742"><ele>241.2</ele><time>2026-03-22T16:22:38.102Z</time></trkpt><trkpt lat="45.662813" lon="9.4266707"><ele>241.6</ele><time>2026-03-22T16:22:40.102Z</time></trkpt><trkpt lat="45.6627605" lon="9.42662"><ele>242.0</ele><time>2026-03-22T16:22:41.101Z</time></trkpt><trkpt lat="45.6627066" lon="9.4265671"><ele>241.16666666666669</ele><time>2026-03-22T16:22:42.102Z</time></trkpt><trkpt lat="45.6626483" lon="9.4265167"><ele>240.33333333333334</ele><time>2026-03-22T16:22:43.102Z</time></trkpt><trkpt lat="45.6625389" lon="9.4264232"><ele>239.5</ele><time>2026-03-22T16:22:45.102Z</time></trkpt><trkpt lat="45.6624811" lon="9.4263712"><ele>238.66666666666669</ele><time>2026-03-22T16:22:46.102Z</time></trkpt><trkpt lat="45.6624185" lon="9.4263189"><ele>237.83333333333334</ele><time>2026-03-22T16:22:47.102Z</time></trkpt><trkpt lat="45.6623578" lon="9.4262715"><ele>237.0</ele><time>2026-03-22T16:22:48.102Z</time></trkpt><trkpt lat="45.662299" lon="9.4262221"><ele>237.0</ele><time>2026-03-22T16:22:49.102Z</time></trkpt><trkpt lat="45.6622435" lon="9.4261657"><ele>237.0</ele><time>2026-03-22T16:22:50.102Z</time></trkpt><trkpt lat="45.6621298" lon="9.4260741"><ele>237.0</ele><time>2026-03-22T16:22:52.102Z</time></trkpt><trkpt lat="45.6620189" lon="9.4259727"><ele>237.0</ele><time>2026-03-22T16:22:54.102Z</time></trkpt><trkpt lat="45.6619261" lon="9.4258764"><ele>237.0</ele><time>2026-03-22T16:22:56.102Z</time></trkpt><trkpt lat="45.6618052" lon="9.4257684"><ele>237.5</ele><time>2026-03-22T16:22:58.102Z</time></trkpt><trkpt lat="45.6617371" lon="9.4257285"><ele>238.0</ele><time>2026-03-22T16:22:59.102Z</time></trkpt><trkpt lat="45.6616433" lon="9.4256241"><ele>238.5</ele><time>2026-03-22T16:23:01.102Z</time></trkpt><trkpt lat="45.6615692" lon="9.4255625"><ele>239.0</ele><time>2026-03-22T16:23:02.102Z</time></trkpt><trkpt lat="45.6615127" lon="9.4255042"><ele>239.5</ele><time>2026-03-22T16:23:03.102Z</time></trkpt><trkpt lat="45.6614541" lon="9.4254333"><ele>240.0</ele><time>2026-03-22T16:23:04.102Z</time></trkpt><trkpt lat="45.6613922" lon="9.4253788"><ele>240.0</ele><time>2026-03-22T16:23:05.102Z</time></trkpt><trkpt lat="45.6613304" lon="9.4253106"><ele>240.0</ele><time>2026-03-22T16:23:06.102Z</time></trkpt><trkpt lat="45.6612734" lon="9.4252592"><ele>240.0</ele><time>2026-03-22T16:23:07.102Z</time></trkpt><trkpt lat="45.6612114" lon="9.4251972"><ele>240.0</ele><time>2026-03-22T16:23:08.101Z</time></trkpt><trkpt lat="45.6611557" lon="9.4251306"><ele>240.0</ele><time>2026-03-22T16:23:09.102Z</time></trkpt><trkpt lat="45.6610861" lon="9.4250441"><ele>240.0</ele><time>2026-03-22T16:23:10.102Z</time></trkpt><trkpt lat="45.6609738" lon="9.4249407"><ele>240.14285714285717</ele><time>2026-03-22T16:23:12.102Z</time></trkpt><trkpt lat="45.6609176" lon="9.4248787"><ele>240.28571428571428</ele><time>2026-03-22T16:23:13.101Z</time></trkpt><trkpt lat="45.6608569" lon="9.4248198"><ele>240.42857142857144</ele><time>2026-03-22T16:23:14.102Z</time></trkpt><trkpt lat="45.6607941" lon="9.4247675"><ele>240.57142857142858</ele><time>2026-03-22T16:23:15.102Z</time></trkpt><trkpt lat="45.6607344" lon="9.4247048"><ele>240.71428571428572</ele><time>2026-03-22T16:23:16.102Z</time></trkpt><trkpt lat="45.6606785" lon="9.4246455"><ele>240.85714285714286</ele><time>2026-03-22T16:23:17.102Z</time></trkpt><trkpt lat="45.6606196" lon="9.4245912"><ele>241.0</ele><time>2026-03-22T16:23:18.102Z</time></trkpt><trkpt lat="45.6605636" lon="9.4245342"><ele>241.0</ele><time>2026-03-22T16:23:19.102Z</time></trkpt><trkpt lat="45.6605064" lon="9.4244701"><ele>241.00000000000003</ele><time>2026-03-22T16:23:20.101Z</time></trkpt><trkpt lat="45.6604536" lon="9.4244108"><ele>241.0</ele><time>2026-03-22T16:23:21.102Z</time></trkpt><trkpt lat="45.6603947" lon="9.4243545"><ele>241.0</ele><time>2026-03-22T16:23:22.101Z</time></trkpt><trkpt lat="45.6603348" lon="9.4242937"><ele>241.00000000000003</ele><time>2026-03-22T16:23:23.102Z</time></trkpt><trkpt lat="45.6602741" lon="9.4242432"><ele>241.0</ele><time>2026-03-22T16:23:24.101Z</time></trkpt><trkpt lat="45.6602149" lon="9.4241877"><ele>241.0</ele><time>2026-03-22T16:23:25.102Z</time></trkpt><trkpt lat="45.6600992" lon="9.4240934"><ele>240.8</ele><time>2026-03-22T16:23:27.101Z</time></trkpt><trkpt lat="45.6600443" lon="9.424043"><ele>240.60000000000002</ele><time>2026-03-22T16:23:28.102Z</time></trkpt><trkpt lat="45.6599425" lon="9.423956"><ele>240.4</ele><time>2026-03-22T16:23:30.102Z</time></trkpt><trkpt lat="45.6598728" lon="9.4238814"><ele>240.2</ele><time>2026-03-22T16:23:31.102Z</time></trkpt><trkpt lat="45.6598151" lon="9.4238098"><ele>240.0</ele><time>2026-03-22T16:23:32.102Z</time></trkpt><trkpt lat="45.6597061" lon="9.4237541"><ele>240.0</ele><time>2026-03-22T16:23:34.102Z</time></trkpt><trkpt lat="45.6596408" lon="9.4237387"><ele>240.0</ele><time>2026-03-22T16:23:35.102Z</time></trkpt><trkpt lat="45.6595208" lon="9.4237656"><ele>240.0</ele><time>2026-03-22T16:23:37.102Z</time></trkpt><trkpt lat="45.6594634" lon="9.4238268"><ele>240.0</ele><time>2026-03-22T16:23:38.101Z</time></trkpt><trkpt lat="45.6593807" lon="9.4239391"><ele>240.0</ele><time>2026-03-22T16:23:40.102Z</time></trkpt><trkpt lat="45.6593135" lon="9.4239945"><ele>239.16666666666666</ele><time>2026-03-22T16:23:41.102Z</time></trkpt><trkpt lat="45.6592343" lon="9.4240904"><ele>238.33333333333331</ele><time>2026-03-22T16:23:43.102Z</time></trkpt><trkpt lat="45.6591369" lon="9.4240501"><ele>237.5</ele><time>2026-03-22T16:23:45.102Z</time></trkpt><trkpt lat="45.6590863" lon="9.423994"><ele>236.66666666666666</ele><time>2026-03-22T16:23:46.102Z</time></trkpt><trkpt lat="45.6590305" lon="9.4239469"><ele>235.83333333333331</ele><time>2026-03-22T16:23:47.102Z</time></trkpt><trkpt lat="45.6589765" lon="9.4238885"><ele>235.0</ele><time>2026-03-22T16:23:48.102Z</time></trkpt><trkpt lat="45.6589061" lon="9.4238163"><ele>234.99999999999997</ele><time>2026-03-22T16:23:50.102Z</time></trkpt><trkpt lat="45.6588475" lon="9.4237819"><ele>235.0</ele><time>2026-03-22T16:23:51.102Z</time></trkpt><trkpt lat="45.6587425" lon="9.4236936"><ele>235.0</ele><time>2026-03-22T16:23:53.102Z</time></trkpt><trkpt lat="45.6586758" lon="9.4236154"><ele>235.0</ele><time>2026-03-22T16:23:54.101Z</time></trkpt><trkpt lat="45.6586124" lon="9.4235632"><ele>234.99999999999997</ele><time>2026-03-22T16:23:55.102Z</time></trkpt><trkpt lat="45.6585531" lon="9.4235044"><ele>235.0</ele><time>2026-03-22T16:23:56.102Z</time></trkpt><trkpt lat="45.6584973" lon="9.4234552"><ele>235.0</ele><time>2026-03-22T16:23:57.102Z</time></trkpt><trkpt lat="45.6584342" lon="9.4234039"><ele>235.0</ele><time>2026-03-22T16:23:58.102Z</time></trkpt><trkpt lat="45.6583724" lon="9.42334"><ele>235.0</ele><time>2026-03-22T16:23:59.101Z</time></trkpt><trkpt lat="45.6582665" lon="9.4232536"><ele>235.0</ele><time>2026-03-22T16:24:01.102Z</time></trkpt><trkpt lat="45.6582127" lon="9.4232055"><ele>235.0</ele><time>2026-03-22T16:24:02.102Z</time></trkpt><trkpt lat="45.658098" lon="9.4231478"><ele>234.99999999999997</ele><time>2026-03-22T16:24:04.101Z</time></trkpt><trkpt lat="45.658033" lon="9.4231179"><ele>235.0</ele><time>2026-03-22T16:24:05.102Z</time></trkpt><trkpt lat="45.6579719" lon="9.4230941"><ele>235.0</ele><time>2026-03-22T16:24:06.102Z</time></trkpt><trkpt lat="45.6579101" lon="9.4230633"><ele>235.0</ele><time>2026-03-22T16:24:07.102Z</time></trkpt><trkpt lat="45.6578442" lon="9.4230652"><ele>234.99999999999997</ele><time>2026-03-22T16:24:08.102Z</time></trkpt><trkpt lat="45.6577179" lon="9.4230499"><ele>235.0</ele><time>2026-03-22T16:24:10.101Z</time></trkpt><trkpt lat="45.6575899" lon="9.4230459"><ele>235.2</ele><time>2026-03-22T16:24:12.102Z</time></trkpt><trkpt lat="45.6574778" lon="9.4230108"><ele>235.4</ele><time>2026-03-22T16:24:14.102Z</time></trkpt><trkpt lat="45.6574163" lon="9.4229824"><ele>235.60000000000002</ele><time>2026-03-22T16:24:15.102Z</time></trkpt><trkpt lat="45.6573549" lon="9.4229593"><ele>235.8</ele><time>2026-03-22T16:24:16.102Z</time></trkpt><trkpt lat="45.6572579" lon="9.4229085"><ele>236.0</ele><time>2026-03-22T16:24:18.102Z</time></trkpt><trkpt lat="45.6571535" lon="9.422869"><ele>236.00000000000003</ele><time>2026-03-22T16:24:20.102Z</time></trkpt><trkpt lat="45.6570361" lon="9.4228221"><ele>236.0</ele><time>2026-03-22T16:24:22.102Z</time></trkpt><trkpt lat="45.6569713" lon="9.4227998"><ele>236.0</ele><time>2026-03-22T16:24:23.102Z</time></trkpt><trkpt lat="45.6568654" lon="9.4227682"><ele>236.0</ele><time>2026-03-22T16:24:25.098Z</time></trkpt><trkpt lat="45.6568004" lon="9.4227336"><ele>236.00000000000003</ele><time>2026-03-22T16:24:26.096Z</time></trkpt><trkpt lat="45.6567205" lon="9.4227067"><ele>236.0</ele><time>2026-03-22T16:24:27.094Z</time></trkpt><trkpt lat="45.6566648" lon="9.4226635"><ele>236.00000000000003</ele><time>2026-03-22T16:24:28.101Z</time></trkpt><trkpt lat="45.6566009" lon="9.4226404"><ele>236.0</ele><time>2026-03-22T16:24:29.097Z</time></trkpt><trkpt lat="45.656531" lon="9.422614"><ele>236.0</ele><time>2026-03-22T16:24:30.094Z</time></trkpt><trkpt lat="45.6564213" lon="9.4225556"><ele>236.0</ele><time>2026-03-22T16:24:32.094Z</time></trkpt><trkpt lat="45.6563481" lon="9.4225195"><ele>236.00000000000003</ele><time>2026-03-22T16:24:33.094Z</time></trkpt><trkpt lat="45.6562771" lon="9.422495"><ele>236.0</ele><time>2026-03-22T16:24:34.094Z</time></trkpt><trkpt lat="45.656212" lon="9.4224544"><ele>236.0</ele><time>2026-03-22T16:24:35.094Z</time></trkpt><trkpt lat="45.6561451" lon="9.4224434"><ele>236.00000000000003</ele><time>2026-03-22T16:24:36.094Z</time></trkpt><trkpt lat="45.6560171" lon="9.4223834"><ele>236.00000000000003</ele><time>2026-03-22T16:24:38.094Z</time></trkpt><trkpt lat="45.6559522" lon="9.4223368"><ele>236.0</ele><time>2026-03-22T16:24:39.093Z</time></trkpt><trkpt lat="45.6558383" lon="9.4222627"><ele>236.0</ele><time>2026-03-22T16:24:41.094Z</time></trkpt><trkpt lat="45.6557771" lon="9.4222091"><ele>236.33333333333334</ele><time>2026-03-22T16:24:42.094Z</time></trkpt><trkpt lat="45.6556761" lon="9.42214"><ele>236.66666666666669</ele><time>2026-03-22T16:24:44.094Z</time></trkpt><trkpt lat="45.6556133" lon="9.422082"><ele>237.0</ele><time>2026-03-22T16:24:45.094Z</time></trkpt><trkpt lat="45.6555561" lon="9.4220436"><ele>237.33333333333331</ele><time>2026-03-22T16:24:46.094Z</time></trkpt><trkpt lat="45.6554929" lon="9.4220008"><ele>237.66666666666666</ele><time>2026-03-22T16:24:47.094Z</time></trkpt><trkpt lat="45.6554326" lon="9.4219511"><ele>238.0</ele><time>2026-03-22T16:24:48.094Z</time></trkpt><trkpt lat="45.6553125" lon="9.4218763"><ele>237.71428571428572</ele><time>2026-03-22T16:24:50.094Z</time></trkpt><trkpt lat="45.6552303" lon="9.4218385"><ele>237.42857142857144</ele><time>2026-03-22T16:24:51.094Z</time></trkpt><trkpt lat="45.6551576" lon="9.4218046"><ele>237.14285714285714</ele><time>2026-03-22T16:24:52.094Z</time></trkpt><trkpt lat="45.6550909" lon="9.4217895"><ele>236.85714285714286</ele><time>2026-03-22T16:24:53.094Z</time></trkpt><trkpt lat="45.6550188" lon="9.421776"><ele>236.57142857142858</ele><time>2026-03-22T16:24:54.094Z</time></trkpt><trkpt lat="45.6549569" lon="9.4217489"><ele>236.28571428571428</ele><time>2026-03-22T16:24:55.093Z</time></trkpt><trkpt lat="45.6548936" lon="9.421717"><ele>236.0</ele><time>2026-03-22T16:24:56.094Z</time></trkpt><trkpt lat="45.6548304" lon="9.4217007"><ele>236.0</ele><time>2026-03-22T16:24:57.094Z</time></trkpt><trkpt lat="45.6547114" lon="9.4216686"><ele>236.00000000000003</ele><time>2026-03-22T16:24:59.094Z</time></trkpt><trkpt lat="45.6546435" lon="9.4216705"><ele>236.00000000000003</ele><time>2026-03-22T16:25:00.094Z</time></trkpt><trkpt lat="45.6545317" lon="9.42168"><ele>236.0</ele><time>2026-03-22T16:25:02.094Z</time></trkpt><trkpt lat="45.6544648" lon="9.4216893"><ele>236.0</ele><time>2026-03-22T16:25:03.094Z</time></trkpt><trkpt lat="45.6543486" lon="9.4217075"><ele>235.8</ele><time>2026-03-22T16:25:05.093Z</time></trkpt><trkpt lat="45.6542707" lon="9.421701"><ele>235.60000000000002</ele><time>2026-03-22T16:25:06.094Z</time></trkpt><trkpt lat="45.654207" lon="9.4217159"><ele>235.4</ele><time>2026-03-22T16:25:07.093Z</time></trkpt><trkpt lat="45.6540871" lon="9.4217763"><ele>235.2</ele><time>2026-03-22T16:25:09.093Z</time></trkpt><trkpt lat="45.6540276" lon="9.4218305"><ele>235.0</ele><time>2026-03-22T16:25:10.094Z</time></trkpt><trkpt lat="45.6539171" lon="9.4218606"><ele>235.0</ele><time>2026-03-22T16:25:12.094Z</time></trkpt><trkpt lat="45.6537901" lon="9.4218675"><ele>235.0</ele><time>2026-03-22T16:25:14.094Z</time></trkpt><trkpt lat="45.653709" lon="9.4218698"><ele>235.0</ele><time>2026-03-22T16:25:16.094Z</time></trkpt><trkpt lat="45.6535813" lon="9.4218848"><ele>235.0</ele><time>2026-03-22T16:25:18.094Z</time></trkpt><trkpt lat="45.6534731" lon="9.4219048"><ele>235.0</ele><time>2026-03-22T16:25:20.094Z</time></trkpt><trkpt lat="45.653353" lon="9.4219296"><ele>235.4</ele><time>2026-03-22T16:25:22.094Z</time></trkpt><trkpt lat="45.6532822" lon="9.4219425"><ele>235.8</ele><time>2026-03-22T16:25:23.094Z</time></trkpt><trkpt lat="45.6531559" lon="9.4219267"><ele>236.2</ele><time>2026-03-22T16:25:25.094Z</time></trkpt><trkpt lat="45.6530404" lon="9.4219363"><ele>236.6</ele><time>2026-03-22T16:25:27.094Z</time></trkpt><trkpt lat="45.6529228" lon="9.4219331"><ele>237.0</ele><time>2026-03-22T16:25:29.094Z</time></trkpt><trkpt lat="45.6528528" lon="9.4219206"><ele>237.2</ele><time>2026-03-22T16:25:30.094Z</time></trkpt><trkpt lat="45.652752" lon="9.4219211"><ele>237.39999999999998</ele><time>2026-03-22T16:25:32.094Z</time></trkpt><trkpt lat="45.6526873" lon="9.4219077"><ele>237.60000000000002</ele><time>2026-03-22T16:25:33.094Z</time></trkpt><trkpt lat="45.6525692" lon="9.4218845"><ele>237.8</ele><time>2026-03-22T16:25:35.094Z</time></trkpt><trkpt lat="45.6524883" lon="9.4218588"><ele>238.0</ele><time>2026-03-22T16:25:36.094Z</time></trkpt><trkpt lat="45.6523978" lon="9.4218325"><ele>238.0</ele><time>2026-03-22T16:25:37.094Z</time></trkpt><trkpt lat="45.6523124" lon="9.4218102"><ele>238.0</ele><time>2026-03-22T16:25:38.094Z</time></trkpt><trkpt lat="45.6522531" lon="9.4217781"><ele>238.0</ele><time>2026-03-22T16:25:39.094Z</time></trkpt><trkpt lat="45.6521877" lon="9.4217626"><ele>238.0</ele><time>2026-03-22T16:25:40.094Z</time></trkpt><trkpt lat="45.6520619" lon="9.421709"><ele>238.0</ele><time>2026-03-22T16:25:42.094Z</time></trkpt><trkpt lat="45.6519364" lon="9.4216758"><ele>237.60000000000002</ele><time>2026-03-22T16:25:44.094Z</time></trkpt><trkpt lat="45.6518405" lon="9.421637"><ele>237.20000000000002</ele><time>2026-03-22T16:25:46.094Z</time></trkpt><trkpt lat="45.6517574" lon="9.4216289"><ele>236.8</ele><time>2026-03-22T16:25:48.094Z</time></trkpt><trkpt lat="45.6517054" lon="9.4217219"><ele>236.4</ele><time>2026-03-22T16:25:51.093Z</time></trkpt><trkpt lat="45.6516668" lon="9.4218359"><ele>236.0</ele><time>2026-03-22T16:25:53.094Z</time></trkpt><trkpt lat="45.6516444" lon="9.4219738"><ele>236.0</ele><time>2026-03-22T16:25:55.094Z</time></trkpt><trkpt lat="45.65162" lon="9.4221459"><ele>236.00000000000003</ele><time>2026-03-22T16:25:57.094Z</time></trkpt><trkpt lat="45.6516022" lon="9.4222858"><ele>236.00000000000003</ele><time>2026-03-22T16:25:59.094Z</time></trkpt><trkpt lat="45.6515741" lon="9.4224263"><ele>236.0</ele><time>2026-03-22T16:26:01.094Z</time></trkpt><trkpt lat="45.6515312" lon="9.4225316"><ele>236.0</ele><time>2026-03-22T16:26:03.094Z</time></trkpt><trkpt lat="45.6514576" lon="9.4225521"><ele>235.4</ele><time>2026-03-22T16:26:05.094Z</time></trkpt><trkpt lat="45.6513746" lon="9.4225217"><ele>234.8</ele><time>2026-03-22T16:26:07.094Z</time></trkpt><trkpt lat="45.6512759" lon="9.42252"><ele>234.20000000000002</ele><time>2026-03-22T16:26:09.094Z</time></trkpt><trkpt lat="45.6511573" lon="9.4225232"><ele>233.60000000000002</ele><time>2026-03-22T16:26:11.094Z</time></trkpt><trkpt lat="45.6510445" lon="9.4225187"><ele>233.0</ele><time>2026-03-22T16:26:13.094Z</time></trkpt><trkpt lat="45.6509337" lon="9.4224967"><ele>233.0</ele><time>2026-03-22T16:26:15.094Z</time></trkpt><trkpt lat="45.6508157" lon="9.4224895"><ele>233.0</ele><time>2026-03-22T16:26:17.094Z</time></trkpt><trkpt lat="45.6507471" lon="9.42248"><ele>233.0</ele><time>2026-03-22T16:26:18.094Z</time></trkpt><trkpt lat="45.6506449" lon="9.4224553"><ele>233.0</ele><time>2026-03-22T16:26:20.094Z</time></trkpt><trkpt lat="45.6505297" lon="9.4224467"><ele>233.0</ele><time>2026-03-22T16:26:22.094Z</time></trkpt><trkpt lat="45.6504643" lon="9.4224516"><ele>233.0</ele><time>2026-03-22T16:26:23.094Z</time></trkpt><trkpt lat="45.6503507" lon="9.4224599"><ele>233.0</ele><time>2026-03-22T16:26:25.094Z</time></trkpt><trkpt lat="45.65026" lon="9.422449"><ele>233.0</ele><time>2026-03-22T16:26:27.094Z</time></trkpt><trkpt lat="45.6501752" lon="9.4224358"><ele>233.0</ele><time>2026-03-22T16:26:29.094Z</time></trkpt><trkpt lat="45.6500892" lon="9.422413"><ele>233.0</ele><time>2026-03-22T16:26:31.094Z</time></trkpt><trkpt lat="45.6499697" lon="9.42239"><ele>233.16666666666669</ele><time>2026-03-22T16:26:33.094Z</time></trkpt><trkpt lat="45.6498528" lon="9.4223598"><ele>233.33333333333334</ele><time>2026-03-22T16:26:35.094Z</time></trkpt><trkpt lat="45.6497898" lon="9.4223488"><ele>233.5</ele><time>2026-03-22T16:26:36.094Z</time></trkpt><trkpt lat="45.6497256" lon="9.422336"><ele>233.66666666666669</ele><time>2026-03-22T16:26:37.094Z</time></trkpt><trkpt lat="45.6496523" lon="9.4223223"><ele>233.83333333333334</ele><time>2026-03-22T16:26:38.094Z</time></trkpt><trkpt lat="45.6495773" lon="9.4223093"><ele>234.0</ele><time>2026-03-22T16:26:39.094Z</time></trkpt><trkpt lat="45.6495143" lon="9.4223015"><ele>233.66666666666666</ele><time>2026-03-22T16:26:40.094Z</time></trkpt><trkpt lat="45.649392" lon="9.4222943"><ele>233.33333333333331</ele><time>2026-03-22T16:26:42.094Z</time></trkpt><trkpt lat="45.6493178" lon="9.4222807"><ele>233.0</ele><time>2026-03-22T16:26:43.094Z</time></trkpt><trkpt lat="45.6492517" lon="9.4222759"><ele>232.66666666666666</ele><time>2026-03-22T16:26:44.094Z</time></trkpt><trkpt lat="45.6491884" lon="9.4222708"><ele>232.33333333333331</ele><time>2026-03-22T16:26:45.094Z</time></trkpt><trkpt lat="45.6491242" lon="9.4222635"><ele>232.0</ele><time>2026-03-22T16:26:46.094Z</time></trkpt><trkpt lat="45.649038" lon="9.4222959"><ele>231.99999999999997</ele><time>2026-03-22T16:26:48.094Z</time></trkpt><trkpt lat="45.6489836" lon="9.4223881"><ele>232.0</ele><time>2026-03-22T16:26:50.094Z</time></trkpt><trkpt lat="45.6489763" lon="9.4225104"><ele>232.0</ele><time>2026-03-22T16:26:52.094Z</time></trkpt><trkpt lat="45.6489771" lon="9.4226279"><ele>232.0</ele><time>2026-03-22T16:26:54.093Z</time></trkpt><trkpt lat="45.6489733" lon="9.4227288"><ele>231.99999999999997</ele><time>2026-03-22T16:26:56.094Z</time></trkpt><trkpt lat="45.6489712" lon="9.4228409"><ele>232.0</ele><time>2026-03-22T16:26:58.094Z</time></trkpt><trkpt lat="45.648969" lon="9.4229552"><ele>232.83333333333331</ele><time>2026-03-22T16:27:00.094Z</time></trkpt><trkpt lat="45.6489692" lon="9.4230807"><ele>233.66666666666666</ele><time>2026-03-22T16:27:02.094Z</time></trkpt><trkpt lat="45.6489692" lon="9.4232051"><ele>234.5</ele><time>2026-03-22T16:27:04.094Z</time></trkpt><trkpt lat="45.6489627" lon="9.4233115"><ele>235.33333333333331</ele><time>2026-03-22T16:27:06.093Z</time></trkpt><trkpt lat="45.6489205" lon="9.4233949"><ele>236.16666666666666</ele><time>2026-03-22T16:27:08.094Z</time></trkpt><trkpt lat="45.6488282" lon="9.4234127"><ele>237.0</ele><time>2026-03-22T16:27:10.094Z</time></trkpt><trkpt lat="45.6487273" lon="9.4234275"><ele>237.0</ele><time>2026-03-22T16:27:12.094Z</time></trkpt><trkpt lat="45.6486114" lon="9.4234414"><ele>237.0</ele><time>2026-03-22T16:27:14.094Z</time></trkpt><trkpt lat="45.6484972" lon="9.4234471"><ele>237.0</ele><time>2026-03-22T16:27:16.094Z</time></trkpt><trkpt lat="45.6483826" lon="9.4234535"><ele>237.0</ele><time>2026-03-22T16:27:18.093Z</time></trkpt><trkpt lat="45.6483186" lon="9.4234475"><ele>237.0</ele><time>2026-03-22T16:27:19.093Z</time></trkpt><trkpt lat="45.6481974" lon="9.4234487"><ele>237.0</ele><time>2026-03-22T16:27:21.093Z</time></trkpt><trkpt lat="45.6481337" lon="9.4234633"><ele>237.0</ele><time>2026-03-22T16:27:22.094Z</time></trkpt><trkpt lat="45.6480064" lon="9.4234715"><ele>237.0</ele><time>2026-03-22T16:27:24.094Z</time></trkpt><trkpt lat="45.64789" lon="9.4234821"><ele>237.0</ele><time>2026-03-22T16:27:26.093Z</time></trkpt><trkpt lat="45.6477717" lon="9.4234896"><ele>237.0</ele><time>2026-03-22T16:27:28.094Z</time></trkpt><trkpt lat="45.6476571" lon="9.4234988"><ele>237.25</ele><time>2026-03-22T16:27:30.094Z</time></trkpt><trkpt lat="45.6475412" lon="9.4235078"><ele>237.5</ele><time>2026-03-22T16:27:32.094Z</time></trkpt><trkpt lat="45.6474294" lon="9.4235142"><ele>237.75</ele><time>2026-03-22T16:27:34.093Z</time></trkpt><trkpt lat="45.6473117" lon="9.4235102"><ele>238.0</ele><time>2026-03-22T16:27:36.094Z</time></trkpt><trkpt lat="45.6472013" lon="9.4234889"><ele>238.0</ele><time>2026-03-22T16:27:38.094Z</time></trkpt><trkpt lat="45.64709" lon="9.4234275"><ele>238.0</ele><time>2026-03-22T16:27:40.094Z</time></trkpt><trkpt lat="45.6469886" lon="9.4233493"><ele>238.0</ele><time>2026-03-22T16:27:42.094Z</time></trkpt><trkpt lat="45.6468898" lon="9.4232717"><ele>238.0</ele><time>2026-03-22T16:27:44.093Z</time></trkpt><trkpt lat="45.6467863" lon="9.4231882"><ele>238.2</ele><time>2026-03-22T16:27:46.094Z</time></trkpt><trkpt lat="45.6466984" lon="9.4231072"><ele>238.4</ele><time>2026-03-22T16:27:48.093Z</time></trkpt><trkpt lat="45.6465942" lon="9.4230281"><ele>238.59999999999997</ele><time>2026-03-22T16:27:50.094Z</time></trkpt><trkpt lat="45.6464943" lon="9.4229388"><ele>238.79999999999998</ele><time>2026-03-22T16:27:52.094Z</time></trkpt><trkpt lat="45.6464363" lon="9.422893"><ele>239.0</ele><time>2026-03-22T16:27:53.094Z</time></trkpt><trkpt lat="45.6463369" lon="9.422812"><ele>239.2</ele><time>2026-03-22T16:27:55.094Z</time></trkpt><trkpt lat="45.6462807" lon="9.4227659"><ele>239.39999999999998</ele><time>2026-03-22T16:27:56.094Z</time></trkpt><trkpt lat="45.6461724" lon="9.4226661"><ele>239.6</ele><time>2026-03-22T16:27:58.094Z</time></trkpt><trkpt lat="45.646118" lon="9.4226179"><ele>239.8</ele><time>2026-03-22T16:27:59.094Z</time></trkpt><trkpt lat="45.6460112" lon="9.4225275"><ele>240.0</ele><time>2026-03-22T16:28:01.094Z</time></trkpt><trkpt lat="45.6459508" lon="9.4224783"><ele>240.0</ele><time>2026-03-22T16:28:02.094Z</time></trkpt><trkpt lat="45.6458414" lon="9.4223861"><ele>240.0</ele><time>2026-03-22T16:28:04.094Z</time></trkpt><trkpt lat="45.6457804" lon="9.4223425"><ele>240.0</ele><time>2026-03-22T16:28:05.094Z</time></trkpt><trkpt lat="45.6456887" lon="9.422244"><ele>240.0</ele><time>2026-03-22T16:28:07.094Z</time></trkpt><trkpt lat="45.6456409" lon="9.42218"><ele>240.0</ele><time>2026-03-22T16:28:08.094Z</time></trkpt><trkpt lat="45.6455866" lon="9.4221202"><ele>240.0</ele><time>2026-03-22T16:28:09.094Z</time></trkpt><trkpt lat="45.6455017" lon="9.421994"><ele>239.66666666666666</ele><time>2026-03-22T16:28:11.094Z</time></trkpt><trkpt lat="45.6454637" lon="9.4219124"><ele>239.33333333333331</ele><time>2026-03-22T16:28:12.094Z</time></trkpt><trkpt lat="45.6454232" lon="9.4218285"><ele>239.0</ele><time>2026-03-22T16:28:13.094Z</time></trkpt><trkpt lat="45.6453613" lon="9.4216659"><ele>238.66666666666666</ele><time>2026-03-22T16:28:15.094Z</time></trkpt><trkpt lat="45.6453275" lon="9.4215834"><ele>238.33333333333331</ele><time>2026-03-22T16:28:16.094Z</time></trkpt><trkpt lat="45.6452947" lon="9.421494"><ele>238.0</ele><time>2026-03-22T16:28:17.094Z</time></trkpt><trkpt lat="45.6452616" lon="9.4214104"><ele>238.0</ele><time>2026-03-22T16:28:18.094Z</time></trkpt><trkpt lat="45.6452281" lon="9.4213233"><ele>238.0</ele><time>2026-03-22T16:28:19.094Z</time></trkpt><trkpt lat="45.645197" lon="9.4212291"><ele>238.0</ele><time>2026-03-22T16:28:20.094Z</time></trkpt><trkpt lat="45.6451625" lon="9.4211444"><ele>238.0</ele><time>2026-03-22T16:28:21.094Z</time></trkpt><trkpt lat="45.6451249" lon="9.4210538"><ele>238.0</ele><time>2026-03-22T16:28:22.094Z</time></trkpt><trkpt lat="45.6450965" lon="9.4209549"><ele>238.0</ele><time>2026-03-22T16:28:23.094Z</time></trkpt><trkpt lat="45.6450534" lon="9.4208562"><ele>238.0</ele><time>2026-03-22T16:28:24.094Z</time></trkpt><trkpt lat="45.6450178" lon="9.4207571"><ele>237.83333333333331</ele><time>2026-03-22T16:28:25.094Z</time></trkpt><trkpt lat="45.6449754" lon="9.420657"><ele>237.66666666666666</ele><time>2026-03-22T16:28:26.093Z</time></trkpt><trkpt lat="45.6449345" lon="9.4205535"><ele>237.5</ele><time>2026-03-22T16:28:27.094Z</time></trkpt><trkpt lat="45.6449042" lon="9.4204519"><ele>237.33333333333331</ele><time>2026-03-22T16:28:28.094Z</time></trkpt><trkpt lat="45.644874" lon="9.4203411"><ele>237.16666666666666</ele><time>2026-03-22T16:28:29.094Z</time></trkpt><trkpt lat="45.6448347" lon="9.420244"><ele>237.0</ele><time>2026-03-22T16:28:30.094Z</time></trkpt><trkpt lat="45.6447968" lon="9.4201251"><ele>236.33333333333334</ele><time>2026-03-22T16:28:31.094Z</time></trkpt><trkpt lat="45.6447588" lon="9.4200207"><ele>235.66666666666669</ele><time>2026-03-22T16:28:32.093Z</time></trkpt><trkpt lat="45.6447217" lon="9.4199075"><ele>235.0</ele><time>2026-03-22T16:28:33.094Z</time></trkpt><trkpt lat="45.6446871" lon="9.419792"><ele>234.33333333333334</ele><time>2026-03-22T16:28:34.094Z</time></trkpt><trkpt lat="45.6446478" lon="9.4196921"><ele>233.66666666666669</ele><time>2026-03-22T16:28:35.094Z</time></trkpt><trkpt lat="45.644613" lon="9.41959"><ele>233.0</ele><time>2026-03-22T16:28:36.094Z</time></trkpt><trkpt lat="45.6445799" lon="9.4194873"><ele>232.50000000000003</ele><time>2026-03-22T16:28:37.094Z</time></trkpt><trkpt lat="45.6445428" lon="9.419383"><ele>232.0</ele><time>2026-03-22T16:28:38.094Z</time></trkpt><trkpt lat="45.6445088" lon="9.4192877"><ele>231.5</ele><time>2026-03-22T16:28:39.093Z</time></trkpt><trkpt lat="45.6444703" lon="9.4191761"><ele>231.0</ele><time>2026-03-22T16:28:40.094Z</time></trkpt><trkpt lat="45.6444357" lon="9.419068"><ele>230.50000000000003</ele><time>2026-03-22T16:28:41.094Z</time></trkpt><trkpt lat="45.6443979" lon="9.418975"><ele>230.0</ele><time>2026-03-22T16:28:42.094Z</time></trkpt><trkpt lat="45.6443607" lon="9.4188788"><ele>229.71428571428567</ele><time>2026-03-22T16:28:43.093Z</time></trkpt><trkpt lat="45.6443265" lon="9.4187834"><ele>229.42857142857142</ele><time>2026-03-22T16:28:44.094Z</time></trkpt><trkpt lat="45.6442935" lon="9.4186825"><ele>229.1428571428571</ele><time>2026-03-22T16:28:45.093Z</time></trkpt><trkpt lat="45.6442602" lon="9.4185911"><ele>228.85714285714283</ele><time>2026-03-22T16:28:46.094Z</time></trkpt><trkpt lat="45.6442305" lon="9.4184917"><ele>228.57142857142856</ele><time>2026-03-22T16:28:47.094Z</time></trkpt><trkpt lat="45.6441981" lon="9.4183968"><ele>228.28571428571428</ele><time>2026-03-22T16:28:48.094Z</time></trkpt><trkpt lat="45.6441614" lon="9.418303"><ele>228.0</ele><time>2026-03-22T16:28:49.093Z</time></trkpt><trkpt lat="45.644121" lon="9.4182231"><ele>228.0</ele><time>2026-03-22T16:28:50.094Z</time></trkpt><trkpt lat="45.6440303" lon="9.4180955"><ele>228.0</ele><time>2026-03-22T16:28:52.094Z</time></trkpt><trkpt lat="45.6439724" lon="9.4180428"><ele>228.0</ele><time>2026-03-22T16:28:53.094Z</time></trkpt><trkpt lat="45.6439151" lon="9.4179972"><ele>228.0</ele><time>2026-03-22T16:28:54.094Z</time></trkpt><trkpt lat="45.6438557" lon="9.4179512"><ele>228.0</ele><time>2026-03-22T16:28:55.093Z</time></trkpt><trkpt lat="45.6437924" lon="9.4179008"><ele>228.0</ele><time>2026-03-22T16:28:56.094Z</time></trkpt><trkpt lat="45.6437307" lon="9.4178426"><ele>228.16666666666666</ele><time>2026-03-22T16:28:57.093Z</time></trkpt><trkpt lat="45.6436112" lon="9.4177666"><ele>228.33333333333331</ele><time>2026-03-22T16:28:59.094Z</time></trkpt><trkpt lat="45.6435521" lon="9.4177267"><ele>228.5</ele><time>2026-03-22T16:29:00.094Z</time></trkpt><trkpt lat="45.6434875" lon="9.4176875"><ele>228.66666666666666</ele><time>2026-03-22T16:29:01.094Z</time></trkpt><trkpt lat="45.6434263" lon="9.4176363"><ele>228.83333333333331</ele><time>2026-03-22T16:29:02.094Z</time></trkpt><trkpt lat="45.6433631" lon="9.4175963"><ele>229.0</ele><time>2026-03-22T16:29:03.093Z</time></trkpt><trkpt lat="45.643299" lon="9.4175482"><ele>229.0</ele><time>2026-03-22T16:29:04.094Z</time></trkpt><trkpt lat="45.643234" lon="9.4175056"><ele>229.0</ele><time>2026-03-22T16:29:05.094Z</time></trkpt><trkpt lat="45.6431653" lon="9.4174601"><ele>229.0</ele><time>2026-03-22T16:29:06.094Z</time></trkpt><trkpt lat="45.6431006" lon="9.4174227"><ele>229.0</ele><time>2026-03-22T16:29:07.094Z</time></trkpt><trkpt lat="45.6430273" lon="9.4173692"><ele>229.0</ele><time>2026-03-22T16:29:08.094Z</time></trkpt><trkpt lat="45.642961" lon="9.4173198"><ele>229.0</ele><time>2026-03-22T16:29:09.094Z</time></trkpt><trkpt lat="45.6428927" lon="9.4172773"><ele>229.0</ele><time>2026-03-22T16:29:10.094Z</time></trkpt><trkpt lat="45.6428346" lon="9.4172284"><ele>228.99999999999997</ele><time>2026-03-22T16:29:11.094Z</time></trkpt><trkpt lat="45.6427651" lon="9.4172002"><ele>229.0</ele><time>2026-03-22T16:29:12.094Z</time></trkpt><trkpt lat="45.6426956" lon="9.4171449"><ele>229.0</ele><time>2026-03-22T16:29:13.094Z</time></trkpt><trkpt lat="45.6426254" lon="9.4170966"><ele>229.0</ele><time>2026-03-22T16:29:14.094Z</time></trkpt><trkpt lat="45.6425658" lon="9.4170488"><ele>228.99999999999997</ele><time>2026-03-22T16:29:15.094Z</time></trkpt><trkpt lat="45.6424928" lon="9.4170029"><ele>229.0</ele><time>2026-03-22T16:29:16.094Z</time></trkpt><trkpt lat="45.6424182" lon="9.4169503"><ele>228.99999999999997</ele><time>2026-03-22T16:29:17.094Z</time></trkpt><trkpt lat="45.6423497" lon="9.4169052"><ele>229.0</ele><time>2026-03-22T16:29:18.094Z</time></trkpt><trkpt lat="45.6422812" lon="9.4168555"><ele>229.0</ele><time>2026-03-22T16:29:19.094Z</time></trkpt><trkpt lat="45.6422136" lon="9.4168104"><ele>229.0</ele><time>2026-03-22T16:29:20.094Z</time></trkpt><trkpt lat="45.6421474" lon="9.4167654"><ele>228.99999999999997</ele><time>2026-03-22T16:29:21.094Z</time></trkpt><trkpt lat="45.6420772" lon="9.4167179"><ele>229.0</ele><time>2026-03-22T16:29:22.094Z</time></trkpt><trkpt lat="45.6420056" lon="9.4166732"><ele>228.99999999999997</ele><time>2026-03-22T16:29:23.094Z</time></trkpt><trkpt lat="45.6419387" lon="9.4166343"><ele>229.0</ele><time>2026-03-22T16:29:24.094Z</time></trkpt><trkpt lat="45.6418588" lon="9.4165801"><ele>229.0</ele><time>2026-03-22T16:29:25.094Z</time></trkpt><trkpt lat="45.6417942" lon="9.4165252"><ele>229.0</ele><time>2026-03-22T16:29:26.093Z</time></trkpt><trkpt lat="45.6417273" lon="9.4164815"><ele>228.99999999999997</ele><time>2026-03-22T16:29:27.094Z</time></trkpt><trkpt lat="45.6416639" lon="9.4164357"><ele>229.0</ele><time>2026-03-22T16:29:28.094Z</time></trkpt><trkpt lat="45.6415981" lon="9.4163898"><ele>228.99999999999997</ele><time>2026-03-22T16:29:29.094Z</time></trkpt><trkpt lat="45.6415358" lon="9.4163433"><ele>229.0</ele><time>2026-03-22T16:29:30.094Z</time></trkpt><trkpt lat="45.6414769" lon="9.4162986"><ele>229.0</ele><time>2026-03-22T16:29:31.094Z</time></trkpt><trkpt lat="45.6413759" lon="9.416267"><ele>229.0</ele><time>2026-03-22T16:29:33.093Z</time></trkpt><trkpt lat="45.6413251" lon="9.416321"><ele>228.99999999999997</ele><time>2026-03-22T16:29:34.094Z</time></trkpt><trkpt lat="45.6412518" lon="9.4164654"><ele>229.0</ele><time>2026-03-22T16:29:36.094Z</time></trkpt><trkpt lat="45.6412036" lon="9.4166152"><ele>229.0</ele><time>2026-03-22T16:29:38.094Z</time></trkpt><trkpt lat="45.6411571" lon="9.4167725"><ele>228.99999999999997</ele><time>2026-03-22T16:29:40.094Z</time></trkpt><trkpt lat="45.6411048" lon="9.4169253"><ele>228.99999999999997</ele><time>2026-03-22T16:29:42.093Z</time></trkpt><trkpt lat="45.6410521" lon="9.4170794"><ele>229.0</ele><time>2026-03-22T16:29:44.094Z</time></trkpt><trkpt lat="45.6410211" lon="9.4171648"><ele>229.0</ele><time>2026-03-22T16:29:45.094Z</time></trkpt><trkpt lat="45.640997" lon="9.4172491"><ele>228.99999999999997</ele><time>2026-03-22T16:29:46.093Z</time></trkpt><trkpt lat="45.6409677" lon="9.4173354"><ele>229.0</ele><time>2026-03-22T16:29:47.094Z</time></trkpt><trkpt lat="45.6409302" lon="9.4174288"><ele>229.0</ele><time>2026-03-22T16:29:48.094Z</time></trkpt><trkpt lat="45.6408988" lon="9.4175127"><ele>229.0</ele><time>2026-03-22T16:29:49.094Z</time></trkpt><trkpt lat="45.6408669" lon="9.4175909"><ele>228.99999999999997</ele><time>2026-03-22T16:29:50.094Z</time></trkpt><trkpt lat="45.6408069" lon="9.4177454"><ele>229.0</ele><time>2026-03-22T16:29:52.094Z</time></trkpt><trkpt lat="45.6407645" lon="9.4178221"><ele>229.0</ele><time>2026-03-22T16:29:53.094Z</time></trkpt><trkpt lat="45.6406742" lon="9.4179652"><ele>228.99999999999997</ele><time>2026-03-22T16:29:55.093Z</time></trkpt><trkpt lat="45.6406276" lon="9.418028"><ele>228.99999999999997</ele><time>2026-03-22T16:29:56.094Z</time></trkpt><trkpt lat="45.6405699" lon="9.4180871"><ele>229.0</ele><time>2026-03-22T16:29:57.094Z</time></trkpt><trkpt lat="45.6405162" lon="9.4181371"><ele>229.0</ele><time>2026-03-22T16:29:58.094Z</time></trkpt><trkpt lat="45.6404031" lon="9.4182126"><ele>229.0</ele><time>2026-03-22T16:30:00.094Z</time></trkpt><trkpt lat="45.6403397" lon="9.4182438"><ele>229.0</ele><time>2026-03-22T16:30:01.094Z</time></trkpt><trkpt lat="45.6402755" lon="9.418259"><ele>229.0</ele><time>2026-03-22T16:30:02.094Z</time></trkpt><trkpt lat="45.640198" lon="9.4182585"><ele>229.0</ele><time>2026-03-22T16:30:03.094Z</time></trkpt><trkpt lat="45.6401247" lon="9.4182683"><ele>229.0</ele><time>2026-03-22T16:30:04.094Z</time></trkpt><trkpt lat="45.6400614" lon="9.4182755"><ele>229.0</ele><time>2026-03-22T16:30:05.094Z</time></trkpt><trkpt lat="45.6399923" lon="9.4182675"><ele>229.0</ele><time>2026-03-22T16:30:06.094Z</time></trkpt><trkpt lat="45.6399268" lon="9.4182546"><ele>229.0</ele><time>2026-03-22T16:30:07.094Z</time></trkpt><trkpt lat="45.6398585" lon="9.418237"><ele>229.0</ele><time>2026-03-22T16:30:08.093Z</time></trkpt><trkpt lat="45.6397957" lon="9.4182224"><ele>229.0</ele><time>2026-03-22T16:30:09.094Z</time></trkpt><trkpt lat="45.6397219" lon="9.418201"><ele>229.0</ele><time>2026-03-22T16:30:10.094Z</time></trkpt><trkpt lat="45.6396524" lon="9.4181956"><ele>229.0</ele><time>2026-03-22T16:30:11.093Z</time></trkpt><trkpt lat="45.6395833" lon="9.4181803"><ele>229.0</ele><time>2026-03-22T16:30:12.094Z</time></trkpt><trkpt lat="45.6395196" lon="9.4181625"><ele>229.0</ele><time>2026-03-22T16:30:13.094Z</time></trkpt><trkpt lat="45.6394519" lon="9.4181514"><ele>228.71428571428572</ele><time>2026-03-22T16:30:14.094Z</time></trkpt><trkpt lat="45.6393828" lon="9.4181371"><ele>228.42857142857144</ele><time>2026-03-22T16:30:15.094Z</time></trkpt><trkpt lat="45.6393111" lon="9.4181191"><ele>228.14285714285717</ele><time>2026-03-22T16:30:16.094Z</time></trkpt><trkpt lat="45.6392356" lon="9.4181089"><ele>227.85714285714286</ele><time>2026-03-22T16:30:17.093Z</time></trkpt><trkpt lat="45.6391623" lon="9.4180907"><ele>227.5714285714286</ele><time>2026-03-22T16:30:18.094Z</time></trkpt><trkpt lat="45.6390892" lon="9.4180718"><ele>227.2857142857143</ele><time>2026-03-22T16:30:19.094Z</time></trkpt><trkpt lat="45.6390226" lon="9.4180639"><ele>227.0</ele><time>2026-03-22T16:30:20.094Z</time></trkpt><trkpt lat="45.6388918" lon="9.4180383"><ele>227.0</ele><time>2026-03-22T16:30:22.094Z</time></trkpt><trkpt lat="45.6388298" lon="9.4180212"><ele>227.0</ele><time>2026-03-22T16:30:23.093Z</time></trkpt><trkpt lat="45.6387261" lon="9.4179913"><ele>227.0</ele><time>2026-03-22T16:30:25.094Z</time></trkpt><trkpt lat="45.6386448" lon="9.4179718"><ele>227.0</ele><time>2026-03-22T16:30:27.094Z</time></trkpt><trkpt lat="45.6385514" lon="9.4180103"><ele>227.0</ele><time>2026-03-22T16:30:30.094Z</time></trkpt><trkpt lat="45.6384444" lon="9.4180583"><ele>226.33333333333334</ele><time>2026-03-22T16:30:32.094Z</time></trkpt><trkpt lat="45.6383316" lon="9.418096"><ele>225.66666666666669</ele><time>2026-03-22T16:30:34.094Z</time></trkpt><trkpt lat="45.6382634" lon="9.4181152"><ele>225.0</ele><time>2026-03-22T16:30:35.094Z</time></trkpt><trkpt lat="45.6381398" lon="9.418124"><ele>224.33333333333331</ele><time>2026-03-22T16:30:37.094Z</time></trkpt><trkpt lat="45.638071" lon="9.4181125"><ele>223.66666666666666</ele><time>2026-03-22T16:30:38.094Z</time></trkpt><trkpt lat="45.638008" lon="9.418093"><ele>223.0</ele><time>2026-03-22T16:30:39.094Z</time></trkpt><trkpt lat="45.6379404" lon="9.4180677"><ele>222.99999999999997</ele><time>2026-03-22T16:30:40.093Z</time></trkpt><trkpt lat="45.6378737" lon="9.4180492"><ele>223.0</ele><time>2026-03-22T16:30:41.093Z</time></trkpt><trkpt lat="45.6378019" lon="9.4180215"><ele>223.0</ele><time>2026-03-22T16:30:42.093Z</time></trkpt><trkpt lat="45.6376766" lon="9.4179872"><ele>223.0</ele><time>2026-03-22T16:30:44.094Z</time></trkpt><trkpt lat="45.637612" lon="9.4179659"><ele>222.99999999999997</ele><time>2026-03-22T16:30:45.094Z</time></trkpt><trkpt lat="45.6375485" lon="9.4179482"><ele>223.0</ele><time>2026-03-22T16:30:46.094Z</time></trkpt><trkpt lat="45.6374828" lon="9.4179347"><ele>223.16666666666666</ele><time>2026-03-22T16:30:47.094Z</time></trkpt><trkpt lat="45.6374149" lon="9.4179273"><ele>223.33333333333331</ele><time>2026-03-22T16:30:48.093Z</time></trkpt><trkpt lat="45.6372735" lon="9.4179163"><ele>223.5</ele><time>2026-03-22T16:30:50.094Z</time></trkpt><trkpt lat="45.6372045" lon="9.4179074"><ele>223.66666666666669</ele><time>2026-03-22T16:30:51.094Z</time></trkpt><trkpt lat="45.6371308" lon="9.4178884"><ele>223.83333333333334</ele><time>2026-03-22T16:30:52.094Z</time></trkpt><trkpt lat="45.637062" lon="9.4178629"><ele>224.0</ele><time>2026-03-22T16:30:53.094Z</time></trkpt><trkpt lat="45.6369884" lon="9.4178319"><ele>223.85714285714286</ele><time>2026-03-22T16:30:54.094Z</time></trkpt><trkpt lat="45.6369175" lon="9.4177914"><ele>223.71428571428572</ele><time>2026-03-22T16:30:55.094Z</time></trkpt><trkpt lat="45.6368441" lon="9.4177583"><ele>223.57142857142856</ele><time>2026-03-22T16:30:56.094Z</time></trkpt><trkpt lat="45.6367762" lon="9.4177225"><ele>223.42857142857144</ele><time>2026-03-22T16:30:57.094Z</time></trkpt><trkpt lat="45.6367102" lon="9.4176904"><ele>223.28571428571428</ele><time>2026-03-22T16:30:58.094Z</time></trkpt><trkpt lat="45.636645" lon="9.4176483"><ele>223.14285714285714</ele><time>2026-03-22T16:30:59.094Z</time></trkpt><trkpt lat="45.6365806" lon="9.4176145"><ele>223.0</ele><time>2026-03-22T16:31:00.094Z</time></trkpt><trkpt lat="45.6365196" lon="9.4175788"><ele>223.0</ele><time>2026-03-22T16:31:01.094Z</time></trkpt><trkpt lat="45.6364178" lon="9.4175349"><ele>223.0</ele><time>2026-03-22T16:31:03.094Z</time></trkpt><trkpt lat="45.6363274" lon="9.4175573"><ele>223.0</ele><time>2026-03-22T16:31:05.094Z</time></trkpt><trkpt lat="45.6362741" lon="9.4176907"><ele>223.0</ele><time>2026-03-22T16:31:07.094Z</time></trkpt><trkpt lat="45.6362172" lon="9.4178178"><ele>223.0</ele><time>2026-03-22T16:31:09.094Z</time></trkpt><trkpt lat="45.6361498" lon="9.4179441"><ele>223.5</ele><time>2026-03-22T16:31:11.094Z</time></trkpt><trkpt lat="45.6360994" lon="9.4180924"><ele>224.0</ele><time>2026-03-22T16:31:13.094Z</time></trkpt><trkpt lat="45.6360413" lon="9.418243"><ele>224.5</ele><time>2026-03-22T16:31:15.094Z</time></trkpt><trkpt lat="45.6359834" lon="9.418389"><ele>225.0</ele><time>2026-03-22T16:31:17.094Z</time></trkpt><trkpt lat="45.6359264" lon="9.4185468"><ele>225.0</ele><time>2026-03-22T16:31:19.093Z</time></trkpt><trkpt lat="45.6358524" lon="9.4186509"><ele>225.0</ele><time>2026-03-22T16:31:21.094Z</time></trkpt><trkpt lat="45.6357958" lon="9.4187499"><ele>225.0</ele><time>2026-03-22T16:31:23.094Z</time></trkpt><trkpt lat="45.6357711" lon="9.4188559"><ele>225.0</ele><time>2026-03-22T16:31:25.094Z</time></trkpt><trkpt lat="45.6357325" lon="9.4189867"><ele>225.0</ele><time>2026-03-22T16:31:27.094Z</time></trkpt><trkpt lat="45.6356793" lon="9.4191042"><ele>225.33333333333334</ele><time>2026-03-22T16:31:29.094Z</time></trkpt><trkpt lat="45.635635" lon="9.4192179"><ele>225.66666666666669</ele><time>2026-03-22T16:31:31.093Z</time></trkpt><trkpt lat="45.635596" lon="9.4193473"><ele>226.0</ele><time>2026-03-22T16:31:33.094Z</time></trkpt><trkpt lat="45.6355624" lon="9.4194391"><ele>226.33333333333334</ele><time>2026-03-22T16:31:35.093Z</time></trkpt><trkpt lat="45.6354919" lon="9.4194593"><ele>226.66666666666669</ele><time>2026-03-22T16:31:38.094Z</time></trkpt><trkpt lat="45.6354067" lon="9.4194048"><ele>227.0</ele><time>2026-03-22T16:31:40.094Z</time></trkpt><trkpt lat="45.6353113" lon="9.4193526"><ele>227.39999999999998</ele><time>2026-03-22T16:31:42.094Z</time></trkpt><trkpt lat="45.6352085" lon="9.4192905"><ele>227.79999999999998</ele><time>2026-03-22T16:31:44.094Z</time></trkpt><trkpt lat="45.6351463" lon="9.4192522"><ele>228.2</ele><time>2026-03-22T16:31:45.094Z</time></trkpt><trkpt lat="45.6350433" lon="9.4191739"><ele>228.6</ele><time>2026-03-22T16:31:47.094Z</time></trkpt><trkpt lat="45.6349271" lon="9.4191008"><ele>229.0</ele><time>2026-03-22T16:31:49.094Z</time></trkpt><trkpt lat="45.6348661" lon="9.4190674"><ele>229.0</ele><time>2026-03-22T16:31:50.094Z</time></trkpt><trkpt lat="45.6347963" lon="9.419036"><ele>229.0</ele><time>2026-03-22T16:31:51.094Z</time></trkpt><trkpt lat="45.6347357" lon="9.4189888"><ele>229.0</ele><time>2026-03-22T16:31:52.094Z</time></trkpt><trkpt lat="45.6346793" lon="9.4189476"><ele>229.0</ele><time>2026-03-22T16:31:53.094Z</time></trkpt><trkpt lat="45.634614" lon="9.4189102"><ele>229.0</ele><time>2026-03-22T16:31:54.094Z</time></trkpt><trkpt lat="45.6345491" lon="9.4188778"><ele>229.0</ele><time>2026-03-22T16:31:55.094Z</time></trkpt><trkpt lat="45.6344855" lon="9.4188428"><ele>229.0</ele><time>2026-03-22T16:31:56.094Z</time></trkpt><trkpt lat="45.634419" lon="9.4188127"><ele>228.16666666666666</ele><time>2026-03-22T16:31:57.094Z</time></trkpt><trkpt lat="45.634351" lon="9.4187811"><ele>227.33333333333331</ele><time>2026-03-22T16:31:58.094Z</time></trkpt><trkpt lat="45.6342822" lon="9.4187562"><ele>226.5</ele><time>2026-03-22T16:31:59.094Z</time></trkpt><trkpt lat="45.6342106" lon="9.4187349"><ele>225.66666666666669</ele><time>2026-03-22T16:32:00.094Z</time></trkpt><trkpt lat="45.6340884" lon="9.4187015"><ele>224.83333333333334</ele><time>2026-03-22T16:32:02.093Z</time></trkpt><trkpt lat="45.6340227" lon="9.418689"><ele>224.0</ele><time>2026-03-22T16:32:03.094Z</time></trkpt><trkpt lat="45.6339538" lon="9.4186648"><ele>224.0</ele><time>2026-03-22T16:32:04.094Z</time></trkpt><trkpt lat="45.6338882" lon="9.4186488"><ele>223.99999999999997</ele><time>2026-03-22T16:32:05.094Z</time></trkpt><trkpt lat="45.6337538" lon="9.4186392"><ele>223.99999999999997</ele><time>2026-03-22T16:32:07.094Z</time></trkpt><trkpt lat="45.6336803" lon="9.4186234"><ele>224.0</ele><time>2026-03-22T16:32:08.094Z</time></trkpt><trkpt lat="45.6336137" lon="9.4186024"><ele>224.0</ele><time>2026-03-22T16:32:09.094Z</time></trkpt><trkpt lat="45.6335045" lon="9.4185784"><ele>223.79999999999998</ele><time>2026-03-22T16:32:11.094Z</time></trkpt><trkpt lat="45.6334101" lon="9.4185417"><ele>223.59999999999997</ele><time>2026-03-22T16:32:13.094Z</time></trkpt><trkpt lat="45.6333224" lon="9.4185167"><ele>223.4</ele><time>2026-03-22T16:32:15.094Z</time></trkpt><trkpt lat="45.6332061" lon="9.4185028"><ele>223.2</ele><time>2026-03-22T16:32:17.094Z</time></trkpt><trkpt lat="45.6330842" lon="9.4184878"><ele>223.0</ele><time>2026-03-22T16:32:19.094Z</time></trkpt><trkpt lat="45.6330192" lon="9.4184781"><ele>222.99999999999997</ele><time>2026-03-22T16:32:20.094Z</time></trkpt><trkpt lat="45.632956" lon="9.4184698"><ele>223.0</ele><time>2026-03-22T16:32:21.094Z</time></trkpt><trkpt lat="45.6328362" lon="9.4184512"><ele>223.0</ele><time>2026-03-22T16:32:23.094Z</time></trkpt><trkpt lat="45.6327698" lon="9.4184369"><ele>223.0</ele><time>2026-03-22T16:32:24.094Z</time></trkpt><trkpt lat="45.6327037" lon="9.4184204"><ele>222.99999999999997</ele><time>2026-03-22T16:32:25.093Z</time></trkpt><trkpt lat="45.6326375" lon="9.4183871"><ele>223.0</ele><time>2026-03-22T16:32:26.093Z</time></trkpt><trkpt lat="45.6325666" lon="9.4183838"><ele>223.14285714285714</ele><time>2026-03-22T16:32:27.093Z</time></trkpt><trkpt lat="45.6324891" lon="9.4183625"><ele>223.28571428571428</ele><time>2026-03-22T16:32:28.094Z</time></trkpt><trkpt lat="45.6324231" lon="9.4183494"><ele>223.42857142857144</ele><time>2026-03-22T16:32:29.094Z</time></trkpt><trkpt lat="45.6323541" lon="9.4183288"><ele>223.57142857142856</ele><time>2026-03-22T16:32:30.094Z</time></trkpt><trkpt lat="45.6322857" lon="9.4183002"><ele>223.71428571428572</ele><time>2026-03-22T16:32:31.094Z</time></trkpt><trkpt lat="45.6322115" lon="9.4182844"><ele>223.85714285714286</ele><time>2026-03-22T16:32:32.093Z</time></trkpt><trkpt lat="45.6321337" lon="9.4182713"><ele>224.0</ele><time>2026-03-22T16:32:33.094Z</time></trkpt><trkpt lat="45.6320549" lon="9.4182533"><ele>223.83333333333334</ele><time>2026-03-22T16:32:34.094Z</time></trkpt><trkpt lat="45.6319263" lon="9.4182286"><ele>223.66666666666669</ele><time>2026-03-22T16:32:36.094Z</time></trkpt><trkpt lat="45.6318638" lon="9.4182141"><ele>223.5</ele><time>2026-03-22T16:32:37.094Z</time></trkpt><trkpt lat="45.631794" lon="9.4181994"><ele>223.33333333333331</ele><time>2026-03-22T16:32:38.094Z</time></trkpt><trkpt lat="45.6317205" lon="9.4181891"><ele>223.16666666666666</ele><time>2026-03-22T16:32:39.094Z</time></trkpt><trkpt lat="45.631656" lon="9.4181682"><ele>223.0</ele><time>2026-03-22T16:32:40.094Z</time></trkpt><trkpt lat="45.6315919" lon="9.4181498"><ele>223.0</ele><time>2026-03-22T16:32:41.094Z</time></trkpt><trkpt lat="45.6314652" lon="9.4181322"><ele>223.0</ele><time>2026-03-22T16:32:43.094Z</time></trkpt><trkpt lat="45.6313471" lon="9.4181162"><ele>223.0</ele><time>2026-03-22T16:32:45.094Z</time></trkpt><trkpt lat="45.6312247" lon="9.4180954"><ele>223.0</ele><time>2026-03-22T16:32:47.094Z</time></trkpt><trkpt lat="45.6311559" lon="9.4180884"><ele>223.0</ele><time>2026-03-22T16:32:48.094Z</time></trkpt><trkpt lat="45.6310898" lon="9.4180835"><ele>223.28571428571428</ele><time>2026-03-22T16:32:49.094Z</time></trkpt><trkpt lat="45.6310189" lon="9.4180721"><ele>223.57142857142856</ele><time>2026-03-22T16:32:50.094Z</time></trkpt><trkpt lat="45.6309502" lon="9.4180716"><ele>223.8571428571429</ele><time>2026-03-22T16:32:51.093Z</time></trkpt><trkpt lat="45.630875" lon="9.4180752"><ele>224.14285714285717</ele><time>2026-03-22T16:32:52.094Z</time></trkpt><trkpt lat="45.6308066" lon="9.4180859"><ele>224.42857142857144</ele><time>2026-03-22T16:32:53.094Z</time></trkpt><trkpt lat="45.6307314" lon="9.4180993"><ele>224.71428571428575</ele><time>2026-03-22T16:32:54.094Z</time></trkpt><trkpt lat="45.6306617" lon="9.4181091"><ele>225.00000000000003</ele><time>2026-03-22T16:32:55.094Z</time></trkpt><trkpt lat="45.6305328" lon="9.4181308"><ele>225.00000000000003</ele><time>2026-03-22T16:32:57.094Z</time></trkpt><trkpt lat="45.6304582" lon="9.4181419"><ele>225.0</ele><time>2026-03-22T16:32:58.094Z</time></trkpt><trkpt lat="45.6303893" lon="9.418155"><ele>225.00000000000003</ele><time>2026-03-22T16:32:59.094Z</time></trkpt><trkpt lat="45.6303129" lon="9.4181675"><ele>225.00000000000003</ele><time>2026-03-22T16:33:00.094Z</time></trkpt><trkpt lat="45.6302309" lon="9.4181708"><ele>225.0</ele><time>2026-03-22T16:33:01.094Z</time></trkpt><trkpt lat="45.6301609" lon="9.4181811"><ele>225.00000000000003</ele><time>2026-03-22T16:33:02.094Z</time></trkpt><trkpt lat="45.6300881" lon="9.4181657"><ele>225.00000000000003</ele><time>2026-03-22T16:33:03.094Z</time></trkpt><trkpt lat="45.6300129" lon="9.4181495"><ele>224.42857142857147</ele><time>2026-03-22T16:33:04.094Z</time></trkpt><trkpt lat="45.6299435" lon="9.4181227"><ele>223.85714285714286</ele><time>2026-03-22T16:33:05.094Z</time></trkpt><trkpt lat="45.6298762" lon="9.4181129"><ele>223.2857142857143</ele><time>2026-03-22T16:33:06.094Z</time></trkpt><trkpt lat="45.6298045" lon="9.4181267"><ele>222.71428571428572</ele><time>2026-03-22T16:33:07.094Z</time></trkpt><trkpt lat="45.6297328" lon="9.4181621"><ele>222.14285714285717</ele><time>2026-03-22T16:33:08.094Z</time></trkpt><trkpt lat="45.6296604" lon="9.4181947"><ele>221.57142857142858</ele><time>2026-03-22T16:33:09.094Z</time></trkpt><trkpt lat="45.6295873" lon="9.4182336"><ele>221.0</ele><time>2026-03-22T16:33:10.094Z</time></trkpt><trkpt lat="45.6295079" lon="9.4182575"><ele>220.66666666666669</ele><time>2026-03-22T16:33:11.094Z</time></trkpt><trkpt lat="45.6294234" lon="9.4182743"><ele>220.33333333333334</ele><time>2026-03-22T16:33:12.094Z</time></trkpt><trkpt lat="45.6293471" lon="9.4182888"><ele>220.0</ele><time>2026-03-22T16:33:13.094Z</time></trkpt><trkpt lat="45.6292833" lon="9.4183072"><ele>219.66666666666669</ele><time>2026-03-22T16:33:14.094Z</time></trkpt><trkpt lat="45.6292176" lon="9.4183181"><ele>219.33333333333334</ele><time>2026-03-22T16:33:15.094Z</time></trkpt><trkpt lat="45.6291372" lon="9.41833"><ele>219.0</ele><time>2026-03-22T16:33:16.094Z</time></trkpt><trkpt lat="45.6290552" lon="9.4183393"><ele>219.0</ele><time>2026-03-22T16:33:17.094Z</time></trkpt><trkpt lat="45.6289802" lon="9.4183576"><ele>219.0</ele><time>2026-03-22T16:33:18.094Z</time></trkpt><trkpt lat="45.6288917" lon="9.4183732"><ele>219.0</ele><time>2026-03-22T16:33:19.094Z</time></trkpt><trkpt lat="45.6288156" lon="9.4183754"><ele>219.0</ele><time>2026-03-22T16:33:20.094Z</time></trkpt><trkpt lat="45.6287372" lon="9.4183938"><ele>219.0</ele><time>2026-03-22T16:33:21.094Z</time></trkpt><trkpt lat="45.6286577" lon="9.418405"><ele>219.0</ele><time>2026-03-22T16:33:22.094Z</time></trkpt><trkpt lat="45.6285869" lon="9.4184116"><ele>218.33333333333334</ele><time>2026-03-22T16:33:23.094Z</time></trkpt><trkpt lat="45.6285078" lon="9.4184109"><ele>217.66666666666669</ele><time>2026-03-22T16:33:24.094Z</time></trkpt><trkpt lat="45.6284292" lon="9.4184063"><ele>217.0</ele><time>2026-03-22T16:33:25.094Z</time></trkpt><trkpt lat="45.6283415" lon="9.4183938"><ele>216.33333333333334</ele><time>2026-03-22T16:33:26.094Z</time></trkpt><trkpt lat="45.6282584" lon="9.4183868"><ele>215.66666666666669</ele><time>2026-03-22T16:33:27.094Z</time></trkpt><trkpt lat="45.6281734" lon="9.4183781"><ele>215.0</ele><time>2026-03-22T16:33:28.094Z</time></trkpt><trkpt lat="45.6281018" lon="9.4183728"><ele>215.00000000000003</ele><time>2026-03-22T16:33:29.094Z</time></trkpt><trkpt lat="45.6280205" lon="9.4183669"><ele>215.0</ele><time>2026-03-22T16:33:30.094Z</time></trkpt><trkpt lat="45.6279422" lon="9.418359"><ele>215.0</ele><time>2026-03-22T16:33:31.094Z</time></trkpt><trkpt lat="45.6278613" lon="9.4183554"><ele>215.0</ele><time>2026-03-22T16:33:32.094Z</time></trkpt><trkpt lat="45.6277737" lon="9.4183355"><ele>215.00000000000003</ele><time>2026-03-22T16:33:33.094Z</time></trkpt><trkpt lat="45.6276953" lon="9.4183264"><ele>215.0</ele><time>2026-03-22T16:33:34.094Z</time></trkpt><trkpt lat="45.6276205" lon="9.4183326"><ele>215.00000000000003</ele><time>2026-03-22T16:33:35.094Z</time></trkpt><trkpt lat="45.6275347" lon="9.4183255"><ele>215.0</ele><time>2026-03-22T16:33:36.094Z</time></trkpt><trkpt lat="45.6274457" lon="9.418327"><ele>215.0</ele><time>2026-03-22T16:33:37.094Z</time></trkpt><trkpt lat="45.6273757" lon="9.4183268"><ele>215.0</ele><time>2026-03-22T16:33:38.093Z</time></trkpt><trkpt lat="45.6273023" lon="9.418329"><ele>215.00000000000003</ele><time>2026-03-22T16:33:39.094Z</time></trkpt><trkpt lat="45.6272181" lon="9.4183304"><ele>215.0</ele><time>2026-03-22T16:33:40.093Z</time></trkpt><trkpt lat="45.627142" lon="9.4183192"><ele>215.00000000000003</ele><time>2026-03-22T16:33:41.093Z</time></trkpt><trkpt lat="45.6270514" lon="9.4183075"><ele>215.0</ele><time>2026-03-22T16:33:42.094Z</time></trkpt><trkpt lat="45.6269648" lon="9.4182987"><ele>215.0</ele><time>2026-03-22T16:33:43.094Z</time></trkpt><trkpt lat="45.626886" lon="9.4182987"><ele>215.0</ele><time>2026-03-22T16:33:44.094Z</time></trkpt><trkpt lat="45.6268078" lon="9.4182908"><ele>215.00000000000003</ele><time>2026-03-22T16:33:45.094Z</time></trkpt><trkpt lat="45.6267124" lon="9.4182796"><ele>215.0</ele><time>2026-03-22T16:33:46.094Z</time></trkpt><trkpt lat="45.6266297" lon="9.4182668"><ele>215.16666666666669</ele><time>2026-03-22T16:33:47.094Z</time></trkpt><trkpt lat="45.6265435" lon="9.4182617"><ele>215.33333333333334</ele><time>2026-03-22T16:33:48.093Z</time></trkpt><trkpt lat="45.6264612" lon="9.4182528"><ele>215.5</ele><time>2026-03-22T16:33:49.094Z</time></trkpt><trkpt lat="45.6263737" lon="9.4182385"><ele>215.66666666666669</ele><time>2026-03-22T16:33:50.094Z</time></trkpt><trkpt lat="45.6262875" lon="9.4182262"><ele>215.83333333333334</ele><time>2026-03-22T16:33:51.094Z</time></trkpt><trkpt lat="45.6261897" lon="9.4182142"><ele>216.0</ele><time>2026-03-22T16:33:52.094Z</time></trkpt><trkpt lat="45.6261065" lon="9.4182022"><ele>215.66666666666666</ele><time>2026-03-22T16:33:53.094Z</time></trkpt><trkpt lat="45.6260238" lon="9.4181916"><ele>215.33333333333331</ele><time>2026-03-22T16:33:54.094Z</time></trkpt><trkpt lat="45.6259372" lon="9.4181835"><ele>215.0</ele><time>2026-03-22T16:33:55.094Z</time></trkpt><trkpt lat="45.6258475" lon="9.4181703"><ele>214.66666666666666</ele><time>2026-03-22T16:33:56.094Z</time></trkpt><trkpt lat="45.6257654" lon="9.4181634"><ele>214.33333333333331</ele><time>2026-03-22T16:33:57.094Z</time></trkpt><trkpt lat="45.6256849" lon="9.4181544"><ele>214.0</ele><time>2026-03-22T16:33:58.093Z</time></trkpt><trkpt lat="45.6256093" lon="9.4181426"><ele>214.00000000000003</ele><time>2026-03-22T16:33:59.094Z</time></trkpt><trkpt lat="45.6255425" lon="9.4181274"><ele>214.0</ele><time>2026-03-22T16:34:00.094Z</time></trkpt><trkpt lat="45.6254627" lon="9.4181179"><ele>214.0</ele><time>2026-03-22T16:34:01.094Z</time></trkpt><trkpt lat="45.6253898" lon="9.4180882"><ele>214.0</ele><time>2026-03-22T16:34:02.094Z</time></trkpt><trkpt lat="45.6253221" lon="9.4180653"><ele>214.0</ele><time>2026-03-22T16:34:03.093Z</time></trkpt><trkpt lat="45.6252577" lon="9.4180087"><ele>214.00000000000003</ele><time>2026-03-22T16:34:04.094Z</time></trkpt><trkpt lat="45.6252154" lon="9.4179376"><ele>214.0</ele><time>2026-03-22T16:34:05.094Z</time></trkpt><trkpt lat="45.6251658" lon="9.4178811"><ele>213.79999999999998</ele><time>2026-03-22T16:34:06.094Z</time></trkpt><trkpt lat="45.6251006" lon="9.4177919"><ele>213.59999999999997</ele><time>2026-03-22T16:34:08.094Z</time></trkpt><trkpt lat="45.6250253" lon="9.4177373"><ele>213.4</ele><time>2026-03-22T16:34:11.094Z</time></trkpt><trkpt lat="45.6249442" lon="9.4177506"><ele>213.2</ele><time>2026-03-22T16:34:13.094Z</time></trkpt><trkpt lat="45.6248648" lon="9.4178437"><ele>213.0</ele><time>2026-03-22T16:34:15.094Z</time></trkpt><trkpt lat="45.6247872" lon="9.4179558"><ele>213.0</ele><time>2026-03-22T16:34:17.093Z</time></trkpt><trkpt lat="45.6247279" lon="9.4180143"><ele>213.0</ele><time>2026-03-22T16:34:19.094Z</time></trkpt><trkpt lat="45.6246228" lon="9.417975"><ele>213.0</ele><time>2026-03-22T16:34:21.094Z</time></trkpt><trkpt lat="45.6245228" lon="9.4179748"><ele>213.0</ele><time>2026-03-22T16:34:23.094Z</time></trkpt><trkpt lat="45.6244136" lon="9.4179491"><ele>213.0</ele><time>2026-03-22T16:34:25.094Z</time></trkpt><trkpt lat="45.6243087" lon="9.4179309"><ele>213.75</ele><time>2026-03-22T16:34:27.094Z</time></trkpt><trkpt lat="45.6242031" lon="9.4178911"><ele>214.5</ele><time>2026-03-22T16:34:29.094Z</time></trkpt><trkpt lat="45.6240922" lon="9.4178757"><ele>215.25</ele><time>2026-03-22T16:34:31.094Z</time></trkpt><trkpt lat="45.6239713" lon="9.4178577"><ele>216.0</ele><time>2026-03-22T16:34:33.093Z</time></trkpt><trkpt lat="45.6238552" lon="9.4178319"><ele>216.0</ele><time>2026-03-22T16:34:35.094Z</time></trkpt><trkpt lat="45.6237408" lon="9.4178164"><ele>216.00000000000003</ele><time>2026-03-22T16:34:37.094Z</time></trkpt><trkpt lat="45.623618" lon="9.4178044"><ele>216.00000000000003</ele><time>2026-03-22T16:34:39.094Z</time></trkpt><trkpt lat="45.6234947" lon="9.4177844"><ele>216.0</ele><time>2026-03-22T16:34:41.094Z</time></trkpt><trkpt lat="45.6234234" lon="9.4177816"><ele>216.0</ele><time>2026-03-22T16:34:42.094Z</time></trkpt><trkpt lat="45.6233557" lon="9.4177677"><ele>215.8</ele><time>2026-03-22T16:34:43.094Z</time></trkpt><trkpt lat="45.6232407" lon="9.4177622"><ele>215.60000000000002</ele><time>2026-03-22T16:34:45.093Z</time></trkpt><trkpt lat="45.6231215" lon="9.4177323"><ele>215.4</ele><time>2026-03-22T16:34:47.094Z</time></trkpt><trkpt lat="45.6230423" lon="9.4177388"><ele>215.2</ele><time>2026-03-22T16:34:49.094Z</time></trkpt><trkpt lat="45.6229129" lon="9.4177255"><ele>215.0</ele><time>2026-03-22T16:34:51.094Z</time></trkpt><trkpt lat="45.6228476" lon="9.4177311"><ele>214.8</ele><time>2026-03-22T16:34:52.094Z</time></trkpt><trkpt lat="45.6227823" lon="9.4177083"><ele>214.6</ele><time>2026-03-22T16:34:53.093Z</time></trkpt><trkpt lat="45.6226538" lon="9.417694"><ele>214.39999999999998</ele><time>2026-03-22T16:34:55.093Z</time></trkpt><trkpt lat="45.6225517" lon="9.4177499"><ele>214.2</ele><time>2026-03-22T16:34:57.094Z</time></trkpt><trkpt lat="45.622474" lon="9.417887"><ele>214.0</ele><time>2026-03-22T16:34:59.094Z</time></trkpt><trkpt lat="45.6223949" lon="9.4180017"><ele>214.0</ele><time>2026-03-22T16:35:01.094Z</time></trkpt><trkpt lat="45.6222948" lon="9.4180836"><ele>213.99999999999997</ele><time>2026-03-22T16:35:03.094Z</time></trkpt><trkpt lat="45.6221805" lon="9.418138"><ele>213.99999999999997</ele><time>2026-03-22T16:35:05.094Z</time></trkpt><trkpt lat="45.6221125" lon="9.4181546"><ele>214.0</ele><time>2026-03-22T16:35:06.094Z</time></trkpt><trkpt lat="45.6219784" lon="9.4181692"><ele>214.0</ele><time>2026-03-22T16:35:08.094Z</time></trkpt><trkpt lat="45.6218081" lon="9.4181517"><ele>213.83333333333331</ele><time>2026-03-22T16:35:10.094Z</time></trkpt><trkpt lat="45.6217274" lon="9.41813"><ele>213.66666666666666</ele><time>2026-03-22T16:35:11.094Z</time></trkpt><trkpt lat="45.62161" lon="9.4181545"><ele>213.5</ele><time>2026-03-22T16:35:13.094Z</time></trkpt><trkpt lat="45.6215363" lon="9.4181542"><ele>213.33333333333331</ele><time>2026-03-22T16:35:14.094Z</time></trkpt><trkpt lat="45.6214612" lon="9.4181538"><ele>213.16666666666666</ele><time>2026-03-22T16:35:15.094Z</time></trkpt><trkpt lat="45.6213992" lon="9.4182381"><ele>213.0</ele><time>2026-03-22T16:35:17.094Z</time></trkpt><trkpt lat="45.6213403" lon="9.4182703"><ele>212.99999999999997</ele><time>2026-03-22T16:35:18.094Z</time></trkpt><trkpt lat="45.6212785" lon="9.4183165"><ele>213.0</ele><time>2026-03-22T16:35:19.094Z</time></trkpt><trkpt lat="45.6212121" lon="9.4183428"><ele>213.0</ele><time>2026-03-22T16:35:20.094Z</time></trkpt><trkpt lat="45.6211405" lon="9.418356"><ele>213.0</ele><time>2026-03-22T16:35:21.094Z</time></trkpt><trkpt lat="45.6210672" lon="9.4183611"><ele>213.0</ele><time>2026-03-22T16:35:22.094Z</time></trkpt><trkpt lat="45.6210009" lon="9.4183636"><ele>212.99999999999997</ele><time>2026-03-22T16:35:23.094Z</time></trkpt><trkpt lat="45.6209166" lon="9.4183789"><ele>213.0</ele><time>2026-03-22T16:35:24.094Z</time></trkpt><trkpt lat="45.6208514" lon="9.418419"><ele>212.8</ele><time>2026-03-22T16:35:25.093Z</time></trkpt><trkpt lat="45.62075" lon="9.4184911"><ele>212.60000000000002</ele><time>2026-03-22T16:35:27.094Z</time></trkpt><trkpt lat="45.6207179" lon="9.418635"><ele>212.39999999999998</ele><time>2026-03-22T16:35:29.094Z</time></trkpt><trkpt lat="45.6206577" lon="9.4187064"><ele>212.2</ele><time>2026-03-22T16:35:30.094Z</time></trkpt><trkpt lat="45.6206496" lon="9.4188549"><ele>212.0</ele><time>2026-03-22T16:35:32.094Z</time></trkpt><trkpt lat="45.6206676" lon="9.419014"><ele>211.6</ele><time>2026-03-22T16:35:34.094Z</time></trkpt><trkpt lat="45.6206776" lon="9.4191813"><ele>211.2</ele><time>2026-03-22T16:35:36.094Z</time></trkpt><trkpt lat="45.6206905" lon="9.4193494"><ele>210.8</ele><time>2026-03-22T16:35:38.094Z</time></trkpt><trkpt lat="45.6207057" lon="9.4195036"><ele>210.4</ele><time>2026-03-22T16:35:40.094Z</time></trkpt><trkpt lat="45.6207166" lon="9.4196469"><ele>210.0</ele><time>2026-03-22T16:35:42.094Z</time></trkpt><trkpt lat="45.6206927" lon="9.419747"><ele>210.0</ele><time>2026-03-22T16:35:44.094Z</time></trkpt><trkpt lat="45.6206277" lon="9.4198046"><ele>210.0</ele><time>2026-03-22T16:35:46.094Z</time></trkpt><trkpt lat="45.6205354" lon="9.4198128"><ele>210.0</ele><time>2026-03-22T16:35:48.094Z</time></trkpt><trkpt lat="45.6204156" lon="9.4198061"><ele>210.0</ele><time>2026-03-22T16:35:50.094Z</time></trkpt><trkpt lat="45.6202884" lon="9.4198038"><ele>210.0</ele><time>2026-03-22T16:35:52.094Z</time></trkpt><trkpt lat="45.620163" lon="9.4198084"><ele>209.6</ele><time>2026-03-22T16:35:54.094Z</time></trkpt><trkpt lat="45.6200373" lon="9.4198216"><ele>209.2</ele><time>2026-03-22T16:35:56.094Z</time></trkpt><trkpt lat="45.6199048" lon="9.4198211"><ele>208.8</ele><time>2026-03-22T16:35:58.094Z</time></trkpt><trkpt lat="45.6198367" lon="9.4198249"><ele>208.4</ele><time>2026-03-22T16:35:59.094Z</time></trkpt><trkpt lat="45.6197681" lon="9.4198114"><ele>208.0</ele><time>2026-03-22T16:36:00.093Z</time></trkpt><trkpt lat="45.6196988" lon="9.4198115"><ele>208.0</ele><time>2026-03-22T16:36:01.094Z</time></trkpt><trkpt lat="45.6196348" lon="9.4198091"><ele>208.0</ele><time>2026-03-22T16:36:02.094Z</time></trkpt><trkpt lat="45.6195627" lon="9.4198082"><ele>208.0</ele><time>2026-03-22T16:36:03.093Z</time></trkpt><trkpt lat="45.6194944" lon="9.4198083"><ele>208.0</ele><time>2026-03-22T16:36:04.094Z</time></trkpt><trkpt lat="45.6194227" lon="9.4198138"><ele>208.0</ele><time>2026-03-22T16:36:05.094Z</time></trkpt><trkpt lat="45.6193564" lon="9.4198154"><ele>208.0</ele><time>2026-03-22T16:36:06.094Z</time></trkpt><trkpt lat="45.6192832" lon="9.4198226"><ele>208.0</ele><time>2026-03-22T16:36:07.093Z</time></trkpt><trkpt lat="45.619212" lon="9.4198318"><ele>208.14285714285714</ele><time>2026-03-22T16:36:08.094Z</time></trkpt><trkpt lat="45.6191439" lon="9.4198385"><ele>208.2857142857143</ele><time>2026-03-22T16:36:09.093Z</time></trkpt><trkpt lat="45.6190729" lon="9.4198402"><ele>208.42857142857144</ele><time>2026-03-22T16:36:10.094Z</time></trkpt><trkpt lat="45.6190076" lon="9.4198478"><ele>208.57142857142856</ele><time>2026-03-22T16:36:11.094Z</time></trkpt><trkpt lat="45.6189319" lon="9.4198532"><ele>208.71428571428572</ele><time>2026-03-22T16:36:12.094Z</time></trkpt><trkpt lat="45.6188584" lon="9.4198516"><ele>208.85714285714286</ele><time>2026-03-22T16:36:13.094Z</time></trkpt><trkpt lat="45.6187868" lon="9.419849"><ele>209.0</ele><time>2026-03-22T16:36:14.093Z</time></trkpt><trkpt lat="45.6187126" lon="9.4198577"><ele>208.66666666666669</ele><time>2026-03-22T16:36:15.094Z</time></trkpt><trkpt lat="45.6186427" lon="9.4198632"><ele>208.33333333333334</ele><time>2026-03-22T16:36:16.094Z</time></trkpt><trkpt lat="45.6185692" lon="9.4198598"><ele>208.0</ele><time>2026-03-22T16:36:17.094Z</time></trkpt><trkpt lat="45.6184998" lon="9.4198508"><ele>207.66666666666669</ele><time>2026-03-22T16:36:18.094Z</time></trkpt><trkpt lat="45.6184306" lon="9.419849"><ele>207.33333333333334</ele><time>2026-03-22T16:36:19.093Z</time></trkpt><trkpt lat="45.6183112" lon="9.4198464"><ele>207.0</ele><time>2026-03-22T16:36:21.094Z</time></trkpt><trkpt lat="45.6181869" lon="9.4198613"><ele>207.00000000000003</ele><time>2026-03-22T16:36:23.093Z</time></trkpt><trkpt lat="45.6181148" lon="9.4198555"><ele>207.0</ele><time>2026-03-22T16:36:24.094Z</time></trkpt><trkpt lat="45.6180467" lon="9.4198567"><ele>207.0</ele><time>2026-03-22T16:36:25.094Z</time></trkpt><trkpt lat="45.6179748" lon="9.4198552"><ele>207.0</ele><time>2026-03-22T16:36:26.094Z</time></trkpt><trkpt lat="45.6179064" lon="9.4198637"><ele>207.0</ele><time>2026-03-22T16:36:27.094Z</time></trkpt><trkpt lat="45.6178286" lon="9.4198636"><ele>207.00000000000003</ele><time>2026-03-22T16:36:28.094Z</time></trkpt><trkpt lat="45.6177584" lon="9.4198677"><ele>207.0</ele><time>2026-03-22T16:36:29.094Z</time></trkpt><trkpt lat="45.6176844" lon="9.4198605"><ele>206.83333333333334</ele><time>2026-03-22T16:36:30.094Z</time></trkpt><trkpt lat="45.6176107" lon="9.4198531"><ele>206.66666666666669</ele><time>2026-03-22T16:36:31.094Z</time></trkpt><trkpt lat="45.6175387" lon="9.4198456"><ele>206.5</ele><time>2026-03-22T16:36:32.094Z</time></trkpt><trkpt lat="45.6174642" lon="9.4198477"><ele>206.33333333333334</ele><time>2026-03-22T16:36:33.094Z</time></trkpt><trkpt lat="45.6173974" lon="9.4198491"><ele>206.16666666666669</ele><time>2026-03-22T16:36:34.094Z</time></trkpt><trkpt lat="45.6173304" lon="9.419848"><ele>206.0</ele><time>2026-03-22T16:36:35.094Z</time></trkpt><trkpt lat="45.6172025" lon="9.4198509"><ele>206.00000000000003</ele><time>2026-03-22T16:36:37.093Z</time></trkpt><trkpt lat="45.6171294" lon="9.4198376"><ele>206.0</ele><time>2026-03-22T16:36:38.094Z</time></trkpt><trkpt lat="45.6170498" lon="9.419836"><ele>206.0</ele><time>2026-03-22T16:36:39.094Z</time></trkpt><trkpt lat="45.6169761" lon="9.4197217"><ele>206.0</ele><time>2026-03-22T16:36:42.094Z</time></trkpt><trkpt lat="45.616916" lon="9.4195693"><ele>206.00000000000003</ele><time>2026-03-22T16:36:44.094Z</time></trkpt><trkpt lat="45.6169055" lon="9.419479"><ele>206.0</ele><time>2026-03-22T16:36:45.094Z</time></trkpt><trkpt lat="45.6168961" lon="9.4193157"><ele>205.8</ele><time>2026-03-22T16:36:47.094Z</time></trkpt><trkpt lat="45.6168872" lon="9.4192142"><ele>205.60000000000002</ele><time>2026-03-22T16:36:48.094Z</time></trkpt><trkpt lat="45.6168805" lon="9.4191214"><ele>205.4</ele><time>2026-03-22T16:36:49.093Z</time></trkpt><trkpt lat="45.6168779" lon="9.4189539"><ele>205.2</ele><time>2026-03-22T16:36:51.094Z</time></trkpt><trkpt lat="45.6168722" lon="9.4187817"><ele>205.0</ele><time>2026-03-22T16:36:53.094Z</time></trkpt><trkpt lat="45.6168875" lon="9.4186165"><ele>204.8</ele><time>2026-03-22T16:36:55.093Z</time></trkpt><trkpt lat="45.6168747" lon="9.4184466"><ele>204.6</ele><time>2026-03-22T16:36:57.094Z</time></trkpt><trkpt lat="45.61685" lon="9.4183043"><ele>204.39999999999998</ele><time>2026-03-22T16:36:59.094Z</time></trkpt><trkpt lat="45.6167677" lon="9.4182498"><ele>204.2</ele><time>2026-03-22T16:37:01.094Z</time></trkpt><trkpt lat="45.6166655" lon="9.41826"><ele>204.0</ele><time>2026-03-22T16:37:03.094Z</time></trkpt><trkpt lat="45.6165536" lon="9.4182545"><ele>204.0</ele><time>2026-03-22T16:37:05.094Z</time></trkpt><trkpt lat="45.6164375" lon="9.4182252"><ele>204.0</ele><time>2026-03-22T16:37:07.094Z</time></trkpt><trkpt lat="45.6163432" lon="9.4182457"><ele>204.0</ele><time>2026-03-22T16:37:09.094Z</time></trkpt><trkpt lat="45.6162829" lon="9.4182119"><ele>204.0</ele><time>2026-03-22T16:37:10.094Z</time></trkpt><trkpt lat="45.6162198" lon="9.4181717"><ele>204.0</ele><time>2026-03-22T16:37:11.094Z</time></trkpt><trkpt lat="45.6161542" lon="9.4181212"><ele>204.0</ele><time>2026-03-22T16:37:12.094Z</time></trkpt><trkpt lat="45.6160807" lon="9.4181077"><ele>203.79999999999998</ele><time>2026-03-22T16:37:13.094Z</time></trkpt><trkpt lat="45.6159574" lon="9.4181011"><ele>203.6</ele><time>2026-03-22T16:37:15.093Z</time></trkpt><trkpt lat="45.6158436" lon="9.4180857"><ele>203.4</ele><time>2026-03-22T16:37:17.093Z</time></trkpt><trkpt lat="45.6157402" lon="9.4180866"><ele>203.2</ele><time>2026-03-22T16:37:19.094Z</time></trkpt><trkpt lat="45.6156446" lon="9.4181574"><ele>203.0</ele><time>2026-03-22T16:37:21.094Z</time></trkpt><trkpt lat="45.6155802" lon="9.4182791"><ele>203.00000000000003</ele><time>2026-03-22T16:37:23.094Z</time></trkpt><trkpt lat="45.615509" lon="9.4183922"><ele>203.0</ele><time>2026-03-22T16:37:25.094Z</time></trkpt><trkpt lat="45.6154686" lon="9.4184711"><ele>203.0</ele><time>2026-03-22T16:37:27.094Z</time></trkpt><trkpt lat="45.6154305" lon="9.4185491"><ele>203.0</ele><time>2026-03-22T16:37:28.094Z</time></trkpt><trkpt lat="45.6153367" lon="9.4186023"><ele>203.00000000000003</ele><time>2026-03-22T16:37:30.093Z</time></trkpt><trkpt lat="45.6152422" lon="9.4186355"><ele>203.0</ele><time>2026-03-22T16:37:32.094Z</time></trkpt><trkpt lat="45.6151157" lon="9.4186541"><ele>202.83333333333334</ele><time>2026-03-22T16:37:34.094Z</time></trkpt><trkpt lat="45.6150479" lon="9.4186604"><ele>202.66666666666669</ele><time>2026-03-22T16:37:35.094Z</time></trkpt><trkpt lat="45.6149239" lon="9.4186743"><ele>202.5</ele><time>2026-03-22T16:37:37.094Z</time></trkpt><trkpt lat="45.6148488" lon="9.4186735"><ele>202.33333333333331</ele><time>2026-03-22T16:37:38.094Z</time></trkpt><trkpt lat="45.6147839" lon="9.4187018"><ele>202.16666666666666</ele><time>2026-03-22T16:37:39.094Z</time></trkpt><trkpt lat="45.6147037" lon="9.4187129"><ele>202.0</ele><time>2026-03-22T16:37:40.094Z</time></trkpt><trkpt lat="45.6146367" lon="9.41872"><ele>202.0</ele><time>2026-03-22T16:37:41.094Z</time></trkpt><trkpt lat="45.6145091" lon="9.418738"><ele>202.0</ele><time>2026-03-22T16:37:43.094Z</time></trkpt><trkpt lat="45.6144443" lon="9.4187452"><ele>202.0</ele><time>2026-03-22T16:37:44.094Z</time></trkpt><trkpt lat="45.6143751" lon="9.4187566"><ele>202.0</ele><time>2026-03-22T16:37:45.093Z</time></trkpt><trkpt lat="45.6143083" lon="9.418771"><ele>202.0</ele><time>2026-03-22T16:37:46.094Z</time></trkpt><trkpt lat="45.6141818" lon="9.418789"><ele>201.8</ele><time>2026-03-22T16:37:48.094Z</time></trkpt><trkpt lat="45.614113" lon="9.4187974"><ele>201.6</ele><time>2026-03-22T16:37:49.094Z</time></trkpt><trkpt lat="45.613983" lon="9.418816"><ele>201.4</ele><time>2026-03-22T16:37:51.094Z</time></trkpt><trkpt lat="45.6138495" lon="9.4188235"><ele>201.20000000000002</ele><time>2026-03-22T16:37:53.094Z</time></trkpt><trkpt lat="45.6137812" lon="9.4188357"><ele>201.0</ele><time>2026-03-22T16:37:54.094Z</time></trkpt><trkpt lat="45.6137157" lon="9.418842"><ele>200.83333333333334</ele><time>2026-03-22T16:37:55.094Z</time></trkpt><trkpt lat="45.6136493" lon="9.4188521"><ele>200.66666666666669</ele><time>2026-03-22T16:37:56.094Z</time></trkpt><trkpt lat="45.6135842" lon="9.4188614"><ele>200.5</ele><time>2026-03-22T16:37:57.094Z</time></trkpt><trkpt lat="45.6134663" lon="9.4188713"><ele>200.33333333333334</ele><time>2026-03-22T16:37:59.094Z</time></trkpt><trkpt lat="45.6133774" lon="9.4188667"><ele>200.16666666666669</ele><time>2026-03-22T16:38:01.094Z</time></trkpt><trkpt lat="45.6133139" lon="9.4188393"><ele>200.0</ele><time>2026-03-22T16:38:06.094Z</time></trkpt><trkpt lat="45.6132463" lon="9.4187865"><ele>200.0</ele><time>2026-03-22T16:38:09.094Z</time></trkpt><trkpt lat="45.6131458" lon="9.418699"><ele>200.0</ele><time>2026-03-22T16:38:11.094Z</time></trkpt><trkpt lat="45.6130425" lon="9.4186645"><ele>200.0</ele><time>2026-03-22T16:38:13.094Z</time></trkpt><trkpt lat="45.6129394" lon="9.4187079"><ele>200.0</ele><time>2026-03-22T16:38:15.094Z</time></trkpt><trkpt lat="45.6128348" lon="9.4187844"><ele>200.0</ele><time>2026-03-22T16:38:17.094Z</time></trkpt><trkpt lat="45.612778" lon="9.4188742"><ele>200.0</ele><time>2026-03-22T16:38:19.094Z</time></trkpt><trkpt lat="45.6127698" lon="9.4189656"><ele>200.0</ele><time>2026-03-22T16:38:21.094Z</time></trkpt><trkpt lat="45.612711" lon="9.419059"><ele>200.0</ele><time>2026-03-22T16:38:23.094Z</time></trkpt><trkpt lat="45.6126319" lon="9.4190819"><ele>200.0</ele><time>2026-03-22T16:38:25.094Z</time></trkpt><trkpt lat="45.6125233" lon="9.4190752"><ele>200.0</ele><time>2026-03-22T16:38:27.094Z</time></trkpt><trkpt lat="45.6124026" lon="9.4190785"><ele>200.0</ele><time>2026-03-22T16:38:29.094Z</time></trkpt><trkpt lat="45.6122867" lon="9.4190861"><ele>200.0</ele><time>2026-03-22T16:38:31.094Z</time></trkpt><trkpt lat="45.612164" lon="9.4191007"><ele>200.0</ele><time>2026-03-22T16:38:33.094Z</time></trkpt><trkpt lat="45.612099" lon="9.4191024"><ele>200.0</ele><time>2026-03-22T16:38:34.094Z</time></trkpt><trkpt lat="45.611972" lon="9.4191224"><ele>200.0</ele><time>2026-03-22T16:38:36.093Z</time></trkpt><trkpt lat="45.6119062" lon="9.4191306"><ele>199.66666666666669</ele><time>2026-03-22T16:38:37.094Z</time></trkpt><trkpt lat="45.611841" lon="9.4191375"><ele>199.33333333333334</ele><time>2026-03-22T16:38:38.094Z</time></trkpt><trkpt lat="45.6117757" lon="9.4191439"><ele>199.0</ele><time>2026-03-22T16:38:39.093Z</time></trkpt><trkpt lat="45.6117083" lon="9.4191531"><ele>198.66666666666669</ele><time>2026-03-22T16:38:40.094Z</time></trkpt><trkpt lat="45.6116431" lon="9.4191588"><ele>198.33333333333334</ele><time>2026-03-22T16:38:41.094Z</time></trkpt><trkpt lat="45.6115721" lon="9.4191642"><ele>198.0</ele><time>2026-03-22T16:38:42.094Z</time></trkpt><trkpt lat="45.611446" lon="9.419163"><ele>198.0</ele><time>2026-03-22T16:38:44.094Z</time></trkpt><trkpt lat="45.6113819" lon="9.4191731"><ele>198.0</ele><time>2026-03-22T16:38:45.094Z</time></trkpt><trkpt lat="45.6113152" lon="9.4191758"><ele>198.0</ele><time>2026-03-22T16:38:46.094Z</time></trkpt><trkpt lat="45.611189" lon="9.4191848"><ele>198.0</ele><time>2026-03-22T16:38:48.094Z</time></trkpt><trkpt lat="45.6111164" lon="9.419181"><ele>198.0</ele><time>2026-03-22T16:38:49.094Z</time></trkpt><trkpt lat="45.6110461" lon="9.4191876"><ele>198.0</ele><time>2026-03-22T16:38:50.094Z</time></trkpt><trkpt lat="45.6109805" lon="9.4191907"><ele>197.83333333333334</ele><time>2026-03-22T16:38:51.094Z</time></trkpt><trkpt lat="45.6109143" lon="9.4191922"><ele>197.66666666666669</ele><time>2026-03-22T16:38:52.094Z</time></trkpt><trkpt lat="45.6108407" lon="9.4191912"><ele>197.5</ele><time>2026-03-22T16:38:53.094Z</time></trkpt><trkpt lat="45.6107768" lon="9.4191881"><ele>197.33333333333334</ele><time>2026-03-22T16:38:54.094Z</time></trkpt><trkpt lat="45.6106884" lon="9.4192102"><ele>197.16666666666669</ele><time>2026-03-22T16:38:56.094Z</time></trkpt><trkpt lat="45.610679" lon="9.419337"><ele>197.0</ele><time>2026-03-22T16:38:58.094Z</time></trkpt><trkpt lat="45.6106768" lon="9.4194901"><ele>197.00000000000003</ele><time>2026-03-22T16:39:00.094Z</time></trkpt><trkpt lat="45.6106554" lon="9.4196481"><ele>197.0</ele><time>2026-03-22T16:39:02.094Z</time></trkpt><trkpt lat="45.6106555" lon="9.4197396"><ele>197.0</ele><time>2026-03-22T16:39:03.094Z</time></trkpt><trkpt lat="45.6106517" lon="9.4199148"><ele>197.0</ele><time>2026-03-22T16:39:05.094Z</time></trkpt><trkpt lat="45.6106493" lon="9.4200103"><ele>197.00000000000003</ele><time>2026-03-22T16:39:06.094Z</time></trkpt><trkpt lat="45.610656" lon="9.420103"><ele>197.0</ele><time>2026-03-22T16:39:07.094Z</time></trkpt><trkpt lat="45.6106494" lon="9.4202022"><ele>196.83333333333334</ele><time>2026-03-22T16:39:08.094Z</time></trkpt><trkpt lat="45.6106573" lon="9.4202935"><ele>196.66666666666669</ele><time>2026-03-22T16:39:09.094Z</time></trkpt><trkpt lat="45.6106582" lon="9.4203912"><ele>196.5</ele><time>2026-03-22T16:39:10.094Z</time></trkpt><trkpt lat="45.6106616" lon="9.420489"><ele>196.33333333333331</ele><time>2026-03-22T16:39:11.094Z</time></trkpt><trkpt lat="45.6106662" lon="9.4205897"><ele>196.16666666666666</ele><time>2026-03-22T16:39:12.094Z</time></trkpt><trkpt lat="45.6106757" lon="9.4206974"><ele>196.0</ele><time>2026-03-22T16:39:13.094Z</time></trkpt><trkpt lat="45.6106823" lon="9.4208877"><ele>196.0</ele><time>2026-03-22T16:39:15.094Z</time></trkpt><trkpt lat="45.610688" lon="9.420981"><ele>196.0</ele><time>2026-03-22T16:39:16.094Z</time></trkpt><trkpt lat="45.6106856" lon="9.4210842"><ele>196.0</ele><time>2026-03-22T16:39:17.094Z</time></trkpt><trkpt lat="45.6106785" lon="9.4211853"><ele>196.0</ele><time>2026-03-22T16:39:18.094Z</time></trkpt><trkpt lat="45.6106748" lon="9.4212837"><ele>196.0</ele><time>2026-03-22T16:39:19.094Z</time></trkpt><trkpt lat="45.610678" lon="9.4213808"><ele>196.0</ele><time>2026-03-22T16:39:20.094Z</time></trkpt><trkpt lat="45.6106827" lon="9.4214773"><ele>196.0</ele><time>2026-03-22T16:39:21.094Z</time></trkpt><trkpt lat="45.6106783" lon="9.4215687"><ele>196.0</ele><time>2026-03-22T16:39:22.094Z</time></trkpt><trkpt lat="45.6106784" lon="9.4216753"><ele>196.0</ele><time>2026-03-22T16:39:23.094Z</time></trkpt><trkpt lat="45.6106816" lon="9.4217789"><ele>196.0</ele><time>2026-03-22T16:39:24.094Z</time></trkpt><trkpt lat="45.6106822" lon="9.4218784"><ele>196.0</ele><time>2026-03-22T16:39:25.094Z</time></trkpt><trkpt lat="45.610688" lon="9.4219829"><ele>196.0</ele><time>2026-03-22T16:39:26.094Z</time></trkpt><trkpt lat="45.610685" lon="9.4220898"><ele>196.0</ele><time>2026-03-22T16:39:27.094Z</time></trkpt><trkpt lat="45.6106889" lon="9.4222043"><ele>196.0</ele><time>2026-03-22T16:39:28.094Z</time></trkpt><trkpt lat="45.6106861" lon="9.4223036"><ele>196.0</ele><time>2026-03-22T16:39:29.094Z</time></trkpt><trkpt lat="45.6106911" lon="9.4224129"><ele>196.0</ele><time>2026-03-22T16:39:30.094Z</time></trkpt><trkpt lat="45.6106969" lon="9.4225112"><ele>196.0</ele><time>2026-03-22T16:39:31.094Z</time></trkpt><trkpt lat="45.6106953" lon="9.4226272"><ele>196.0</ele><time>2026-03-22T16:39:32.094Z</time></trkpt><trkpt lat="45.6106997" lon="9.4227241"><ele>196.0</ele><time>2026-03-22T16:39:33.094Z</time></trkpt><trkpt lat="45.6106972" lon="9.4228345"><ele>196.0</ele><time>2026-03-22T16:39:34.094Z</time></trkpt><trkpt lat="45.6107028" lon="9.4229337"><ele>196.0</ele><time>2026-03-22T16:39:35.094Z</time></trkpt><trkpt lat="45.6107062" lon="9.4230352"><ele>195.85714285714286</ele><time>2026-03-22T16:39:36.094Z</time></trkpt><trkpt lat="45.6107082" lon="9.4231419"><ele>195.71428571428572</ele><time>2026-03-22T16:39:37.094Z</time></trkpt><trkpt lat="45.6107114" lon="9.4232403"><ele>195.57142857142856</ele><time>2026-03-22T16:39:38.094Z</time></trkpt><trkpt lat="45.6107084" lon="9.4233406"><ele>195.42857142857144</ele><time>2026-03-22T16:39:39.094Z</time></trkpt><trkpt lat="45.6107121" lon="9.4234563"><ele>195.28571428571428</ele><time>2026-03-22T16:39:40.094Z</time></trkpt><trkpt lat="45.6107165" lon="9.4235564"><ele>195.14285714285714</ele><time>2026-03-22T16:39:41.094Z</time></trkpt><trkpt lat="45.6107184" lon="9.4236643"><ele>195.0</ele><time>2026-03-22T16:39:42.094Z</time></trkpt><trkpt lat="45.6107187" lon="9.4237566"><ele>195.14285714285714</ele><time>2026-03-22T16:39:43.094Z</time></trkpt><trkpt lat="45.6107226" lon="9.423857"><ele>195.28571428571428</ele><time>2026-03-22T16:39:44.094Z</time></trkpt><trkpt lat="45.6107208" lon="9.4239587"><ele>195.42857142857144</ele><time>2026-03-22T16:39:45.094Z</time></trkpt><trkpt lat="45.6107233" lon="9.4240597"><ele>195.57142857142856</ele><time>2026-03-22T16:39:46.094Z</time></trkpt><trkpt lat="45.6107272" lon="9.424166"><ele>195.71428571428572</ele><time>2026-03-22T16:39:47.093Z</time></trkpt><trkpt lat="45.6107236" lon="9.4242708"><ele>195.85714285714286</ele><time>2026-03-22T16:39:48.094Z</time></trkpt><trkpt lat="45.6107222" lon="9.4243702"><ele>196.0</ele><time>2026-03-22T16:39:49.094Z</time></trkpt><trkpt lat="45.610721" lon="9.4244689"><ele>196.0</ele><time>2026-03-22T16:39:50.094Z</time></trkpt><trkpt lat="45.6107223" lon="9.424573"><ele>196.0</ele><time>2026-03-22T16:39:51.094Z</time></trkpt><trkpt lat="45.6107266" lon="9.4246717"><ele>196.0</ele><time>2026-03-22T16:39:52.094Z</time></trkpt><trkpt lat="45.6107319" lon="9.4247714"><ele>196.0</ele><time>2026-03-22T16:39:53.094Z</time></trkpt><trkpt lat="45.6107348" lon="9.4248751"><ele>196.0</ele><time>2026-03-22T16:39:54.093Z</time></trkpt><trkpt lat="45.6107383" lon="9.4249803"><ele>196.0</ele><time>2026-03-22T16:39:55.094Z</time></trkpt><trkpt lat="45.6107388" lon="9.4250771"><ele>196.0</ele><time>2026-03-22T16:39:56.094Z</time></trkpt><trkpt lat="45.6107446" lon="9.4251687"><ele>196.20000000000002</ele><time>2026-03-22T16:39:57.094Z</time></trkpt><trkpt lat="45.6107412" lon="9.4253435"><ele>196.4</ele><time>2026-03-22T16:39:59.094Z</time></trkpt><trkpt lat="45.610726" lon="9.4254744"><ele>196.6</ele><time>2026-03-22T16:40:01.094Z</time></trkpt><trkpt lat="45.6106415" lon="9.4255262"><ele>196.8</ele><time>2026-03-22T16:40:04.094Z</time></trkpt><trkpt lat="45.6105616" lon="9.4255249"><ele>197.0</ele><time>2026-03-22T16:40:06.094Z</time></trkpt><trkpt lat="45.6104693" lon="9.4255066"><ele>197.0</ele><time>2026-03-22T16:40:08.094Z</time></trkpt><trkpt lat="45.6103763" lon="9.4254813"><ele>197.0</ele><time>2026-03-22T16:40:10.094Z</time></trkpt><trkpt lat="45.6102712" lon="9.4254595"><ele>197.0</ele><time>2026-03-22T16:40:12.094Z</time></trkpt><trkpt lat="45.6101607" lon="9.4254195"><ele>197.0</ele><time>2026-03-22T16:40:14.094Z</time></trkpt><trkpt lat="45.6100735" lon="9.4253777"><ele>197.0</ele><time>2026-03-22T16:40:16.094Z</time></trkpt><trkpt lat="45.6099756" lon="9.425321"><ele>197.00000000000003</ele><time>2026-03-22T16:40:18.094Z</time></trkpt><trkpt lat="45.6098876" lon="9.4252736"><ele>197.0</ele><time>2026-03-22T16:40:20.094Z</time></trkpt><trkpt lat="45.6098043" lon="9.4252366"><ele>197.0</ele><time>2026-03-22T16:40:22.094Z</time></trkpt><trkpt lat="45.6097083" lon="9.4252394"><ele>197.0</ele><time>2026-03-22T16:40:24.094Z</time></trkpt><trkpt lat="45.6096623" lon="9.4253364"><ele>197.00000000000003</ele><time>2026-03-22T16:40:26.094Z</time></trkpt><trkpt lat="45.6096146" lon="9.425433"><ele>197.0</ele><time>2026-03-22T16:40:28.094Z</time></trkpt><trkpt lat="45.6095656" lon="9.4255419"><ele>197.83333333333334</ele><time>2026-03-22T16:40:30.093Z</time></trkpt><trkpt lat="45.6095522" lon="9.4256359"><ele>198.66666666666669</ele><time>2026-03-22T16:40:32.094Z</time></trkpt><trkpt lat="45.6095371" lon="9.4257618"><ele>199.5</ele><time>2026-03-22T16:40:34.094Z</time></trkpt><trkpt lat="45.6095379" lon="9.425868"><ele>200.33333333333331</ele><time>2026-03-22T16:40:36.094Z</time></trkpt><trkpt lat="45.6095916" lon="9.4259297"><ele>201.16666666666666</ele><time>2026-03-22T16:40:39.094Z</time></trkpt><trkpt lat="45.6096703" lon="9.4259396"><ele>202.0</ele><time>2026-03-22T16:40:41.094Z</time></trkpt><trkpt lat="45.6097411" lon="9.4260094"><ele>202.0</ele><time>2026-03-22T16:40:44.094Z</time></trkpt><trkpt lat="45.609727" lon="9.4261011"><ele>202.0</ele><time>2026-03-22T16:40:46.093Z</time></trkpt><trkpt lat="45.6097066" lon="9.4262235"><ele>202.0</ele><time>2026-03-22T16:40:49.094Z</time></trkpt><trkpt lat="45.6096963" lon="9.4263193"><ele>202.0</ele><time>2026-03-22T16:40:52.094Z</time></trkpt><trkpt lat="45.6096931" lon="9.4264215"><ele>202.0</ele><time>2026-03-22T16:40:56.094Z</time></trkpt><trkpt lat="45.6096839" lon="9.4265226"><ele>202.0</ele><time>2026-03-22T16:41:00.094Z</time></trkpt><trkpt lat="45.6096733" lon="9.4266281"><ele>202.0</ele><time>2026-03-22T16:41:03.094Z</time></trkpt><trkpt lat="45.6096756" lon="9.426757"><ele>202.0</ele><time>2026-03-22T16:41:06.094Z</time></trkpt><trkpt lat="45.6096797" lon="9.4268529"><ele>202.0</ele><time>2026-03-22T16:41:08.094Z</time></trkpt><trkpt lat="45.6096656" lon="9.4269498"><ele>202.0</ele><time>2026-03-22T16:41:10.094Z</time></trkpt><trkpt lat="45.609653" lon="9.4270573"><ele>202.0</ele><time>2026-03-22T16:41:12.093Z</time></trkpt><trkpt lat="45.6096855" lon="9.4271487"><ele>202.0</ele><time>2026-03-22T16:41:15.093Z</time></trkpt><trkpt lat="45.6099283" lon="9.42724"><ele>200.0</ele><time>2026-03-22T16:43:56.614Z</time></trkpt><trkpt lat="45.609971" lon="9.4271667"><ele>200.0</ele><time>2026-03-22T16:44:39.085Z</time></trkpt></trkseg></trk></gpx>